<?xml version="1.0" encoding="UTF-8" standalone="no" ?>
<gpx xmlns="http://www.topografix.com/GPX/1/1" xmlns:xsi="http://www.w3.org/2001/XMLSchema-instance" xsi:schemaLocation="http://www.topografix.com/GPX/1/1 http://www.topografix.com/GPX/1/1/gpx.xsd" version="1.1" creator="VisuGPX - https://www.visugpx.com">
  <metadata>
    <name>20210818 - Devecey Besançon - Retour en train</name>
  </metadata>
  <wpt lat="47.24752" lon="6.02162">
    <ele>280.2</ele>
    <name><![CDATA[Pause à 18/08 à 17:30]]></name>
    <desc><![CDATA[Pause de 7min 23s]]></desc>
  </wpt>
  <wpt lat="47.32766" lon="6.01079">
    <ele>228.1</ele>
    <name><![CDATA[Pause à 18/08 à 18:52]]></name>
  </wpt>
  <wpt lat="47.2819" lon="5.99382">
    <ele>348.8</ele>
    <name><![CDATA[Pause à 18/08 à 15:55]]></name>
    <desc><![CDATA[Pause de 4min 11s]]></desc>
  </wpt>
  <wpt lat="47.28117" lon="5.99308">
    <ele>345.9</ele>
    <name><![CDATA[Pause à 18/08 à 15:57]]></name>
    <desc><![CDATA[Pause de 2min 37s]]></desc>
  </wpt>
  <wpt lat="47.24233" lon="6.02322">
    <ele>244.1</ele>
    <name><![CDATA[Pause à 18/08 à 17:14]]></name>
    <desc><![CDATA[Pause de 2min 9s]]></desc>
  </wpt>
  <wpt lat="47.24718" lon="6.02202">
    <ele>279</ele>
    <name><![CDATA[Pause à 18/08 à 17:26]]></name>
    <desc><![CDATA[Pause de 3min 45s]]></desc>
  </wpt>
  <trk>
    <name><![CDATA[Devecey Besançon]]></name>
    <extensions>
      <line xmlns="http://www.topografix.com/GPX/gpx_style/0/2">
        <color>0000FF</color>
        <width>4</width>
      </line>
    </extensions>
    <trkseg>
      <trkpt lat="47.32791" lon="6.01121">
        <ele>227.3</ele>
        <time>2021-08-18T12:35:37Z</time>
      </trkpt>
      <trkpt lat="47.32793" lon="6.01115">
        <ele>227.4</ele>
        <time>2021-08-18T12:35:54Z</time>
      </trkpt>
      <trkpt lat="47.32795" lon="6.01107">
        <ele>227.6</ele>
        <time>2021-08-18T12:35:59Z</time>
      </trkpt>
      <trkpt lat="47.32795" lon="6.01099">
        <ele>227.7</ele>
        <time>2021-08-18T12:36:03Z</time>
      </trkpt>
      <trkpt lat="47.32796" lon="6.01091">
        <ele>227.9</ele>
        <time>2021-08-18T12:36:07Z</time>
      </trkpt>
      <trkpt lat="47.32796" lon="6.01084">
        <ele>228</ele>
        <time>2021-08-18T12:36:11Z</time>
      </trkpt>
      <trkpt lat="47.32797" lon="6.01076">
        <ele>228.1</ele>
        <time>2021-08-18T12:36:15Z</time>
      </trkpt>
      <trkpt lat="47.32798" lon="6.0107">
        <ele>228.2</ele>
        <time>2021-08-18T12:36:19Z</time>
      </trkpt>
      <trkpt lat="47.32801" lon="6.01064">
        <ele>228.3</ele>
        <time>2021-08-18T12:36:23Z</time>
      </trkpt>
      <trkpt lat="47.32806" lon="6.01059">
        <ele>228.4</ele>
        <time>2021-08-18T12:36:27Z</time>
      </trkpt>
      <trkpt lat="47.3281" lon="6.01055">
        <ele>228.4</ele>
        <time>2021-08-18T12:36:31Z</time>
      </trkpt>
      <trkpt lat="47.32811" lon="6.01047">
        <ele>228.6</ele>
        <time>2021-08-18T12:36:35Z</time>
      </trkpt>
      <trkpt lat="47.3281" lon="6.01039">
        <ele>228.7</ele>
        <time>2021-08-18T12:36:39Z</time>
      </trkpt>
      <trkpt lat="47.32809" lon="6.01031">
        <ele>228.8</ele>
        <time>2021-08-18T12:36:43Z</time>
      </trkpt>
      <trkpt lat="47.32808" lon="6.01024">
        <ele>228.9</ele>
        <time>2021-08-18T12:36:47Z</time>
      </trkpt>
      <trkpt lat="47.32807" lon="6.01016">
        <ele>229.1</ele>
        <time>2021-08-18T12:36:52Z</time>
      </trkpt>
      <trkpt lat="47.32805" lon="6.01009">
        <ele>229.2</ele>
        <time>2021-08-18T12:36:56Z</time>
      </trkpt>
      <trkpt lat="47.32804" lon="6.01002">
        <ele>229.3</ele>
        <time>2021-08-18T12:37:00Z</time>
      </trkpt>
      <trkpt lat="47.32802" lon="6.00995">
        <ele>229.5</ele>
        <time>2021-08-18T12:37:04Z</time>
      </trkpt>
      <trkpt lat="47.32801" lon="6.00988">
        <ele>229.8</ele>
        <time>2021-08-18T12:37:08Z</time>
      </trkpt>
      <trkpt lat="47.32799" lon="6.00981">
        <ele>230.1</ele>
        <time>2021-08-18T12:37:12Z</time>
      </trkpt>
      <trkpt lat="47.32798" lon="6.00974">
        <ele>230.3</ele>
        <time>2021-08-18T12:37:16Z</time>
      </trkpt>
      <trkpt lat="47.32795" lon="6.00967">
        <ele>230.6</ele>
        <time>2021-08-18T12:37:20Z</time>
      </trkpt>
      <trkpt lat="47.32793" lon="6.0096">
        <ele>230.9</ele>
        <time>2021-08-18T12:37:25Z</time>
      </trkpt>
      <trkpt lat="47.32793" lon="6.00953">
        <ele>231.2</ele>
        <time>2021-08-18T12:37:29Z</time>
      </trkpt>
      <trkpt lat="47.32792" lon="6.00946">
        <ele>231.4</ele>
        <time>2021-08-18T12:37:33Z</time>
      </trkpt>
      <trkpt lat="47.32791" lon="6.00939">
        <ele>231.7</ele>
        <time>2021-08-18T12:37:38Z</time>
      </trkpt>
      <trkpt lat="47.3279" lon="6.00932">
        <ele>232</ele>
        <time>2021-08-18T12:37:43Z</time>
      </trkpt>
      <trkpt lat="47.32788" lon="6.00925">
        <ele>232.3</ele>
        <time>2021-08-18T12:37:47Z</time>
      </trkpt>
      <trkpt lat="47.32785" lon="6.00919">
        <ele>232.7</ele>
        <time>2021-08-18T12:37:51Z</time>
      </trkpt>
      <trkpt lat="47.32783" lon="6.00912">
        <ele>232.9</ele>
        <time>2021-08-18T12:37:55Z</time>
      </trkpt>
      <trkpt lat="47.32781" lon="6.00905">
        <ele>233</ele>
        <time>2021-08-18T12:38:00Z</time>
      </trkpt>
      <trkpt lat="47.3278" lon="6.00897">
        <ele>233.2</ele>
        <time>2021-08-18T12:38:04Z</time>
      </trkpt>
      <trkpt lat="47.32777" lon="6.00891">
        <ele>233.3</ele>
        <time>2021-08-18T12:38:07Z</time>
      </trkpt>
      <trkpt lat="47.32774" lon="6.00885">
        <ele>233.5</ele>
        <time>2021-08-18T12:38:10Z</time>
      </trkpt>
      <trkpt lat="47.3277" lon="6.0088">
        <ele>233.6</ele>
        <time>2021-08-18T12:38:14Z</time>
      </trkpt>
      <trkpt lat="47.32766" lon="6.00876">
        <ele>233.7</ele>
        <time>2021-08-18T12:38:18Z</time>
      </trkpt>
      <trkpt lat="47.32763" lon="6.0087">
        <ele>233.8</ele>
        <time>2021-08-18T12:38:22Z</time>
      </trkpt>
      <trkpt lat="47.3276" lon="6.00863">
        <ele>233.9</ele>
        <time>2021-08-18T12:38:26Z</time>
      </trkpt>
      <trkpt lat="47.32756" lon="6.00858">
        <ele>233.9</ele>
        <time>2021-08-18T12:38:29Z</time>
      </trkpt>
      <trkpt lat="47.32754" lon="6.00853">
        <ele>234</ele>
        <time>2021-08-18T12:38:33Z</time>
      </trkpt>
      <trkpt lat="47.32749" lon="6.00853">
        <ele>234</ele>
        <time>2021-08-18T12:38:37Z</time>
      </trkpt>
      <trkpt lat="47.32745" lon="6.00857">
        <ele>233.9</ele>
        <time>2021-08-18T12:38:40Z</time>
      </trkpt>
      <trkpt lat="47.3274" lon="6.00859">
        <ele>233.8</ele>
        <time>2021-08-18T12:38:43Z</time>
      </trkpt>
      <trkpt lat="47.32737" lon="6.00856">
        <ele>233.8</ele>
        <time>2021-08-18T12:38:46Z</time>
      </trkpt>
      <trkpt lat="47.32733" lon="6.00851">
        <ele>233.7</ele>
        <time>2021-08-18T12:38:49Z</time>
      </trkpt>
      <trkpt lat="47.32729" lon="6.00846">
        <ele>233.7</ele>
        <time>2021-08-18T12:38:52Z</time>
      </trkpt>
      <trkpt lat="47.32727" lon="6.0084">
        <ele>233.7</ele>
        <time>2021-08-18T12:38:57Z</time>
      </trkpt>
      <trkpt lat="47.32722" lon="6.00835">
        <ele>233.7</ele>
        <time>2021-08-18T12:39:01Z</time>
      </trkpt>
      <trkpt lat="47.32718" lon="6.00831">
        <ele>233.7</ele>
        <time>2021-08-18T12:39:05Z</time>
      </trkpt>
      <trkpt lat="47.32713" lon="6.00827">
        <ele>233.7</ele>
        <time>2021-08-18T12:39:09Z</time>
      </trkpt>
      <trkpt lat="47.32709" lon="6.00822">
        <ele>233.7</ele>
        <time>2021-08-18T12:39:13Z</time>
      </trkpt>
      <trkpt lat="47.32704" lon="6.00818">
        <ele>233.7</ele>
        <time>2021-08-18T12:39:18Z</time>
      </trkpt>
      <trkpt lat="47.327" lon="6.00814">
        <ele>233.8</ele>
        <time>2021-08-18T12:39:22Z</time>
      </trkpt>
      <trkpt lat="47.32697" lon="6.00809">
        <ele>233.8</ele>
        <time>2021-08-18T12:39:25Z</time>
      </trkpt>
      <trkpt lat="47.32694" lon="6.00804">
        <ele>233.9</ele>
        <time>2021-08-18T12:39:29Z</time>
      </trkpt>
      <trkpt lat="47.32689" lon="6.008">
        <ele>234</ele>
        <time>2021-08-18T12:39:33Z</time>
      </trkpt>
      <trkpt lat="47.32684" lon="6.00796">
        <ele>234</ele>
        <time>2021-08-18T12:39:37Z</time>
      </trkpt>
      <trkpt lat="47.3268" lon="6.00792">
        <ele>234.1</ele>
        <time>2021-08-18T12:39:42Z</time>
      </trkpt>
      <trkpt lat="47.32676" lon="6.00789">
        <ele>234.1</ele>
        <time>2021-08-18T12:39:46Z</time>
      </trkpt>
      <trkpt lat="47.32671" lon="6.00785">
        <ele>234.2</ele>
        <time>2021-08-18T12:39:50Z</time>
      </trkpt>
      <trkpt lat="47.32667" lon="6.00781">
        <ele>234.3</ele>
        <time>2021-08-18T12:39:54Z</time>
      </trkpt>
      <trkpt lat="47.32662" lon="6.00776">
        <ele>234.4</ele>
        <time>2021-08-18T12:39:58Z</time>
      </trkpt>
      <trkpt lat="47.32659" lon="6.00771">
        <ele>234.6</ele>
        <time>2021-08-18T12:40:02Z</time>
      </trkpt>
      <trkpt lat="47.32653" lon="6.00769">
        <ele>234.7</ele>
        <time>2021-08-18T12:40:06Z</time>
      </trkpt>
      <trkpt lat="47.32647" lon="6.00769">
        <ele>234.8</ele>
        <time>2021-08-18T12:40:10Z</time>
      </trkpt>
      <trkpt lat="47.32642" lon="6.00768">
        <ele>234.9</ele>
        <time>2021-08-18T12:40:15Z</time>
      </trkpt>
      <trkpt lat="47.32639" lon="6.00764">
        <ele>235</ele>
        <time>2021-08-18T12:40:20Z</time>
      </trkpt>
      <trkpt lat="47.32634" lon="6.00758">
        <ele>235.2</ele>
        <time>2021-08-18T12:40:24Z</time>
      </trkpt>
      <trkpt lat="47.32631" lon="6.00752">
        <ele>235.4</ele>
        <time>2021-08-18T12:40:29Z</time>
      </trkpt>
      <trkpt lat="47.32627" lon="6.00748">
        <ele>235.5</ele>
        <time>2021-08-18T12:40:32Z</time>
      </trkpt>
      <trkpt lat="47.32622" lon="6.00744">
        <ele>235.5</ele>
        <time>2021-08-18T12:40:35Z</time>
      </trkpt>
      <trkpt lat="47.32618" lon="6.0074">
        <ele>235.6</ele>
        <time>2021-08-18T12:40:38Z</time>
      </trkpt>
      <trkpt lat="47.32615" lon="6.00736">
        <ele>235.7</ele>
        <time>2021-08-18T12:40:41Z</time>
      </trkpt>
      <trkpt lat="47.3261" lon="6.00732">
        <ele>235.8</ele>
        <time>2021-08-18T12:40:44Z</time>
      </trkpt>
      <trkpt lat="47.32606" lon="6.00727">
        <ele>235.9</ele>
        <time>2021-08-18T12:40:47Z</time>
      </trkpt>
      <trkpt lat="47.32601" lon="6.00723">
        <ele>236</ele>
        <time>2021-08-18T12:40:50Z</time>
      </trkpt>
      <trkpt lat="47.32598" lon="6.00719">
        <ele>236.1</ele>
        <time>2021-08-18T12:40:53Z</time>
      </trkpt>
      <trkpt lat="47.32594" lon="6.00714">
        <ele>236.2</ele>
        <time>2021-08-18T12:40:56Z</time>
      </trkpt>
      <trkpt lat="47.32589" lon="6.00712">
        <ele>236.3</ele>
        <time>2021-08-18T12:41:00Z</time>
      </trkpt>
      <trkpt lat="47.32584" lon="6.00709">
        <ele>236.5</ele>
        <time>2021-08-18T12:41:04Z</time>
      </trkpt>
      <trkpt lat="47.32579" lon="6.00705">
        <ele>236.6</ele>
        <time>2021-08-18T12:41:08Z</time>
      </trkpt>
      <trkpt lat="47.32576" lon="6.00701">
        <ele>236.6</ele>
        <time>2021-08-18T12:41:12Z</time>
      </trkpt>
      <trkpt lat="47.32571" lon="6.00696">
        <ele>236.7</ele>
        <time>2021-08-18T12:41:16Z</time>
      </trkpt>
      <trkpt lat="47.32567" lon="6.00691">
        <ele>236.8</ele>
        <time>2021-08-18T12:41:21Z</time>
      </trkpt>
      <trkpt lat="47.32563" lon="6.00688">
        <ele>236.9</ele>
        <time>2021-08-18T12:41:25Z</time>
      </trkpt>
      <trkpt lat="47.32559" lon="6.00683">
        <ele>237</ele>
        <time>2021-08-18T12:41:29Z</time>
      </trkpt>
      <trkpt lat="47.32556" lon="6.00678">
        <ele>237.1</ele>
        <time>2021-08-18T12:41:32Z</time>
      </trkpt>
      <trkpt lat="47.32552" lon="6.00673">
        <ele>237.3</ele>
        <time>2021-08-18T12:41:36Z</time>
      </trkpt>
      <trkpt lat="47.32548" lon="6.00667">
        <ele>237.4</ele>
        <time>2021-08-18T12:41:40Z</time>
      </trkpt>
      <trkpt lat="47.32544" lon="6.00663">
        <ele>237.4</ele>
        <time>2021-08-18T12:41:44Z</time>
      </trkpt>
      <trkpt lat="47.32541" lon="6.00659">
        <ele>237.4</ele>
        <time>2021-08-18T12:41:48Z</time>
      </trkpt>
      <trkpt lat="47.32537" lon="6.00655">
        <ele>237.4</ele>
        <time>2021-08-18T12:41:52Z</time>
      </trkpt>
      <trkpt lat="47.32532" lon="6.00652">
        <ele>237.5</ele>
        <time>2021-08-18T12:41:56Z</time>
      </trkpt>
      <trkpt lat="47.32527" lon="6.00649">
        <ele>237.5</ele>
        <time>2021-08-18T12:42:00Z</time>
      </trkpt>
      <trkpt lat="47.32523" lon="6.00647">
        <ele>237.6</ele>
        <time>2021-08-18T12:42:04Z</time>
      </trkpt>
      <trkpt lat="47.32518" lon="6.00645">
        <ele>237.7</ele>
        <time>2021-08-18T12:42:08Z</time>
      </trkpt>
      <trkpt lat="47.32513" lon="6.00642">
        <ele>237.8</ele>
        <time>2021-08-18T12:42:12Z</time>
      </trkpt>
      <trkpt lat="47.3251" lon="6.00638">
        <ele>237.8</ele>
        <time>2021-08-18T12:42:16Z</time>
      </trkpt>
      <trkpt lat="47.32505" lon="6.00632">
        <ele>237.9</ele>
        <time>2021-08-18T12:42:20Z</time>
      </trkpt>
      <trkpt lat="47.32501" lon="6.00629">
        <ele>238</ele>
        <time>2021-08-18T12:42:23Z</time>
      </trkpt>
      <trkpt lat="47.32496" lon="6.00625">
        <ele>238.1</ele>
        <time>2021-08-18T12:42:27Z</time>
      </trkpt>
      <trkpt lat="47.32491" lon="6.00621">
        <ele>238.2</ele>
        <time>2021-08-18T12:42:31Z</time>
      </trkpt>
      <trkpt lat="47.32487" lon="6.00617">
        <ele>238.4</ele>
        <time>2021-08-18T12:42:35Z</time>
      </trkpt>
      <trkpt lat="47.32482" lon="6.00615">
        <ele>238.5</ele>
        <time>2021-08-18T12:42:39Z</time>
      </trkpt>
      <trkpt lat="47.32477" lon="6.00612">
        <ele>238.7</ele>
        <time>2021-08-18T12:42:43Z</time>
      </trkpt>
      <trkpt lat="47.32473" lon="6.00609">
        <ele>238.9</ele>
        <time>2021-08-18T12:42:47Z</time>
      </trkpt>
      <trkpt lat="47.32469" lon="6.00605">
        <ele>239.1</ele>
        <time>2021-08-18T12:42:51Z</time>
      </trkpt>
      <trkpt lat="47.32465" lon="6.00599">
        <ele>239.4</ele>
        <time>2021-08-18T12:42:56Z</time>
      </trkpt>
      <trkpt lat="47.32461" lon="6.00595">
        <ele>239.6</ele>
        <time>2021-08-18T12:43:00Z</time>
      </trkpt>
      <trkpt lat="47.32457" lon="6.00592">
        <ele>239.8</ele>
        <time>2021-08-18T12:43:04Z</time>
      </trkpt>
      <trkpt lat="47.32453" lon="6.00587">
        <ele>240.2</ele>
        <time>2021-08-18T12:43:08Z</time>
      </trkpt>
      <trkpt lat="47.32448" lon="6.00582">
        <ele>240.5</ele>
        <time>2021-08-18T12:43:14Z</time>
      </trkpt>
      <trkpt lat="47.32444" lon="6.00579">
        <ele>240.7</ele>
        <time>2021-08-18T12:43:18Z</time>
      </trkpt>
      <trkpt lat="47.3244" lon="6.00575">
        <ele>240.9</ele>
        <time>2021-08-18T12:43:22Z</time>
      </trkpt>
      <trkpt lat="47.32435" lon="6.00573">
        <ele>241.1</ele>
        <time>2021-08-18T12:43:26Z</time>
      </trkpt>
      <trkpt lat="47.32431" lon="6.00569">
        <ele>241.3</ele>
        <time>2021-08-18T12:43:30Z</time>
      </trkpt>
      <trkpt lat="47.32426" lon="6.00566">
        <ele>241.6</ele>
        <time>2021-08-18T12:43:34Z</time>
      </trkpt>
      <trkpt lat="47.32421" lon="6.00562">
        <ele>241.8</ele>
        <time>2021-08-18T12:43:38Z</time>
      </trkpt>
      <trkpt lat="47.32417" lon="6.00558">
        <ele>242</ele>
        <time>2021-08-18T12:43:42Z</time>
      </trkpt>
      <trkpt lat="47.32413" lon="6.00554">
        <ele>242</ele>
        <time>2021-08-18T12:43:46Z</time>
      </trkpt>
      <trkpt lat="47.32408" lon="6.00552">
        <ele>242.1</ele>
        <time>2021-08-18T12:43:50Z</time>
      </trkpt>
      <trkpt lat="47.32404" lon="6.00549">
        <ele>242.2</ele>
        <time>2021-08-18T12:43:54Z</time>
      </trkpt>
      <trkpt lat="47.32399" lon="6.00544">
        <ele>242.3</ele>
        <time>2021-08-18T12:43:58Z</time>
      </trkpt>
      <trkpt lat="47.32396" lon="6.0054">
        <ele>242.4</ele>
        <time>2021-08-18T12:44:02Z</time>
      </trkpt>
      <trkpt lat="47.32391" lon="6.00538">
        <ele>242.5</ele>
        <time>2021-08-18T12:44:06Z</time>
      </trkpt>
      <trkpt lat="47.32386" lon="6.00535">
        <ele>242.6</ele>
        <time>2021-08-18T12:44:10Z</time>
      </trkpt>
      <trkpt lat="47.32381" lon="6.00532">
        <ele>242.8</ele>
        <time>2021-08-18T12:44:14Z</time>
      </trkpt>
      <trkpt lat="47.32377" lon="6.00528">
        <ele>242.9</ele>
        <time>2021-08-18T12:44:18Z</time>
      </trkpt>
      <trkpt lat="47.32374" lon="6.00522">
        <ele>243.1</ele>
        <time>2021-08-18T12:44:22Z</time>
      </trkpt>
      <trkpt lat="47.32371" lon="6.00516">
        <ele>243.3</ele>
        <time>2021-08-18T12:44:26Z</time>
      </trkpt>
      <trkpt lat="47.32367" lon="6.00511">
        <ele>243.6</ele>
        <time>2021-08-18T12:44:30Z</time>
      </trkpt>
      <trkpt lat="47.32364" lon="6.00507">
        <ele>243.7</ele>
        <time>2021-08-18T12:44:34Z</time>
      </trkpt>
      <trkpt lat="47.3236" lon="6.00502">
        <ele>244</ele>
        <time>2021-08-18T12:44:38Z</time>
      </trkpt>
      <trkpt lat="47.32356" lon="6.00499">
        <ele>244.2</ele>
        <time>2021-08-18T12:44:42Z</time>
      </trkpt>
      <trkpt lat="47.32352" lon="6.00494">
        <ele>244.2</ele>
        <time>2021-08-18T12:44:46Z</time>
      </trkpt>
      <trkpt lat="47.32349" lon="6.0049">
        <ele>244.3</ele>
        <time>2021-08-18T12:44:50Z</time>
      </trkpt>
      <trkpt lat="47.32345" lon="6.00486">
        <ele>244.4</ele>
        <time>2021-08-18T12:44:54Z</time>
      </trkpt>
      <trkpt lat="47.32341" lon="6.00481">
        <ele>244.5</ele>
        <time>2021-08-18T12:44:58Z</time>
      </trkpt>
      <trkpt lat="47.32337" lon="6.00477">
        <ele>244.6</ele>
        <time>2021-08-18T12:45:02Z</time>
      </trkpt>
      <trkpt lat="47.32333" lon="6.00472">
        <ele>244.7</ele>
        <time>2021-08-18T12:45:06Z</time>
      </trkpt>
      <trkpt lat="47.32329" lon="6.00468">
        <ele>244.7</ele>
        <time>2021-08-18T12:45:10Z</time>
      </trkpt>
      <trkpt lat="47.32324" lon="6.00466">
        <ele>244.7</ele>
        <time>2021-08-18T12:45:15Z</time>
      </trkpt>
      <trkpt lat="47.3232" lon="6.00461">
        <ele>244.7</ele>
        <time>2021-08-18T12:45:19Z</time>
      </trkpt>
      <trkpt lat="47.32317" lon="6.00456">
        <ele>244.7</ele>
        <time>2021-08-18T12:45:23Z</time>
      </trkpt>
      <trkpt lat="47.32313" lon="6.0045">
        <ele>244.6</ele>
        <time>2021-08-18T12:45:27Z</time>
      </trkpt>
      <trkpt lat="47.32307" lon="6.00447">
        <ele>244.7</ele>
        <time>2021-08-18T12:45:31Z</time>
      </trkpt>
      <trkpt lat="47.32303" lon="6.00444">
        <ele>244.7</ele>
        <time>2021-08-18T12:45:35Z</time>
      </trkpt>
      <trkpt lat="47.32298" lon="6.00442">
        <ele>244.7</ele>
        <time>2021-08-18T12:45:39Z</time>
      </trkpt>
      <trkpt lat="47.32294" lon="6.00439">
        <ele>244.7</ele>
        <time>2021-08-18T12:45:44Z</time>
      </trkpt>
      <trkpt lat="47.3229" lon="6.00435">
        <ele>244.7</ele>
        <time>2021-08-18T12:45:49Z</time>
      </trkpt>
      <trkpt lat="47.32287" lon="6.0043">
        <ele>244.7</ele>
        <time>2021-08-18T12:45:54Z</time>
      </trkpt>
      <trkpt lat="47.32283" lon="6.00427">
        <ele>244.7</ele>
        <time>2021-08-18T12:45:58Z</time>
      </trkpt>
      <trkpt lat="47.32279" lon="6.00423">
        <ele>244.7</ele>
        <time>2021-08-18T12:46:02Z</time>
      </trkpt>
      <trkpt lat="47.32275" lon="6.00418">
        <ele>244.7</ele>
        <time>2021-08-18T12:46:06Z</time>
      </trkpt>
      <trkpt lat="47.3227" lon="6.00413">
        <ele>244.7</ele>
        <time>2021-08-18T12:46:10Z</time>
      </trkpt>
      <trkpt lat="47.32267" lon="6.00409">
        <ele>244.8</ele>
        <time>2021-08-18T12:46:13Z</time>
      </trkpt>
      <trkpt lat="47.32262" lon="6.00404">
        <ele>244.9</ele>
        <time>2021-08-18T12:46:16Z</time>
      </trkpt>
      <trkpt lat="47.32258" lon="6.004">
        <ele>245</ele>
        <time>2021-08-18T12:46:19Z</time>
      </trkpt>
      <trkpt lat="47.32253" lon="6.00396">
        <ele>245.1</ele>
        <time>2021-08-18T12:46:23Z</time>
      </trkpt>
      <trkpt lat="47.32248" lon="6.00392">
        <ele>245.5</ele>
        <time>2021-08-18T12:46:27Z</time>
      </trkpt>
      <trkpt lat="47.32243" lon="6.00388">
        <ele>246</ele>
        <time>2021-08-18T12:46:31Z</time>
      </trkpt>
      <trkpt lat="47.32237" lon="6.00384">
        <ele>246.5</ele>
        <time>2021-08-18T12:46:35Z</time>
      </trkpt>
      <trkpt lat="47.32233" lon="6.0038">
        <ele>247</ele>
        <time>2021-08-18T12:46:39Z</time>
      </trkpt>
      <trkpt lat="47.32229" lon="6.00376">
        <ele>247.4</ele>
        <time>2021-08-18T12:46:44Z</time>
      </trkpt>
      <trkpt lat="47.32225" lon="6.00372">
        <ele>247.8</ele>
        <time>2021-08-18T12:46:48Z</time>
      </trkpt>
      <trkpt lat="47.32221" lon="6.00369">
        <ele>248.2</ele>
        <time>2021-08-18T12:46:52Z</time>
      </trkpt>
      <trkpt lat="47.32217" lon="6.00364">
        <ele>248.7</ele>
        <time>2021-08-18T12:46:57Z</time>
      </trkpt>
      <trkpt lat="47.32214" lon="6.00359">
        <ele>249</ele>
        <time>2021-08-18T12:47:02Z</time>
      </trkpt>
      <trkpt lat="47.32209" lon="6.00355">
        <ele>249.5</ele>
        <time>2021-08-18T12:47:07Z</time>
      </trkpt>
      <trkpt lat="47.32205" lon="6.00351">
        <ele>250</ele>
        <time>2021-08-18T12:47:11Z</time>
      </trkpt>
      <trkpt lat="47.32201" lon="6.00346">
        <ele>250.5</ele>
        <time>2021-08-18T12:47:16Z</time>
      </trkpt>
      <trkpt lat="47.32198" lon="6.00341">
        <ele>250.8</ele>
        <time>2021-08-18T12:47:21Z</time>
      </trkpt>
      <trkpt lat="47.32193" lon="6.00337">
        <ele>251.4</ele>
        <time>2021-08-18T12:47:26Z</time>
      </trkpt>
      <trkpt lat="47.32188" lon="6.00334">
        <ele>251.9</ele>
        <time>2021-08-18T12:47:30Z</time>
      </trkpt>
      <trkpt lat="47.32184" lon="6.00331">
        <ele>252.3</ele>
        <time>2021-08-18T12:47:34Z</time>
      </trkpt>
      <trkpt lat="47.3218" lon="6.00327">
        <ele>252.7</ele>
        <time>2021-08-18T12:47:38Z</time>
      </trkpt>
      <trkpt lat="47.32177" lon="6.00322">
        <ele>252.9</ele>
        <time>2021-08-18T12:47:42Z</time>
      </trkpt>
      <trkpt lat="47.32173" lon="6.00318">
        <ele>253.3</ele>
        <time>2021-08-18T12:47:46Z</time>
      </trkpt>
      <trkpt lat="47.32169" lon="6.00314">
        <ele>253.8</ele>
        <time>2021-08-18T12:47:50Z</time>
      </trkpt>
      <trkpt lat="47.32165" lon="6.0031">
        <ele>254.1</ele>
        <time>2021-08-18T12:47:54Z</time>
      </trkpt>
      <trkpt lat="47.32161" lon="6.00306">
        <ele>254.3</ele>
        <time>2021-08-18T12:47:59Z</time>
      </trkpt>
      <trkpt lat="47.32157" lon="6.00302">
        <ele>254.6</ele>
        <time>2021-08-18T12:48:04Z</time>
      </trkpt>
      <trkpt lat="47.32153" lon="6.00299">
        <ele>254.9</ele>
        <time>2021-08-18T12:48:09Z</time>
      </trkpt>
      <trkpt lat="47.32149" lon="6.00295">
        <ele>255.1</ele>
        <time>2021-08-18T12:48:15Z</time>
      </trkpt>
      <trkpt lat="47.32145" lon="6.00291">
        <ele>255.4</ele>
        <time>2021-08-18T12:48:19Z</time>
      </trkpt>
      <trkpt lat="47.32141" lon="6.00286">
        <ele>255.8</ele>
        <time>2021-08-18T12:48:23Z</time>
      </trkpt>
      <trkpt lat="47.32137" lon="6.00281">
        <ele>256.1</ele>
        <time>2021-08-18T12:48:27Z</time>
      </trkpt>
      <trkpt lat="47.32133" lon="6.00276">
        <ele>256.4</ele>
        <time>2021-08-18T12:48:31Z</time>
      </trkpt>
      <trkpt lat="47.3213" lon="6.00269">
        <ele>256.8</ele>
        <time>2021-08-18T12:48:36Z</time>
      </trkpt>
      <trkpt lat="47.32129" lon="6.00263">
        <ele>257</ele>
        <time>2021-08-18T12:48:40Z</time>
      </trkpt>
      <trkpt lat="47.32126" lon="6.00257">
        <ele>257.3</ele>
        <time>2021-08-18T12:48:44Z</time>
      </trkpt>
      <trkpt lat="47.32125" lon="6.0025">
        <ele>257.5</ele>
        <time>2021-08-18T12:48:48Z</time>
      </trkpt>
      <trkpt lat="47.32123" lon="6.00244">
        <ele>257.8</ele>
        <time>2021-08-18T12:48:52Z</time>
      </trkpt>
      <trkpt lat="47.32121" lon="6.00237">
        <ele>258.1</ele>
        <time>2021-08-18T12:48:56Z</time>
      </trkpt>
      <trkpt lat="47.32119" lon="6.00229">
        <ele>258.5</ele>
        <time>2021-08-18T12:49:00Z</time>
      </trkpt>
      <trkpt lat="47.32118" lon="6.00222">
        <ele>258.8</ele>
        <time>2021-08-18T12:49:04Z</time>
      </trkpt>
      <trkpt lat="47.32116" lon="6.00215">
        <ele>259.1</ele>
        <time>2021-08-18T12:49:08Z</time>
      </trkpt>
      <trkpt lat="47.32114" lon="6.00207">
        <ele>259.5</ele>
        <time>2021-08-18T12:49:12Z</time>
      </trkpt>
      <trkpt lat="47.32113" lon="6.00201">
        <ele>259.7</ele>
        <time>2021-08-18T12:49:16Z</time>
      </trkpt>
      <trkpt lat="47.32111" lon="6.00195">
        <ele>260</ele>
        <time>2021-08-18T12:49:20Z</time>
      </trkpt>
      <trkpt lat="47.3211" lon="6.00187">
        <ele>260.3</ele>
        <time>2021-08-18T12:49:25Z</time>
      </trkpt>
      <trkpt lat="47.32108" lon="6.0018">
        <ele>260.6</ele>
        <time>2021-08-18T12:49:29Z</time>
      </trkpt>
      <trkpt lat="47.32106" lon="6.00173">
        <ele>260.9</ele>
        <time>2021-08-18T12:49:33Z</time>
      </trkpt>
      <trkpt lat="47.32105" lon="6.00167">
        <ele>261.2</ele>
        <time>2021-08-18T12:49:37Z</time>
      </trkpt>
      <trkpt lat="47.32103" lon="6.0016">
        <ele>261.2</ele>
        <time>2021-08-18T12:49:41Z</time>
      </trkpt>
      <trkpt lat="47.321" lon="6.00153">
        <ele>261.4</ele>
        <time>2021-08-18T12:49:45Z</time>
      </trkpt>
      <trkpt lat="47.32098" lon="6.00147">
        <ele>261.5</ele>
        <time>2021-08-18T12:49:49Z</time>
      </trkpt>
      <trkpt lat="47.32096" lon="6.0014">
        <ele>261.6</ele>
        <time>2021-08-18T12:49:53Z</time>
      </trkpt>
      <trkpt lat="47.32094" lon="6.00133">
        <ele>261.6</ele>
        <time>2021-08-18T12:49:57Z</time>
      </trkpt>
      <trkpt lat="47.32092" lon="6.00126">
        <ele>261.7</ele>
        <time>2021-08-18T12:50:02Z</time>
      </trkpt>
      <trkpt lat="47.32087" lon="6.00114">
        <ele>262</ele>
        <time>2021-08-18T12:50:10Z</time>
      </trkpt>
      <trkpt lat="47.32081" lon="6.00103">
        <ele>262.4</ele>
        <time>2021-08-18T12:50:18Z</time>
      </trkpt>
      <trkpt lat="47.32076" lon="6.00089">
        <ele>262.6</ele>
        <time>2021-08-18T12:50:26Z</time>
      </trkpt>
      <trkpt lat="47.32068" lon="6.00077">
        <ele>262.9</ele>
        <time>2021-08-18T12:50:34Z</time>
      </trkpt>
      <trkpt lat="47.32062" lon="6.00065">
        <ele>263</ele>
        <time>2021-08-18T12:50:42Z</time>
      </trkpt>
      <trkpt lat="47.32055" lon="6.00055">
        <ele>263.2</ele>
        <time>2021-08-18T12:50:51Z</time>
      </trkpt>
      <trkpt lat="47.32048" lon="6.00045">
        <ele>263.4</ele>
        <time>2021-08-18T12:50:59Z</time>
      </trkpt>
      <trkpt lat="47.32041" lon="6.00033">
        <ele>263.5</ele>
        <time>2021-08-18T12:51:07Z</time>
      </trkpt>
      <trkpt lat="47.32034" lon="6.00024">
        <ele>263.7</ele>
        <time>2021-08-18T12:51:15Z</time>
      </trkpt>
      <trkpt lat="47.32026" lon="6.00015">
        <ele>263.9</ele>
        <time>2021-08-18T12:51:23Z</time>
      </trkpt>
      <trkpt lat="47.32018" lon="6.00008">
        <ele>264.2</ele>
        <time>2021-08-18T12:51:31Z</time>
      </trkpt>
      <trkpt lat="47.32008" lon="6.00002">
        <ele>264.6</ele>
        <time>2021-08-18T12:51:39Z</time>
      </trkpt>
      <trkpt lat="47.31998" lon="5.99995">
        <ele>264.7</ele>
        <time>2021-08-18T12:51:48Z</time>
      </trkpt>
      <trkpt lat="47.31988" lon="5.99991">
        <ele>264.6</ele>
        <time>2021-08-18T12:51:58Z</time>
      </trkpt>
      <trkpt lat="47.31978" lon="5.99986">
        <ele>264.5</ele>
        <time>2021-08-18T12:52:08Z</time>
      </trkpt>
      <trkpt lat="47.31969" lon="5.99979">
        <ele>264.3</ele>
        <time>2021-08-18T12:52:16Z</time>
      </trkpt>
      <trkpt lat="47.3196" lon="5.99976">
        <ele>264.3</ele>
        <time>2021-08-18T12:52:27Z</time>
      </trkpt>
      <trkpt lat="47.31951" lon="5.99969">
        <ele>264.2</ele>
        <time>2021-08-18T12:52:36Z</time>
      </trkpt>
      <trkpt lat="47.31942" lon="5.99966">
        <ele>264.2</ele>
        <time>2021-08-18T12:52:45Z</time>
      </trkpt>
      <trkpt lat="47.31933" lon="5.99972">
        <ele>264.7</ele>
        <time>2021-08-18T12:52:54Z</time>
      </trkpt>
      <trkpt lat="47.31926" lon="5.99982">
        <ele>265.2</ele>
        <time>2021-08-18T12:53:03Z</time>
      </trkpt>
      <trkpt lat="47.3192" lon="5.99995">
        <ele>265.8</ele>
        <time>2021-08-18T12:53:11Z</time>
      </trkpt>
      <trkpt lat="47.31915" lon="6.00007">
        <ele>266.3</ele>
        <time>2021-08-18T12:53:26Z</time>
      </trkpt>
      <trkpt lat="47.31909" lon="6.00019">
        <ele>266.8</ele>
        <time>2021-08-18T12:53:35Z</time>
      </trkpt>
      <trkpt lat="47.31908" lon="6.00022">
        <ele>266.9</ele>
        <time>2021-08-18T12:53:58Z</time>
      </trkpt>
      <trkpt lat="47.31909" lon="6.00024">
        <ele>267</ele>
        <time>2021-08-18T12:54:00Z</time>
      </trkpt>
      <trkpt lat="47.31909" lon="6.00023">
        <ele>266.9</ele>
        <time>2021-08-18T12:54:28Z</time>
      </trkpt>
      <trkpt lat="47.31909" lon="6.00023">
        <ele>266.9</ele>
        <time>2021-08-18T12:54:30Z</time>
      </trkpt>
      <trkpt lat="47.31907" lon="6.00029">
        <ele>267.2</ele>
        <time>2021-08-18T12:54:42Z</time>
      </trkpt>
      <trkpt lat="47.31904" lon="6.00035">
        <ele>267.4</ele>
        <time>2021-08-18T12:54:46Z</time>
      </trkpt>
      <trkpt lat="47.31901" lon="6.00041">
        <ele>267.7</ele>
        <time>2021-08-18T12:54:50Z</time>
      </trkpt>
      <trkpt lat="47.31899" lon="6.00047">
        <ele>267.9</ele>
        <time>2021-08-18T12:54:54Z</time>
      </trkpt>
      <trkpt lat="47.31895" lon="6.00052">
        <ele>268.1</ele>
        <time>2021-08-18T12:54:58Z</time>
      </trkpt>
      <trkpt lat="47.31892" lon="6.00058">
        <ele>268.4</ele>
        <time>2021-08-18T12:55:02Z</time>
      </trkpt>
      <trkpt lat="47.31889" lon="6.00063">
        <ele>268.6</ele>
        <time>2021-08-18T12:55:06Z</time>
      </trkpt>
      <trkpt lat="47.31886" lon="6.00068">
        <ele>268.8</ele>
        <time>2021-08-18T12:55:10Z</time>
      </trkpt>
      <trkpt lat="47.31882" lon="6.00075">
        <ele>269.1</ele>
        <time>2021-08-18T12:55:15Z</time>
      </trkpt>
      <trkpt lat="47.31878" lon="6.00081">
        <ele>269.4</ele>
        <time>2021-08-18T12:55:20Z</time>
      </trkpt>
      <trkpt lat="47.31875" lon="6.00086">
        <ele>269.5</ele>
        <time>2021-08-18T12:55:24Z</time>
      </trkpt>
      <trkpt lat="47.3187" lon="6.00089">
        <ele>269.5</ele>
        <time>2021-08-18T12:55:28Z</time>
      </trkpt>
      <trkpt lat="47.31866" lon="6.00091">
        <ele>269.6</ele>
        <time>2021-08-18T12:55:32Z</time>
      </trkpt>
      <trkpt lat="47.31861" lon="6.00093">
        <ele>269.7</ele>
        <time>2021-08-18T12:55:36Z</time>
      </trkpt>
      <trkpt lat="47.31856" lon="6.00093">
        <ele>269.7</ele>
        <time>2021-08-18T12:55:40Z</time>
      </trkpt>
      <trkpt lat="47.31851" lon="6.00096">
        <ele>269.8</ele>
        <time>2021-08-18T12:55:44Z</time>
      </trkpt>
      <trkpt lat="47.31847" lon="6.00098">
        <ele>269.9</ele>
        <time>2021-08-18T12:55:48Z</time>
      </trkpt>
      <trkpt lat="47.31842" lon="6.00101">
        <ele>270</ele>
        <time>2021-08-18T12:55:52Z</time>
      </trkpt>
      <trkpt lat="47.31836" lon="6.00103">
        <ele>270.2</ele>
        <time>2021-08-18T12:55:56Z</time>
      </trkpt>
      <trkpt lat="47.31831" lon="6.00105">
        <ele>270.2</ele>
        <time>2021-08-18T12:56:00Z</time>
      </trkpt>
      <trkpt lat="47.31826" lon="6.00107">
        <ele>270.2</ele>
        <time>2021-08-18T12:56:04Z</time>
      </trkpt>
      <trkpt lat="47.31821" lon="6.00109">
        <ele>270.2</ele>
        <time>2021-08-18T12:56:09Z</time>
      </trkpt>
      <trkpt lat="47.31817" lon="6.0011">
        <ele>270.2</ele>
        <time>2021-08-18T12:56:13Z</time>
      </trkpt>
      <trkpt lat="47.31812" lon="6.00112">
        <ele>270.2</ele>
        <time>2021-08-18T12:56:18Z</time>
      </trkpt>
      <trkpt lat="47.31807" lon="6.00116">
        <ele>270.2</ele>
        <time>2021-08-18T12:56:23Z</time>
      </trkpt>
      <trkpt lat="47.31802" lon="6.00119">
        <ele>270.2</ele>
        <time>2021-08-18T12:56:27Z</time>
      </trkpt>
      <trkpt lat="47.31797" lon="6.00121">
        <ele>270.2</ele>
        <time>2021-08-18T12:56:31Z</time>
      </trkpt>
      <trkpt lat="47.31792" lon="6.00123">
        <ele>270.2</ele>
        <time>2021-08-18T12:56:34Z</time>
      </trkpt>
      <trkpt lat="47.31787" lon="6.00125">
        <ele>270.2</ele>
        <time>2021-08-18T12:56:37Z</time>
      </trkpt>
      <trkpt lat="47.31782" lon="6.00126">
        <ele>270.2</ele>
        <time>2021-08-18T12:56:41Z</time>
      </trkpt>
      <trkpt lat="47.31777" lon="6.00129">
        <ele>270.2</ele>
        <time>2021-08-18T12:56:45Z</time>
      </trkpt>
      <trkpt lat="47.31772" lon="6.00131">
        <ele>270.3</ele>
        <time>2021-08-18T12:56:49Z</time>
      </trkpt>
      <trkpt lat="47.31767" lon="6.00133">
        <ele>270.3</ele>
        <time>2021-08-18T12:56:53Z</time>
      </trkpt>
      <trkpt lat="47.31762" lon="6.00135">
        <ele>270.3</ele>
        <time>2021-08-18T12:56:56Z</time>
      </trkpt>
      <trkpt lat="47.31757" lon="6.00135">
        <ele>270.3</ele>
        <time>2021-08-18T12:57:00Z</time>
      </trkpt>
      <trkpt lat="47.31751" lon="6.00138">
        <ele>270.3</ele>
        <time>2021-08-18T12:57:04Z</time>
      </trkpt>
      <trkpt lat="47.31746" lon="6.0014">
        <ele>270.5</ele>
        <time>2021-08-18T12:57:08Z</time>
      </trkpt>
      <trkpt lat="47.31741" lon="6.00142">
        <ele>270.7</ele>
        <time>2021-08-18T12:57:12Z</time>
      </trkpt>
      <trkpt lat="47.31736" lon="6.00146">
        <ele>270.9</ele>
        <time>2021-08-18T12:57:17Z</time>
      </trkpt>
      <trkpt lat="47.31732" lon="6.00151">
        <ele>271.2</ele>
        <time>2021-08-18T12:57:21Z</time>
      </trkpt>
      <trkpt lat="47.31727" lon="6.00155">
        <ele>271.5</ele>
        <time>2021-08-18T12:57:25Z</time>
      </trkpt>
      <trkpt lat="47.31722" lon="6.00156">
        <ele>271.7</ele>
        <time>2021-08-18T12:57:29Z</time>
      </trkpt>
      <trkpt lat="47.31717" lon="6.00155">
        <ele>271.8</ele>
        <time>2021-08-18T12:57:33Z</time>
      </trkpt>
      <trkpt lat="47.31714" lon="6.00149">
        <ele>271.7</ele>
        <time>2021-08-18T12:57:37Z</time>
      </trkpt>
      <trkpt lat="47.3171" lon="6.00143">
        <ele>271.6</ele>
        <time>2021-08-18T12:57:41Z</time>
      </trkpt>
      <trkpt lat="47.31709" lon="6.00136">
        <ele>271.4</ele>
        <time>2021-08-18T12:57:45Z</time>
      </trkpt>
      <trkpt lat="47.31707" lon="6.0013">
        <ele>271.2</ele>
        <time>2021-08-18T12:57:49Z</time>
      </trkpt>
      <trkpt lat="47.31703" lon="6.00125">
        <ele>271.1</ele>
        <time>2021-08-18T12:57:53Z</time>
      </trkpt>
      <trkpt lat="47.31697" lon="6.00125">
        <ele>271.3</ele>
        <time>2021-08-18T12:57:57Z</time>
      </trkpt>
      <trkpt lat="47.31693" lon="6.00127">
        <ele>271.4</ele>
        <time>2021-08-18T12:58:00Z</time>
      </trkpt>
      <trkpt lat="47.31688" lon="6.00128">
        <ele>271.6</ele>
        <time>2021-08-18T12:58:04Z</time>
      </trkpt>
      <trkpt lat="47.31683" lon="6.00126">
        <ele>271.7</ele>
        <time>2021-08-18T12:58:08Z</time>
      </trkpt>
      <trkpt lat="47.31678" lon="6.00125">
        <ele>271.7</ele>
        <time>2021-08-18T12:58:13Z</time>
      </trkpt>
      <trkpt lat="47.31674" lon="6.00124">
        <ele>271.8</ele>
        <time>2021-08-18T12:58:17Z</time>
      </trkpt>
      <trkpt lat="47.31669" lon="6.00121">
        <ele>271.8</ele>
        <time>2021-08-18T12:58:21Z</time>
      </trkpt>
      <trkpt lat="47.31663" lon="6.00121">
        <ele>272</ele>
        <time>2021-08-18T12:58:25Z</time>
      </trkpt>
      <trkpt lat="47.31659" lon="6.00125">
        <ele>272.3</ele>
        <time>2021-08-18T12:58:29Z</time>
      </trkpt>
      <trkpt lat="47.31654" lon="6.00126">
        <ele>272.6</ele>
        <time>2021-08-18T12:58:33Z</time>
      </trkpt>
      <trkpt lat="47.31649" lon="6.00127">
        <ele>272.8</ele>
        <time>2021-08-18T12:58:37Z</time>
      </trkpt>
      <trkpt lat="47.31644" lon="6.00127">
        <ele>273</ele>
        <time>2021-08-18T12:58:41Z</time>
      </trkpt>
      <trkpt lat="47.31638" lon="6.00126">
        <ele>273.2</ele>
        <time>2021-08-18T12:58:45Z</time>
      </trkpt>
      <trkpt lat="47.31633" lon="6.00125">
        <ele>273.4</ele>
        <time>2021-08-18T12:58:49Z</time>
      </trkpt>
      <trkpt lat="47.31628" lon="6.00125">
        <ele>273.6</ele>
        <time>2021-08-18T12:58:53Z</time>
      </trkpt>
      <trkpt lat="47.31623" lon="6.00122">
        <ele>273.7</ele>
        <time>2021-08-18T12:58:57Z</time>
      </trkpt>
      <trkpt lat="47.3162" lon="6.00116">
        <ele>273.7</ele>
        <time>2021-08-18T12:59:01Z</time>
      </trkpt>
      <trkpt lat="47.31615" lon="6.00113">
        <ele>273.9</ele>
        <time>2021-08-18T12:59:05Z</time>
      </trkpt>
      <trkpt lat="47.31611" lon="6.00111">
        <ele>274</ele>
        <time>2021-08-18T12:59:09Z</time>
      </trkpt>
      <trkpt lat="47.31606" lon="6.0011">
        <ele>274.2</ele>
        <time>2021-08-18T12:59:13Z</time>
      </trkpt>
      <trkpt lat="47.31601" lon="6.00108">
        <ele>274.4</ele>
        <time>2021-08-18T12:59:17Z</time>
      </trkpt>
      <trkpt lat="47.31596" lon="6.00106">
        <ele>274.6</ele>
        <time>2021-08-18T12:59:22Z</time>
      </trkpt>
      <trkpt lat="47.31591" lon="6.00104">
        <ele>274.9</ele>
        <time>2021-08-18T12:59:26Z</time>
      </trkpt>
      <trkpt lat="47.31586" lon="6.00103">
        <ele>275.1</ele>
        <time>2021-08-18T12:59:31Z</time>
      </trkpt>
      <trkpt lat="47.31581" lon="6.001">
        <ele>275.4</ele>
        <time>2021-08-18T12:59:36Z</time>
      </trkpt>
      <trkpt lat="47.31577" lon="6.00097">
        <ele>275.6</ele>
        <time>2021-08-18T12:59:40Z</time>
      </trkpt>
      <trkpt lat="47.31573" lon="6.00094">
        <ele>275.9</ele>
        <time>2021-08-18T12:59:44Z</time>
      </trkpt>
      <trkpt lat="47.31568" lon="6.0009">
        <ele>276.2</ele>
        <time>2021-08-18T12:59:48Z</time>
      </trkpt>
      <trkpt lat="47.31564" lon="6.00087">
        <ele>276.5</ele>
        <time>2021-08-18T12:59:52Z</time>
      </trkpt>
      <trkpt lat="47.31559" lon="6.00083">
        <ele>276.7</ele>
        <time>2021-08-18T12:59:56Z</time>
      </trkpt>
      <trkpt lat="47.31554" lon="6.0008">
        <ele>276.8</ele>
        <time>2021-08-18T13:00:00Z</time>
      </trkpt>
      <trkpt lat="47.31548" lon="6.00079">
        <ele>277.2</ele>
        <time>2021-08-18T13:00:04Z</time>
      </trkpt>
      <trkpt lat="47.31543" lon="6.00077">
        <ele>277.4</ele>
        <time>2021-08-18T13:00:09Z</time>
      </trkpt>
      <trkpt lat="47.31538" lon="6.00076">
        <ele>277.6</ele>
        <time>2021-08-18T13:00:12Z</time>
      </trkpt>
      <trkpt lat="47.31533" lon="6.00076">
        <ele>278</ele>
        <time>2021-08-18T13:00:15Z</time>
      </trkpt>
      <trkpt lat="47.31528" lon="6.00075">
        <ele>278.3</ele>
        <time>2021-08-18T13:00:19Z</time>
      </trkpt>
      <trkpt lat="47.31523" lon="6.00074">
        <ele>278.6</ele>
        <time>2021-08-18T13:00:23Z</time>
      </trkpt>
      <trkpt lat="47.31517" lon="6.00073">
        <ele>278.9</ele>
        <time>2021-08-18T13:00:27Z</time>
      </trkpt>
      <trkpt lat="47.31513" lon="6.00072">
        <ele>279.1</ele>
        <time>2021-08-18T13:00:30Z</time>
      </trkpt>
      <trkpt lat="47.31508" lon="6.0007">
        <ele>279.3</ele>
        <time>2021-08-18T13:00:34Z</time>
      </trkpt>
      <trkpt lat="47.31503" lon="6.00069">
        <ele>279.6</ele>
        <time>2021-08-18T13:00:37Z</time>
      </trkpt>
      <trkpt lat="47.31497" lon="6.00069">
        <ele>280.1</ele>
        <time>2021-08-18T13:00:41Z</time>
      </trkpt>
      <trkpt lat="47.31492" lon="6.00066">
        <ele>280.4</ele>
        <time>2021-08-18T13:00:46Z</time>
      </trkpt>
      <trkpt lat="47.31487" lon="6.00065">
        <ele>280.9</ele>
        <time>2021-08-18T13:00:50Z</time>
      </trkpt>
      <trkpt lat="47.31482" lon="6.00062">
        <ele>281.2</ele>
        <time>2021-08-18T13:00:54Z</time>
      </trkpt>
      <trkpt lat="47.31477" lon="6.0006">
        <ele>281.6</ele>
        <time>2021-08-18T13:00:59Z</time>
      </trkpt>
      <trkpt lat="47.31472" lon="6.00057">
        <ele>281.9</ele>
        <time>2021-08-18T13:01:04Z</time>
      </trkpt>
      <trkpt lat="47.31468" lon="6.00055">
        <ele>282.2</ele>
        <time>2021-08-18T13:01:08Z</time>
      </trkpt>
      <trkpt lat="47.31463" lon="6.00052">
        <ele>282.5</ele>
        <time>2021-08-18T13:01:13Z</time>
      </trkpt>
      <trkpt lat="47.31458" lon="6.00049">
        <ele>282.9</ele>
        <time>2021-08-18T13:01:18Z</time>
      </trkpt>
      <trkpt lat="47.31453" lon="6.00047">
        <ele>283.3</ele>
        <time>2021-08-18T13:01:22Z</time>
      </trkpt>
      <trkpt lat="47.31448" lon="6.00044">
        <ele>283.6</ele>
        <time>2021-08-18T13:01:26Z</time>
      </trkpt>
      <trkpt lat="47.31443" lon="6.00042">
        <ele>284</ele>
        <time>2021-08-18T13:01:30Z</time>
      </trkpt>
      <trkpt lat="47.31439" lon="6.0004">
        <ele>284.3</ele>
        <time>2021-08-18T13:01:34Z</time>
      </trkpt>
      <trkpt lat="47.31434" lon="6.0004">
        <ele>284.9</ele>
        <time>2021-08-18T13:01:40Z</time>
      </trkpt>
      <trkpt lat="47.31429" lon="6.00038">
        <ele>285.3</ele>
        <time>2021-08-18T13:01:44Z</time>
      </trkpt>
      <trkpt lat="47.31424" lon="6.00036">
        <ele>285.8</ele>
        <time>2021-08-18T13:01:49Z</time>
      </trkpt>
      <trkpt lat="47.31419" lon="6.00035">
        <ele>286.3</ele>
        <time>2021-08-18T13:01:54Z</time>
      </trkpt>
      <trkpt lat="47.31413" lon="6.00034">
        <ele>286.9</ele>
        <time>2021-08-18T13:01:59Z</time>
      </trkpt>
      <trkpt lat="47.31408" lon="6.00032">
        <ele>287.4</ele>
        <time>2021-08-18T13:02:03Z</time>
      </trkpt>
      <trkpt lat="47.31403" lon="6.0003">
        <ele>287.9</ele>
        <time>2021-08-18T13:02:08Z</time>
      </trkpt>
      <trkpt lat="47.31399" lon="6.00029">
        <ele>288.3</ele>
        <time>2021-08-18T13:02:12Z</time>
      </trkpt>
      <trkpt lat="47.31395" lon="6.00028">
        <ele>288.7</ele>
        <time>2021-08-18T13:02:16Z</time>
      </trkpt>
      <trkpt lat="47.31392" lon="6.00022">
        <ele>288.6</ele>
        <time>2021-08-18T13:02:21Z</time>
      </trkpt>
      <trkpt lat="47.31389" lon="6.00019">
        <ele>288.8</ele>
        <time>2021-08-18T13:02:25Z</time>
      </trkpt>
      <trkpt lat="47.31383" lon="6.00019">
        <ele>289.5</ele>
        <time>2021-08-18T13:02:29Z</time>
      </trkpt>
      <trkpt lat="47.31379" lon="6.00019">
        <ele>290</ele>
        <time>2021-08-18T13:02:33Z</time>
      </trkpt>
      <trkpt lat="47.31374" lon="6.00016">
        <ele>290.4</ele>
        <time>2021-08-18T13:02:38Z</time>
      </trkpt>
      <trkpt lat="47.31369" lon="6.00011">
        <ele>290.6</ele>
        <time>2021-08-18T13:02:43Z</time>
      </trkpt>
      <trkpt lat="47.31364" lon="6.00009">
        <ele>291</ele>
        <time>2021-08-18T13:02:47Z</time>
      </trkpt>
      <trkpt lat="47.3136" lon="6.00008">
        <ele>291.4</ele>
        <time>2021-08-18T13:02:51Z</time>
      </trkpt>
      <trkpt lat="47.31356" lon="6.00004">
        <ele>291.6</ele>
        <time>2021-08-18T13:02:57Z</time>
      </trkpt>
      <trkpt lat="47.31351" lon="6.00003">
        <ele>292.1</ele>
        <time>2021-08-18T13:03:01Z</time>
      </trkpt>
      <trkpt lat="47.31346" lon="6.00003">
        <ele>292.7</ele>
        <time>2021-08-18T13:03:05Z</time>
      </trkpt>
      <trkpt lat="47.31341" lon="6.00001">
        <ele>293.2</ele>
        <time>2021-08-18T13:03:10Z</time>
      </trkpt>
      <trkpt lat="47.31336" lon="5.99998">
        <ele>293.5</ele>
        <time>2021-08-18T13:03:15Z</time>
      </trkpt>
      <trkpt lat="47.31331" lon="5.99997">
        <ele>293.9</ele>
        <time>2021-08-18T13:03:19Z</time>
      </trkpt>
      <trkpt lat="47.31326" lon="5.99995">
        <ele>294.2</ele>
        <time>2021-08-18T13:03:24Z</time>
      </trkpt>
      <trkpt lat="47.31322" lon="5.99994">
        <ele>294.4</ele>
        <time>2021-08-18T13:03:28Z</time>
      </trkpt>
      <trkpt lat="47.31317" lon="5.99994">
        <ele>294.9</ele>
        <time>2021-08-18T13:03:32Z</time>
      </trkpt>
      <trkpt lat="47.31312" lon="5.99995">
        <ele>295.4</ele>
        <time>2021-08-18T13:03:36Z</time>
      </trkpt>
      <trkpt lat="47.31307" lon="5.99994">
        <ele>295.7</ele>
        <time>2021-08-18T13:03:40Z</time>
      </trkpt>
      <trkpt lat="47.31302" lon="5.99994">
        <ele>296.1</ele>
        <time>2021-08-18T13:03:44Z</time>
      </trkpt>
      <trkpt lat="47.313" lon="5.99987">
        <ele>295.6</ele>
        <time>2021-08-18T13:03:48Z</time>
      </trkpt>
      <trkpt lat="47.31297" lon="5.99981">
        <ele>295.4</ele>
        <time>2021-08-18T13:03:52Z</time>
      </trkpt>
      <trkpt lat="47.31294" lon="5.99977">
        <ele>295.2</ele>
        <time>2021-08-18T13:03:56Z</time>
      </trkpt>
      <trkpt lat="47.31289" lon="5.99973">
        <ele>295.3</ele>
        <time>2021-08-18T13:04:02Z</time>
      </trkpt>
      <trkpt lat="47.31284" lon="5.99973">
        <ele>295.7</ele>
        <time>2021-08-18T13:04:30Z</time>
      </trkpt>
      <trkpt lat="47.31278" lon="5.99972">
        <ele>296.1</ele>
        <time>2021-08-18T13:04:35Z</time>
      </trkpt>
      <trkpt lat="47.31273" lon="5.9997">
        <ele>296.3</ele>
        <time>2021-08-18T13:04:40Z</time>
      </trkpt>
      <trkpt lat="47.31268" lon="5.99969">
        <ele>296.6</ele>
        <time>2021-08-18T13:04:45Z</time>
      </trkpt>
      <trkpt lat="47.31263" lon="5.99966">
        <ele>296.7</ele>
        <time>2021-08-18T13:04:50Z</time>
      </trkpt>
      <trkpt lat="47.31258" lon="5.99965">
        <ele>297</ele>
        <time>2021-08-18T13:04:55Z</time>
      </trkpt>
      <trkpt lat="47.31253" lon="5.99965">
        <ele>297.4</ele>
        <time>2021-08-18T13:04:59Z</time>
      </trkpt>
      <trkpt lat="47.31248" lon="5.99964">
        <ele>297.8</ele>
        <time>2021-08-18T13:05:04Z</time>
      </trkpt>
      <trkpt lat="47.31242" lon="5.99963">
        <ele>298.3</ele>
        <time>2021-08-18T13:05:09Z</time>
      </trkpt>
      <trkpt lat="47.31237" lon="5.99963">
        <ele>298.9</ele>
        <time>2021-08-18T13:05:13Z</time>
      </trkpt>
      <trkpt lat="47.31232" lon="5.99963">
        <ele>299.4</ele>
        <time>2021-08-18T13:05:18Z</time>
      </trkpt>
      <trkpt lat="47.31228" lon="5.99963">
        <ele>299.9</ele>
        <time>2021-08-18T13:05:22Z</time>
      </trkpt>
      <trkpt lat="47.31223" lon="5.99964">
        <ele>300.5</ele>
        <time>2021-08-18T13:05:26Z</time>
      </trkpt>
      <trkpt lat="47.31218" lon="5.99962">
        <ele>300.8</ele>
        <time>2021-08-18T13:05:30Z</time>
      </trkpt>
      <trkpt lat="47.31213" lon="5.9996">
        <ele>301.2</ele>
        <time>2021-08-18T13:05:35Z</time>
      </trkpt>
      <trkpt lat="47.31208" lon="5.99959">
        <ele>301.6</ele>
        <time>2021-08-18T13:05:50Z</time>
      </trkpt>
      <trkpt lat="47.31203" lon="5.99957">
        <ele>301.9</ele>
        <time>2021-08-18T13:06:05Z</time>
      </trkpt>
      <trkpt lat="47.31198" lon="5.99957">
        <ele>302.5</ele>
        <time>2021-08-18T13:06:11Z</time>
      </trkpt>
      <trkpt lat="47.31192" lon="5.99956">
        <ele>303</ele>
        <time>2021-08-18T13:06:17Z</time>
      </trkpt>
      <trkpt lat="47.31188" lon="5.99957">
        <ele>303.5</ele>
        <time>2021-08-18T13:06:22Z</time>
      </trkpt>
      <trkpt lat="47.31182" lon="5.99955">
        <ele>304</ele>
        <time>2021-08-18T13:06:27Z</time>
      </trkpt>
      <trkpt lat="47.31177" lon="5.99955">
        <ele>304.5</ele>
        <time>2021-08-18T13:06:32Z</time>
      </trkpt>
      <trkpt lat="47.31172" lon="5.99955">
        <ele>305</ele>
        <time>2021-08-18T13:06:37Z</time>
      </trkpt>
      <trkpt lat="47.31167" lon="5.99954">
        <ele>305.4</ele>
        <time>2021-08-18T13:06:42Z</time>
      </trkpt>
      <trkpt lat="47.31162" lon="5.99955">
        <ele>305.9</ele>
        <time>2021-08-18T13:06:47Z</time>
      </trkpt>
      <trkpt lat="47.31156" lon="5.99955">
        <ele>306.2</ele>
        <time>2021-08-18T13:06:51Z</time>
      </trkpt>
      <trkpt lat="47.31152" lon="5.99956">
        <ele>306.6</ele>
        <time>2021-08-18T13:06:55Z</time>
      </trkpt>
      <trkpt lat="47.31147" lon="5.99954">
        <ele>306.7</ele>
        <time>2021-08-18T13:07:01Z</time>
      </trkpt>
      <trkpt lat="47.31142" lon="5.99953">
        <ele>306.8</ele>
        <time>2021-08-18T13:07:06Z</time>
      </trkpt>
      <trkpt lat="47.31137" lon="5.99953">
        <ele>307.1</ele>
        <time>2021-08-18T13:07:11Z</time>
      </trkpt>
      <trkpt lat="47.31131" lon="5.99954">
        <ele>307.6</ele>
        <time>2021-08-18T13:07:16Z</time>
      </trkpt>
      <trkpt lat="47.31126" lon="5.99956">
        <ele>308.2</ele>
        <time>2021-08-18T13:07:21Z</time>
      </trkpt>
      <trkpt lat="47.31121" lon="5.99955">
        <ele>308.3</ele>
        <time>2021-08-18T13:07:25Z</time>
      </trkpt>
      <trkpt lat="47.31116" lon="5.99956">
        <ele>308.8</ele>
        <time>2021-08-18T13:07:30Z</time>
      </trkpt>
      <trkpt lat="47.31111" lon="5.99957">
        <ele>309.2</ele>
        <time>2021-08-18T13:07:34Z</time>
      </trkpt>
      <trkpt lat="47.31107" lon="5.99958">
        <ele>309.5</ele>
        <time>2021-08-18T13:07:38Z</time>
      </trkpt>
      <trkpt lat="47.31102" lon="5.99958">
        <ele>309.8</ele>
        <time>2021-08-18T13:07:42Z</time>
      </trkpt>
      <trkpt lat="47.31097" lon="5.9996">
        <ele>310.4</ele>
        <time>2021-08-18T13:07:46Z</time>
      </trkpt>
      <trkpt lat="47.31093" lon="5.9996">
        <ele>310.6</ele>
        <time>2021-08-18T13:07:51Z</time>
      </trkpt>
      <trkpt lat="47.31088" lon="5.99961">
        <ele>311</ele>
        <time>2021-08-18T13:07:56Z</time>
      </trkpt>
      <trkpt lat="47.31083" lon="5.99961">
        <ele>311.3</ele>
        <time>2021-08-18T13:08:00Z</time>
      </trkpt>
      <trkpt lat="47.31078" lon="5.99963">
        <ele>311.8</ele>
        <time>2021-08-18T13:08:04Z</time>
      </trkpt>
      <trkpt lat="47.31073" lon="5.99965">
        <ele>312.3</ele>
        <time>2021-08-18T13:08:08Z</time>
      </trkpt>
      <trkpt lat="47.31068" lon="5.99966">
        <ele>312.7</ele>
        <time>2021-08-18T13:08:12Z</time>
      </trkpt>
      <trkpt lat="47.31064" lon="5.99966">
        <ele>312.9</ele>
        <time>2021-08-18T13:08:16Z</time>
      </trkpt>
      <trkpt lat="47.31058" lon="5.99967">
        <ele>313.4</ele>
        <time>2021-08-18T13:08:21Z</time>
      </trkpt>
      <trkpt lat="47.31053" lon="5.99966">
        <ele>313.5</ele>
        <time>2021-08-18T13:08:26Z</time>
      </trkpt>
      <trkpt lat="47.31048" lon="5.99966">
        <ele>313.8</ele>
        <time>2021-08-18T13:08:30Z</time>
      </trkpt>
      <trkpt lat="47.31044" lon="5.99965">
        <ele>313.9</ele>
        <time>2021-08-18T13:08:34Z</time>
      </trkpt>
      <trkpt lat="47.31039" lon="5.99964">
        <ele>314</ele>
        <time>2021-08-18T13:08:38Z</time>
      </trkpt>
      <trkpt lat="47.31035" lon="5.99962">
        <ele>314</ele>
        <time>2021-08-18T13:08:42Z</time>
      </trkpt>
      <trkpt lat="47.3103" lon="5.9996">
        <ele>314.1</ele>
        <time>2021-08-18T13:08:46Z</time>
      </trkpt>
      <trkpt lat="47.31025" lon="5.9996">
        <ele>314.3</ele>
        <time>2021-08-18T13:08:50Z</time>
      </trkpt>
      <trkpt lat="47.3102" lon="5.9996">
        <ele>314.6</ele>
        <time>2021-08-18T13:08:54Z</time>
      </trkpt>
      <trkpt lat="47.31015" lon="5.9996">
        <ele>314.9</ele>
        <time>2021-08-18T13:08:58Z</time>
      </trkpt>
      <trkpt lat="47.31011" lon="5.99958">
        <ele>314.9</ele>
        <time>2021-08-18T13:09:02Z</time>
      </trkpt>
      <trkpt lat="47.31006" lon="5.99955">
        <ele>314.8</ele>
        <time>2021-08-18T13:09:07Z</time>
      </trkpt>
      <trkpt lat="47.31001" lon="5.99953">
        <ele>314.9</ele>
        <time>2021-08-18T13:09:12Z</time>
      </trkpt>
      <trkpt lat="47.30996" lon="5.99952">
        <ele>315.1</ele>
        <time>2021-08-18T13:09:17Z</time>
      </trkpt>
      <trkpt lat="47.30991" lon="5.99951">
        <ele>315.3</ele>
        <time>2021-08-18T13:09:22Z</time>
      </trkpt>
      <trkpt lat="47.30986" lon="5.99951">
        <ele>315.7</ele>
        <time>2021-08-18T13:09:26Z</time>
      </trkpt>
      <trkpt lat="47.30981" lon="5.9995">
        <ele>315.9</ele>
        <time>2021-08-18T13:09:30Z</time>
      </trkpt>
      <trkpt lat="47.30976" lon="5.99949">
        <ele>316.2</ele>
        <time>2021-08-18T13:09:34Z</time>
      </trkpt>
      <trkpt lat="47.30971" lon="5.99949">
        <ele>316.5</ele>
        <time>2021-08-18T13:09:38Z</time>
      </trkpt>
      <trkpt lat="47.30966" lon="5.99947">
        <ele>316.6</ele>
        <time>2021-08-18T13:09:43Z</time>
      </trkpt>
      <trkpt lat="47.30961" lon="5.99948">
        <ele>317.1</ele>
        <time>2021-08-18T13:09:48Z</time>
      </trkpt>
      <trkpt lat="47.30956" lon="5.99949">
        <ele>317.5</ele>
        <time>2021-08-18T13:09:52Z</time>
      </trkpt>
      <trkpt lat="47.30952" lon="5.99951">
        <ele>318.1</ele>
        <time>2021-08-18T13:09:56Z</time>
      </trkpt>
      <trkpt lat="47.30948" lon="5.99954">
        <ele>318.7</ele>
        <time>2021-08-18T13:10:00Z</time>
      </trkpt>
      <trkpt lat="47.30943" lon="5.99957">
        <ele>319.4</ele>
        <time>2021-08-18T13:10:04Z</time>
      </trkpt>
      <trkpt lat="47.30938" lon="5.9996">
        <ele>320.2</ele>
        <time>2021-08-18T13:10:08Z</time>
      </trkpt>
      <trkpt lat="47.30933" lon="5.99962">
        <ele>320.8</ele>
        <time>2021-08-18T13:10:12Z</time>
      </trkpt>
      <trkpt lat="47.30929" lon="5.99964">
        <ele>321.3</ele>
        <time>2021-08-18T13:10:16Z</time>
      </trkpt>
      <trkpt lat="47.30924" lon="5.99966">
        <ele>322</ele>
        <time>2021-08-18T13:10:21Z</time>
      </trkpt>
      <trkpt lat="47.30919" lon="5.99967">
        <ele>322.5</ele>
        <time>2021-08-18T13:10:26Z</time>
      </trkpt>
      <trkpt lat="47.30914" lon="5.9997">
        <ele>323</ele>
        <time>2021-08-18T13:10:30Z</time>
      </trkpt>
      <trkpt lat="47.3091" lon="5.99971">
        <ele>323</ele>
        <time>2021-08-18T13:10:34Z</time>
      </trkpt>
      <trkpt lat="47.30899" lon="5.99975">
        <ele>323.3</ele>
        <time>2021-08-18T13:10:44Z</time>
      </trkpt>
      <trkpt lat="47.30891" lon="5.99982">
        <ele>324.1</ele>
        <time>2021-08-18T13:10:52Z</time>
      </trkpt>
      <trkpt lat="47.30882" lon="5.99987">
        <ele>324.5</ele>
        <time>2021-08-18T13:11:00Z</time>
      </trkpt>
      <trkpt lat="47.30872" lon="5.99991">
        <ele>324.8</ele>
        <time>2021-08-18T13:11:09Z</time>
      </trkpt>
      <trkpt lat="47.30862" lon="5.99997">
        <ele>325.3</ele>
        <time>2021-08-18T13:11:20Z</time>
      </trkpt>
      <trkpt lat="47.30853" lon="6">
        <ele>325.5</ele>
        <time>2021-08-18T13:11:31Z</time>
      </trkpt>
      <trkpt lat="47.30854" lon="6">
        <ele>325.5</ele>
        <time>2021-08-18T13:11:57Z</time>
      </trkpt>
      <trkpt lat="47.30844" lon="6.00004">
        <ele>325.7</ele>
        <time>2021-08-18T13:12:24Z</time>
      </trkpt>
      <trkpt lat="47.30835" lon="6.00009">
        <ele>326</ele>
        <time>2021-08-18T13:12:32Z</time>
      </trkpt>
      <trkpt lat="47.30826" lon="6.00018">
        <ele>326.9</ele>
        <time>2021-08-18T13:12:41Z</time>
      </trkpt>
      <trkpt lat="47.30817" lon="6.00022">
        <ele>327.2</ele>
        <time>2021-08-18T13:12:49Z</time>
      </trkpt>
      <trkpt lat="47.30812" lon="6.00035">
        <ele>328.6</ele>
        <time>2021-08-18T13:12:59Z</time>
      </trkpt>
      <trkpt lat="47.30807" lon="6.00047">
        <ele>329.9</ele>
        <time>2021-08-18T13:13:09Z</time>
      </trkpt>
      <trkpt lat="47.30798" lon="6.00051">
        <ele>330.3</ele>
        <time>2021-08-18T13:13:17Z</time>
      </trkpt>
      <trkpt lat="47.30789" lon="6.00054">
        <ele>330.6</ele>
        <time>2021-08-18T13:13:25Z</time>
      </trkpt>
      <trkpt lat="47.3078" lon="6.00062">
        <ele>331.5</ele>
        <time>2021-08-18T13:13:32Z</time>
      </trkpt>
      <trkpt lat="47.30771" lon="6.00069">
        <ele>332.3</ele>
        <time>2021-08-18T13:13:40Z</time>
      </trkpt>
      <trkpt lat="47.30761" lon="6.00075">
        <ele>333</ele>
        <time>2021-08-18T13:13:49Z</time>
      </trkpt>
      <trkpt lat="47.3075" lon="6.00076">
        <ele>333.1</ele>
        <time>2021-08-18T13:13:57Z</time>
      </trkpt>
      <trkpt lat="47.3074" lon="6.0008">
        <ele>333.6</ele>
        <time>2021-08-18T13:14:05Z</time>
      </trkpt>
      <trkpt lat="47.30729" lon="6.00083">
        <ele>334</ele>
        <time>2021-08-18T13:14:13Z</time>
      </trkpt>
      <trkpt lat="47.3072" lon="6.00087">
        <ele>334.4</ele>
        <time>2021-08-18T13:14:21Z</time>
      </trkpt>
      <trkpt lat="47.30711" lon="6.00095">
        <ele>335.4</ele>
        <time>2021-08-18T13:14:31Z</time>
      </trkpt>
      <trkpt lat="47.30702" lon="6.00103">
        <ele>336.4</ele>
        <time>2021-08-18T13:14:41Z</time>
      </trkpt>
      <trkpt lat="47.30694" lon="6.00109">
        <ele>337.1</ele>
        <time>2021-08-18T13:14:49Z</time>
      </trkpt>
      <trkpt lat="47.30684" lon="6.00114">
        <ele>337.7</ele>
        <time>2021-08-18T13:14:57Z</time>
      </trkpt>
      <trkpt lat="47.30675" lon="6.00118">
        <ele>338.2</ele>
        <time>2021-08-18T13:15:05Z</time>
      </trkpt>
      <trkpt lat="47.30666" lon="6.00123">
        <ele>338.8</ele>
        <time>2021-08-18T13:15:13Z</time>
      </trkpt>
      <trkpt lat="47.30657" lon="6.00128">
        <ele>339.5</ele>
        <time>2021-08-18T13:15:21Z</time>
      </trkpt>
      <trkpt lat="47.30647" lon="6.00132">
        <ele>340.1</ele>
        <time>2021-08-18T13:15:31Z</time>
      </trkpt>
      <trkpt lat="47.30638" lon="6.00138">
        <ele>340.9</ele>
        <time>2021-08-18T13:15:40Z</time>
      </trkpt>
      <trkpt lat="47.30628" lon="6.00143">
        <ele>341.6</ele>
        <time>2021-08-18T13:15:50Z</time>
      </trkpt>
      <trkpt lat="47.30619" lon="6.00148">
        <ele>342.3</ele>
        <time>2021-08-18T13:15:58Z</time>
      </trkpt>
      <trkpt lat="47.3061" lon="6.00152">
        <ele>342.9</ele>
        <time>2021-08-18T13:16:06Z</time>
      </trkpt>
      <trkpt lat="47.30601" lon="6.00156">
        <ele>343.5</ele>
        <time>2021-08-18T13:16:14Z</time>
      </trkpt>
      <trkpt lat="47.30592" lon="6.00158">
        <ele>343.9</ele>
        <time>2021-08-18T13:16:22Z</time>
      </trkpt>
      <trkpt lat="47.30582" lon="6.00157">
        <ele>343.9</ele>
        <time>2021-08-18T13:16:30Z</time>
      </trkpt>
      <trkpt lat="47.30573" lon="6.00157">
        <ele>344.5</ele>
        <time>2021-08-18T13:16:38Z</time>
      </trkpt>
      <trkpt lat="47.30564" lon="6.00157">
        <ele>345</ele>
        <time>2021-08-18T13:16:46Z</time>
      </trkpt>
      <trkpt lat="47.30554" lon="6.00159">
        <ele>345.8</ele>
        <time>2021-08-18T13:16:54Z</time>
      </trkpt>
      <trkpt lat="47.30544" lon="6.00159">
        <ele>346.4</ele>
        <time>2021-08-18T13:17:02Z</time>
      </trkpt>
      <trkpt lat="47.30535" lon="6.00157">
        <ele>346.7</ele>
        <time>2021-08-18T13:17:10Z</time>
      </trkpt>
      <trkpt lat="47.30495" lon="6.00137">
        <ele>347.4</ele>
        <time>2021-08-18T13:18:07Z</time>
      </trkpt>
      <trkpt lat="47.30486" lon="6.00134">
        <ele>348.7</ele>
        <time>2021-08-18T13:18:13Z</time>
      </trkpt>
      <trkpt lat="47.30476" lon="6.00129">
        <ele>349.8</ele>
        <time>2021-08-18T13:18:21Z</time>
      </trkpt>
      <trkpt lat="47.30467" lon="6.00125">
        <ele>350.7</ele>
        <time>2021-08-18T13:18:29Z</time>
      </trkpt>
      <trkpt lat="47.30458" lon="6.00123">
        <ele>351.9</ele>
        <time>2021-08-18T13:18:37Z</time>
      </trkpt>
      <trkpt lat="47.30448" lon="6.0012">
        <ele>353</ele>
        <time>2021-08-18T13:18:45Z</time>
      </trkpt>
      <trkpt lat="47.30437" lon="6.00115">
        <ele>353.8</ele>
        <time>2021-08-18T13:18:55Z</time>
      </trkpt>
      <trkpt lat="47.30428" lon="6.00112">
        <ele>354.5</ele>
        <time>2021-08-18T13:19:03Z</time>
      </trkpt>
      <trkpt lat="47.30418" lon="6.00109">
        <ele>355.3</ele>
        <time>2021-08-18T13:19:11Z</time>
      </trkpt>
      <trkpt lat="47.30408" lon="6.00105">
        <ele>357.4</ele>
        <time>2021-08-18T13:19:19Z</time>
      </trkpt>
      <trkpt lat="47.30398" lon="6.00101">
        <ele>359.7</ele>
        <time>2021-08-18T13:19:28Z</time>
      </trkpt>
      <trkpt lat="47.30388" lon="6.00098">
        <ele>362.3</ele>
        <time>2021-08-18T13:19:37Z</time>
      </trkpt>
      <trkpt lat="47.30378" lon="6.00096">
        <ele>365.2</ele>
        <time>2021-08-18T13:19:46Z</time>
      </trkpt>
      <trkpt lat="47.30368" lon="6.00091">
        <ele>367.3</ele>
        <time>2021-08-18T13:19:54Z</time>
      </trkpt>
      <trkpt lat="47.3036" lon="6.00083">
        <ele>368</ele>
        <time>2021-08-18T13:20:02Z</time>
      </trkpt>
      <trkpt lat="47.30351" lon="6.00076">
        <ele>369.4</ele>
        <time>2021-08-18T13:20:10Z</time>
      </trkpt>
      <trkpt lat="47.30342" lon="6.00068">
        <ele>370.4</ele>
        <time>2021-08-18T13:20:18Z</time>
      </trkpt>
      <trkpt lat="47.30334" lon="6.00057">
        <ele>370.2</ele>
        <time>2021-08-18T13:20:26Z</time>
      </trkpt>
      <trkpt lat="47.30325" lon="6.00047">
        <ele>370.7</ele>
        <time>2021-08-18T13:20:34Z</time>
      </trkpt>
      <trkpt lat="47.30318" lon="6.00036">
        <ele>370.6</ele>
        <time>2021-08-18T13:20:42Z</time>
      </trkpt>
      <trkpt lat="47.30311" lon="6.00025">
        <ele>370.7</ele>
        <time>2021-08-18T13:20:50Z</time>
      </trkpt>
      <trkpt lat="47.30304" lon="6.00015">
        <ele>371.2</ele>
        <time>2021-08-18T13:20:58Z</time>
      </trkpt>
      <trkpt lat="47.30298" lon="6.00004">
        <ele>371.2</ele>
        <time>2021-08-18T13:21:06Z</time>
      </trkpt>
      <trkpt lat="47.30291" lon="5.99993">
        <ele>371.4</ele>
        <time>2021-08-18T13:21:14Z</time>
      </trkpt>
      <trkpt lat="47.30283" lon="5.99983">
        <ele>371.7</ele>
        <time>2021-08-18T13:21:22Z</time>
      </trkpt>
      <trkpt lat="47.30275" lon="5.99973">
        <ele>371.7</ele>
        <time>2021-08-18T13:21:30Z</time>
      </trkpt>
      <trkpt lat="47.30267" lon="5.99963">
        <ele>371.4</ele>
        <time>2021-08-18T13:21:38Z</time>
      </trkpt>
      <trkpt lat="47.3026" lon="5.99953">
        <ele>370.4</ele>
        <time>2021-08-18T13:21:46Z</time>
      </trkpt>
      <trkpt lat="47.30251" lon="5.99942">
        <ele>369.5</ele>
        <time>2021-08-18T13:21:54Z</time>
      </trkpt>
      <trkpt lat="47.30244" lon="5.99932">
        <ele>368.4</ele>
        <time>2021-08-18T13:22:02Z</time>
      </trkpt>
      <trkpt lat="47.30236" lon="5.99921">
        <ele>367.6</ele>
        <time>2021-08-18T13:22:10Z</time>
      </trkpt>
      <trkpt lat="47.30228" lon="5.99911">
        <ele>367.8</ele>
        <time>2021-08-18T13:22:17Z</time>
      </trkpt>
      <trkpt lat="47.30219" lon="5.99904">
        <ele>369.3</ele>
        <time>2021-08-18T13:22:24Z</time>
      </trkpt>
      <trkpt lat="47.30209" lon="5.99897">
        <ele>371.1</ele>
        <time>2021-08-18T13:22:32Z</time>
      </trkpt>
      <trkpt lat="47.30201" lon="5.99888">
        <ele>371.5</ele>
        <time>2021-08-18T13:22:40Z</time>
      </trkpt>
      <trkpt lat="47.30194" lon="5.9988">
        <ele>371.7</ele>
        <time>2021-08-18T13:22:48Z</time>
      </trkpt>
      <trkpt lat="47.30185" lon="5.99871">
        <ele>372.2</ele>
        <time>2021-08-18T13:22:56Z</time>
      </trkpt>
      <trkpt lat="47.30177" lon="5.99862">
        <ele>372.2</ele>
        <time>2021-08-18T13:23:04Z</time>
      </trkpt>
      <trkpt lat="47.30168" lon="5.99854">
        <ele>372.8</ele>
        <time>2021-08-18T13:23:12Z</time>
      </trkpt>
      <trkpt lat="47.3016" lon="5.99844">
        <ele>371.9</ele>
        <time>2021-08-18T13:23:20Z</time>
      </trkpt>
      <trkpt lat="47.3015" lon="5.99836">
        <ele>372.1</ele>
        <time>2021-08-18T13:23:28Z</time>
      </trkpt>
      <trkpt lat="47.30141" lon="5.99828">
        <ele>372.6</ele>
        <time>2021-08-18T13:23:36Z</time>
      </trkpt>
      <trkpt lat="47.30132" lon="5.99821">
        <ele>373.5</ele>
        <time>2021-08-18T13:23:44Z</time>
      </trkpt>
      <trkpt lat="47.30123" lon="5.99816">
        <ele>374.7</ele>
        <time>2021-08-18T13:23:53Z</time>
      </trkpt>
      <trkpt lat="47.30114" lon="5.9981">
        <ele>375.6</ele>
        <time>2021-08-18T13:24:01Z</time>
      </trkpt>
      <trkpt lat="47.30105" lon="5.99802">
        <ele>376.1</ele>
        <time>2021-08-18T13:24:09Z</time>
      </trkpt>
      <trkpt lat="47.30098" lon="5.99795">
        <ele>376.2</ele>
        <time>2021-08-18T13:24:17Z</time>
      </trkpt>
      <trkpt lat="47.3009" lon="5.99786">
        <ele>376</ele>
        <time>2021-08-18T13:24:25Z</time>
      </trkpt>
      <trkpt lat="47.30089" lon="5.99771">
        <ele>372.7</ele>
        <time>2021-08-18T13:24:33Z</time>
      </trkpt>
      <trkpt lat="47.30082" lon="5.99761">
        <ele>372</ele>
        <time>2021-08-18T13:24:42Z</time>
      </trkpt>
      <trkpt lat="47.30073" lon="5.99753">
        <ele>372.6</ele>
        <time>2021-08-18T13:24:51Z</time>
      </trkpt>
      <trkpt lat="47.30066" lon="5.99742">
        <ele>372.8</ele>
        <time>2021-08-18T13:25:00Z</time>
      </trkpt>
      <trkpt lat="47.30057" lon="5.99732">
        <ele>373.8</ele>
        <time>2021-08-18T13:25:09Z</time>
      </trkpt>
      <trkpt lat="47.3005" lon="5.9972">
        <ele>374.1</ele>
        <time>2021-08-18T13:25:17Z</time>
      </trkpt>
      <trkpt lat="47.30043" lon="5.99708">
        <ele>374.3</ele>
        <time>2021-08-18T13:25:26Z</time>
      </trkpt>
      <trkpt lat="47.30037" lon="5.99697">
        <ele>374.4</ele>
        <time>2021-08-18T13:25:34Z</time>
      </trkpt>
      <trkpt lat="47.30029" lon="5.99686">
        <ele>375.2</ele>
        <time>2021-08-18T13:25:42Z</time>
      </trkpt>
      <trkpt lat="47.30022" lon="5.99674">
        <ele>375.5</ele>
        <time>2021-08-18T13:25:49Z</time>
      </trkpt>
      <trkpt lat="47.30018" lon="5.99662">
        <ele>375</ele>
        <time>2021-08-18T13:25:58Z</time>
      </trkpt>
      <trkpt lat="47.30012" lon="5.99651">
        <ele>375.2</ele>
        <time>2021-08-18T13:26:08Z</time>
      </trkpt>
      <trkpt lat="47.30005" lon="5.99641">
        <ele>375.7</ele>
        <time>2021-08-18T13:26:18Z</time>
      </trkpt>
      <trkpt lat="47.29998" lon="5.99632">
        <ele>375.9</ele>
        <time>2021-08-18T13:26:27Z</time>
      </trkpt>
      <trkpt lat="47.2999" lon="5.99623">
        <ele>375.6</ele>
        <time>2021-08-18T13:26:35Z</time>
      </trkpt>
      <trkpt lat="47.29982" lon="5.99613">
        <ele>375.2</ele>
        <time>2021-08-18T13:26:43Z</time>
      </trkpt>
      <trkpt lat="47.29975" lon="5.99603">
        <ele>374.8</ele>
        <time>2021-08-18T13:26:52Z</time>
      </trkpt>
      <trkpt lat="47.29966" lon="5.99596">
        <ele>375.1</ele>
        <time>2021-08-18T13:27:01Z</time>
      </trkpt>
      <trkpt lat="47.29957" lon="5.99589">
        <ele>375.5</ele>
        <time>2021-08-18T13:27:09Z</time>
      </trkpt>
      <trkpt lat="47.29948" lon="5.99581">
        <ele>375.8</ele>
        <time>2021-08-18T13:27:17Z</time>
      </trkpt>
      <trkpt lat="47.29939" lon="5.99575">
        <ele>376.5</ele>
        <time>2021-08-18T13:27:25Z</time>
      </trkpt>
      <trkpt lat="47.29931" lon="5.99567">
        <ele>376.7</ele>
        <time>2021-08-18T13:27:33Z</time>
      </trkpt>
      <trkpt lat="47.29922" lon="5.99562">
        <ele>377.4</ele>
        <time>2021-08-18T13:27:49Z</time>
      </trkpt>
      <trkpt lat="47.29913" lon="5.99557">
        <ele>378.1</ele>
        <time>2021-08-18T13:27:58Z</time>
      </trkpt>
      <trkpt lat="47.29903" lon="5.99553">
        <ele>379</ele>
        <time>2021-08-18T13:28:08Z</time>
      </trkpt>
      <trkpt lat="47.29894" lon="5.99548">
        <ele>379.6</ele>
        <time>2021-08-18T13:28:16Z</time>
      </trkpt>
      <trkpt lat="47.29886" lon="5.99541">
        <ele>379.8</ele>
        <time>2021-08-18T13:28:25Z</time>
      </trkpt>
      <trkpt lat="47.29876" lon="5.99534">
        <ele>380.3</ele>
        <time>2021-08-18T13:28:35Z</time>
      </trkpt>
      <trkpt lat="47.29867" lon="5.99528">
        <ele>380.8</ele>
        <time>2021-08-18T13:28:44Z</time>
      </trkpt>
      <trkpt lat="47.29858" lon="5.99521">
        <ele>381.2</ele>
        <time>2021-08-18T13:28:52Z</time>
      </trkpt>
      <trkpt lat="47.29849" lon="5.99516">
        <ele>381.9</ele>
        <time>2021-08-18T13:29:01Z</time>
      </trkpt>
      <trkpt lat="47.2984" lon="5.9951">
        <ele>382.4</ele>
        <time>2021-08-18T13:29:08Z</time>
      </trkpt>
      <trkpt lat="47.29831" lon="5.99502">
        <ele>382.3</ele>
        <time>2021-08-18T13:29:15Z</time>
      </trkpt>
      <trkpt lat="47.29821" lon="5.99495">
        <ele>381.6</ele>
        <time>2021-08-18T13:29:23Z</time>
      </trkpt>
      <trkpt lat="47.29811" lon="5.99491">
        <ele>381.5</ele>
        <time>2021-08-18T13:29:32Z</time>
      </trkpt>
      <trkpt lat="47.29801" lon="5.99486">
        <ele>381.3</ele>
        <time>2021-08-18T13:29:40Z</time>
      </trkpt>
      <trkpt lat="47.29791" lon="5.99482">
        <ele>381.4</ele>
        <time>2021-08-18T13:29:49Z</time>
      </trkpt>
      <trkpt lat="47.2978" lon="5.99479">
        <ele>381.8</ele>
        <time>2021-08-18T13:29:57Z</time>
      </trkpt>
      <trkpt lat="47.29771" lon="5.99476">
        <ele>382.1</ele>
        <time>2021-08-18T13:30:05Z</time>
      </trkpt>
      <trkpt lat="47.29762" lon="5.99472">
        <ele>382.4</ele>
        <time>2021-08-18T13:30:13Z</time>
      </trkpt>
      <trkpt lat="47.29751" lon="5.99469">
        <ele>383.1</ele>
        <time>2021-08-18T13:30:21Z</time>
      </trkpt>
      <trkpt lat="47.29741" lon="5.99466">
        <ele>383.2</ele>
        <time>2021-08-18T13:30:29Z</time>
      </trkpt>
      <trkpt lat="47.29731" lon="5.99464">
        <ele>383.3</ele>
        <time>2021-08-18T13:30:37Z</time>
      </trkpt>
      <trkpt lat="47.29722" lon="5.99459">
        <ele>383.2</ele>
        <time>2021-08-18T13:30:44Z</time>
      </trkpt>
      <trkpt lat="47.29711" lon="5.99454">
        <ele>383.2</ele>
        <time>2021-08-18T13:30:53Z</time>
      </trkpt>
      <trkpt lat="47.29703" lon="5.99448">
        <ele>383</ele>
        <time>2021-08-18T13:31:01Z</time>
      </trkpt>
      <trkpt lat="47.29691" lon="5.99444">
        <ele>383.1</ele>
        <time>2021-08-18T13:31:09Z</time>
      </trkpt>
      <trkpt lat="47.29682" lon="5.99439">
        <ele>383</ele>
        <time>2021-08-18T13:31:16Z</time>
      </trkpt>
      <trkpt lat="47.29672" lon="5.99434">
        <ele>382.9</ele>
        <time>2021-08-18T13:31:24Z</time>
      </trkpt>
      <trkpt lat="47.29662" lon="5.9943">
        <ele>382.6</ele>
        <time>2021-08-18T13:31:32Z</time>
      </trkpt>
      <trkpt lat="47.29653" lon="5.99425">
        <ele>381.8</ele>
        <time>2021-08-18T13:31:40Z</time>
      </trkpt>
      <trkpt lat="47.29643" lon="5.99419">
        <ele>381</ele>
        <time>2021-08-18T13:31:48Z</time>
      </trkpt>
      <trkpt lat="47.29635" lon="5.99413">
        <ele>380.4</ele>
        <time>2021-08-18T13:31:55Z</time>
      </trkpt>
      <trkpt lat="47.29625" lon="5.99408">
        <ele>379.8</ele>
        <time>2021-08-18T13:32:03Z</time>
      </trkpt>
      <trkpt lat="47.29616" lon="5.99401">
        <ele>379.4</ele>
        <time>2021-08-18T13:32:11Z</time>
      </trkpt>
      <trkpt lat="47.29607" lon="5.99396">
        <ele>379</ele>
        <time>2021-08-18T13:32:18Z</time>
      </trkpt>
      <trkpt lat="47.29597" lon="5.9939">
        <ele>378.7</ele>
        <time>2021-08-18T13:32:24Z</time>
      </trkpt>
      <trkpt lat="47.29589" lon="5.99384">
        <ele>378.5</ele>
        <time>2021-08-18T13:32:30Z</time>
      </trkpt>
      <trkpt lat="47.29579" lon="5.99379">
        <ele>378.1</ele>
        <time>2021-08-18T13:32:37Z</time>
      </trkpt>
      <trkpt lat="47.29573" lon="5.99367">
        <ele>377.7</ele>
        <time>2021-08-18T13:32:44Z</time>
      </trkpt>
      <trkpt lat="47.29567" lon="5.99355">
        <ele>377.4</ele>
        <time>2021-08-18T13:32:52Z</time>
      </trkpt>
      <trkpt lat="47.29558" lon="5.99351">
        <ele>376.8</ele>
        <time>2021-08-18T13:33:00Z</time>
      </trkpt>
      <trkpt lat="47.29547" lon="5.99352">
        <ele>375.9</ele>
        <time>2021-08-18T13:33:08Z</time>
      </trkpt>
      <trkpt lat="47.29536" lon="5.9935">
        <ele>375.1</ele>
        <time>2021-08-18T13:33:16Z</time>
      </trkpt>
      <trkpt lat="47.29527" lon="5.99344">
        <ele>374.6</ele>
        <time>2021-08-18T13:33:23Z</time>
      </trkpt>
      <trkpt lat="47.29517" lon="5.99339">
        <ele>374</ele>
        <time>2021-08-18T13:33:31Z</time>
      </trkpt>
      <trkpt lat="47.29506" lon="5.99333">
        <ele>373.4</ele>
        <time>2021-08-18T13:33:39Z</time>
      </trkpt>
      <trkpt lat="47.29496" lon="5.99329">
        <ele>373</ele>
        <time>2021-08-18T13:33:47Z</time>
      </trkpt>
      <trkpt lat="47.29486" lon="5.99325">
        <ele>372.7</ele>
        <time>2021-08-18T13:33:55Z</time>
      </trkpt>
      <trkpt lat="47.29475" lon="5.99322">
        <ele>372.3</ele>
        <time>2021-08-18T13:34:02Z</time>
      </trkpt>
      <trkpt lat="47.29465" lon="5.9932">
        <ele>371.8</ele>
        <time>2021-08-18T13:34:10Z</time>
      </trkpt>
      <trkpt lat="47.29454" lon="5.99317">
        <ele>371.4</ele>
        <time>2021-08-18T13:34:18Z</time>
      </trkpt>
      <trkpt lat="47.29445" lon="5.99311">
        <ele>371.1</ele>
        <time>2021-08-18T13:34:26Z</time>
      </trkpt>
      <trkpt lat="47.29434" lon="5.99309">
        <ele>370.5</ele>
        <time>2021-08-18T13:34:34Z</time>
      </trkpt>
      <trkpt lat="47.29423" lon="5.99308">
        <ele>370</ele>
        <time>2021-08-18T13:34:42Z</time>
      </trkpt>
      <trkpt lat="47.29413" lon="5.99303">
        <ele>369.6</ele>
        <time>2021-08-18T13:34:50Z</time>
      </trkpt>
      <trkpt lat="47.29403" lon="5.99299">
        <ele>369.2</ele>
        <time>2021-08-18T13:34:58Z</time>
      </trkpt>
      <trkpt lat="47.29391" lon="5.993">
        <ele>368.6</ele>
        <time>2021-08-18T13:35:06Z</time>
      </trkpt>
      <trkpt lat="47.2938" lon="5.99299">
        <ele>368.2</ele>
        <time>2021-08-18T13:35:14Z</time>
      </trkpt>
      <trkpt lat="47.2937" lon="5.99298">
        <ele>367.8</ele>
        <time>2021-08-18T13:35:22Z</time>
      </trkpt>
      <trkpt lat="47.2936" lon="5.99299">
        <ele>367.3</ele>
        <time>2021-08-18T13:35:30Z</time>
      </trkpt>
      <trkpt lat="47.29351" lon="5.99296">
        <ele>367</ele>
        <time>2021-08-18T13:35:38Z</time>
      </trkpt>
      <trkpt lat="47.29341" lon="5.99293">
        <ele>366.7</ele>
        <time>2021-08-18T13:35:47Z</time>
      </trkpt>
      <trkpt lat="47.2933" lon="5.99295">
        <ele>366.2</ele>
        <time>2021-08-18T13:35:54Z</time>
      </trkpt>
      <trkpt lat="47.29321" lon="5.99295">
        <ele>366</ele>
        <time>2021-08-18T13:36:01Z</time>
      </trkpt>
      <trkpt lat="47.2931" lon="5.99294">
        <ele>365.8</ele>
        <time>2021-08-18T13:36:09Z</time>
      </trkpt>
      <trkpt lat="47.29299" lon="5.99292">
        <ele>365.7</ele>
        <time>2021-08-18T13:36:17Z</time>
      </trkpt>
      <trkpt lat="47.29289" lon="5.99293">
        <ele>365.4</ele>
        <time>2021-08-18T13:36:24Z</time>
      </trkpt>
      <trkpt lat="47.29277" lon="5.99292">
        <ele>365.1</ele>
        <time>2021-08-18T13:36:32Z</time>
      </trkpt>
      <trkpt lat="47.29268" lon="5.99292">
        <ele>364.9</ele>
        <time>2021-08-18T13:36:38Z</time>
      </trkpt>
      <trkpt lat="47.29258" lon="5.99289">
        <ele>364.9</ele>
        <time>2021-08-18T13:36:44Z</time>
      </trkpt>
      <trkpt lat="47.29247" lon="5.9929">
        <ele>364.3</ele>
        <time>2021-08-18T13:36:52Z</time>
      </trkpt>
      <trkpt lat="47.29237" lon="5.99289">
        <ele>363.6</ele>
        <time>2021-08-18T13:37:00Z</time>
      </trkpt>
      <trkpt lat="47.29226" lon="5.99291">
        <ele>362.5</ele>
        <time>2021-08-18T13:37:08Z</time>
      </trkpt>
      <trkpt lat="47.29216" lon="5.99292">
        <ele>361.6</ele>
        <time>2021-08-18T13:37:15Z</time>
      </trkpt>
      <trkpt lat="47.29205" lon="5.99289">
        <ele>360.9</ele>
        <time>2021-08-18T13:37:27Z</time>
      </trkpt>
      <trkpt lat="47.29195" lon="5.99287">
        <ele>360.2</ele>
        <time>2021-08-18T13:37:37Z</time>
      </trkpt>
      <trkpt lat="47.29184" lon="5.99286">
        <ele>359.3</ele>
        <time>2021-08-18T13:37:45Z</time>
      </trkpt>
      <trkpt lat="47.29173" lon="5.99288">
        <ele>358.3</ele>
        <time>2021-08-18T13:37:53Z</time>
      </trkpt>
      <trkpt lat="47.29164" lon="5.99287">
        <ele>357.6</ele>
        <time>2021-08-18T13:37:59Z</time>
      </trkpt>
      <trkpt lat="47.29155" lon="5.99288">
        <ele>356.9</ele>
        <time>2021-08-18T13:38:05Z</time>
      </trkpt>
      <trkpt lat="47.29144" lon="5.99288">
        <ele>356.2</ele>
        <time>2021-08-18T13:38:12Z</time>
      </trkpt>
      <trkpt lat="47.29133" lon="5.99289">
        <ele>355.4</ele>
        <time>2021-08-18T13:38:20Z</time>
      </trkpt>
      <trkpt lat="47.29122" lon="5.99287">
        <ele>354.8</ele>
        <time>2021-08-18T13:38:28Z</time>
      </trkpt>
      <trkpt lat="47.2911" lon="5.99286">
        <ele>354.1</ele>
        <time>2021-08-18T13:38:36Z</time>
      </trkpt>
      <trkpt lat="47.291" lon="5.99287">
        <ele>353.3</ele>
        <time>2021-08-18T13:38:44Z</time>
      </trkpt>
      <trkpt lat="47.29089" lon="5.99286">
        <ele>352.7</ele>
        <time>2021-08-18T13:38:52Z</time>
      </trkpt>
      <trkpt lat="47.29079" lon="5.99287">
        <ele>351.9</ele>
        <time>2021-08-18T13:39:01Z</time>
      </trkpt>
      <trkpt lat="47.29068" lon="5.99288">
        <ele>351</ele>
        <time>2021-08-18T13:39:10Z</time>
      </trkpt>
      <trkpt lat="47.29059" lon="5.99287">
        <ele>350.3</ele>
        <time>2021-08-18T13:39:18Z</time>
      </trkpt>
      <trkpt lat="47.29049" lon="5.99283">
        <ele>349.6</ele>
        <time>2021-08-18T13:39:26Z</time>
      </trkpt>
      <trkpt lat="47.29039" lon="5.99283">
        <ele>348.8</ele>
        <time>2021-08-18T13:39:34Z</time>
      </trkpt>
      <trkpt lat="47.29029" lon="5.99282">
        <ele>348</ele>
        <time>2021-08-18T13:39:42Z</time>
      </trkpt>
      <trkpt lat="47.2902" lon="5.9929">
        <ele>347.1</ele>
        <time>2021-08-18T13:39:50Z</time>
      </trkpt>
      <trkpt lat="47.2901" lon="5.99297">
        <ele>346.2</ele>
        <time>2021-08-18T13:39:58Z</time>
      </trkpt>
      <trkpt lat="47.28999" lon="5.99299">
        <ele>345.4</ele>
        <time>2021-08-18T13:40:04Z</time>
      </trkpt>
      <trkpt lat="47.28989" lon="5.99297">
        <ele>345.4</ele>
        <time>2021-08-18T13:40:11Z</time>
      </trkpt>
      <trkpt lat="47.28979" lon="5.99297">
        <ele>345.3</ele>
        <time>2021-08-18T13:40:19Z</time>
      </trkpt>
      <trkpt lat="47.2897" lon="5.99297">
        <ele>345.3</ele>
        <time>2021-08-18T13:40:26Z</time>
      </trkpt>
      <trkpt lat="47.28959" lon="5.99298">
        <ele>345.2</ele>
        <time>2021-08-18T13:40:34Z</time>
      </trkpt>
      <trkpt lat="47.28949" lon="5.99299">
        <ele>345.2</ele>
        <time>2021-08-18T13:40:41Z</time>
      </trkpt>
      <trkpt lat="47.28938" lon="5.99299">
        <ele>345.1</ele>
        <time>2021-08-18T13:40:49Z</time>
      </trkpt>
      <trkpt lat="47.28928" lon="5.99301">
        <ele>345.1</ele>
        <time>2021-08-18T13:40:58Z</time>
      </trkpt>
      <trkpt lat="47.28917" lon="5.993">
        <ele>345</ele>
        <time>2021-08-18T13:41:06Z</time>
      </trkpt>
      <trkpt lat="47.28906" lon="5.993">
        <ele>345.1</ele>
        <time>2021-08-18T13:41:14Z</time>
      </trkpt>
      <trkpt lat="47.28895" lon="5.993">
        <ele>345.2</ele>
        <time>2021-08-18T13:41:22Z</time>
      </trkpt>
      <trkpt lat="47.28885" lon="5.99299">
        <ele>345.3</ele>
        <time>2021-08-18T13:41:30Z</time>
      </trkpt>
      <trkpt lat="47.28875" lon="5.99298">
        <ele>345.4</ele>
        <time>2021-08-18T13:41:38Z</time>
      </trkpt>
      <trkpt lat="47.28864" lon="5.99298">
        <ele>345.5</ele>
        <time>2021-08-18T13:41:46Z</time>
      </trkpt>
      <trkpt lat="47.28854" lon="5.99298">
        <ele>345.5</ele>
        <time>2021-08-18T13:41:54Z</time>
      </trkpt>
      <trkpt lat="47.28843" lon="5.99297">
        <ele>345.6</ele>
        <time>2021-08-18T13:42:02Z</time>
      </trkpt>
      <trkpt lat="47.28832" lon="5.99297">
        <ele>345.7</ele>
        <time>2021-08-18T13:42:10Z</time>
      </trkpt>
      <trkpt lat="47.28821" lon="5.99296">
        <ele>345.7</ele>
        <time>2021-08-18T13:42:17Z</time>
      </trkpt>
      <trkpt lat="47.28812" lon="5.99295">
        <ele>345.7</ele>
        <time>2021-08-18T13:42:25Z</time>
      </trkpt>
      <trkpt lat="47.28801" lon="5.99292">
        <ele>345.7</ele>
        <time>2021-08-18T13:42:32Z</time>
      </trkpt>
      <trkpt lat="47.28792" lon="5.99287">
        <ele>345.6</ele>
        <time>2021-08-18T13:42:40Z</time>
      </trkpt>
      <trkpt lat="47.28782" lon="5.99283">
        <ele>345.6</ele>
        <time>2021-08-18T13:42:48Z</time>
      </trkpt>
      <trkpt lat="47.28772" lon="5.9928">
        <ele>345.6</ele>
        <time>2021-08-18T13:42:56Z</time>
      </trkpt>
      <trkpt lat="47.28762" lon="5.99281">
        <ele>345.7</ele>
        <time>2021-08-18T13:43:04Z</time>
      </trkpt>
      <trkpt lat="47.28755" lon="5.99292">
        <ele>346</ele>
        <time>2021-08-18T13:43:13Z</time>
      </trkpt>
      <trkpt lat="47.28746" lon="5.99296">
        <ele>346</ele>
        <time>2021-08-18T13:43:20Z</time>
      </trkpt>
      <trkpt lat="47.28737" lon="5.99299">
        <ele>345.8</ele>
        <time>2021-08-18T13:43:27Z</time>
      </trkpt>
      <trkpt lat="47.28727" lon="5.99299">
        <ele>345.5</ele>
        <time>2021-08-18T13:43:35Z</time>
      </trkpt>
      <trkpt lat="47.28717" lon="5.99298">
        <ele>345.1</ele>
        <time>2021-08-18T13:43:42Z</time>
      </trkpt>
      <trkpt lat="47.28705" lon="5.99299">
        <ele>344.8</ele>
        <time>2021-08-18T13:43:50Z</time>
      </trkpt>
      <trkpt lat="47.28696" lon="5.99299">
        <ele>344.5</ele>
        <time>2021-08-18T13:43:56Z</time>
      </trkpt>
      <trkpt lat="47.28687" lon="5.993">
        <ele>344.2</ele>
        <time>2021-08-18T13:44:02Z</time>
      </trkpt>
      <trkpt lat="47.28676" lon="5.99298">
        <ele>343.9</ele>
        <time>2021-08-18T13:44:10Z</time>
      </trkpt>
      <trkpt lat="47.28666" lon="5.99297">
        <ele>343.5</ele>
        <time>2021-08-18T13:44:18Z</time>
      </trkpt>
      <trkpt lat="47.28655" lon="5.99294">
        <ele>343.2</ele>
        <time>2021-08-18T13:44:26Z</time>
      </trkpt>
      <trkpt lat="47.28644" lon="5.99293">
        <ele>343</ele>
        <time>2021-08-18T13:44:34Z</time>
      </trkpt>
      <trkpt lat="47.28634" lon="5.99294">
        <ele>342.7</ele>
        <time>2021-08-18T13:44:41Z</time>
      </trkpt>
      <trkpt lat="47.28622" lon="5.99296">
        <ele>342.5</ele>
        <time>2021-08-18T13:44:49Z</time>
      </trkpt>
      <trkpt lat="47.2861" lon="5.99294">
        <ele>342.2</ele>
        <time>2021-08-18T13:44:57Z</time>
      </trkpt>
      <trkpt lat="47.286" lon="5.99295">
        <ele>341.9</ele>
        <time>2021-08-18T13:45:05Z</time>
      </trkpt>
      <trkpt lat="47.28589" lon="5.99296">
        <ele>341.7</ele>
        <time>2021-08-18T13:45:12Z</time>
      </trkpt>
      <trkpt lat="47.28578" lon="5.99296">
        <ele>341.6</ele>
        <time>2021-08-18T13:45:19Z</time>
      </trkpt>
      <trkpt lat="47.28568" lon="5.99297">
        <ele>341.7</ele>
        <time>2021-08-18T13:45:27Z</time>
      </trkpt>
      <trkpt lat="47.28558" lon="5.99297">
        <ele>341.7</ele>
        <time>2021-08-18T13:45:35Z</time>
      </trkpt>
      <trkpt lat="47.28549" lon="5.99297">
        <ele>341.8</ele>
        <time>2021-08-18T13:45:43Z</time>
      </trkpt>
      <trkpt lat="47.28539" lon="5.99296">
        <ele>341.8</ele>
        <time>2021-08-18T13:45:51Z</time>
      </trkpt>
      <trkpt lat="47.28529" lon="5.99296">
        <ele>341.9</ele>
        <time>2021-08-18T13:45:59Z</time>
      </trkpt>
      <trkpt lat="47.28519" lon="5.99296">
        <ele>342</ele>
        <time>2021-08-18T13:46:07Z</time>
      </trkpt>
      <trkpt lat="47.28508" lon="5.99298">
        <ele>342.1</ele>
        <time>2021-08-18T13:46:15Z</time>
      </trkpt>
      <trkpt lat="47.28497" lon="5.99297">
        <ele>342.1</ele>
        <time>2021-08-18T13:46:23Z</time>
      </trkpt>
      <trkpt lat="47.28486" lon="5.99296">
        <ele>342.1</ele>
        <time>2021-08-18T13:46:31Z</time>
      </trkpt>
      <trkpt lat="47.28476" lon="5.99297">
        <ele>342.2</ele>
        <time>2021-08-18T13:46:39Z</time>
      </trkpt>
      <trkpt lat="47.28466" lon="5.99296">
        <ele>342.1</ele>
        <time>2021-08-18T13:46:47Z</time>
      </trkpt>
      <trkpt lat="47.28454" lon="5.99298">
        <ele>342.2</ele>
        <time>2021-08-18T13:46:55Z</time>
      </trkpt>
      <trkpt lat="47.28444" lon="5.99296">
        <ele>342.2</ele>
        <time>2021-08-18T13:47:03Z</time>
      </trkpt>
      <trkpt lat="47.28433" lon="5.99295">
        <ele>342.1</ele>
        <time>2021-08-18T13:47:11Z</time>
      </trkpt>
      <trkpt lat="47.28421" lon="5.99294">
        <ele>342.1</ele>
        <time>2021-08-18T13:47:19Z</time>
      </trkpt>
      <trkpt lat="47.28413" lon="5.993">
        <ele>342.3</ele>
        <time>2021-08-18T13:47:28Z</time>
      </trkpt>
      <trkpt lat="47.28405" lon="5.99305">
        <ele>342.4</ele>
        <time>2021-08-18T13:47:39Z</time>
      </trkpt>
      <trkpt lat="47.28398" lon="5.99316">
        <ele>342.8</ele>
        <time>2021-08-18T13:47:47Z</time>
      </trkpt>
      <trkpt lat="47.28389" lon="5.99323">
        <ele>342.9</ele>
        <time>2021-08-18T13:47:55Z</time>
      </trkpt>
      <trkpt lat="47.28379" lon="5.99324">
        <ele>342.7</ele>
        <time>2021-08-18T13:48:03Z</time>
      </trkpt>
      <trkpt lat="47.28369" lon="5.99322">
        <ele>342.4</ele>
        <time>2021-08-18T13:48:12Z</time>
      </trkpt>
      <trkpt lat="47.28359" lon="5.99324">
        <ele>342.2</ele>
        <time>2021-08-18T13:48:21Z</time>
      </trkpt>
      <trkpt lat="47.2835" lon="5.99331">
        <ele>342.3</ele>
        <time>2021-08-18T13:48:29Z</time>
      </trkpt>
      <trkpt lat="47.2834" lon="5.99338">
        <ele>342.4</ele>
        <time>2021-08-18T13:48:37Z</time>
      </trkpt>
      <trkpt lat="47.2833" lon="5.99342">
        <ele>342.6</ele>
        <time>2021-08-18T13:48:45Z</time>
      </trkpt>
      <trkpt lat="47.28322" lon="5.99349">
        <ele>343.4</ele>
        <time>2021-08-18T13:48:52Z</time>
      </trkpt>
      <trkpt lat="47.28314" lon="5.99358">
        <ele>344.3</ele>
        <time>2021-08-18T13:49:00Z</time>
      </trkpt>
      <trkpt lat="47.28305" lon="5.99362">
        <ele>345</ele>
        <time>2021-08-18T13:49:10Z</time>
      </trkpt>
      <trkpt lat="47.28296" lon="5.99371">
        <ele>345.8</ele>
        <time>2021-08-18T13:49:18Z</time>
      </trkpt>
      <trkpt lat="47.28289" lon="5.99382">
        <ele>346.7</ele>
        <time>2021-08-18T13:49:34Z</time>
      </trkpt>
      <trkpt lat="47.28281" lon="5.99388">
        <ele>347.4</ele>
        <time>2021-08-18T13:49:52Z</time>
      </trkpt>
      <trkpt lat="47.28276" lon="5.99377">
        <ele>347.2</ele>
        <time>2021-08-18T13:50:05Z</time>
      </trkpt>
      <trkpt lat="47.28265" lon="5.99376">
        <ele>347.7</ele>
        <time>2021-08-18T13:50:11Z</time>
      </trkpt>
      <trkpt lat="47.28254" lon="5.99381">
        <ele>348.5</ele>
        <time>2021-08-18T13:50:17Z</time>
      </trkpt>
      <trkpt lat="47.28244" lon="5.99386">
        <ele>348.9</ele>
        <time>2021-08-18T13:50:25Z</time>
      </trkpt>
      <trkpt lat="47.28241" lon="5.99396">
        <ele>349.3</ele>
        <time>2021-08-18T13:50:36Z</time>
      </trkpt>
      <trkpt lat="47.28231" lon="5.9939">
        <ele>349</ele>
        <time>2021-08-18T13:50:41Z</time>
      </trkpt>
      <trkpt lat="47.28221" lon="5.99389">
        <ele>349</ele>
        <time>2021-08-18T13:50:53Z</time>
      </trkpt>
      <trkpt lat="47.28209" lon="5.99385">
        <ele>348.9</ele>
        <time>2021-08-18T13:50:57Z</time>
      </trkpt>
      <trkpt lat="47.282" lon="5.99385">
        <ele>348.9</ele>
        <time>2021-08-18T13:51:03Z</time>
      </trkpt>
      <trkpt lat="47.2819" lon="5.99382">
        <ele>348.8</ele>
        <time>2021-08-18T13:51:12Z</time>
      </trkpt>
      <trkpt lat="47.28117" lon="5.99308">
        <ele>345.9</ele>
        <time>2021-08-18T13:55:28Z</time>
      </trkpt>
      <trkpt lat="47.28119" lon="5.99305">
        <ele>345.8</ele>
        <time>2021-08-18T13:55:47Z</time>
      </trkpt>
      <trkpt lat="47.28119" lon="5.99305">
        <ele>345.8</ele>
        <time>2021-08-18T13:55:49Z</time>
      </trkpt>
      <trkpt lat="47.28119" lon="5.99303">
        <ele>345.8</ele>
        <time>2021-08-18T13:56:17Z</time>
      </trkpt>
      <trkpt lat="47.28119" lon="5.99303">
        <ele>345.8</ele>
        <time>2021-08-18T13:56:19Z</time>
      </trkpt>
      <trkpt lat="47.28119" lon="5.99302">
        <ele>345.7</ele>
        <time>2021-08-18T13:56:47Z</time>
      </trkpt>
      <trkpt lat="47.28119" lon="5.99302">
        <ele>345.7</ele>
        <time>2021-08-18T13:56:49Z</time>
      </trkpt>
      <trkpt lat="47.28115" lon="5.99307">
        <ele>345.8</ele>
        <time>2021-08-18T13:56:54Z</time>
      </trkpt>
      <trkpt lat="47.2811" lon="5.99308">
        <ele>345.8</ele>
        <time>2021-08-18T13:56:59Z</time>
      </trkpt>
      <trkpt lat="47.28104" lon="5.99306">
        <ele>345.8</ele>
        <time>2021-08-18T13:57:03Z</time>
      </trkpt>
      <trkpt lat="47.28099" lon="5.99305">
        <ele>345.7</ele>
        <time>2021-08-18T13:57:07Z</time>
      </trkpt>
      <trkpt lat="47.28093" lon="5.99305">
        <ele>345.7</ele>
        <time>2021-08-18T13:57:11Z</time>
      </trkpt>
      <trkpt lat="47.2809" lon="5.993">
        <ele>345.6</ele>
        <time>2021-08-18T13:57:16Z</time>
      </trkpt>
      <trkpt lat="47.28089" lon="5.99294">
        <ele>345.5</ele>
        <time>2021-08-18T13:57:21Z</time>
      </trkpt>
      <trkpt lat="47.28091" lon="5.99286">
        <ele>345.4</ele>
        <time>2021-08-18T13:57:25Z</time>
      </trkpt>
      <trkpt lat="47.28072" lon="5.99278">
        <ele>344.6</ele>
        <time>2021-08-18T13:58:05Z</time>
      </trkpt>
      <trkpt lat="47.28069" lon="5.99271">
        <ele>344.3</ele>
        <time>2021-08-18T13:58:09Z</time>
      </trkpt>
      <trkpt lat="47.28065" lon="5.99264">
        <ele>344</ele>
        <time>2021-08-18T13:58:13Z</time>
      </trkpt>
      <trkpt lat="47.28059" lon="5.99262">
        <ele>343.6</ele>
        <time>2021-08-18T13:58:17Z</time>
      </trkpt>
      <trkpt lat="47.28055" lon="5.99264">
        <ele>343.4</ele>
        <time>2021-08-18T13:58:20Z</time>
      </trkpt>
      <trkpt lat="47.28051" lon="5.99268">
        <ele>343.2</ele>
        <time>2021-08-18T13:58:23Z</time>
      </trkpt>
      <trkpt lat="47.28047" lon="5.99271">
        <ele>343</ele>
        <time>2021-08-18T13:58:26Z</time>
      </trkpt>
      <trkpt lat="47.28041" lon="5.99273">
        <ele>342.6</ele>
        <time>2021-08-18T13:58:30Z</time>
      </trkpt>
      <trkpt lat="47.28035" lon="5.99275">
        <ele>342.2</ele>
        <time>2021-08-18T13:58:34Z</time>
      </trkpt>
      <trkpt lat="47.2803" lon="5.99277">
        <ele>341.9</ele>
        <time>2021-08-18T13:58:38Z</time>
      </trkpt>
      <trkpt lat="47.28024" lon="5.9928">
        <ele>341.5</ele>
        <time>2021-08-18T13:58:42Z</time>
      </trkpt>
      <trkpt lat="47.28019" lon="5.99283">
        <ele>341.2</ele>
        <time>2021-08-18T13:58:46Z</time>
      </trkpt>
      <trkpt lat="47.28014" lon="5.99286">
        <ele>340.9</ele>
        <time>2021-08-18T13:58:50Z</time>
      </trkpt>
      <trkpt lat="47.28009" lon="5.99289">
        <ele>340.6</ele>
        <time>2021-08-18T13:58:54Z</time>
      </trkpt>
      <trkpt lat="47.28003" lon="5.99291">
        <ele>340.2</ele>
        <time>2021-08-18T13:58:58Z</time>
      </trkpt>
      <trkpt lat="47.27999" lon="5.99294">
        <ele>340</ele>
        <time>2021-08-18T13:59:02Z</time>
      </trkpt>
      <trkpt lat="47.27994" lon="5.99297">
        <ele>339.7</ele>
        <time>2021-08-18T13:59:06Z</time>
      </trkpt>
      <trkpt lat="47.27988" lon="5.99301">
        <ele>339.4</ele>
        <time>2021-08-18T13:59:10Z</time>
      </trkpt>
      <trkpt lat="47.27984" lon="5.99303">
        <ele>339.2</ele>
        <time>2021-08-18T13:59:13Z</time>
      </trkpt>
      <trkpt lat="47.2798" lon="5.99304">
        <ele>339</ele>
        <time>2021-08-18T13:59:16Z</time>
      </trkpt>
      <trkpt lat="47.27974" lon="5.99306">
        <ele>338.8</ele>
        <time>2021-08-18T13:59:20Z</time>
      </trkpt>
      <trkpt lat="47.27969" lon="5.9931">
        <ele>338.5</ele>
        <time>2021-08-18T13:59:24Z</time>
      </trkpt>
      <trkpt lat="47.27964" lon="5.99313">
        <ele>338.3</ele>
        <time>2021-08-18T13:59:27Z</time>
      </trkpt>
      <trkpt lat="47.27959" lon="5.99317">
        <ele>338</ele>
        <time>2021-08-18T13:59:31Z</time>
      </trkpt>
      <trkpt lat="47.27954" lon="5.99319">
        <ele>337.8</ele>
        <time>2021-08-18T13:59:35Z</time>
      </trkpt>
      <trkpt lat="47.27948" lon="5.99321">
        <ele>337.5</ele>
        <time>2021-08-18T13:59:39Z</time>
      </trkpt>
      <trkpt lat="47.27943" lon="5.99325">
        <ele>337.3</ele>
        <time>2021-08-18T13:59:43Z</time>
      </trkpt>
      <trkpt lat="47.27937" lon="5.99328">
        <ele>337</ele>
        <time>2021-08-18T13:59:47Z</time>
      </trkpt>
      <trkpt lat="47.27932" lon="5.99331">
        <ele>336.7</ele>
        <time>2021-08-18T13:59:51Z</time>
      </trkpt>
      <trkpt lat="47.27928" lon="5.99332">
        <ele>336.5</ele>
        <time>2021-08-18T13:59:54Z</time>
      </trkpt>
      <trkpt lat="47.27923" lon="5.99334">
        <ele>336.3</ele>
        <time>2021-08-18T13:59:57Z</time>
      </trkpt>
      <trkpt lat="47.27919" lon="5.99335">
        <ele>336</ele>
        <time>2021-08-18T14:00:00Z</time>
      </trkpt>
      <trkpt lat="47.27914" lon="5.99339">
        <ele>335.5</ele>
        <time>2021-08-18T14:00:04Z</time>
      </trkpt>
      <trkpt lat="47.27908" lon="5.99341">
        <ele>335</ele>
        <time>2021-08-18T14:00:08Z</time>
      </trkpt>
      <trkpt lat="47.27904" lon="5.99343">
        <ele>334.6</ele>
        <time>2021-08-18T14:00:11Z</time>
      </trkpt>
      <trkpt lat="47.279" lon="5.99347">
        <ele>334.1</ele>
        <time>2021-08-18T14:00:16Z</time>
      </trkpt>
      <trkpt lat="47.27895" lon="5.99351">
        <ele>333.6</ele>
        <time>2021-08-18T14:00:19Z</time>
      </trkpt>
      <trkpt lat="47.2789" lon="5.99354">
        <ele>333.2</ele>
        <time>2021-08-18T14:00:22Z</time>
      </trkpt>
      <trkpt lat="47.27886" lon="5.99357">
        <ele>332.8</ele>
        <time>2021-08-18T14:00:25Z</time>
      </trkpt>
      <trkpt lat="47.2788" lon="5.99359">
        <ele>332.4</ele>
        <time>2021-08-18T14:00:29Z</time>
      </trkpt>
      <trkpt lat="47.27875" lon="5.99361">
        <ele>332</ele>
        <time>2021-08-18T14:00:33Z</time>
      </trkpt>
      <trkpt lat="47.27869" lon="5.99364">
        <ele>331.6</ele>
        <time>2021-08-18T14:00:37Z</time>
      </trkpt>
      <trkpt lat="47.27863" lon="5.99367">
        <ele>331.2</ele>
        <time>2021-08-18T14:00:41Z</time>
      </trkpt>
      <trkpt lat="47.27858" lon="5.99369">
        <ele>330.8</ele>
        <time>2021-08-18T14:00:45Z</time>
      </trkpt>
      <trkpt lat="47.27853" lon="5.99372">
        <ele>330.5</ele>
        <time>2021-08-18T14:00:49Z</time>
      </trkpt>
      <trkpt lat="47.27848" lon="5.99374">
        <ele>330.2</ele>
        <time>2021-08-18T14:00:53Z</time>
      </trkpt>
      <trkpt lat="47.27844" lon="5.99379">
        <ele>329.9</ele>
        <time>2021-08-18T14:00:57Z</time>
      </trkpt>
      <trkpt lat="47.27839" lon="5.99381">
        <ele>329.7</ele>
        <time>2021-08-18T14:01:02Z</time>
      </trkpt>
      <trkpt lat="47.27834" lon="5.99383">
        <ele>329.4</ele>
        <time>2021-08-18T14:01:06Z</time>
      </trkpt>
      <trkpt lat="47.27828" lon="5.99385">
        <ele>329.3</ele>
        <time>2021-08-18T14:01:10Z</time>
      </trkpt>
      <trkpt lat="47.27822" lon="5.99386">
        <ele>329.1</ele>
        <time>2021-08-18T14:01:14Z</time>
      </trkpt>
      <trkpt lat="47.27816" lon="5.99387">
        <ele>328.9</ele>
        <time>2021-08-18T14:01:18Z</time>
      </trkpt>
      <trkpt lat="47.27811" lon="5.99389">
        <ele>328.8</ele>
        <time>2021-08-18T14:01:22Z</time>
      </trkpt>
      <trkpt lat="47.27805" lon="5.99393">
        <ele>328.6</ele>
        <time>2021-08-18T14:01:26Z</time>
      </trkpt>
      <trkpt lat="47.278" lon="5.99397">
        <ele>328.4</ele>
        <time>2021-08-18T14:01:30Z</time>
      </trkpt>
      <trkpt lat="47.27795" lon="5.99399">
        <ele>328.3</ele>
        <time>2021-08-18T14:01:34Z</time>
      </trkpt>
      <trkpt lat="47.2779" lon="5.994">
        <ele>328.2</ele>
        <time>2021-08-18T14:01:38Z</time>
      </trkpt>
      <trkpt lat="47.27784" lon="5.99404">
        <ele>328</ele>
        <time>2021-08-18T14:01:42Z</time>
      </trkpt>
      <trkpt lat="47.2778" lon="5.99408">
        <ele>327.8</ele>
        <time>2021-08-18T14:01:46Z</time>
      </trkpt>
      <trkpt lat="47.27775" lon="5.9941">
        <ele>327.7</ele>
        <time>2021-08-18T14:01:50Z</time>
      </trkpt>
      <trkpt lat="47.2777" lon="5.99413">
        <ele>327.5</ele>
        <time>2021-08-18T14:01:54Z</time>
      </trkpt>
      <trkpt lat="47.27765" lon="5.99415">
        <ele>327.4</ele>
        <time>2021-08-18T14:01:58Z</time>
      </trkpt>
      <trkpt lat="47.2776" lon="5.99417">
        <ele>327.2</ele>
        <time>2021-08-18T14:02:02Z</time>
      </trkpt>
      <trkpt lat="47.27755" lon="5.99419">
        <ele>327.1</ele>
        <time>2021-08-18T14:02:06Z</time>
      </trkpt>
      <trkpt lat="47.2775" lon="5.99421">
        <ele>326.9</ele>
        <time>2021-08-18T14:02:10Z</time>
      </trkpt>
      <trkpt lat="47.27745" lon="5.99423">
        <ele>326.7</ele>
        <time>2021-08-18T14:02:14Z</time>
      </trkpt>
      <trkpt lat="47.27739" lon="5.99424">
        <ele>326.6</ele>
        <time>2021-08-18T14:02:18Z</time>
      </trkpt>
      <trkpt lat="47.27734" lon="5.99427">
        <ele>326.4</ele>
        <time>2021-08-18T14:02:22Z</time>
      </trkpt>
      <trkpt lat="47.27728" lon="5.99429">
        <ele>326.2</ele>
        <time>2021-08-18T14:02:26Z</time>
      </trkpt>
      <trkpt lat="47.27724" lon="5.99432">
        <ele>326.1</ele>
        <time>2021-08-18T14:02:29Z</time>
      </trkpt>
      <trkpt lat="47.2772" lon="5.99435">
        <ele>325.9</ele>
        <time>2021-08-18T14:02:32Z</time>
      </trkpt>
      <trkpt lat="47.27715" lon="5.99437">
        <ele>325.8</ele>
        <time>2021-08-18T14:02:35Z</time>
      </trkpt>
      <trkpt lat="47.27711" lon="5.99438">
        <ele>325.7</ele>
        <time>2021-08-18T14:02:38Z</time>
      </trkpt>
      <trkpt lat="47.27706" lon="5.99439">
        <ele>325.5</ele>
        <time>2021-08-18T14:02:41Z</time>
      </trkpt>
      <trkpt lat="47.27701" lon="5.99442">
        <ele>325.4</ele>
        <time>2021-08-18T14:02:45Z</time>
      </trkpt>
      <trkpt lat="47.27696" lon="5.99446">
        <ele>325.2</ele>
        <time>2021-08-18T14:02:49Z</time>
      </trkpt>
      <trkpt lat="47.27691" lon="5.99449">
        <ele>325.1</ele>
        <time>2021-08-18T14:02:53Z</time>
      </trkpt>
      <trkpt lat="47.27686" lon="5.99452">
        <ele>324.9</ele>
        <time>2021-08-18T14:02:57Z</time>
      </trkpt>
      <trkpt lat="47.27681" lon="5.99457">
        <ele>324.8</ele>
        <time>2021-08-18T14:03:01Z</time>
      </trkpt>
      <trkpt lat="47.27681" lon="5.99464">
        <ele>324.7</ele>
        <time>2021-08-18T14:03:05Z</time>
      </trkpt>
      <trkpt lat="47.27679" lon="5.99471">
        <ele>324.5</ele>
        <time>2021-08-18T14:03:09Z</time>
      </trkpt>
      <trkpt lat="47.27675" lon="5.99477">
        <ele>324.4</ele>
        <time>2021-08-18T14:03:14Z</time>
      </trkpt>
      <trkpt lat="47.27672" lon="5.99482">
        <ele>324.3</ele>
        <time>2021-08-18T14:03:18Z</time>
      </trkpt>
      <trkpt lat="47.2767" lon="5.99489">
        <ele>324.2</ele>
        <time>2021-08-18T14:03:22Z</time>
      </trkpt>
      <trkpt lat="47.27667" lon="5.99496">
        <ele>324.1</ele>
        <time>2021-08-18T14:03:26Z</time>
      </trkpt>
      <trkpt lat="47.27665" lon="5.99502">
        <ele>323.9</ele>
        <time>2021-08-18T14:03:29Z</time>
      </trkpt>
      <trkpt lat="47.27662" lon="5.99507">
        <ele>323.7</ele>
        <time>2021-08-18T14:03:32Z</time>
      </trkpt>
      <trkpt lat="47.2766" lon="5.99514">
        <ele>323.4</ele>
        <time>2021-08-18T14:03:35Z</time>
      </trkpt>
      <trkpt lat="47.27657" lon="5.99521">
        <ele>323.1</ele>
        <time>2021-08-18T14:03:39Z</time>
      </trkpt>
      <trkpt lat="47.27654" lon="5.99527">
        <ele>322.9</ele>
        <time>2021-08-18T14:03:43Z</time>
      </trkpt>
      <trkpt lat="47.27652" lon="5.99534">
        <ele>322.6</ele>
        <time>2021-08-18T14:03:47Z</time>
      </trkpt>
      <trkpt lat="47.2765" lon="5.99542">
        <ele>322.4</ele>
        <time>2021-08-18T14:03:51Z</time>
      </trkpt>
      <trkpt lat="47.27649" lon="5.9955">
        <ele>322.2</ele>
        <time>2021-08-18T14:03:55Z</time>
      </trkpt>
      <trkpt lat="47.27646" lon="5.99557">
        <ele>322</ele>
        <time>2021-08-18T14:03:59Z</time>
      </trkpt>
      <trkpt lat="47.27643" lon="5.99564">
        <ele>321.8</ele>
        <time>2021-08-18T14:04:03Z</time>
      </trkpt>
      <trkpt lat="47.27641" lon="5.99572">
        <ele>321.6</ele>
        <time>2021-08-18T14:04:07Z</time>
      </trkpt>
      <trkpt lat="47.27639" lon="5.99579">
        <ele>321.4</ele>
        <time>2021-08-18T14:04:11Z</time>
      </trkpt>
      <trkpt lat="47.27637" lon="5.99587">
        <ele>321.2</ele>
        <time>2021-08-18T14:04:15Z</time>
      </trkpt>
      <trkpt lat="47.27634" lon="5.99593">
        <ele>320.9</ele>
        <time>2021-08-18T14:04:19Z</time>
      </trkpt>
      <trkpt lat="47.2763" lon="5.996">
        <ele>320.6</ele>
        <time>2021-08-18T14:04:23Z</time>
      </trkpt>
      <trkpt lat="47.27627" lon="5.99606">
        <ele>320.4</ele>
        <time>2021-08-18T14:04:26Z</time>
      </trkpt>
      <trkpt lat="47.27625" lon="5.99611">
        <ele>320.2</ele>
        <time>2021-08-18T14:04:29Z</time>
      </trkpt>
      <trkpt lat="47.27622" lon="5.99618">
        <ele>319.9</ele>
        <time>2021-08-18T14:04:33Z</time>
      </trkpt>
      <trkpt lat="47.27619" lon="5.99625">
        <ele>319.7</ele>
        <time>2021-08-18T14:04:37Z</time>
      </trkpt>
      <trkpt lat="47.27615" lon="5.99632">
        <ele>319.6</ele>
        <time>2021-08-18T14:04:41Z</time>
      </trkpt>
      <trkpt lat="47.27611" lon="5.99638">
        <ele>319.5</ele>
        <time>2021-08-18T14:04:45Z</time>
      </trkpt>
      <trkpt lat="47.27607" lon="5.99644">
        <ele>319.4</ele>
        <time>2021-08-18T14:04:49Z</time>
      </trkpt>
      <trkpt lat="47.27603" lon="5.9965">
        <ele>319.4</ele>
        <time>2021-08-18T14:04:53Z</time>
      </trkpt>
      <trkpt lat="47.276" lon="5.99656">
        <ele>319.4</ele>
        <time>2021-08-18T14:04:56Z</time>
      </trkpt>
      <trkpt lat="47.27596" lon="5.99663">
        <ele>319.4</ele>
        <time>2021-08-18T14:05:00Z</time>
      </trkpt>
      <trkpt lat="47.27593" lon="5.99669">
        <ele>319.4</ele>
        <time>2021-08-18T14:05:04Z</time>
      </trkpt>
      <trkpt lat="47.27589" lon="5.99675">
        <ele>319.5</ele>
        <time>2021-08-18T14:05:08Z</time>
      </trkpt>
      <trkpt lat="47.27585" lon="5.99681">
        <ele>319.7</ele>
        <time>2021-08-18T14:05:12Z</time>
      </trkpt>
      <trkpt lat="47.27581" lon="5.99687">
        <ele>319.8</ele>
        <time>2021-08-18T14:05:16Z</time>
      </trkpt>
      <trkpt lat="47.27577" lon="5.99694">
        <ele>319.8</ele>
        <time>2021-08-18T14:05:20Z</time>
      </trkpt>
      <trkpt lat="47.27574" lon="5.997">
        <ele>319.8</ele>
        <time>2021-08-18T14:05:24Z</time>
      </trkpt>
      <trkpt lat="47.2757" lon="5.99706">
        <ele>319.8</ele>
        <time>2021-08-18T14:05:28Z</time>
      </trkpt>
      <trkpt lat="47.27565" lon="5.99712">
        <ele>319.9</ele>
        <time>2021-08-18T14:05:32Z</time>
      </trkpt>
      <trkpt lat="47.27562" lon="5.99718">
        <ele>319.9</ele>
        <time>2021-08-18T14:05:36Z</time>
      </trkpt>
      <trkpt lat="47.27559" lon="5.99725">
        <ele>319.9</ele>
        <time>2021-08-18T14:05:40Z</time>
      </trkpt>
      <trkpt lat="47.27554" lon="5.99731">
        <ele>319.9</ele>
        <time>2021-08-18T14:05:44Z</time>
      </trkpt>
      <trkpt lat="47.27551" lon="5.99735">
        <ele>320</ele>
        <time>2021-08-18T14:05:47Z</time>
      </trkpt>
      <trkpt lat="47.27547" lon="5.99741">
        <ele>320</ele>
        <time>2021-08-18T14:05:51Z</time>
      </trkpt>
      <trkpt lat="47.27543" lon="5.99746">
        <ele>320</ele>
        <time>2021-08-18T14:05:55Z</time>
      </trkpt>
      <trkpt lat="47.27539" lon="5.99749">
        <ele>320.1</ele>
        <time>2021-08-18T14:05:59Z</time>
      </trkpt>
      <trkpt lat="47.27536" lon="5.99755">
        <ele>320.1</ele>
        <time>2021-08-18T14:06:05Z</time>
      </trkpt>
      <trkpt lat="47.27532" lon="5.99759">
        <ele>320.1</ele>
        <time>2021-08-18T14:06:09Z</time>
      </trkpt>
      <trkpt lat="47.27528" lon="5.99765">
        <ele>320.1</ele>
        <time>2021-08-18T14:06:13Z</time>
      </trkpt>
      <trkpt lat="47.27523" lon="5.99771">
        <ele>320.2</ele>
        <time>2021-08-18T14:06:17Z</time>
      </trkpt>
      <trkpt lat="47.27519" lon="5.99776">
        <ele>320.1</ele>
        <time>2021-08-18T14:06:21Z</time>
      </trkpt>
      <trkpt lat="47.27515" lon="5.99781">
        <ele>320.1</ele>
        <time>2021-08-18T14:06:26Z</time>
      </trkpt>
      <trkpt lat="47.27512" lon="5.99786">
        <ele>320</ele>
        <time>2021-08-18T14:06:30Z</time>
      </trkpt>
      <trkpt lat="47.2751" lon="5.99793">
        <ele>319.9</ele>
        <time>2021-08-18T14:06:34Z</time>
      </trkpt>
      <trkpt lat="47.27509" lon="5.99801">
        <ele>319.8</ele>
        <time>2021-08-18T14:06:38Z</time>
      </trkpt>
      <trkpt lat="47.27507" lon="5.99809">
        <ele>319.6</ele>
        <time>2021-08-18T14:06:42Z</time>
      </trkpt>
      <trkpt lat="47.27505" lon="5.99817">
        <ele>319.4</ele>
        <time>2021-08-18T14:06:45Z</time>
      </trkpt>
      <trkpt lat="47.27505" lon="5.99824">
        <ele>319.3</ele>
        <time>2021-08-18T14:06:48Z</time>
      </trkpt>
      <trkpt lat="47.27504" lon="5.9983">
        <ele>319.1</ele>
        <time>2021-08-18T14:06:51Z</time>
      </trkpt>
      <trkpt lat="47.27504" lon="5.99839">
        <ele>319.3</ele>
        <time>2021-08-18T14:06:55Z</time>
      </trkpt>
      <trkpt lat="47.27505" lon="5.99846">
        <ele>319.7</ele>
        <time>2021-08-18T14:07:00Z</time>
      </trkpt>
      <trkpt lat="47.27507" lon="5.99853">
        <ele>320</ele>
        <time>2021-08-18T14:07:04Z</time>
      </trkpt>
      <trkpt lat="47.27509" lon="5.99858">
        <ele>320.3</ele>
        <time>2021-08-18T14:07:08Z</time>
      </trkpt>
      <trkpt lat="47.27512" lon="5.99866">
        <ele>320.7</ele>
        <time>2021-08-18T14:07:12Z</time>
      </trkpt>
      <trkpt lat="47.27514" lon="5.99876">
        <ele>321.2</ele>
        <time>2021-08-18T14:07:15Z</time>
      </trkpt>
      <trkpt lat="47.27515" lon="5.99883">
        <ele>321.6</ele>
        <time>2021-08-18T14:07:18Z</time>
      </trkpt>
      <trkpt lat="47.27516" lon="5.9989">
        <ele>321.9</ele>
        <time>2021-08-18T14:07:21Z</time>
      </trkpt>
      <trkpt lat="47.27519" lon="5.99896">
        <ele>322.2</ele>
        <time>2021-08-18T14:07:25Z</time>
      </trkpt>
      <trkpt lat="47.2752" lon="5.99904">
        <ele>322.6</ele>
        <time>2021-08-18T14:07:29Z</time>
      </trkpt>
      <trkpt lat="47.27523" lon="5.9991">
        <ele>323</ele>
        <time>2021-08-18T14:07:33Z</time>
      </trkpt>
      <trkpt lat="47.27527" lon="5.99916">
        <ele>323.3</ele>
        <time>2021-08-18T14:07:37Z</time>
      </trkpt>
      <trkpt lat="47.27529" lon="5.99923">
        <ele>323.8</ele>
        <time>2021-08-18T14:07:40Z</time>
      </trkpt>
      <trkpt lat="47.27532" lon="5.99929">
        <ele>324.2</ele>
        <time>2021-08-18T14:07:43Z</time>
      </trkpt>
      <trkpt lat="47.27535" lon="5.99936">
        <ele>324.7</ele>
        <time>2021-08-18T14:07:47Z</time>
      </trkpt>
      <trkpt lat="47.27538" lon="5.99942">
        <ele>325.1</ele>
        <time>2021-08-18T14:07:51Z</time>
      </trkpt>
      <trkpt lat="47.27539" lon="5.99948">
        <ele>325.5</ele>
        <time>2021-08-18T14:07:55Z</time>
      </trkpt>
      <trkpt lat="47.27543" lon="5.99955">
        <ele>326</ele>
        <time>2021-08-18T14:07:59Z</time>
      </trkpt>
      <trkpt lat="47.27547" lon="5.99962">
        <ele>326.5</ele>
        <time>2021-08-18T14:08:03Z</time>
      </trkpt>
      <trkpt lat="47.27551" lon="5.99966">
        <ele>326.8</ele>
        <time>2021-08-18T14:08:06Z</time>
      </trkpt>
      <trkpt lat="47.27552" lon="5.99973">
        <ele>327.3</ele>
        <time>2021-08-18T14:08:10Z</time>
      </trkpt>
      <trkpt lat="47.27551" lon="5.9998">
        <ele>327.7</ele>
        <time>2021-08-18T14:08:13Z</time>
      </trkpt>
      <trkpt lat="47.27552" lon="5.99987">
        <ele>328.2</ele>
        <time>2021-08-18T14:08:17Z</time>
      </trkpt>
      <trkpt lat="47.27555" lon="5.99993">
        <ele>328.6</ele>
        <time>2021-08-18T14:08:21Z</time>
      </trkpt>
      <trkpt lat="47.27559" lon="5.99998">
        <ele>328.9</ele>
        <time>2021-08-18T14:08:25Z</time>
      </trkpt>
      <trkpt lat="47.27562" lon="6.00005">
        <ele>329.4</ele>
        <time>2021-08-18T14:08:29Z</time>
      </trkpt>
      <trkpt lat="47.27565" lon="6.00012">
        <ele>329.9</ele>
        <time>2021-08-18T14:08:33Z</time>
      </trkpt>
      <trkpt lat="47.27565" lon="6.00019">
        <ele>330.4</ele>
        <time>2021-08-18T14:08:37Z</time>
      </trkpt>
      <trkpt lat="47.27561" lon="6.00025">
        <ele>330.9</ele>
        <time>2021-08-18T14:08:41Z</time>
      </trkpt>
      <trkpt lat="47.27557" lon="6.00029">
        <ele>331.1</ele>
        <time>2021-08-18T14:08:45Z</time>
      </trkpt>
      <trkpt lat="47.27552" lon="6.00034">
        <ele>331.4</ele>
        <time>2021-08-18T14:08:49Z</time>
      </trkpt>
      <trkpt lat="47.27548" lon="6.0004">
        <ele>331.7</ele>
        <time>2021-08-18T14:08:53Z</time>
      </trkpt>
      <trkpt lat="47.27543" lon="6.00044">
        <ele>331.9</ele>
        <time>2021-08-18T14:08:57Z</time>
      </trkpt>
      <trkpt lat="47.2754" lon="6.0005">
        <ele>332.3</ele>
        <time>2021-08-18T14:09:01Z</time>
      </trkpt>
      <trkpt lat="47.27536" lon="6.00055">
        <ele>332.5</ele>
        <time>2021-08-18T14:09:05Z</time>
      </trkpt>
      <trkpt lat="47.27532" lon="6.00059">
        <ele>332.6</ele>
        <time>2021-08-18T14:09:08Z</time>
      </trkpt>
      <trkpt lat="47.27529" lon="6.00065">
        <ele>332.9</ele>
        <time>2021-08-18T14:09:12Z</time>
      </trkpt>
      <trkpt lat="47.27525" lon="6.00071">
        <ele>333.2</ele>
        <time>2021-08-18T14:09:17Z</time>
      </trkpt>
      <trkpt lat="47.27521" lon="6.00076">
        <ele>333.3</ele>
        <time>2021-08-18T14:09:21Z</time>
      </trkpt>
      <trkpt lat="47.27518" lon="6.00082">
        <ele>333.6</ele>
        <time>2021-08-18T14:09:25Z</time>
      </trkpt>
      <trkpt lat="47.27514" lon="6.00088">
        <ele>333.8</ele>
        <time>2021-08-18T14:09:29Z</time>
      </trkpt>
      <trkpt lat="47.27511" lon="6.00095">
        <ele>334.1</ele>
        <time>2021-08-18T14:09:33Z</time>
      </trkpt>
      <trkpt lat="47.27508" lon="6.00101">
        <ele>334.3</ele>
        <time>2021-08-18T14:09:37Z</time>
      </trkpt>
      <trkpt lat="47.27506" lon="6.00108">
        <ele>334.7</ele>
        <time>2021-08-18T14:09:41Z</time>
      </trkpt>
      <trkpt lat="47.27503" lon="6.00114">
        <ele>334.9</ele>
        <time>2021-08-18T14:09:45Z</time>
      </trkpt>
      <trkpt lat="47.27501" lon="6.00121">
        <ele>335.3</ele>
        <time>2021-08-18T14:09:49Z</time>
      </trkpt>
      <trkpt lat="47.27499" lon="6.00128">
        <ele>335.7</ele>
        <time>2021-08-18T14:09:53Z</time>
      </trkpt>
      <trkpt lat="47.27498" lon="6.00135">
        <ele>336.1</ele>
        <time>2021-08-18T14:09:57Z</time>
      </trkpt>
      <trkpt lat="47.27495" lon="6.00143">
        <ele>336.6</ele>
        <time>2021-08-18T14:10:01Z</time>
      </trkpt>
      <trkpt lat="47.27493" lon="6.0015">
        <ele>337</ele>
        <time>2021-08-18T14:10:05Z</time>
      </trkpt>
      <trkpt lat="47.2749" lon="6.00157">
        <ele>337.3</ele>
        <time>2021-08-18T14:10:09Z</time>
      </trkpt>
      <trkpt lat="47.27489" lon="6.00164">
        <ele>337.7</ele>
        <time>2021-08-18T14:10:12Z</time>
      </trkpt>
      <trkpt lat="47.27487" lon="6.00172">
        <ele>338.2</ele>
        <time>2021-08-18T14:10:16Z</time>
      </trkpt>
      <trkpt lat="47.27484" lon="6.00179">
        <ele>338.6</ele>
        <time>2021-08-18T14:10:20Z</time>
      </trkpt>
      <trkpt lat="47.27482" lon="6.00186">
        <ele>339.1</ele>
        <time>2021-08-18T14:10:24Z</time>
      </trkpt>
      <trkpt lat="47.2748" lon="6.00193">
        <ele>339.5</ele>
        <time>2021-08-18T14:10:28Z</time>
      </trkpt>
      <trkpt lat="47.27477" lon="6.002">
        <ele>339.9</ele>
        <time>2021-08-18T14:10:32Z</time>
      </trkpt>
      <trkpt lat="47.27475" lon="6.00207">
        <ele>340.3</ele>
        <time>2021-08-18T14:10:36Z</time>
      </trkpt>
      <trkpt lat="47.27473" lon="6.00214">
        <ele>340.7</ele>
        <time>2021-08-18T14:10:40Z</time>
      </trkpt>
      <trkpt lat="47.2747" lon="6.00221">
        <ele>341.1</ele>
        <time>2021-08-18T14:10:44Z</time>
      </trkpt>
      <trkpt lat="47.27467" lon="6.00228">
        <ele>341.4</ele>
        <time>2021-08-18T14:10:48Z</time>
      </trkpt>
      <trkpt lat="47.27465" lon="6.00235">
        <ele>341.8</ele>
        <time>2021-08-18T14:10:52Z</time>
      </trkpt>
      <trkpt lat="47.27462" lon="6.00242">
        <ele>342.1</ele>
        <time>2021-08-18T14:10:56Z</time>
      </trkpt>
      <trkpt lat="47.27459" lon="6.00249">
        <ele>342.5</ele>
        <time>2021-08-18T14:11:00Z</time>
      </trkpt>
      <trkpt lat="47.27456" lon="6.00256">
        <ele>342.7</ele>
        <time>2021-08-18T14:11:04Z</time>
      </trkpt>
      <trkpt lat="47.27452" lon="6.00262">
        <ele>342.8</ele>
        <time>2021-08-18T14:11:08Z</time>
      </trkpt>
      <trkpt lat="47.27448" lon="6.00268">
        <ele>342.9</ele>
        <time>2021-08-18T14:11:12Z</time>
      </trkpt>
      <trkpt lat="47.27445" lon="6.00274">
        <ele>343.1</ele>
        <time>2021-08-18T14:11:16Z</time>
      </trkpt>
      <trkpt lat="47.2744" lon="6.00279">
        <ele>343.1</ele>
        <time>2021-08-18T14:11:20Z</time>
      </trkpt>
      <trkpt lat="47.27435" lon="6.00284">
        <ele>343.2</ele>
        <time>2021-08-18T14:11:24Z</time>
      </trkpt>
      <trkpt lat="47.2743" lon="6.00288">
        <ele>343.2</ele>
        <time>2021-08-18T14:11:28Z</time>
      </trkpt>
      <trkpt lat="47.27425" lon="6.00292">
        <ele>343.3</ele>
        <time>2021-08-18T14:11:32Z</time>
      </trkpt>
      <trkpt lat="47.27421" lon="6.00295">
        <ele>343.3</ele>
        <time>2021-08-18T14:11:35Z</time>
      </trkpt>
      <trkpt lat="47.27416" lon="6.00298">
        <ele>343.3</ele>
        <time>2021-08-18T14:11:39Z</time>
      </trkpt>
      <trkpt lat="47.27411" lon="6.00301">
        <ele>343.4</ele>
        <time>2021-08-18T14:11:43Z</time>
      </trkpt>
      <trkpt lat="47.27408" lon="6.00305">
        <ele>343.5</ele>
        <time>2021-08-18T14:11:55Z</time>
      </trkpt>
      <trkpt lat="47.27403" lon="6.00309">
        <ele>343.7</ele>
        <time>2021-08-18T14:11:59Z</time>
      </trkpt>
      <trkpt lat="47.27398" lon="6.00315">
        <ele>344</ele>
        <time>2021-08-18T14:12:03Z</time>
      </trkpt>
      <trkpt lat="47.27391" lon="6.00326">
        <ele>344.6</ele>
        <time>2021-08-18T14:12:11Z</time>
      </trkpt>
      <trkpt lat="47.27384" lon="6.00337">
        <ele>345.2</ele>
        <time>2021-08-18T14:12:19Z</time>
      </trkpt>
      <trkpt lat="47.27376" lon="6.00349">
        <ele>345.8</ele>
        <time>2021-08-18T14:12:27Z</time>
      </trkpt>
      <trkpt lat="47.27367" lon="6.0036">
        <ele>346.3</ele>
        <time>2021-08-18T14:12:35Z</time>
      </trkpt>
      <trkpt lat="47.2736" lon="6.0037">
        <ele>346.8</ele>
        <time>2021-08-18T14:12:43Z</time>
      </trkpt>
      <trkpt lat="47.27353" lon="6.0038">
        <ele>347.2</ele>
        <time>2021-08-18T14:12:51Z</time>
      </trkpt>
      <trkpt lat="47.27344" lon="6.00389">
        <ele>347.7</ele>
        <time>2021-08-18T14:12:58Z</time>
      </trkpt>
      <trkpt lat="47.27336" lon="6.004">
        <ele>348.2</ele>
        <time>2021-08-18T14:13:06Z</time>
      </trkpt>
      <trkpt lat="47.2733" lon="6.0041">
        <ele>348.7</ele>
        <time>2021-08-18T14:13:13Z</time>
      </trkpt>
      <trkpt lat="47.27321" lon="6.00416">
        <ele>349</ele>
        <time>2021-08-18T14:13:21Z</time>
      </trkpt>
      <trkpt lat="47.27315" lon="6.00427">
        <ele>349.6</ele>
        <time>2021-08-18T14:13:27Z</time>
      </trkpt>
      <trkpt lat="47.27306" lon="6.00438">
        <ele>350</ele>
        <time>2021-08-18T14:13:36Z</time>
      </trkpt>
      <trkpt lat="47.27299" lon="6.00448">
        <ele>350.3</ele>
        <time>2021-08-18T14:13:41Z</time>
      </trkpt>
      <trkpt lat="47.27292" lon="6.00458">
        <ele>350.5</ele>
        <time>2021-08-18T14:13:49Z</time>
      </trkpt>
      <trkpt lat="47.27284" lon="6.0047">
        <ele>350.6</ele>
        <time>2021-08-18T14:13:55Z</time>
      </trkpt>
      <trkpt lat="47.27276" lon="6.0048">
        <ele>350.4</ele>
        <time>2021-08-18T14:14:04Z</time>
      </trkpt>
      <trkpt lat="47.27269" lon="6.00492">
        <ele>350.2</ele>
        <time>2021-08-18T14:14:13Z</time>
      </trkpt>
      <trkpt lat="47.27264" lon="6.00504">
        <ele>350.1</ele>
        <time>2021-08-18T14:14:19Z</time>
      </trkpt>
      <trkpt lat="47.27259" lon="6.00516">
        <ele>349.9</ele>
        <time>2021-08-18T14:14:24Z</time>
      </trkpt>
      <trkpt lat="47.2725" lon="6.00528">
        <ele>349.3</ele>
        <time>2021-08-18T14:14:35Z</time>
      </trkpt>
      <trkpt lat="47.27245" lon="6.00541">
        <ele>349</ele>
        <time>2021-08-18T14:14:41Z</time>
      </trkpt>
      <trkpt lat="47.27236" lon="6.00552">
        <ele>348.2</ele>
        <time>2021-08-18T14:14:51Z</time>
      </trkpt>
      <trkpt lat="47.27229" lon="6.00564">
        <ele>347.6</ele>
        <time>2021-08-18T14:14:55Z</time>
      </trkpt>
      <trkpt lat="47.2722" lon="6.00567">
        <ele>346.8</ele>
        <time>2021-08-18T14:15:06Z</time>
      </trkpt>
      <trkpt lat="47.27213" lon="6.00577">
        <ele>346.3</ele>
        <time>2021-08-18T14:15:11Z</time>
      </trkpt>
      <trkpt lat="47.27207" lon="6.00589">
        <ele>345.8</ele>
        <time>2021-08-18T14:15:15Z</time>
      </trkpt>
      <trkpt lat="47.27198" lon="6.00596">
        <ele>345</ele>
        <time>2021-08-18T14:15:21Z</time>
      </trkpt>
      <trkpt lat="47.2719" lon="6.00604">
        <ele>344.3</ele>
        <time>2021-08-18T14:15:28Z</time>
      </trkpt>
      <trkpt lat="47.27181" lon="6.00612">
        <ele>343.7</ele>
        <time>2021-08-18T14:15:34Z</time>
      </trkpt>
      <trkpt lat="47.27173" lon="6.00621">
        <ele>343.3</ele>
        <time>2021-08-18T14:15:42Z</time>
      </trkpt>
      <trkpt lat="47.27164" lon="6.00629">
        <ele>342.8</ele>
        <time>2021-08-18T14:15:49Z</time>
      </trkpt>
      <trkpt lat="47.27157" lon="6.00639">
        <ele>342.3</ele>
        <time>2021-08-18T14:15:55Z</time>
      </trkpt>
      <trkpt lat="47.27148" lon="6.00647">
        <ele>341.5</ele>
        <time>2021-08-18T14:16:02Z</time>
      </trkpt>
      <trkpt lat="47.2714" lon="6.00654">
        <ele>340.8</ele>
        <time>2021-08-18T14:16:08Z</time>
      </trkpt>
      <trkpt lat="47.27132" lon="6.00661">
        <ele>340.1</ele>
        <time>2021-08-18T14:16:14Z</time>
      </trkpt>
      <trkpt lat="47.27126" lon="6.00673">
        <ele>339.3</ele>
        <time>2021-08-18T14:16:23Z</time>
      </trkpt>
      <trkpt lat="47.27119" lon="6.00684">
        <ele>338.1</ele>
        <time>2021-08-18T14:16:34Z</time>
      </trkpt>
      <trkpt lat="47.27111" lon="6.00693">
        <ele>336.9</ele>
        <time>2021-08-18T14:16:44Z</time>
      </trkpt>
      <trkpt lat="47.27103" lon="6.00703">
        <ele>335.8</ele>
        <time>2021-08-18T14:16:52Z</time>
      </trkpt>
      <trkpt lat="47.27095" lon="6.00713">
        <ele>334.8</ele>
        <time>2021-08-18T14:17:00Z</time>
      </trkpt>
      <trkpt lat="47.27086" lon="6.00722">
        <ele>333.9</ele>
        <time>2021-08-18T14:17:09Z</time>
      </trkpt>
      <trkpt lat="47.27076" lon="6.00728">
        <ele>333</ele>
        <time>2021-08-18T14:17:17Z</time>
      </trkpt>
      <trkpt lat="47.27068" lon="6.00737">
        <ele>332.2</ele>
        <time>2021-08-18T14:17:25Z</time>
      </trkpt>
      <trkpt lat="47.27057" lon="6.00746">
        <ele>331.2</ele>
        <time>2021-08-18T14:17:33Z</time>
      </trkpt>
      <trkpt lat="47.27047" lon="6.00745">
        <ele>330.5</ele>
        <time>2021-08-18T14:17:42Z</time>
      </trkpt>
      <trkpt lat="47.27039" lon="6.00754">
        <ele>329.8</ele>
        <time>2021-08-18T14:17:48Z</time>
      </trkpt>
      <trkpt lat="47.27029" lon="6.00763">
        <ele>328.9</ele>
        <time>2021-08-18T14:17:56Z</time>
      </trkpt>
      <trkpt lat="47.2702" lon="6.00772">
        <ele>328.2</ele>
        <time>2021-08-18T14:18:04Z</time>
      </trkpt>
      <trkpt lat="47.2701" lon="6.0078">
        <ele>327.4</ele>
        <time>2021-08-18T14:18:12Z</time>
      </trkpt>
      <trkpt lat="47.27" lon="6.00789">
        <ele>326.5</ele>
        <time>2021-08-18T14:18:20Z</time>
      </trkpt>
      <trkpt lat="47.2699" lon="6.00796">
        <ele>325.9</ele>
        <time>2021-08-18T14:18:28Z</time>
      </trkpt>
      <trkpt lat="47.26979" lon="6.00805">
        <ele>325.2</ele>
        <time>2021-08-18T14:18:36Z</time>
      </trkpt>
      <trkpt lat="47.26971" lon="6.00814">
        <ele>324.7</ele>
        <time>2021-08-18T14:18:43Z</time>
      </trkpt>
      <trkpt lat="47.26963" lon="6.00819">
        <ele>324.2</ele>
        <time>2021-08-18T14:18:49Z</time>
      </trkpt>
      <trkpt lat="47.26954" lon="6.00826">
        <ele>323.8</ele>
        <time>2021-08-18T14:18:56Z</time>
      </trkpt>
      <trkpt lat="47.26944" lon="6.00834">
        <ele>323.3</ele>
        <time>2021-08-18T14:19:04Z</time>
      </trkpt>
      <trkpt lat="47.26934" lon="6.00844">
        <ele>323</ele>
        <time>2021-08-18T14:19:12Z</time>
      </trkpt>
      <trkpt lat="47.26926" lon="6.00854">
        <ele>322.8</ele>
        <time>2021-08-18T14:19:20Z</time>
      </trkpt>
      <trkpt lat="47.26917" lon="6.00862">
        <ele>322.4</ele>
        <time>2021-08-18T14:19:27Z</time>
      </trkpt>
      <trkpt lat="47.26908" lon="6.00873">
        <ele>321.8</ele>
        <time>2021-08-18T14:19:35Z</time>
      </trkpt>
      <trkpt lat="47.26899" lon="6.00883">
        <ele>321.4</ele>
        <time>2021-08-18T14:19:43Z</time>
      </trkpt>
      <trkpt lat="47.26891" lon="6.00895">
        <ele>321</ele>
        <time>2021-08-18T14:19:51Z</time>
      </trkpt>
      <trkpt lat="47.26885" lon="6.0091">
        <ele>321</ele>
        <time>2021-08-18T14:19:59Z</time>
      </trkpt>
      <trkpt lat="47.26877" lon="6.00921">
        <ele>320.8</ele>
        <time>2021-08-18T14:20:07Z</time>
      </trkpt>
      <trkpt lat="47.2687" lon="6.00935">
        <ele>320.7</ele>
        <time>2021-08-18T14:20:15Z</time>
      </trkpt>
      <trkpt lat="47.26863" lon="6.00947">
        <ele>320.6</ele>
        <time>2021-08-18T14:20:23Z</time>
      </trkpt>
      <trkpt lat="47.26857" lon="6.00958">
        <ele>320.6</ele>
        <time>2021-08-18T14:20:31Z</time>
      </trkpt>
      <trkpt lat="47.26857" lon="6.0096">
        <ele>320.6</ele>
        <time>2021-08-18T14:20:50Z</time>
      </trkpt>
      <trkpt lat="47.26851" lon="6.00972">
        <ele>320.5</ele>
        <time>2021-08-18T14:20:57Z</time>
      </trkpt>
      <trkpt lat="47.26844" lon="6.00982">
        <ele>320.3</ele>
        <time>2021-08-18T14:21:04Z</time>
      </trkpt>
      <trkpt lat="47.26836" lon="6.00992">
        <ele>320</ele>
        <time>2021-08-18T14:21:11Z</time>
      </trkpt>
      <trkpt lat="47.26828" lon="6.01002">
        <ele>319.6</ele>
        <time>2021-08-18T14:21:18Z</time>
      </trkpt>
      <trkpt lat="47.26819" lon="6.01012">
        <ele>319.1</ele>
        <time>2021-08-18T14:21:25Z</time>
      </trkpt>
      <trkpt lat="47.26812" lon="6.01019">
        <ele>318.7</ele>
        <time>2021-08-18T14:21:31Z</time>
      </trkpt>
      <trkpt lat="47.26804" lon="6.0103">
        <ele>318.3</ele>
        <time>2021-08-18T14:21:39Z</time>
      </trkpt>
      <trkpt lat="47.26796" lon="6.0104">
        <ele>317.8</ele>
        <time>2021-08-18T14:21:46Z</time>
      </trkpt>
      <trkpt lat="47.26788" lon="6.01048">
        <ele>317.3</ele>
        <time>2021-08-18T14:21:52Z</time>
      </trkpt>
      <trkpt lat="47.26781" lon="6.01061">
        <ele>317.1</ele>
        <time>2021-08-18T14:22:00Z</time>
      </trkpt>
      <trkpt lat="47.26774" lon="6.01073">
        <ele>316.8</ele>
        <time>2021-08-18T14:22:08Z</time>
      </trkpt>
      <trkpt lat="47.26766" lon="6.01082">
        <ele>316.3</ele>
        <time>2021-08-18T14:22:14Z</time>
      </trkpt>
      <trkpt lat="47.26759" lon="6.01095">
        <ele>315.7</ele>
        <time>2021-08-18T14:22:22Z</time>
      </trkpt>
      <trkpt lat="47.26752" lon="6.01106">
        <ele>315.2</ele>
        <time>2021-08-18T14:22:30Z</time>
      </trkpt>
      <trkpt lat="47.26743" lon="6.01113">
        <ele>314.8</ele>
        <time>2021-08-18T14:22:38Z</time>
      </trkpt>
      <trkpt lat="47.26732" lon="6.0112">
        <ele>314.6</ele>
        <time>2021-08-18T14:22:46Z</time>
      </trkpt>
      <trkpt lat="47.26722" lon="6.01127">
        <ele>314.5</ele>
        <time>2021-08-18T14:22:54Z</time>
      </trkpt>
      <trkpt lat="47.26711" lon="6.01132">
        <ele>314.4</ele>
        <time>2021-08-18T14:23:02Z</time>
      </trkpt>
      <trkpt lat="47.26701" lon="6.01138">
        <ele>314.4</ele>
        <time>2021-08-18T14:23:10Z</time>
      </trkpt>
      <trkpt lat="47.26691" lon="6.01143">
        <ele>314.4</ele>
        <time>2021-08-18T14:23:17Z</time>
      </trkpt>
      <trkpt lat="47.26682" lon="6.01149">
        <ele>314.5</ele>
        <time>2021-08-18T14:23:24Z</time>
      </trkpt>
      <trkpt lat="47.26672" lon="6.01158">
        <ele>314.7</ele>
        <time>2021-08-18T14:23:32Z</time>
      </trkpt>
      <trkpt lat="47.26662" lon="6.01166">
        <ele>315</ele>
        <time>2021-08-18T14:23:40Z</time>
      </trkpt>
      <trkpt lat="47.26653" lon="6.01174">
        <ele>315.2</ele>
        <time>2021-08-18T14:23:47Z</time>
      </trkpt>
      <trkpt lat="47.26646" lon="6.01182">
        <ele>315.5</ele>
        <time>2021-08-18T14:23:53Z</time>
      </trkpt>
      <trkpt lat="47.26638" lon="6.01189">
        <ele>315.8</ele>
        <time>2021-08-18T14:23:59Z</time>
      </trkpt>
      <trkpt lat="47.26629" lon="6.01193">
        <ele>316.2</ele>
        <time>2021-08-18T14:24:05Z</time>
      </trkpt>
      <trkpt lat="47.26621" lon="6.01199">
        <ele>316.6</ele>
        <time>2021-08-18T14:24:11Z</time>
      </trkpt>
      <trkpt lat="47.26611" lon="6.01205">
        <ele>317.2</ele>
        <time>2021-08-18T14:24:19Z</time>
      </trkpt>
      <trkpt lat="47.26601" lon="6.01209">
        <ele>317.8</ele>
        <time>2021-08-18T14:24:30Z</time>
      </trkpt>
      <trkpt lat="47.26595" lon="6.01219">
        <ele>318.6</ele>
        <time>2021-08-18T14:24:46Z</time>
      </trkpt>
      <trkpt lat="47.26586" lon="6.01221">
        <ele>319.1</ele>
        <time>2021-08-18T14:24:53Z</time>
      </trkpt>
      <trkpt lat="47.26575" lon="6.01218">
        <ele>319.4</ele>
        <time>2021-08-18T14:25:01Z</time>
      </trkpt>
      <trkpt lat="47.26564" lon="6.01214">
        <ele>319.5</ele>
        <time>2021-08-18T14:25:09Z</time>
      </trkpt>
      <trkpt lat="47.26553" lon="6.01208">
        <ele>319.6</ele>
        <time>2021-08-18T14:25:17Z</time>
      </trkpt>
      <trkpt lat="47.26543" lon="6.01206">
        <ele>319.8</ele>
        <time>2021-08-18T14:25:24Z</time>
      </trkpt>
      <trkpt lat="47.26534" lon="6.01202">
        <ele>319.9</ele>
        <time>2021-08-18T14:25:33Z</time>
      </trkpt>
      <trkpt lat="47.26524" lon="6.01199">
        <ele>320.1</ele>
        <time>2021-08-18T14:25:40Z</time>
      </trkpt>
      <trkpt lat="47.26514" lon="6.01197">
        <ele>320.3</ele>
        <time>2021-08-18T14:25:48Z</time>
      </trkpt>
      <trkpt lat="47.26503" lon="6.0119">
        <ele>320.3</ele>
        <time>2021-08-18T14:25:55Z</time>
      </trkpt>
      <trkpt lat="47.26494" lon="6.01186">
        <ele>320.6</ele>
        <time>2021-08-18T14:26:01Z</time>
      </trkpt>
      <trkpt lat="47.26485" lon="6.01177">
        <ele>320.8</ele>
        <time>2021-08-18T14:26:08Z</time>
      </trkpt>
      <trkpt lat="47.26477" lon="6.0117">
        <ele>321.1</ele>
        <time>2021-08-18T14:26:14Z</time>
      </trkpt>
      <trkpt lat="47.26468" lon="6.01162">
        <ele>321.4</ele>
        <time>2021-08-18T14:26:21Z</time>
      </trkpt>
      <trkpt lat="47.2646" lon="6.01154">
        <ele>321.5</ele>
        <time>2021-08-18T14:26:28Z</time>
      </trkpt>
      <trkpt lat="47.2645" lon="6.01147">
        <ele>322</ele>
        <time>2021-08-18T14:26:36Z</time>
      </trkpt>
      <trkpt lat="47.26439" lon="6.01141">
        <ele>322.6</ele>
        <time>2021-08-18T14:26:44Z</time>
      </trkpt>
      <trkpt lat="47.26429" lon="6.01135">
        <ele>323.3</ele>
        <time>2021-08-18T14:26:52Z</time>
      </trkpt>
      <trkpt lat="47.26419" lon="6.0113">
        <ele>324</ele>
        <time>2021-08-18T14:27:00Z</time>
      </trkpt>
      <trkpt lat="47.26409" lon="6.01126">
        <ele>324.1</ele>
        <time>2021-08-18T14:27:08Z</time>
      </trkpt>
      <trkpt lat="47.26399" lon="6.01122">
        <ele>324.1</ele>
        <time>2021-08-18T14:27:17Z</time>
      </trkpt>
      <trkpt lat="47.26389" lon="6.01118">
        <ele>324.1</ele>
        <time>2021-08-18T14:27:25Z</time>
      </trkpt>
      <trkpt lat="47.26379" lon="6.01114">
        <ele>324.2</ele>
        <time>2021-08-18T14:27:33Z</time>
      </trkpt>
      <trkpt lat="47.26368" lon="6.01112">
        <ele>324.3</ele>
        <time>2021-08-18T14:27:41Z</time>
      </trkpt>
      <trkpt lat="47.26358" lon="6.01109">
        <ele>324.5</ele>
        <time>2021-08-18T14:27:48Z</time>
      </trkpt>
      <trkpt lat="47.26349" lon="6.01104">
        <ele>324.6</ele>
        <time>2021-08-18T14:27:55Z</time>
      </trkpt>
      <trkpt lat="47.26339" lon="6.011">
        <ele>324.9</ele>
        <time>2021-08-18T14:28:02Z</time>
      </trkpt>
      <trkpt lat="47.26329" lon="6.01095">
        <ele>324.9</ele>
        <time>2021-08-18T14:28:09Z</time>
      </trkpt>
      <trkpt lat="47.2632" lon="6.0109">
        <ele>324.7</ele>
        <time>2021-08-18T14:28:15Z</time>
      </trkpt>
      <trkpt lat="47.26312" lon="6.01084">
        <ele>324.5</ele>
        <time>2021-08-18T14:28:21Z</time>
      </trkpt>
      <trkpt lat="47.26304" lon="6.01077">
        <ele>324.1</ele>
        <time>2021-08-18T14:28:27Z</time>
      </trkpt>
      <trkpt lat="47.26292" lon="6.01072">
        <ele>323.7</ele>
        <time>2021-08-18T14:28:35Z</time>
      </trkpt>
      <trkpt lat="47.26283" lon="6.01067">
        <ele>323.4</ele>
        <time>2021-08-18T14:28:43Z</time>
      </trkpt>
      <trkpt lat="47.26271" lon="6.0106">
        <ele>323.1</ele>
        <time>2021-08-18T14:28:51Z</time>
      </trkpt>
      <trkpt lat="47.2626" lon="6.01059">
        <ele>322.9</ele>
        <time>2021-08-18T14:28:59Z</time>
      </trkpt>
      <trkpt lat="47.2625" lon="6.0106">
        <ele>322.7</ele>
        <time>2021-08-18T14:29:06Z</time>
      </trkpt>
      <trkpt lat="47.26238" lon="6.01059">
        <ele>323</ele>
        <time>2021-08-18T14:29:14Z</time>
      </trkpt>
      <trkpt lat="47.26229" lon="6.01061">
        <ele>323.3</ele>
        <time>2021-08-18T14:29:20Z</time>
      </trkpt>
      <trkpt lat="47.26219" lon="6.01062">
        <ele>323.7</ele>
        <time>2021-08-18T14:29:27Z</time>
      </trkpt>
      <trkpt lat="47.26207" lon="6.01063">
        <ele>324.1</ele>
        <time>2021-08-18T14:29:35Z</time>
      </trkpt>
      <trkpt lat="47.26196" lon="6.01064">
        <ele>324.5</ele>
        <time>2021-08-18T14:29:43Z</time>
      </trkpt>
      <trkpt lat="47.26185" lon="6.01064">
        <ele>324.8</ele>
        <time>2021-08-18T14:29:51Z</time>
      </trkpt>
      <trkpt lat="47.26174" lon="6.01062">
        <ele>325</ele>
        <time>2021-08-18T14:29:58Z</time>
      </trkpt>
      <trkpt lat="47.26164" lon="6.01059">
        <ele>325.1</ele>
        <time>2021-08-18T14:30:04Z</time>
      </trkpt>
      <trkpt lat="47.26154" lon="6.01058">
        <ele>325.5</ele>
        <time>2021-08-18T14:30:11Z</time>
      </trkpt>
      <trkpt lat="47.26144" lon="6.01052">
        <ele>325.6</ele>
        <time>2021-08-18T14:30:18Z</time>
      </trkpt>
      <trkpt lat="47.26136" lon="6.01047">
        <ele>325.7</ele>
        <time>2021-08-18T14:30:24Z</time>
      </trkpt>
      <trkpt lat="47.2613" lon="6.01036">
        <ele>325.3</ele>
        <time>2021-08-18T14:30:30Z</time>
      </trkpt>
      <trkpt lat="47.26124" lon="6.01024">
        <ele>325</ele>
        <time>2021-08-18T14:30:37Z</time>
      </trkpt>
      <trkpt lat="47.26117" lon="6.01015">
        <ele>325</ele>
        <time>2021-08-18T14:30:43Z</time>
      </trkpt>
      <trkpt lat="47.26111" lon="6.01004">
        <ele>324.9</ele>
        <time>2021-08-18T14:30:49Z</time>
      </trkpt>
      <trkpt lat="47.26104" lon="6.00993">
        <ele>324.7</ele>
        <time>2021-08-18T14:30:56Z</time>
      </trkpt>
      <trkpt lat="47.26096" lon="6.00985">
        <ele>324.8</ele>
        <time>2021-08-18T14:31:05Z</time>
      </trkpt>
      <trkpt lat="47.26085" lon="6.00978">
        <ele>325</ele>
        <time>2021-08-18T14:31:13Z</time>
      </trkpt>
      <trkpt lat="47.26075" lon="6.00977">
        <ele>325.1</ele>
        <time>2021-08-18T14:31:21Z</time>
      </trkpt>
      <trkpt lat="47.26065" lon="6.00967">
        <ele>324.3</ele>
        <time>2021-08-18T14:31:29Z</time>
      </trkpt>
      <trkpt lat="47.26056" lon="6.00959">
        <ele>323.7</ele>
        <time>2021-08-18T14:31:37Z</time>
      </trkpt>
      <trkpt lat="47.26049" lon="6.00946">
        <ele>322.9</ele>
        <time>2021-08-18T14:31:45Z</time>
      </trkpt>
      <trkpt lat="47.2604" lon="6.00935">
        <ele>322.2</ele>
        <time>2021-08-18T14:31:53Z</time>
      </trkpt>
      <trkpt lat="47.26032" lon="6.00928">
        <ele>321.9</ele>
        <time>2021-08-18T14:31:59Z</time>
      </trkpt>
      <trkpt lat="47.26023" lon="6.00919">
        <ele>321.6</ele>
        <time>2021-08-18T14:32:06Z</time>
      </trkpt>
      <trkpt lat="47.26015" lon="6.00908">
        <ele>321.3</ele>
        <time>2021-08-18T14:32:13Z</time>
      </trkpt>
      <trkpt lat="47.26005" lon="6.00899">
        <ele>321.2</ele>
        <time>2021-08-18T14:32:21Z</time>
      </trkpt>
      <trkpt lat="47.25995" lon="6.009">
        <ele>321.5</ele>
        <time>2021-08-18T14:32:28Z</time>
      </trkpt>
      <trkpt lat="47.25984" lon="6.009">
        <ele>321.6</ele>
        <time>2021-08-18T14:32:35Z</time>
      </trkpt>
      <trkpt lat="47.25973" lon="6.009">
        <ele>321.8</ele>
        <time>2021-08-18T14:32:43Z</time>
      </trkpt>
      <trkpt lat="47.25964" lon="6.00902">
        <ele>321.9</ele>
        <time>2021-08-18T14:32:56Z</time>
      </trkpt>
      <trkpt lat="47.25955" lon="6.00898">
        <ele>322.1</ele>
        <time>2021-08-18T14:33:03Z</time>
      </trkpt>
      <trkpt lat="47.25949" lon="6.00883">
        <ele>322.3</ele>
        <time>2021-08-18T14:33:11Z</time>
      </trkpt>
      <trkpt lat="47.2595" lon="6.0087">
        <ele>322.3</ele>
        <time>2021-08-18T14:33:17Z</time>
      </trkpt>
      <trkpt lat="47.25945" lon="6.00855">
        <ele>322.7</ele>
        <time>2021-08-18T14:33:25Z</time>
      </trkpt>
      <trkpt lat="47.25936" lon="6.00848">
        <ele>323.3</ele>
        <time>2021-08-18T14:33:32Z</time>
      </trkpt>
      <trkpt lat="47.25926" lon="6.0084">
        <ele>324.1</ele>
        <time>2021-08-18T14:33:40Z</time>
      </trkpt>
      <trkpt lat="47.25916" lon="6.00832">
        <ele>325</ele>
        <time>2021-08-18T14:33:48Z</time>
      </trkpt>
      <trkpt lat="47.25908" lon="6.00822">
        <ele>324.9</ele>
        <time>2021-08-18T14:33:56Z</time>
      </trkpt>
      <trkpt lat="47.25901" lon="6.00812">
        <ele>325</ele>
        <time>2021-08-18T14:34:04Z</time>
      </trkpt>
      <trkpt lat="47.25893" lon="6.00802">
        <ele>325</ele>
        <time>2021-08-18T14:34:12Z</time>
      </trkpt>
      <trkpt lat="47.25884" lon="6.00792">
        <ele>325.2</ele>
        <time>2021-08-18T14:34:20Z</time>
      </trkpt>
      <trkpt lat="47.25876" lon="6.00784">
        <ele>325.4</ele>
        <time>2021-08-18T14:34:28Z</time>
      </trkpt>
      <trkpt lat="47.25868" lon="6.00773">
        <ele>325.7</ele>
        <time>2021-08-18T14:34:35Z</time>
      </trkpt>
      <trkpt lat="47.25861" lon="6.00764">
        <ele>326</ele>
        <time>2021-08-18T14:34:41Z</time>
      </trkpt>
      <trkpt lat="47.25854" lon="6.00754">
        <ele>326.4</ele>
        <time>2021-08-18T14:34:47Z</time>
      </trkpt>
      <trkpt lat="47.25848" lon="6.00744">
        <ele>326.6</ele>
        <time>2021-08-18T14:34:53Z</time>
      </trkpt>
      <trkpt lat="47.2584" lon="6.00734">
        <ele>326.8</ele>
        <time>2021-08-18T14:35:00Z</time>
      </trkpt>
      <trkpt lat="47.25831" lon="6.00722">
        <ele>327</ele>
        <time>2021-08-18T14:35:08Z</time>
      </trkpt>
      <trkpt lat="47.25825" lon="6.00713">
        <ele>326.8</ele>
        <time>2021-08-18T14:35:14Z</time>
      </trkpt>
      <trkpt lat="47.25818" lon="6.00701">
        <ele>326.7</ele>
        <time>2021-08-18T14:35:21Z</time>
      </trkpt>
      <trkpt lat="47.2581" lon="6.00692">
        <ele>326.6</ele>
        <time>2021-08-18T14:35:28Z</time>
      </trkpt>
      <trkpt lat="47.25802" lon="6.00679">
        <ele>326.6</ele>
        <time>2021-08-18T14:35:36Z</time>
      </trkpt>
      <trkpt lat="47.25796" lon="6.00667">
        <ele>326.6</ele>
        <time>2021-08-18T14:35:43Z</time>
      </trkpt>
      <trkpt lat="47.25789" lon="6.00657">
        <ele>326.2</ele>
        <time>2021-08-18T14:35:49Z</time>
      </trkpt>
      <trkpt lat="47.25781" lon="6.00648">
        <ele>326</ele>
        <time>2021-08-18T14:35:57Z</time>
      </trkpt>
      <trkpt lat="47.25774" lon="6.00637">
        <ele>325.7</ele>
        <time>2021-08-18T14:36:05Z</time>
      </trkpt>
      <trkpt lat="47.25768" lon="6.00626">
        <ele>325.5</ele>
        <time>2021-08-18T14:36:11Z</time>
      </trkpt>
      <trkpt lat="47.25761" lon="6.00616">
        <ele>325.4</ele>
        <time>2021-08-18T14:36:19Z</time>
      </trkpt>
      <trkpt lat="47.25753" lon="6.00606">
        <ele>325.3</ele>
        <time>2021-08-18T14:36:27Z</time>
      </trkpt>
      <trkpt lat="47.25747" lon="6.00595">
        <ele>325</ele>
        <time>2021-08-18T14:36:33Z</time>
      </trkpt>
      <trkpt lat="47.25739" lon="6.00585">
        <ele>324.5</ele>
        <time>2021-08-18T14:36:40Z</time>
      </trkpt>
      <trkpt lat="47.2573" lon="6.00574">
        <ele>323.6</ele>
        <time>2021-08-18T14:36:48Z</time>
      </trkpt>
      <trkpt lat="47.25722" lon="6.00564">
        <ele>322.9</ele>
        <time>2021-08-18T14:36:54Z</time>
      </trkpt>
      <trkpt lat="47.25716" lon="6.00553">
        <ele>322.2</ele>
        <time>2021-08-18T14:37:00Z</time>
      </trkpt>
      <trkpt lat="47.25707" lon="6.00559">
        <ele>322.1</ele>
        <time>2021-08-18T14:37:18Z</time>
      </trkpt>
      <trkpt lat="47.257" lon="6.00571">
        <ele>322.2</ele>
        <time>2021-08-18T14:37:26Z</time>
      </trkpt>
      <trkpt lat="47.25691" lon="6.00581">
        <ele>322.1</ele>
        <time>2021-08-18T14:37:33Z</time>
      </trkpt>
      <trkpt lat="47.25682" lon="6.00591">
        <ele>321.6</ele>
        <time>2021-08-18T14:37:41Z</time>
      </trkpt>
      <trkpt lat="47.25674" lon="6.00602">
        <ele>321</ele>
        <time>2021-08-18T14:37:48Z</time>
      </trkpt>
      <trkpt lat="47.25666" lon="6.00612">
        <ele>320.3</ele>
        <time>2021-08-18T14:37:56Z</time>
      </trkpt>
      <trkpt lat="47.25657" lon="6.00621">
        <ele>320.1</ele>
        <time>2021-08-18T14:38:03Z</time>
      </trkpt>
      <trkpt lat="47.25649" lon="6.0063">
        <ele>320</ele>
        <time>2021-08-18T14:38:09Z</time>
      </trkpt>
      <trkpt lat="47.25642" lon="6.00639">
        <ele>320</ele>
        <time>2021-08-18T14:38:15Z</time>
      </trkpt>
      <trkpt lat="47.25634" lon="6.00649">
        <ele>320</ele>
        <time>2021-08-18T14:38:22Z</time>
      </trkpt>
      <trkpt lat="47.25626" lon="6.0066">
        <ele>320</ele>
        <time>2021-08-18T14:38:30Z</time>
      </trkpt>
      <trkpt lat="47.25617" lon="6.00667">
        <ele>320.2</ele>
        <time>2021-08-18T14:38:37Z</time>
      </trkpt>
      <trkpt lat="47.25607" lon="6.00665">
        <ele>320.4</ele>
        <time>2021-08-18T14:38:45Z</time>
      </trkpt>
      <trkpt lat="47.25596" lon="6.00661">
        <ele>320.7</ele>
        <time>2021-08-18T14:38:53Z</time>
      </trkpt>
      <trkpt lat="47.25586" lon="6.00654">
        <ele>320.8</ele>
        <time>2021-08-18T14:39:01Z</time>
      </trkpt>
      <trkpt lat="47.25578" lon="6.00647">
        <ele>321.5</ele>
        <time>2021-08-18T14:39:08Z</time>
      </trkpt>
      <trkpt lat="47.25569" lon="6.00638">
        <ele>322.4</ele>
        <time>2021-08-18T14:39:16Z</time>
      </trkpt>
      <trkpt lat="47.25559" lon="6.00632">
        <ele>323.5</ele>
        <time>2021-08-18T14:39:24Z</time>
      </trkpt>
      <trkpt lat="47.25549" lon="6.00623">
        <ele>324.3</ele>
        <time>2021-08-18T14:39:32Z</time>
      </trkpt>
      <trkpt lat="47.25539" lon="6.00617">
        <ele>325.2</ele>
        <time>2021-08-18T14:39:40Z</time>
      </trkpt>
      <trkpt lat="47.25531" lon="6.0061">
        <ele>325.7</ele>
        <time>2021-08-18T14:39:48Z</time>
      </trkpt>
      <trkpt lat="47.25522" lon="6.00603">
        <ele>326.3</ele>
        <time>2021-08-18T14:39:56Z</time>
      </trkpt>
      <trkpt lat="47.25513" lon="6.00594">
        <ele>326.6</ele>
        <time>2021-08-18T14:40:05Z</time>
      </trkpt>
      <trkpt lat="47.25506" lon="6.00584">
        <ele>326.5</ele>
        <time>2021-08-18T14:40:12Z</time>
      </trkpt>
      <trkpt lat="47.25501" lon="6.00572">
        <ele>326.5</ele>
        <time>2021-08-18T14:40:19Z</time>
      </trkpt>
      <trkpt lat="47.2549" lon="6.00566">
        <ele>326.8</ele>
        <time>2021-08-18T14:40:27Z</time>
      </trkpt>
      <trkpt lat="47.25481" lon="6.00557">
        <ele>326.7</ele>
        <time>2021-08-18T14:40:34Z</time>
      </trkpt>
      <trkpt lat="47.25475" lon="6.00544">
        <ele>326.4</ele>
        <time>2021-08-18T14:40:42Z</time>
      </trkpt>
      <trkpt lat="47.25465" lon="6.00541">
        <ele>326.5</ele>
        <time>2021-08-18T14:40:49Z</time>
      </trkpt>
      <trkpt lat="47.25456" lon="6.00537">
        <ele>326.6</ele>
        <time>2021-08-18T14:40:55Z</time>
      </trkpt>
      <trkpt lat="47.25449" lon="6.00526">
        <ele>326.1</ele>
        <time>2021-08-18T14:41:01Z</time>
      </trkpt>
      <trkpt lat="47.25441" lon="6.00517">
        <ele>325.8</ele>
        <time>2021-08-18T14:41:08Z</time>
      </trkpt>
      <trkpt lat="47.25434" lon="6.00508">
        <ele>325.3</ele>
        <time>2021-08-18T14:41:14Z</time>
      </trkpt>
      <trkpt lat="47.25426" lon="6.00499">
        <ele>324.8</ele>
        <time>2021-08-18T14:41:20Z</time>
      </trkpt>
      <trkpt lat="47.25419" lon="6.00489">
        <ele>324.3</ele>
        <time>2021-08-18T14:41:26Z</time>
      </trkpt>
      <trkpt lat="47.25412" lon="6.00477">
        <ele>323.8</ele>
        <time>2021-08-18T14:41:33Z</time>
      </trkpt>
      <trkpt lat="47.25404" lon="6.00467">
        <ele>323.5</ele>
        <time>2021-08-18T14:41:40Z</time>
      </trkpt>
      <trkpt lat="47.25397" lon="6.00456">
        <ele>323.1</ele>
        <time>2021-08-18T14:41:48Z</time>
      </trkpt>
      <trkpt lat="47.25387" lon="6.00448">
        <ele>322.9</ele>
        <time>2021-08-18T14:41:56Z</time>
      </trkpt>
      <trkpt lat="47.25376" lon="6.00446">
        <ele>323.2</ele>
        <time>2021-08-18T14:42:04Z</time>
      </trkpt>
      <trkpt lat="47.25367" lon="6.00444">
        <ele>323.4</ele>
        <time>2021-08-18T14:42:12Z</time>
      </trkpt>
      <trkpt lat="47.25356" lon="6.00441">
        <ele>323.6</ele>
        <time>2021-08-18T14:42:21Z</time>
      </trkpt>
      <trkpt lat="47.25345" lon="6.00442">
        <ele>324.1</ele>
        <time>2021-08-18T14:42:29Z</time>
      </trkpt>
      <trkpt lat="47.25335" lon="6.00442">
        <ele>324.5</ele>
        <time>2021-08-18T14:42:37Z</time>
      </trkpt>
      <trkpt lat="47.25325" lon="6.0044">
        <ele>324.2</ele>
        <time>2021-08-18T14:42:44Z</time>
      </trkpt>
      <trkpt lat="47.25315" lon="6.0044">
        <ele>324.1</ele>
        <time>2021-08-18T14:42:50Z</time>
      </trkpt>
      <trkpt lat="47.25305" lon="6.00443">
        <ele>324</ele>
        <time>2021-08-18T14:42:56Z</time>
      </trkpt>
      <trkpt lat="47.25294" lon="6.00447">
        <ele>324</ele>
        <time>2021-08-18T14:43:04Z</time>
      </trkpt>
      <trkpt lat="47.25283" lon="6.00446">
        <ele>323.7</ele>
        <time>2021-08-18T14:43:12Z</time>
      </trkpt>
      <trkpt lat="47.25274" lon="6.00448">
        <ele>323.6</ele>
        <time>2021-08-18T14:43:19Z</time>
      </trkpt>
      <trkpt lat="47.25263" lon="6.00452">
        <ele>323.6</ele>
        <time>2021-08-18T14:43:26Z</time>
      </trkpt>
      <trkpt lat="47.25253" lon="6.00452">
        <ele>323.3</ele>
        <time>2021-08-18T14:43:33Z</time>
      </trkpt>
      <trkpt lat="47.25242" lon="6.00449">
        <ele>322.9</ele>
        <time>2021-08-18T14:43:40Z</time>
      </trkpt>
      <trkpt lat="47.25232" lon="6.00445">
        <ele>322.4</ele>
        <time>2021-08-18T14:43:48Z</time>
      </trkpt>
      <trkpt lat="47.25222" lon="6.00437">
        <ele>322</ele>
        <time>2021-08-18T14:43:57Z</time>
      </trkpt>
      <trkpt lat="47.25212" lon="6.00439">
        <ele>321.7</ele>
        <time>2021-08-18T14:44:05Z</time>
      </trkpt>
      <trkpt lat="47.25213" lon="6.00455">
        <ele>321.9</ele>
        <time>2021-08-18T14:44:12Z</time>
      </trkpt>
      <trkpt lat="47.25215" lon="6.0047">
        <ele>322.2</ele>
        <time>2021-08-18T14:44:19Z</time>
      </trkpt>
      <trkpt lat="47.25218" lon="6.00482">
        <ele>322.5</ele>
        <time>2021-08-18T14:44:26Z</time>
      </trkpt>
      <trkpt lat="47.25224" lon="6.00494">
        <ele>323</ele>
        <time>2021-08-18T14:44:32Z</time>
      </trkpt>
      <trkpt lat="47.25231" lon="6.00507">
        <ele>323.6</ele>
        <time>2021-08-18T14:44:40Z</time>
      </trkpt>
      <trkpt lat="47.25237" lon="6.00519">
        <ele>324</ele>
        <time>2021-08-18T14:44:48Z</time>
      </trkpt>
      <trkpt lat="47.25241" lon="6.00532">
        <ele>324.2</ele>
        <time>2021-08-18T14:44:55Z</time>
      </trkpt>
      <trkpt lat="47.25246" lon="6.00545">
        <ele>324.6</ele>
        <time>2021-08-18T14:45:04Z</time>
      </trkpt>
      <trkpt lat="47.25255" lon="6.00555">
        <ele>325.3</ele>
        <time>2021-08-18T14:45:14Z</time>
      </trkpt>
      <trkpt lat="47.25262" lon="6.00567">
        <ele>325.9</ele>
        <time>2021-08-18T14:45:20Z</time>
      </trkpt>
      <trkpt lat="47.25268" lon="6.0058">
        <ele>326.5</ele>
        <time>2021-08-18T14:45:26Z</time>
      </trkpt>
      <trkpt lat="47.25275" lon="6.00591">
        <ele>326.8</ele>
        <time>2021-08-18T14:45:32Z</time>
      </trkpt>
      <trkpt lat="47.25283" lon="6.00602">
        <ele>327</ele>
        <time>2021-08-18T14:45:39Z</time>
      </trkpt>
      <trkpt lat="47.2529" lon="6.00612">
        <ele>327.2</ele>
        <time>2021-08-18T14:45:45Z</time>
      </trkpt>
      <trkpt lat="47.25298" lon="6.00622">
        <ele>327.4</ele>
        <time>2021-08-18T14:45:52Z</time>
      </trkpt>
      <trkpt lat="47.25304" lon="6.00634">
        <ele>327.3</ele>
        <time>2021-08-18T14:45:59Z</time>
      </trkpt>
      <trkpt lat="47.25308" lon="6.0065">
        <ele>326.9</ele>
        <time>2021-08-18T14:46:07Z</time>
      </trkpt>
      <trkpt lat="47.25315" lon="6.00663">
        <ele>326.8</ele>
        <time>2021-08-18T14:46:15Z</time>
      </trkpt>
      <trkpt lat="47.25324" lon="6.00675">
        <ele>327.3</ele>
        <time>2021-08-18T14:46:22Z</time>
      </trkpt>
      <trkpt lat="47.25329" lon="6.00688">
        <ele>327.6</ele>
        <time>2021-08-18T14:46:32Z</time>
      </trkpt>
      <trkpt lat="47.25336" lon="6.00699">
        <ele>328.2</ele>
        <time>2021-08-18T14:46:37Z</time>
      </trkpt>
      <trkpt lat="47.25338" lon="6.00712">
        <ele>328.5</ele>
        <time>2021-08-18T14:46:48Z</time>
      </trkpt>
      <trkpt lat="47.25329" lon="6.00723">
        <ele>327.6</ele>
        <time>2021-08-18T14:46:54Z</time>
      </trkpt>
      <trkpt lat="47.2532" lon="6.00733">
        <ele>326.7</ele>
        <time>2021-08-18T14:46:58Z</time>
      </trkpt>
      <trkpt lat="47.25317" lon="6.00748">
        <ele>326.3</ele>
        <time>2021-08-18T14:47:05Z</time>
      </trkpt>
      <trkpt lat="47.25311" lon="6.00758">
        <ele>325.7</ele>
        <time>2021-08-18T14:47:16Z</time>
      </trkpt>
      <trkpt lat="47.25301" lon="6.00763">
        <ele>324.6</ele>
        <time>2021-08-18T14:47:23Z</time>
      </trkpt>
      <trkpt lat="47.25291" lon="6.00772">
        <ele>323.6</ele>
        <time>2021-08-18T14:47:31Z</time>
      </trkpt>
      <trkpt lat="47.25283" lon="6.00778">
        <ele>322.6</ele>
        <time>2021-08-18T14:47:37Z</time>
      </trkpt>
      <trkpt lat="47.25274" lon="6.00787">
        <ele>321.5</ele>
        <time>2021-08-18T14:47:45Z</time>
      </trkpt>
      <trkpt lat="47.25264" lon="6.00794">
        <ele>320.3</ele>
        <time>2021-08-18T14:47:52Z</time>
      </trkpt>
      <trkpt lat="47.25256" lon="6.00801">
        <ele>319.2</ele>
        <time>2021-08-18T14:47:59Z</time>
      </trkpt>
      <trkpt lat="47.25247" lon="6.00808">
        <ele>318.1</ele>
        <time>2021-08-18T14:48:05Z</time>
      </trkpt>
      <trkpt lat="47.25239" lon="6.00813">
        <ele>317.3</ele>
        <time>2021-08-18T14:48:11Z</time>
      </trkpt>
      <trkpt lat="47.25229" lon="6.00822">
        <ele>316.3</ele>
        <time>2021-08-18T14:48:19Z</time>
      </trkpt>
      <trkpt lat="47.25219" lon="6.00828">
        <ele>315.2</ele>
        <time>2021-08-18T14:48:27Z</time>
      </trkpt>
      <trkpt lat="47.25209" lon="6.00834">
        <ele>314</ele>
        <time>2021-08-18T14:48:34Z</time>
      </trkpt>
      <trkpt lat="47.25199" lon="6.0084">
        <ele>312.8</ele>
        <time>2021-08-18T14:48:42Z</time>
      </trkpt>
      <trkpt lat="47.25191" lon="6.00849">
        <ele>311.7</ele>
        <time>2021-08-18T14:48:50Z</time>
      </trkpt>
      <trkpt lat="47.25181" lon="6.00854">
        <ele>310.5</ele>
        <time>2021-08-18T14:48:57Z</time>
      </trkpt>
      <trkpt lat="47.25171" lon="6.00856">
        <ele>309.4</ele>
        <time>2021-08-18T14:49:05Z</time>
      </trkpt>
      <trkpt lat="47.25161" lon="6.0086">
        <ele>308.4</ele>
        <time>2021-08-18T14:49:14Z</time>
      </trkpt>
      <trkpt lat="47.25153" lon="6.0087">
        <ele>307.5</ele>
        <time>2021-08-18T14:49:20Z</time>
      </trkpt>
      <trkpt lat="47.25146" lon="6.00879">
        <ele>306.9</ele>
        <time>2021-08-18T14:49:26Z</time>
      </trkpt>
      <trkpt lat="47.25139" lon="6.00888">
        <ele>306.3</ele>
        <time>2021-08-18T14:49:32Z</time>
      </trkpt>
      <trkpt lat="47.25131" lon="6.00896">
        <ele>305.7</ele>
        <time>2021-08-18T14:49:38Z</time>
      </trkpt>
      <trkpt lat="47.25124" lon="6.00907">
        <ele>305.2</ele>
        <time>2021-08-18T14:49:44Z</time>
      </trkpt>
      <trkpt lat="47.25116" lon="6.00915">
        <ele>304.8</ele>
        <time>2021-08-18T14:49:50Z</time>
      </trkpt>
      <trkpt lat="47.25109" lon="6.00926">
        <ele>304.8</ele>
        <time>2021-08-18T14:49:58Z</time>
      </trkpt>
      <trkpt lat="47.25102" lon="6.00936">
        <ele>304.9</ele>
        <time>2021-08-18T14:50:04Z</time>
      </trkpt>
      <trkpt lat="47.25093" lon="6.00944">
        <ele>305.1</ele>
        <time>2021-08-18T14:50:12Z</time>
      </trkpt>
      <trkpt lat="47.25082" lon="6.00946">
        <ele>305.1</ele>
        <time>2021-08-18T14:50:21Z</time>
      </trkpt>
      <trkpt lat="47.25071" lon="6.00952">
        <ele>305.4</ele>
        <time>2021-08-18T14:50:29Z</time>
      </trkpt>
      <trkpt lat="47.25063" lon="6.00961">
        <ele>305.7</ele>
        <time>2021-08-18T14:50:36Z</time>
      </trkpt>
      <trkpt lat="47.25053" lon="6.0097">
        <ele>306.1</ele>
        <time>2021-08-18T14:50:44Z</time>
      </trkpt>
      <trkpt lat="47.25043" lon="6.00977">
        <ele>306.3</ele>
        <time>2021-08-18T14:50:52Z</time>
      </trkpt>
      <trkpt lat="47.25035" lon="6.00985">
        <ele>306.6</ele>
        <time>2021-08-18T14:50:58Z</time>
      </trkpt>
      <trkpt lat="47.25026" lon="6.00993">
        <ele>306.8</ele>
        <time>2021-08-18T14:51:05Z</time>
      </trkpt>
      <trkpt lat="47.25018" lon="6.01002">
        <ele>307.1</ele>
        <time>2021-08-18T14:51:13Z</time>
      </trkpt>
      <trkpt lat="47.25008" lon="6.01012">
        <ele>307.6</ele>
        <time>2021-08-18T14:51:21Z</time>
      </trkpt>
      <trkpt lat="47.24999" lon="6.01021">
        <ele>308</ele>
        <time>2021-08-18T14:51:29Z</time>
      </trkpt>
      <trkpt lat="47.24992" lon="6.01033">
        <ele>308.2</ele>
        <time>2021-08-18T14:51:37Z</time>
      </trkpt>
      <trkpt lat="47.24983" lon="6.01042">
        <ele>308.1</ele>
        <time>2021-08-18T14:51:45Z</time>
      </trkpt>
      <trkpt lat="47.24973" lon="6.01052">
        <ele>308</ele>
        <time>2021-08-18T14:51:53Z</time>
      </trkpt>
      <trkpt lat="47.24963" lon="6.01062">
        <ele>307.9</ele>
        <time>2021-08-18T14:52:01Z</time>
      </trkpt>
      <trkpt lat="47.24953" lon="6.0107">
        <ele>307.6</ele>
        <time>2021-08-18T14:52:09Z</time>
      </trkpt>
      <trkpt lat="47.24943" lon="6.01076">
        <ele>307.3</ele>
        <time>2021-08-18T14:52:16Z</time>
      </trkpt>
      <trkpt lat="47.24933" lon="6.0108">
        <ele>306.9</ele>
        <time>2021-08-18T14:52:24Z</time>
      </trkpt>
      <trkpt lat="47.24921" lon="6.01082">
        <ele>306.2</ele>
        <time>2021-08-18T14:52:32Z</time>
      </trkpt>
      <trkpt lat="47.2491" lon="6.01084">
        <ele>305.4</ele>
        <time>2021-08-18T14:52:40Z</time>
      </trkpt>
      <trkpt lat="47.24899" lon="6.01082">
        <ele>304.3</ele>
        <time>2021-08-18T14:52:48Z</time>
      </trkpt>
      <trkpt lat="47.24888" lon="6.01085">
        <ele>303.2</ele>
        <time>2021-08-18T14:52:56Z</time>
      </trkpt>
      <trkpt lat="47.24877" lon="6.01084">
        <ele>302.2</ele>
        <time>2021-08-18T14:53:03Z</time>
      </trkpt>
      <trkpt lat="47.24866" lon="6.01082">
        <ele>301.1</ele>
        <time>2021-08-18T14:53:11Z</time>
      </trkpt>
      <trkpt lat="47.24857" lon="6.0108">
        <ele>300.3</ele>
        <time>2021-08-18T14:53:17Z</time>
      </trkpt>
      <trkpt lat="47.24846" lon="6.01076">
        <ele>299.3</ele>
        <time>2021-08-18T14:53:25Z</time>
      </trkpt>
      <trkpt lat="47.24836" lon="6.01077">
        <ele>298.4</ele>
        <time>2021-08-18T14:53:32Z</time>
      </trkpt>
      <trkpt lat="47.24825" lon="6.01074">
        <ele>297.6</ele>
        <time>2021-08-18T14:53:40Z</time>
      </trkpt>
      <trkpt lat="47.24815" lon="6.01078">
        <ele>296.8</ele>
        <time>2021-08-18T14:53:47Z</time>
      </trkpt>
      <trkpt lat="47.24804" lon="6.01082">
        <ele>295.9</ele>
        <time>2021-08-18T14:53:54Z</time>
      </trkpt>
      <trkpt lat="47.24794" lon="6.01087">
        <ele>295</ele>
        <time>2021-08-18T14:54:01Z</time>
      </trkpt>
      <trkpt lat="47.24786" lon="6.01091">
        <ele>294.1</ele>
        <time>2021-08-18T14:54:07Z</time>
      </trkpt>
      <trkpt lat="47.24776" lon="6.01094">
        <ele>293.2</ele>
        <time>2021-08-18T14:54:15Z</time>
      </trkpt>
      <trkpt lat="47.24767" lon="6.01101">
        <ele>292</ele>
        <time>2021-08-18T14:54:23Z</time>
      </trkpt>
      <trkpt lat="47.24758" lon="6.01107">
        <ele>290.9</ele>
        <time>2021-08-18T14:54:31Z</time>
      </trkpt>
      <trkpt lat="47.24748" lon="6.01109">
        <ele>290.1</ele>
        <time>2021-08-18T14:54:37Z</time>
      </trkpt>
      <trkpt lat="47.24739" lon="6.01114">
        <ele>289.5</ele>
        <time>2021-08-18T14:54:43Z</time>
      </trkpt>
      <trkpt lat="47.2473" lon="6.01121">
        <ele>288.9</ele>
        <time>2021-08-18T14:54:50Z</time>
      </trkpt>
      <trkpt lat="47.24721" lon="6.01126">
        <ele>288.4</ele>
        <time>2021-08-18T14:54:56Z</time>
      </trkpt>
      <trkpt lat="47.24712" lon="6.01132">
        <ele>287.9</ele>
        <time>2021-08-18T14:55:02Z</time>
      </trkpt>
      <trkpt lat="47.24703" lon="6.01139">
        <ele>287.4</ele>
        <time>2021-08-18T14:55:10Z</time>
      </trkpt>
      <trkpt lat="47.24694" lon="6.01146">
        <ele>287</ele>
        <time>2021-08-18T14:55:20Z</time>
      </trkpt>
      <trkpt lat="47.24684" lon="6.01151">
        <ele>286.7</ele>
        <time>2021-08-18T14:55:28Z</time>
      </trkpt>
      <trkpt lat="47.24675" lon="6.01155">
        <ele>286.5</ele>
        <time>2021-08-18T14:55:34Z</time>
      </trkpt>
      <trkpt lat="47.24665" lon="6.01158">
        <ele>286.2</ele>
        <time>2021-08-18T14:55:40Z</time>
      </trkpt>
      <trkpt lat="47.24656" lon="6.01163">
        <ele>285.5</ele>
        <time>2021-08-18T14:55:46Z</time>
      </trkpt>
      <trkpt lat="47.24646" lon="6.01168">
        <ele>284.7</ele>
        <time>2021-08-18T14:55:54Z</time>
      </trkpt>
      <trkpt lat="47.24637" lon="6.01173">
        <ele>284.2</ele>
        <time>2021-08-18T14:56:02Z</time>
      </trkpt>
      <trkpt lat="47.24627" lon="6.01177">
        <ele>283.6</ele>
        <time>2021-08-18T14:56:08Z</time>
      </trkpt>
      <trkpt lat="47.24617" lon="6.01181">
        <ele>283.1</ele>
        <time>2021-08-18T14:56:15Z</time>
      </trkpt>
      <trkpt lat="47.24607" lon="6.01186">
        <ele>282.6</ele>
        <time>2021-08-18T14:56:22Z</time>
      </trkpt>
      <trkpt lat="47.24598" lon="6.01189">
        <ele>282.2</ele>
        <time>2021-08-18T14:56:28Z</time>
      </trkpt>
      <trkpt lat="47.24588" lon="6.01194">
        <ele>281.9</ele>
        <time>2021-08-18T14:56:36Z</time>
      </trkpt>
      <trkpt lat="47.24579" lon="6.01203">
        <ele>282</ele>
        <time>2021-08-18T14:56:44Z</time>
      </trkpt>
      <trkpt lat="47.2457" lon="6.01211">
        <ele>282.4</ele>
        <time>2021-08-18T14:56:52Z</time>
      </trkpt>
      <trkpt lat="47.24567" lon="6.01216">
        <ele>282.6</ele>
        <time>2021-08-18T14:56:55Z</time>
      </trkpt>
      <trkpt lat="47.24563" lon="6.01222">
        <ele>282.9</ele>
        <time>2021-08-18T14:56:59Z</time>
      </trkpt>
      <trkpt lat="47.24559" lon="6.01228">
        <ele>283.2</ele>
        <time>2021-08-18T14:57:04Z</time>
      </trkpt>
      <trkpt lat="47.24554" lon="6.01232">
        <ele>283.5</ele>
        <time>2021-08-18T14:57:08Z</time>
      </trkpt>
      <trkpt lat="47.2455" lon="6.01236">
        <ele>283.7</ele>
        <time>2021-08-18T14:57:13Z</time>
      </trkpt>
      <trkpt lat="47.24546" lon="6.01241">
        <ele>284</ele>
        <time>2021-08-18T14:57:17Z</time>
      </trkpt>
      <trkpt lat="47.24544" lon="6.01248">
        <ele>284.3</ele>
        <time>2021-08-18T14:57:21Z</time>
      </trkpt>
      <trkpt lat="47.24542" lon="6.01253">
        <ele>284.6</ele>
        <time>2021-08-18T14:57:25Z</time>
      </trkpt>
      <trkpt lat="47.24538" lon="6.01258">
        <ele>285</ele>
        <time>2021-08-18T14:57:28Z</time>
      </trkpt>
      <trkpt lat="47.24535" lon="6.01262">
        <ele>285.3</ele>
        <time>2021-08-18T14:57:31Z</time>
      </trkpt>
      <trkpt lat="47.24532" lon="6.01268">
        <ele>285.7</ele>
        <time>2021-08-18T14:57:34Z</time>
      </trkpt>
      <trkpt lat="47.24529" lon="6.01275">
        <ele>286.2</ele>
        <time>2021-08-18T14:57:38Z</time>
      </trkpt>
      <trkpt lat="47.24524" lon="6.0128">
        <ele>286.6</ele>
        <time>2021-08-18T14:57:42Z</time>
      </trkpt>
      <trkpt lat="47.24519" lon="6.01283">
        <ele>286.9</ele>
        <time>2021-08-18T14:57:46Z</time>
      </trkpt>
      <trkpt lat="47.24514" lon="6.01287">
        <ele>287.3</ele>
        <time>2021-08-18T14:57:50Z</time>
      </trkpt>
      <trkpt lat="47.24511" lon="6.01291">
        <ele>287.6</ele>
        <time>2021-08-18T14:57:53Z</time>
      </trkpt>
      <trkpt lat="47.24505" lon="6.01295">
        <ele>288</ele>
        <time>2021-08-18T14:57:57Z</time>
      </trkpt>
      <trkpt lat="47.245" lon="6.01298">
        <ele>288.3</ele>
        <time>2021-08-18T14:58:01Z</time>
      </trkpt>
      <trkpt lat="47.24495" lon="6.013">
        <ele>288.2</ele>
        <time>2021-08-18T14:58:05Z</time>
      </trkpt>
      <trkpt lat="47.2449" lon="6.01302">
        <ele>288.2</ele>
        <time>2021-08-18T14:58:09Z</time>
      </trkpt>
      <trkpt lat="47.24485" lon="6.01305">
        <ele>288.2</ele>
        <time>2021-08-18T14:58:13Z</time>
      </trkpt>
      <trkpt lat="47.24479" lon="6.01306">
        <ele>288</ele>
        <time>2021-08-18T14:58:17Z</time>
      </trkpt>
      <trkpt lat="47.24474" lon="6.01309">
        <ele>288</ele>
        <time>2021-08-18T14:58:21Z</time>
      </trkpt>
      <trkpt lat="47.2447" lon="6.0131">
        <ele>287.9</ele>
        <time>2021-08-18T14:58:25Z</time>
      </trkpt>
      <trkpt lat="47.24465" lon="6.01314">
        <ele>287.9</ele>
        <time>2021-08-18T14:58:30Z</time>
      </trkpt>
      <trkpt lat="47.2446" lon="6.01314">
        <ele>287.7</ele>
        <time>2021-08-18T14:58:33Z</time>
      </trkpt>
      <trkpt lat="47.24455" lon="6.01314">
        <ele>287.6</ele>
        <time>2021-08-18T14:58:37Z</time>
      </trkpt>
      <trkpt lat="47.2445" lon="6.01312">
        <ele>287.3</ele>
        <time>2021-08-18T14:58:42Z</time>
      </trkpt>
      <trkpt lat="47.24447" lon="6.01318">
        <ele>287.5</ele>
        <time>2021-08-18T14:58:46Z</time>
      </trkpt>
      <trkpt lat="47.24443" lon="6.01323">
        <ele>287.5</ele>
        <time>2021-08-18T14:58:49Z</time>
      </trkpt>
      <trkpt lat="47.24439" lon="6.01322">
        <ele>287.4</ele>
        <time>2021-08-18T14:58:53Z</time>
      </trkpt>
      <trkpt lat="47.24433" lon="6.01322">
        <ele>287.2</ele>
        <time>2021-08-18T14:58:57Z</time>
      </trkpt>
      <trkpt lat="47.24427" lon="6.01323">
        <ele>287</ele>
        <time>2021-08-18T14:59:01Z</time>
      </trkpt>
      <trkpt lat="47.24422" lon="6.01325">
        <ele>286.9</ele>
        <time>2021-08-18T14:59:05Z</time>
      </trkpt>
      <trkpt lat="47.24418" lon="6.01326">
        <ele>286.8</ele>
        <time>2021-08-18T14:59:08Z</time>
      </trkpt>
      <trkpt lat="47.24413" lon="6.01327">
        <ele>286.6</ele>
        <time>2021-08-18T14:59:11Z</time>
      </trkpt>
      <trkpt lat="47.24408" lon="6.01327">
        <ele>286.4</ele>
        <time>2021-08-18T14:59:14Z</time>
      </trkpt>
      <trkpt lat="47.24402" lon="6.01328">
        <ele>286.1</ele>
        <time>2021-08-18T14:59:18Z</time>
      </trkpt>
      <trkpt lat="47.24397" lon="6.01332">
        <ele>286</ele>
        <time>2021-08-18T14:59:22Z</time>
      </trkpt>
      <trkpt lat="47.24395" lon="6.01339">
        <ele>286</ele>
        <time>2021-08-18T14:59:26Z</time>
      </trkpt>
      <trkpt lat="47.24392" lon="6.01346">
        <ele>285.9</ele>
        <time>2021-08-18T14:59:30Z</time>
      </trkpt>
      <trkpt lat="47.24389" lon="6.01351">
        <ele>285.7</ele>
        <time>2021-08-18T14:59:34Z</time>
      </trkpt>
      <trkpt lat="47.24384" lon="6.01354">
        <ele>285.5</ele>
        <time>2021-08-18T14:59:37Z</time>
      </trkpt>
      <trkpt lat="47.24379" lon="6.01356">
        <ele>285.2</ele>
        <time>2021-08-18T14:59:40Z</time>
      </trkpt>
      <trkpt lat="47.24374" lon="6.01358">
        <ele>284.9</ele>
        <time>2021-08-18T14:59:44Z</time>
      </trkpt>
      <trkpt lat="47.24369" lon="6.0136">
        <ele>284.7</ele>
        <time>2021-08-18T14:59:47Z</time>
      </trkpt>
      <trkpt lat="47.24365" lon="6.01365">
        <ele>284.4</ele>
        <time>2021-08-18T14:59:51Z</time>
      </trkpt>
      <trkpt lat="47.24361" lon="6.01371">
        <ele>284.2</ele>
        <time>2021-08-18T14:59:55Z</time>
      </trkpt>
      <trkpt lat="47.24356" lon="6.01376">
        <ele>283.9</ele>
        <time>2021-08-18T14:59:59Z</time>
      </trkpt>
      <trkpt lat="47.24352" lon="6.01382">
        <ele>283.6</ele>
        <time>2021-08-18T15:00:03Z</time>
      </trkpt>
      <trkpt lat="47.24348" lon="6.01386">
        <ele>283.3</ele>
        <time>2021-08-18T15:00:06Z</time>
      </trkpt>
      <trkpt lat="47.24343" lon="6.0139">
        <ele>282.9</ele>
        <time>2021-08-18T15:00:10Z</time>
      </trkpt>
      <trkpt lat="47.24338" lon="6.01394">
        <ele>282.6</ele>
        <time>2021-08-18T15:00:14Z</time>
      </trkpt>
      <trkpt lat="47.24333" lon="6.01399">
        <ele>282.2</ele>
        <time>2021-08-18T15:00:18Z</time>
      </trkpt>
      <trkpt lat="47.2433" lon="6.01403">
        <ele>282.3</ele>
        <time>2021-08-18T15:00:21Z</time>
      </trkpt>
      <trkpt lat="47.24326" lon="6.0141">
        <ele>282.3</ele>
        <time>2021-08-18T15:00:25Z</time>
      </trkpt>
      <trkpt lat="47.24323" lon="6.01417">
        <ele>282.2</ele>
        <time>2021-08-18T15:00:29Z</time>
      </trkpt>
      <trkpt lat="47.24319" lon="6.01422">
        <ele>282.4</ele>
        <time>2021-08-18T15:00:32Z</time>
      </trkpt>
      <trkpt lat="47.24315" lon="6.01426">
        <ele>282.4</ele>
        <time>2021-08-18T15:00:35Z</time>
      </trkpt>
      <trkpt lat="47.2431" lon="6.01429">
        <ele>282.5</ele>
        <time>2021-08-18T15:00:39Z</time>
      </trkpt>
      <trkpt lat="47.24306" lon="6.01434">
        <ele>282.5</ele>
        <time>2021-08-18T15:00:44Z</time>
      </trkpt>
      <trkpt lat="47.24302" lon="6.01439">
        <ele>282.5</ele>
        <time>2021-08-18T15:00:55Z</time>
      </trkpt>
      <trkpt lat="47.24298" lon="6.01443">
        <ele>282.5</ele>
        <time>2021-08-18T15:00:59Z</time>
      </trkpt>
      <trkpt lat="47.24293" lon="6.01447">
        <ele>282.5</ele>
        <time>2021-08-18T15:01:03Z</time>
      </trkpt>
      <trkpt lat="47.24288" lon="6.0145">
        <ele>282.4</ele>
        <time>2021-08-18T15:01:07Z</time>
      </trkpt>
      <trkpt lat="47.24285" lon="6.01455">
        <ele>282.3</ele>
        <time>2021-08-18T15:01:11Z</time>
      </trkpt>
      <trkpt lat="47.24282" lon="6.01461">
        <ele>282.1</ele>
        <time>2021-08-18T15:01:15Z</time>
      </trkpt>
      <trkpt lat="47.24277" lon="6.01466">
        <ele>281.9</ele>
        <time>2021-08-18T15:01:19Z</time>
      </trkpt>
      <trkpt lat="47.24272" lon="6.01469">
        <ele>281.8</ele>
        <time>2021-08-18T15:01:22Z</time>
      </trkpt>
      <trkpt lat="47.24268" lon="6.01474">
        <ele>281.6</ele>
        <time>2021-08-18T15:01:28Z</time>
      </trkpt>
      <trkpt lat="47.24265" lon="6.01479">
        <ele>281.3</ele>
        <time>2021-08-18T15:01:31Z</time>
      </trkpt>
      <trkpt lat="47.2426" lon="6.01483">
        <ele>281.1</ele>
        <time>2021-08-18T15:01:35Z</time>
      </trkpt>
      <trkpt lat="47.24256" lon="6.01488">
        <ele>280.7</ele>
        <time>2021-08-18T15:01:39Z</time>
      </trkpt>
      <trkpt lat="47.24252" lon="6.01496">
        <ele>280.3</ele>
        <time>2021-08-18T15:01:43Z</time>
      </trkpt>
      <trkpt lat="47.24252" lon="6.01503">
        <ele>280</ele>
        <time>2021-08-18T15:01:48Z</time>
      </trkpt>
      <trkpt lat="47.24254" lon="6.0151">
        <ele>279.8</ele>
        <time>2021-08-18T15:01:52Z</time>
      </trkpt>
      <trkpt lat="47.24257" lon="6.01516">
        <ele>279.7</ele>
        <time>2021-08-18T15:01:57Z</time>
      </trkpt>
      <trkpt lat="47.24258" lon="6.01523">
        <ele>279.5</ele>
        <time>2021-08-18T15:02:01Z</time>
      </trkpt>
      <trkpt lat="47.24262" lon="6.01528">
        <ele>279.6</ele>
        <time>2021-08-18T15:02:05Z</time>
      </trkpt>
      <trkpt lat="47.24266" lon="6.01532">
        <ele>279.6</ele>
        <time>2021-08-18T15:02:10Z</time>
      </trkpt>
      <trkpt lat="47.24269" lon="6.01538">
        <ele>279.6</ele>
        <time>2021-08-18T15:02:14Z</time>
      </trkpt>
      <trkpt lat="47.2427" lon="6.01544">
        <ele>279.5</ele>
        <time>2021-08-18T15:02:16Z</time>
      </trkpt>
      <trkpt lat="47.24268" lon="6.01554">
        <ele>279.1</ele>
        <time>2021-08-18T15:02:19Z</time>
      </trkpt>
      <trkpt lat="47.24266" lon="6.01562">
        <ele>278.8</ele>
        <time>2021-08-18T15:02:22Z</time>
      </trkpt>
      <trkpt lat="47.24263" lon="6.01569">
        <ele>278.4</ele>
        <time>2021-08-18T15:02:25Z</time>
      </trkpt>
      <trkpt lat="47.2426" lon="6.01575">
        <ele>278</ele>
        <time>2021-08-18T15:02:28Z</time>
      </trkpt>
      <trkpt lat="47.24259" lon="6.01582">
        <ele>277.7</ele>
        <time>2021-08-18T15:02:31Z</time>
      </trkpt>
      <trkpt lat="47.24258" lon="6.01589">
        <ele>277.3</ele>
        <time>2021-08-18T15:02:34Z</time>
      </trkpt>
      <trkpt lat="47.24258" lon="6.01597">
        <ele>276.9</ele>
        <time>2021-08-18T15:02:38Z</time>
      </trkpt>
      <trkpt lat="47.24257" lon="6.01604">
        <ele>276.5</ele>
        <time>2021-08-18T15:02:41Z</time>
      </trkpt>
      <trkpt lat="47.2426" lon="6.0161">
        <ele>276.4</ele>
        <time>2021-08-18T15:02:45Z</time>
      </trkpt>
      <trkpt lat="47.24264" lon="6.01611">
        <ele>276.7</ele>
        <time>2021-08-18T15:02:49Z</time>
      </trkpt>
      <trkpt lat="47.24266" lon="6.01618">
        <ele>276.5</ele>
        <time>2021-08-18T15:02:53Z</time>
      </trkpt>
      <trkpt lat="47.24268" lon="6.01626">
        <ele>276.2</ele>
        <time>2021-08-18T15:02:57Z</time>
      </trkpt>
      <trkpt lat="47.2427" lon="6.01633">
        <ele>276.1</ele>
        <time>2021-08-18T15:03:02Z</time>
      </trkpt>
      <trkpt lat="47.24272" lon="6.0164">
        <ele>275.9</ele>
        <time>2021-08-18T15:03:06Z</time>
      </trkpt>
      <trkpt lat="47.24275" lon="6.01647">
        <ele>275.7</ele>
        <time>2021-08-18T15:03:10Z</time>
      </trkpt>
      <trkpt lat="47.24276" lon="6.01654">
        <ele>275.5</ele>
        <time>2021-08-18T15:03:13Z</time>
      </trkpt>
      <trkpt lat="47.24276" lon="6.01663">
        <ele>275</ele>
        <time>2021-08-18T15:03:17Z</time>
      </trkpt>
      <trkpt lat="47.24277" lon="6.0167">
        <ele>274.8</ele>
        <time>2021-08-18T15:03:21Z</time>
      </trkpt>
      <trkpt lat="47.2428" lon="6.01676">
        <ele>274.6</ele>
        <time>2021-08-18T15:03:25Z</time>
      </trkpt>
      <trkpt lat="47.24284" lon="6.01679">
        <ele>274.7</ele>
        <time>2021-08-18T15:03:29Z</time>
      </trkpt>
      <trkpt lat="47.24287" lon="6.01686">
        <ele>274.5</ele>
        <time>2021-08-18T15:03:33Z</time>
      </trkpt>
      <trkpt lat="47.24289" lon="6.01692">
        <ele>274.3</ele>
        <time>2021-08-18T15:03:36Z</time>
      </trkpt>
      <trkpt lat="47.24294" lon="6.01696">
        <ele>274.4</ele>
        <time>2021-08-18T15:03:38Z</time>
      </trkpt>
      <trkpt lat="47.243" lon="6.01699">
        <ele>274.6</ele>
        <time>2021-08-18T15:03:40Z</time>
      </trkpt>
      <trkpt lat="47.24305" lon="6.01702">
        <ele>274.7</ele>
        <time>2021-08-18T15:03:43Z</time>
      </trkpt>
      <trkpt lat="47.2431" lon="6.01705">
        <ele>274.8</ele>
        <time>2021-08-18T15:03:46Z</time>
      </trkpt>
      <trkpt lat="47.24314" lon="6.01707">
        <ele>274.9</ele>
        <time>2021-08-18T15:03:49Z</time>
      </trkpt>
      <trkpt lat="47.24318" lon="6.01709">
        <ele>275</ele>
        <time>2021-08-18T15:03:52Z</time>
      </trkpt>
      <trkpt lat="47.24319" lon="6.01716">
        <ele>274.6</ele>
        <time>2021-08-18T15:03:58Z</time>
      </trkpt>
      <trkpt lat="47.24316" lon="6.01722">
        <ele>274</ele>
        <time>2021-08-18T15:04:03Z</time>
      </trkpt>
      <trkpt lat="47.24318" lon="6.01729">
        <ele>273.7</ele>
        <time>2021-08-18T15:04:07Z</time>
      </trkpt>
      <trkpt lat="47.24323" lon="6.01731">
        <ele>273.8</ele>
        <time>2021-08-18T15:04:10Z</time>
      </trkpt>
      <trkpt lat="47.24327" lon="6.01733">
        <ele>273.9</ele>
        <time>2021-08-18T15:04:13Z</time>
      </trkpt>
      <trkpt lat="47.24332" lon="6.01737">
        <ele>273.9</ele>
        <time>2021-08-18T15:04:17Z</time>
      </trkpt>
      <trkpt lat="47.24337" lon="6.0174">
        <ele>274</ele>
        <time>2021-08-18T15:04:21Z</time>
      </trkpt>
      <trkpt lat="47.24341" lon="6.01744">
        <ele>274</ele>
        <time>2021-08-18T15:04:25Z</time>
      </trkpt>
      <trkpt lat="47.24345" lon="6.01748">
        <ele>274.1</ele>
        <time>2021-08-18T15:04:28Z</time>
      </trkpt>
      <trkpt lat="47.2435" lon="6.01752">
        <ele>274.4</ele>
        <time>2021-08-18T15:04:32Z</time>
      </trkpt>
      <trkpt lat="47.24355" lon="6.01753">
        <ele>274.8</ele>
        <time>2021-08-18T15:04:36Z</time>
      </trkpt>
      <trkpt lat="47.2436" lon="6.01755">
        <ele>275.2</ele>
        <time>2021-08-18T15:04:40Z</time>
      </trkpt>
      <trkpt lat="47.24365" lon="6.01759">
        <ele>275.6</ele>
        <time>2021-08-18T15:04:44Z</time>
      </trkpt>
      <trkpt lat="47.24369" lon="6.01762">
        <ele>275.9</ele>
        <time>2021-08-18T15:04:47Z</time>
      </trkpt>
      <trkpt lat="47.24375" lon="6.01766">
        <ele>276.3</ele>
        <time>2021-08-18T15:04:50Z</time>
      </trkpt>
      <trkpt lat="47.2438" lon="6.0177">
        <ele>276.7</ele>
        <time>2021-08-18T15:04:52Z</time>
      </trkpt>
      <trkpt lat="47.24384" lon="6.01772">
        <ele>276.9</ele>
        <time>2021-08-18T15:04:54Z</time>
      </trkpt>
      <trkpt lat="47.2439" lon="6.01775">
        <ele>277.4</ele>
        <time>2021-08-18T15:04:57Z</time>
      </trkpt>
      <trkpt lat="47.24395" lon="6.01778">
        <ele>277.7</ele>
        <time>2021-08-18T15:05:00Z</time>
      </trkpt>
      <trkpt lat="47.24398" lon="6.01782">
        <ele>277.8</ele>
        <time>2021-08-18T15:05:04Z</time>
      </trkpt>
      <trkpt lat="47.24403" lon="6.01786">
        <ele>278.1</ele>
        <time>2021-08-18T15:05:08Z</time>
      </trkpt>
      <trkpt lat="47.24408" lon="6.01789">
        <ele>278.4</ele>
        <time>2021-08-18T15:05:12Z</time>
      </trkpt>
      <trkpt lat="47.24413" lon="6.01794">
        <ele>278.7</ele>
        <time>2021-08-18T15:05:19Z</time>
      </trkpt>
      <trkpt lat="47.24417" lon="6.01798">
        <ele>278.9</ele>
        <time>2021-08-18T15:05:24Z</time>
      </trkpt>
      <trkpt lat="47.24421" lon="6.01803">
        <ele>278.8</ele>
        <time>2021-08-18T15:05:29Z</time>
      </trkpt>
      <trkpt lat="47.24424" lon="6.0181">
        <ele>278.8</ele>
        <time>2021-08-18T15:05:33Z</time>
      </trkpt>
      <trkpt lat="47.24426" lon="6.01817">
        <ele>278.7</ele>
        <time>2021-08-18T15:05:36Z</time>
      </trkpt>
      <trkpt lat="47.24429" lon="6.01823">
        <ele>278.6</ele>
        <time>2021-08-18T15:05:39Z</time>
      </trkpt>
      <trkpt lat="47.24431" lon="6.0183">
        <ele>278.6</ele>
        <time>2021-08-18T15:05:42Z</time>
      </trkpt>
      <trkpt lat="47.24431" lon="6.01838">
        <ele>278.3</ele>
        <time>2021-08-18T15:05:45Z</time>
      </trkpt>
      <trkpt lat="47.24431" lon="6.01846">
        <ele>278</ele>
        <time>2021-08-18T15:05:49Z</time>
      </trkpt>
      <trkpt lat="47.24431" lon="6.01853">
        <ele>277.7</ele>
        <time>2021-08-18T15:05:52Z</time>
      </trkpt>
      <trkpt lat="47.24431" lon="6.0186">
        <ele>277.4</ele>
        <time>2021-08-18T15:05:55Z</time>
      </trkpt>
      <trkpt lat="47.2443" lon="6.01869">
        <ele>277</ele>
        <time>2021-08-18T15:05:59Z</time>
      </trkpt>
      <trkpt lat="47.24429" lon="6.01877">
        <ele>276.6</ele>
        <time>2021-08-18T15:06:03Z</time>
      </trkpt>
      <trkpt lat="47.24429" lon="6.01885">
        <ele>276.2</ele>
        <time>2021-08-18T15:06:06Z</time>
      </trkpt>
      <trkpt lat="47.24428" lon="6.01891">
        <ele>275.9</ele>
        <time>2021-08-18T15:06:09Z</time>
      </trkpt>
      <trkpt lat="47.24427" lon="6.01899">
        <ele>275.5</ele>
        <time>2021-08-18T15:06:13Z</time>
      </trkpt>
      <trkpt lat="47.24426" lon="6.01907">
        <ele>275.1</ele>
        <time>2021-08-18T15:06:17Z</time>
      </trkpt>
      <trkpt lat="47.24425" lon="6.01916">
        <ele>274.6</ele>
        <time>2021-08-18T15:06:21Z</time>
      </trkpt>
      <trkpt lat="47.24425" lon="6.01923">
        <ele>274.1</ele>
        <time>2021-08-18T15:06:24Z</time>
      </trkpt>
      <trkpt lat="47.24424" lon="6.01931">
        <ele>273.4</ele>
        <time>2021-08-18T15:06:28Z</time>
      </trkpt>
      <trkpt lat="47.24419" lon="6.01934">
        <ele>272.7</ele>
        <time>2021-08-18T15:06:32Z</time>
      </trkpt>
      <trkpt lat="47.24414" lon="6.01938">
        <ele>272.1</ele>
        <time>2021-08-18T15:06:36Z</time>
      </trkpt>
      <trkpt lat="47.24408" lon="6.01937">
        <ele>272</ele>
        <time>2021-08-18T15:06:40Z</time>
      </trkpt>
      <trkpt lat="47.24403" lon="6.01934">
        <ele>272.1</ele>
        <time>2021-08-18T15:06:44Z</time>
      </trkpt>
      <trkpt lat="47.24399" lon="6.01934">
        <ele>272</ele>
        <time>2021-08-18T15:06:47Z</time>
      </trkpt>
      <trkpt lat="47.24393" lon="6.01935">
        <ele>271.8</ele>
        <time>2021-08-18T15:06:51Z</time>
      </trkpt>
      <trkpt lat="47.24388" lon="6.01938">
        <ele>271.3</ele>
        <time>2021-08-18T15:06:55Z</time>
      </trkpt>
      <trkpt lat="47.24384" lon="6.01941">
        <ele>270.9</ele>
        <time>2021-08-18T15:06:58Z</time>
      </trkpt>
      <trkpt lat="47.24379" lon="6.01947">
        <ele>270.2</ele>
        <time>2021-08-18T15:07:02Z</time>
      </trkpt>
      <trkpt lat="47.24376" lon="6.01951">
        <ele>269.7</ele>
        <time>2021-08-18T15:07:05Z</time>
      </trkpt>
      <trkpt lat="47.24371" lon="6.01955">
        <ele>269.2</ele>
        <time>2021-08-18T15:07:08Z</time>
      </trkpt>
      <trkpt lat="47.24366" lon="6.0196">
        <ele>268.5</ele>
        <time>2021-08-18T15:07:12Z</time>
      </trkpt>
      <trkpt lat="47.24362" lon="6.01965">
        <ele>267.9</ele>
        <time>2021-08-18T15:07:16Z</time>
      </trkpt>
      <trkpt lat="47.24357" lon="6.01969">
        <ele>267.3</ele>
        <time>2021-08-18T15:07:20Z</time>
      </trkpt>
      <trkpt lat="47.24353" lon="6.01974">
        <ele>266.6</ele>
        <time>2021-08-18T15:07:24Z</time>
      </trkpt>
      <trkpt lat="47.2435" lon="6.01981">
        <ele>265.8</ele>
        <time>2021-08-18T15:07:28Z</time>
      </trkpt>
      <trkpt lat="47.24348" lon="6.01989">
        <ele>264.8</ele>
        <time>2021-08-18T15:07:32Z</time>
      </trkpt>
      <trkpt lat="47.24345" lon="6.01996">
        <ele>264</ele>
        <time>2021-08-18T15:07:36Z</time>
      </trkpt>
      <trkpt lat="47.24341" lon="6.02">
        <ele>263.4</ele>
        <time>2021-08-18T15:07:39Z</time>
      </trkpt>
      <trkpt lat="47.24337" lon="6.02003">
        <ele>262.9</ele>
        <time>2021-08-18T15:07:42Z</time>
      </trkpt>
      <trkpt lat="47.24333" lon="6.02006">
        <ele>262.5</ele>
        <time>2021-08-18T15:07:45Z</time>
      </trkpt>
      <trkpt lat="47.24328" lon="6.02006">
        <ele>262.1</ele>
        <time>2021-08-18T15:07:49Z</time>
      </trkpt>
      <trkpt lat="47.24323" lon="6.02009">
        <ele>261.5</ele>
        <time>2021-08-18T15:07:52Z</time>
      </trkpt>
      <trkpt lat="47.24319" lon="6.02012">
        <ele>260.9</ele>
        <time>2021-08-18T15:07:55Z</time>
      </trkpt>
      <trkpt lat="47.24314" lon="6.02015">
        <ele>260.4</ele>
        <time>2021-08-18T15:07:59Z</time>
      </trkpt>
      <trkpt lat="47.24308" lon="6.02018">
        <ele>259.8</ele>
        <time>2021-08-18T15:08:03Z</time>
      </trkpt>
      <trkpt lat="47.24303" lon="6.0202">
        <ele>259.3</ele>
        <time>2021-08-18T15:08:07Z</time>
      </trkpt>
      <trkpt lat="47.24298" lon="6.02022">
        <ele>258.9</ele>
        <time>2021-08-18T15:08:11Z</time>
      </trkpt>
      <trkpt lat="47.24294" lon="6.02027">
        <ele>258.3</ele>
        <time>2021-08-18T15:08:15Z</time>
      </trkpt>
      <trkpt lat="47.24289" lon="6.0203">
        <ele>257.9</ele>
        <time>2021-08-18T15:08:22Z</time>
      </trkpt>
      <trkpt lat="47.24288" lon="6.02036">
        <ele>257.6</ele>
        <time>2021-08-18T15:08:25Z</time>
      </trkpt>
      <trkpt lat="47.24286" lon="6.02044">
        <ele>257.1</ele>
        <time>2021-08-18T15:08:29Z</time>
      </trkpt>
      <trkpt lat="47.24281" lon="6.02049">
        <ele>256.7</ele>
        <time>2021-08-18T15:08:33Z</time>
      </trkpt>
      <trkpt lat="47.24278" lon="6.02054">
        <ele>256.4</ele>
        <time>2021-08-18T15:08:36Z</time>
      </trkpt>
      <trkpt lat="47.24275" lon="6.0206">
        <ele>256.1</ele>
        <time>2021-08-18T15:08:42Z</time>
      </trkpt>
      <trkpt lat="47.24274" lon="6.02066">
        <ele>255.9</ele>
        <time>2021-08-18T15:08:46Z</time>
      </trkpt>
      <trkpt lat="47.24273" lon="6.02073">
        <ele>255.6</ele>
        <time>2021-08-18T15:08:51Z</time>
      </trkpt>
      <trkpt lat="47.24271" lon="6.02081">
        <ele>255.3</ele>
        <time>2021-08-18T15:08:55Z</time>
      </trkpt>
      <trkpt lat="47.24269" lon="6.02088">
        <ele>255</ele>
        <time>2021-08-18T15:08:58Z</time>
      </trkpt>
      <trkpt lat="47.24266" lon="6.02094">
        <ele>254.7</ele>
        <time>2021-08-18T15:09:01Z</time>
      </trkpt>
      <trkpt lat="47.24261" lon="6.02095">
        <ele>254.5</ele>
        <time>2021-08-18T15:09:05Z</time>
      </trkpt>
      <trkpt lat="47.24257" lon="6.02091">
        <ele>254.7</ele>
        <time>2021-08-18T15:09:09Z</time>
      </trkpt>
      <trkpt lat="47.24252" lon="6.02094">
        <ele>254.4</ele>
        <time>2021-08-18T15:09:14Z</time>
      </trkpt>
      <trkpt lat="47.24248" lon="6.0209">
        <ele>254.6</ele>
        <time>2021-08-18T15:09:19Z</time>
      </trkpt>
      <trkpt lat="47.24243" lon="6.02088">
        <ele>254.6</ele>
        <time>2021-08-18T15:09:23Z</time>
      </trkpt>
      <trkpt lat="47.24238" lon="6.02087">
        <ele>254.6</ele>
        <time>2021-08-18T15:09:26Z</time>
      </trkpt>
      <trkpt lat="47.24234" lon="6.02085">
        <ele>254.7</ele>
        <time>2021-08-18T15:09:29Z</time>
      </trkpt>
      <trkpt lat="47.24229" lon="6.02082">
        <ele>254.8</ele>
        <time>2021-08-18T15:09:33Z</time>
      </trkpt>
      <trkpt lat="47.24223" lon="6.0208">
        <ele>254.7</ele>
        <time>2021-08-18T15:09:37Z</time>
      </trkpt>
      <trkpt lat="47.24218" lon="6.02077">
        <ele>254.6</ele>
        <time>2021-08-18T15:09:41Z</time>
      </trkpt>
      <trkpt lat="47.24213" lon="6.02075">
        <ele>254.5</ele>
        <time>2021-08-18T15:09:44Z</time>
      </trkpt>
      <trkpt lat="47.24209" lon="6.02073">
        <ele>254.4</ele>
        <time>2021-08-18T15:09:48Z</time>
      </trkpt>
      <trkpt lat="47.24205" lon="6.02078">
        <ele>254.4</ele>
        <time>2021-08-18T15:10:01Z</time>
      </trkpt>
      <trkpt lat="47.24202" lon="6.02083">
        <ele>254.4</ele>
        <time>2021-08-18T15:10:05Z</time>
      </trkpt>
      <trkpt lat="47.24203" lon="6.0209">
        <ele>254</ele>
        <time>2021-08-18T15:10:09Z</time>
      </trkpt>
      <trkpt lat="47.242" lon="6.02097">
        <ele>253.5</ele>
        <time>2021-08-18T15:10:13Z</time>
      </trkpt>
      <trkpt lat="47.24197" lon="6.02105">
        <ele>252.9</ele>
        <time>2021-08-18T15:10:16Z</time>
      </trkpt>
      <trkpt lat="47.24196" lon="6.02114">
        <ele>252.3</ele>
        <time>2021-08-18T15:10:19Z</time>
      </trkpt>
      <trkpt lat="47.24194" lon="6.02124">
        <ele>251.6</ele>
        <time>2021-08-18T15:10:22Z</time>
      </trkpt>
      <trkpt lat="47.24194" lon="6.02132">
        <ele>251</ele>
        <time>2021-08-18T15:10:25Z</time>
      </trkpt>
      <trkpt lat="47.24193" lon="6.0214">
        <ele>250.5</ele>
        <time>2021-08-18T15:10:28Z</time>
      </trkpt>
      <trkpt lat="47.24191" lon="6.02147">
        <ele>249.9</ele>
        <time>2021-08-18T15:10:31Z</time>
      </trkpt>
      <trkpt lat="47.24189" lon="6.02154">
        <ele>249.4</ele>
        <time>2021-08-18T15:10:34Z</time>
      </trkpt>
      <trkpt lat="47.24187" lon="6.02161">
        <ele>248.9</ele>
        <time>2021-08-18T15:10:37Z</time>
      </trkpt>
      <trkpt lat="47.24186" lon="6.02169">
        <ele>248.4</ele>
        <time>2021-08-18T15:10:40Z</time>
      </trkpt>
      <trkpt lat="47.24184" lon="6.02176">
        <ele>248.1</ele>
        <time>2021-08-18T15:10:43Z</time>
      </trkpt>
      <trkpt lat="47.24182" lon="6.02182">
        <ele>247.8</ele>
        <time>2021-08-18T15:10:46Z</time>
      </trkpt>
      <trkpt lat="47.24179" lon="6.0219">
        <ele>247.4</ele>
        <time>2021-08-18T15:10:50Z</time>
      </trkpt>
      <trkpt lat="47.24177" lon="6.02197">
        <ele>247.1</ele>
        <time>2021-08-18T15:10:54Z</time>
      </trkpt>
      <trkpt lat="47.24175" lon="6.02206">
        <ele>246.7</ele>
        <time>2021-08-18T15:10:58Z</time>
      </trkpt>
      <trkpt lat="47.24174" lon="6.02213">
        <ele>246.5</ele>
        <time>2021-08-18T15:11:02Z</time>
      </trkpt>
      <trkpt lat="47.24172" lon="6.02228">
        <ele>245.9</ele>
        <time>2021-08-18T15:11:10Z</time>
      </trkpt>
      <trkpt lat="47.2418" lon="6.02236">
        <ele>245.7</ele>
        <time>2021-08-18T15:11:18Z</time>
      </trkpt>
      <trkpt lat="47.24188" lon="6.02244">
        <ele>245.5</ele>
        <time>2021-08-18T15:11:26Z</time>
      </trkpt>
      <trkpt lat="47.24198" lon="6.02248">
        <ele>245.5</ele>
        <time>2021-08-18T15:11:33Z</time>
      </trkpt>
      <trkpt lat="47.24207" lon="6.02259">
        <ele>245.3</ele>
        <time>2021-08-18T15:11:39Z</time>
      </trkpt>
      <trkpt lat="47.24213" lon="6.02269">
        <ele>245.1</ele>
        <time>2021-08-18T15:11:44Z</time>
      </trkpt>
      <trkpt lat="47.24219" lon="6.02282">
        <ele>244.9</ele>
        <time>2021-08-18T15:11:55Z</time>
      </trkpt>
      <trkpt lat="47.24227" lon="6.02295">
        <ele>244.6</ele>
        <time>2021-08-18T15:12:01Z</time>
      </trkpt>
      <trkpt lat="47.2423" lon="6.02308">
        <ele>244.4</ele>
        <time>2021-08-18T15:12:11Z</time>
      </trkpt>
      <trkpt lat="47.24233" lon="6.02322">
        <ele>244.1</ele>
        <time>2021-08-18T15:12:16Z</time>
      </trkpt>
      <trkpt lat="47.24238" lon="6.02336">
        <ele>243.7</ele>
        <time>2021-08-18T15:12:21Z</time>
      </trkpt>
      <trkpt lat="47.24247" lon="6.02345">
        <ele>243.4</ele>
        <time>2021-08-18T15:12:33Z</time>
      </trkpt>
      <trkpt lat="47.24249" lon="6.02348">
        <ele>243.3</ele>
        <time>2021-08-18T15:12:52Z</time>
      </trkpt>
      <trkpt lat="47.24251" lon="6.02347">
        <ele>243.4</ele>
        <time>2021-08-18T15:13:09Z</time>
      </trkpt>
      <trkpt lat="47.24259" lon="6.02349">
        <ele>244</ele>
        <time>2021-08-18T15:13:36Z</time>
      </trkpt>
      <trkpt lat="47.24266" lon="6.0234">
        <ele>245</ele>
        <time>2021-08-18T15:13:44Z</time>
      </trkpt>
      <trkpt lat="47.24274" lon="6.02333">
        <ele>246</ele>
        <time>2021-08-18T15:13:49Z</time>
      </trkpt>
      <trkpt lat="47.24269" lon="6.02343">
        <ele>245.1</ele>
        <time>2021-08-18T15:13:55Z</time>
      </trkpt>
      <trkpt lat="47.24263" lon="6.02356">
        <ele>244</ele>
        <time>2021-08-18T15:14:06Z</time>
      </trkpt>
      <trkpt lat="47.24267" lon="6.02382">
        <ele>243.1</ele>
        <time>2021-08-18T15:14:30Z</time>
      </trkpt>
      <trkpt lat="47.24275" lon="6.02381">
        <ele>243.8</ele>
        <time>2021-08-18T15:14:39Z</time>
      </trkpt>
      <trkpt lat="47.24282" lon="6.02371">
        <ele>244.9</ele>
        <time>2021-08-18T15:14:48Z</time>
      </trkpt>
      <trkpt lat="47.24289" lon="6.02361">
        <ele>245.9</ele>
        <time>2021-08-18T15:14:57Z</time>
      </trkpt>
      <trkpt lat="47.24298" lon="6.02351">
        <ele>247.2</ele>
        <time>2021-08-18T15:15:05Z</time>
      </trkpt>
      <trkpt lat="47.24307" lon="6.02342">
        <ele>248.4</ele>
        <time>2021-08-18T15:15:13Z</time>
      </trkpt>
      <trkpt lat="47.24315" lon="6.02335">
        <ele>249.4</ele>
        <time>2021-08-18T15:15:22Z</time>
      </trkpt>
      <trkpt lat="47.24323" lon="6.02327">
        <ele>250.4</ele>
        <time>2021-08-18T15:15:31Z</time>
      </trkpt>
      <trkpt lat="47.24331" lon="6.02318">
        <ele>251.5</ele>
        <time>2021-08-18T15:15:41Z</time>
      </trkpt>
      <trkpt lat="47.2434" lon="6.0231">
        <ele>252.7</ele>
        <time>2021-08-18T15:15:49Z</time>
      </trkpt>
      <trkpt lat="47.24347" lon="6.02298">
        <ele>253.9</ele>
        <time>2021-08-18T15:16:01Z</time>
      </trkpt>
      <trkpt lat="47.24353" lon="6.02287">
        <ele>255</ele>
        <time>2021-08-18T15:16:09Z</time>
      </trkpt>
      <trkpt lat="47.2436" lon="6.02275">
        <ele>256.4</ele>
        <time>2021-08-18T15:16:17Z</time>
      </trkpt>
      <trkpt lat="47.2437" lon="6.02268">
        <ele>257.8</ele>
        <time>2021-08-18T15:16:27Z</time>
      </trkpt>
      <trkpt lat="47.24379" lon="6.02276">
        <ele>258.2</ele>
        <time>2021-08-18T15:16:35Z</time>
      </trkpt>
      <trkpt lat="47.24387" lon="6.02287">
        <ele>258.2</ele>
        <time>2021-08-18T15:16:43Z</time>
      </trkpt>
      <trkpt lat="47.24392" lon="6.023">
        <ele>257.7</ele>
        <time>2021-08-18T15:16:51Z</time>
      </trkpt>
      <trkpt lat="47.24397" lon="6.02313">
        <ele>257.1</ele>
        <time>2021-08-18T15:16:59Z</time>
      </trkpt>
      <trkpt lat="47.24406" lon="6.02318">
        <ele>257.4</ele>
        <time>2021-08-18T15:17:07Z</time>
      </trkpt>
      <trkpt lat="47.24418" lon="6.02319">
        <ele>258.3</ele>
        <time>2021-08-18T15:17:15Z</time>
      </trkpt>
      <trkpt lat="47.24419" lon="6.02304">
        <ele>259.7</ele>
        <time>2021-08-18T15:17:24Z</time>
      </trkpt>
      <trkpt lat="47.24418" lon="6.02289">
        <ele>260.8</ele>
        <time>2021-08-18T15:17:32Z</time>
      </trkpt>
      <trkpt lat="47.24417" lon="6.02274">
        <ele>262</ele>
        <time>2021-08-18T15:17:40Z</time>
      </trkpt>
      <trkpt lat="47.24417" lon="6.02259">
        <ele>263.3</ele>
        <time>2021-08-18T15:17:48Z</time>
      </trkpt>
      <trkpt lat="47.24422" lon="6.02246">
        <ele>264.4</ele>
        <time>2021-08-18T15:17:55Z</time>
      </trkpt>
      <trkpt lat="47.24432" lon="6.02239">
        <ele>265.3</ele>
        <time>2021-08-18T15:18:03Z</time>
      </trkpt>
      <trkpt lat="47.2444" lon="6.0223">
        <ele>266.2</ele>
        <time>2021-08-18T15:18:10Z</time>
      </trkpt>
      <trkpt lat="47.2445" lon="6.02223">
        <ele>267.2</ele>
        <time>2021-08-18T15:18:18Z</time>
      </trkpt>
      <trkpt lat="47.24458" lon="6.02216">
        <ele>268.2</ele>
        <time>2021-08-18T15:18:24Z</time>
      </trkpt>
      <trkpt lat="47.24466" lon="6.02211">
        <ele>269.1</ele>
        <time>2021-08-18T15:18:30Z</time>
      </trkpt>
      <trkpt lat="47.24476" lon="6.02206">
        <ele>270.3</ele>
        <time>2021-08-18T15:18:37Z</time>
      </trkpt>
      <trkpt lat="47.2448" lon="6.02202">
        <ele>270.9</ele>
        <time>2021-08-18T15:18:40Z</time>
      </trkpt>
      <trkpt lat="47.24485" lon="6.02198">
        <ele>271.6</ele>
        <time>2021-08-18T15:18:44Z</time>
      </trkpt>
      <trkpt lat="47.2449" lon="6.02195">
        <ele>272.3</ele>
        <time>2021-08-18T15:18:48Z</time>
      </trkpt>
      <trkpt lat="47.24496" lon="6.02195">
        <ele>272.9</ele>
        <time>2021-08-18T15:18:52Z</time>
      </trkpt>
      <trkpt lat="47.24501" lon="6.02194">
        <ele>273.4</ele>
        <time>2021-08-18T15:18:56Z</time>
      </trkpt>
      <trkpt lat="47.24505" lon="6.02192">
        <ele>273.7</ele>
        <time>2021-08-18T15:19:00Z</time>
      </trkpt>
      <trkpt lat="47.2451" lon="6.02189">
        <ele>274</ele>
        <time>2021-08-18T15:19:06Z</time>
      </trkpt>
      <trkpt lat="47.24515" lon="6.02186">
        <ele>274.3</ele>
        <time>2021-08-18T15:19:10Z</time>
      </trkpt>
      <trkpt lat="47.24521" lon="6.02185">
        <ele>274.6</ele>
        <time>2021-08-18T15:19:14Z</time>
      </trkpt>
      <trkpt lat="47.24526" lon="6.02186">
        <ele>274.7</ele>
        <time>2021-08-18T15:19:17Z</time>
      </trkpt>
      <trkpt lat="47.2453" lon="6.02189">
        <ele>274.7</ele>
        <time>2021-08-18T15:19:20Z</time>
      </trkpt>
      <trkpt lat="47.24534" lon="6.02191">
        <ele>274.7</ele>
        <time>2021-08-18T15:19:23Z</time>
      </trkpt>
      <trkpt lat="47.2454" lon="6.02194">
        <ele>274.8</ele>
        <time>2021-08-18T15:19:27Z</time>
      </trkpt>
      <trkpt lat="47.24544" lon="6.02196">
        <ele>274.9</ele>
        <time>2021-08-18T15:19:30Z</time>
      </trkpt>
      <trkpt lat="47.24549" lon="6.02198">
        <ele>275</ele>
        <time>2021-08-18T15:19:33Z</time>
      </trkpt>
      <trkpt lat="47.24554" lon="6.02201">
        <ele>275</ele>
        <time>2021-08-18T15:19:37Z</time>
      </trkpt>
      <trkpt lat="47.24559" lon="6.02204">
        <ele>275.1</ele>
        <time>2021-08-18T15:19:41Z</time>
      </trkpt>
      <trkpt lat="47.24564" lon="6.02208">
        <ele>275.2</ele>
        <time>2021-08-18T15:19:45Z</time>
      </trkpt>
      <trkpt lat="47.24575" lon="6.02214">
        <ele>275.5</ele>
        <time>2021-08-18T15:19:53Z</time>
      </trkpt>
      <trkpt lat="47.24587" lon="6.02219">
        <ele>275.8</ele>
        <time>2021-08-18T15:20:01Z</time>
      </trkpt>
      <trkpt lat="47.24598" lon="6.02223">
        <ele>276.1</ele>
        <time>2021-08-18T15:20:09Z</time>
      </trkpt>
      <trkpt lat="47.24608" lon="6.02229">
        <ele>276.2</ele>
        <time>2021-08-18T15:20:17Z</time>
      </trkpt>
      <trkpt lat="47.24617" lon="6.02235">
        <ele>276.4</ele>
        <time>2021-08-18T15:20:24Z</time>
      </trkpt>
      <trkpt lat="47.24625" lon="6.02244">
        <ele>276.6</ele>
        <time>2021-08-18T15:20:31Z</time>
      </trkpt>
      <trkpt lat="47.24636" lon="6.02238">
        <ele>277</ele>
        <time>2021-08-18T15:20:39Z</time>
      </trkpt>
      <trkpt lat="47.24647" lon="6.02232">
        <ele>277.4</ele>
        <time>2021-08-18T15:20:47Z</time>
      </trkpt>
      <trkpt lat="47.24657" lon="6.02227">
        <ele>277.7</ele>
        <time>2021-08-18T15:20:55Z</time>
      </trkpt>
      <trkpt lat="47.24667" lon="6.02225">
        <ele>278</ele>
        <time>2021-08-18T15:21:03Z</time>
      </trkpt>
      <trkpt lat="47.24677" lon="6.02221">
        <ele>278.2</ele>
        <time>2021-08-18T15:21:12Z</time>
      </trkpt>
      <trkpt lat="47.24686" lon="6.02216">
        <ele>278.3</ele>
        <time>2021-08-18T15:21:20Z</time>
      </trkpt>
      <trkpt lat="47.24695" lon="6.02207">
        <ele>278.5</ele>
        <time>2021-08-18T15:21:30Z</time>
      </trkpt>
      <trkpt lat="47.247" lon="6.02199">
        <ele>278.6</ele>
        <time>2021-08-18T15:21:49Z</time>
      </trkpt>
      <trkpt lat="47.24705" lon="6.02199">
        <ele>278.7</ele>
        <time>2021-08-18T15:22:27Z</time>
      </trkpt>
      <trkpt lat="47.24709" lon="6.02199">
        <ele>278.8</ele>
        <time>2021-08-18T15:22:35Z</time>
      </trkpt>
      <trkpt lat="47.24714" lon="6.022">
        <ele>278.9</ele>
        <time>2021-08-18T15:22:41Z</time>
      </trkpt>
      <trkpt lat="47.24718" lon="6.02202">
        <ele>279</ele>
        <time>2021-08-18T15:22:45Z</time>
      </trkpt>
      <trkpt lat="47.24752" lon="6.02162">
        <ele>280.2</ele>
        <time>2021-08-18T15:28:03Z</time>
      </trkpt>
      <trkpt lat="47.24752" lon="6.02162">
        <ele>280.2</ele>
        <time>2021-08-18T15:28:05Z</time>
      </trkpt>
      <trkpt lat="47.24752" lon="6.02162">
        <ele>280.2</ele>
        <time>2021-08-18T15:28:33Z</time>
      </trkpt>
      <trkpt lat="47.24752" lon="6.02162">
        <ele>280.2</ele>
        <time>2021-08-18T15:28:35Z</time>
      </trkpt>
      <trkpt lat="47.24752" lon="6.02162">
        <ele>280.2</ele>
        <time>2021-08-18T15:29:03Z</time>
      </trkpt>
      <trkpt lat="47.24752" lon="6.02162">
        <ele>280.2</ele>
        <time>2021-08-18T15:29:05Z</time>
      </trkpt>
      <trkpt lat="47.24752" lon="6.02162">
        <ele>280.2</ele>
        <time>2021-08-18T15:29:33Z</time>
      </trkpt>
      <trkpt lat="47.24752" lon="6.02162">
        <ele>280.2</ele>
        <time>2021-08-18T15:29:35Z</time>
      </trkpt>
      <trkpt lat="47.24783" lon="6.02223">
        <ele>279.7</ele>
        <time>2021-08-18T15:35:27Z</time>
      </trkpt>
      <trkpt lat="47.24791" lon="6.02235">
        <ele>279.4</ele>
        <time>2021-08-18T15:35:29Z</time>
      </trkpt>
      <trkpt lat="47.24798" lon="6.02248">
        <ele>279.1</ele>
        <time>2021-08-18T15:35:31Z</time>
      </trkpt>
      <trkpt lat="47.24806" lon="6.02262">
        <ele>278.8</ele>
        <time>2021-08-18T15:35:33Z</time>
      </trkpt>
      <trkpt lat="47.24818" lon="6.02276">
        <ele>278.6</ele>
        <time>2021-08-18T15:35:35Z</time>
      </trkpt>
      <trkpt lat="47.24828" lon="6.02294">
        <ele>278.4</ele>
        <time>2021-08-18T15:35:37Z</time>
      </trkpt>
      <trkpt lat="47.24835" lon="6.02314">
        <ele>278.4</ele>
        <time>2021-08-18T15:35:39Z</time>
      </trkpt>
      <trkpt lat="47.24841" lon="6.02329">
        <ele>278.5</ele>
        <time>2021-08-18T15:35:41Z</time>
      </trkpt>
      <trkpt lat="47.24852" lon="6.02349">
        <ele>279.1</ele>
        <time>2021-08-18T15:35:43Z</time>
      </trkpt>
      <trkpt lat="47.24864" lon="6.02367">
        <ele>279.5</ele>
        <time>2021-08-18T15:35:45Z</time>
      </trkpt>
      <trkpt lat="47.24873" lon="6.02385">
        <ele>279.5</ele>
        <time>2021-08-18T15:35:47Z</time>
      </trkpt>
      <trkpt lat="47.24879" lon="6.02406">
        <ele>279.2</ele>
        <time>2021-08-18T15:35:49Z</time>
      </trkpt>
      <trkpt lat="47.24888" lon="6.02421">
        <ele>279</ele>
        <time>2021-08-18T15:35:51Z</time>
      </trkpt>
      <trkpt lat="47.24896" lon="6.02437">
        <ele>278.9</ele>
        <time>2021-08-18T15:35:53Z</time>
      </trkpt>
      <trkpt lat="47.24905" lon="6.02454">
        <ele>278.9</ele>
        <time>2021-08-18T15:35:55Z</time>
      </trkpt>
      <trkpt lat="47.24915" lon="6.02471">
        <ele>279</ele>
        <time>2021-08-18T15:35:57Z</time>
      </trkpt>
      <trkpt lat="47.24922" lon="6.02487">
        <ele>279</ele>
        <time>2021-08-18T15:35:59Z</time>
      </trkpt>
      <trkpt lat="47.24931" lon="6.02502">
        <ele>279</ele>
        <time>2021-08-18T15:36:01Z</time>
      </trkpt>
      <trkpt lat="47.24939" lon="6.02517">
        <ele>279</ele>
        <time>2021-08-18T15:36:03Z</time>
      </trkpt>
      <trkpt lat="47.24945" lon="6.02535">
        <ele>279</ele>
        <time>2021-08-18T15:36:05Z</time>
      </trkpt>
      <trkpt lat="47.24955" lon="6.02551">
        <ele>279</ele>
        <time>2021-08-18T15:36:07Z</time>
      </trkpt>
      <trkpt lat="47.2497" lon="6.02565">
        <ele>279</ele>
        <time>2021-08-18T15:36:09Z</time>
      </trkpt>
      <trkpt lat="47.24982" lon="6.02581">
        <ele>279</ele>
        <time>2021-08-18T15:36:11Z</time>
      </trkpt>
      <trkpt lat="47.24995" lon="6.02594">
        <ele>279.1</ele>
        <time>2021-08-18T15:36:13Z</time>
      </trkpt>
      <trkpt lat="47.2501" lon="6.02606">
        <ele>279.7</ele>
        <time>2021-08-18T15:36:15Z</time>
      </trkpt>
      <trkpt lat="47.25025" lon="6.02615">
        <ele>280.5</ele>
        <time>2021-08-18T15:36:17Z</time>
      </trkpt>
      <trkpt lat="47.25038" lon="6.02618">
        <ele>281.1</ele>
        <time>2021-08-18T15:36:19Z</time>
      </trkpt>
      <trkpt lat="47.25051" lon="6.02623">
        <ele>281.6</ele>
        <time>2021-08-18T15:36:21Z</time>
      </trkpt>
      <trkpt lat="47.25064" lon="6.02625">
        <ele>282.2</ele>
        <time>2021-08-18T15:36:23Z</time>
      </trkpt>
      <trkpt lat="47.25078" lon="6.02624">
        <ele>282.8</ele>
        <time>2021-08-18T15:36:25Z</time>
      </trkpt>
      <trkpt lat="47.25093" lon="6.02624">
        <ele>283.7</ele>
        <time>2021-08-18T15:36:27Z</time>
      </trkpt>
      <trkpt lat="47.25108" lon="6.02623">
        <ele>284.8</ele>
        <time>2021-08-18T15:36:29Z</time>
      </trkpt>
      <trkpt lat="47.25123" lon="6.0262">
        <ele>285.8</ele>
        <time>2021-08-18T15:36:31Z</time>
      </trkpt>
      <trkpt lat="47.25138" lon="6.02614">
        <ele>286.8</ele>
        <time>2021-08-18T15:36:33Z</time>
      </trkpt>
      <trkpt lat="47.2515" lon="6.02606">
        <ele>287.4</ele>
        <time>2021-08-18T15:36:35Z</time>
      </trkpt>
      <trkpt lat="47.25169" lon="6.02598">
        <ele>288.4</ele>
        <time>2021-08-18T15:36:37Z</time>
      </trkpt>
      <trkpt lat="47.25184" lon="6.02589">
        <ele>288.6</ele>
        <time>2021-08-18T15:36:40Z</time>
      </trkpt>
      <trkpt lat="47.25197" lon="6.02578">
        <ele>288.6</ele>
        <time>2021-08-18T15:36:42Z</time>
      </trkpt>
      <trkpt lat="47.25214" lon="6.02565">
        <ele>288.4</ele>
        <time>2021-08-18T15:36:44Z</time>
      </trkpt>
      <trkpt lat="47.25225" lon="6.02554">
        <ele>288.1</ele>
        <time>2021-08-18T15:36:47Z</time>
      </trkpt>
      <trkpt lat="47.2524" lon="6.0254">
        <ele>287.4</ele>
        <time>2021-08-18T15:36:49Z</time>
      </trkpt>
      <trkpt lat="47.25253" lon="6.0253">
        <ele>287.1</ele>
        <time>2021-08-18T15:36:51Z</time>
      </trkpt>
      <trkpt lat="47.25265" lon="6.02514">
        <ele>287.3</ele>
        <time>2021-08-18T15:36:53Z</time>
      </trkpt>
      <trkpt lat="47.25282" lon="6.02501">
        <ele>288.1</ele>
        <time>2021-08-18T15:36:55Z</time>
      </trkpt>
      <trkpt lat="47.25295" lon="6.02484">
        <ele>289.8</ele>
        <time>2021-08-18T15:36:57Z</time>
      </trkpt>
      <trkpt lat="47.25305" lon="6.02472">
        <ele>291</ele>
        <time>2021-08-18T15:36:59Z</time>
      </trkpt>
      <trkpt lat="47.2532" lon="6.02461">
        <ele>292.4</ele>
        <time>2021-08-18T15:37:01Z</time>
      </trkpt>
      <trkpt lat="47.25336" lon="6.0244">
        <ele>293.9</ele>
        <time>2021-08-18T15:37:03Z</time>
      </trkpt>
      <trkpt lat="47.25353" lon="6.02423">
        <ele>295.2</ele>
        <time>2021-08-18T15:37:05Z</time>
      </trkpt>
      <trkpt lat="47.25368" lon="6.02398">
        <ele>296.8</ele>
        <time>2021-08-18T15:37:07Z</time>
      </trkpt>
      <trkpt lat="47.25386" lon="6.02382">
        <ele>297.8</ele>
        <time>2021-08-18T15:37:09Z</time>
      </trkpt>
      <trkpt lat="47.25403" lon="6.02362">
        <ele>298.3</ele>
        <time>2021-08-18T15:37:11Z</time>
      </trkpt>
      <trkpt lat="47.25423" lon="6.02333">
        <ele>298.5</ele>
        <time>2021-08-18T15:37:13Z</time>
      </trkpt>
      <trkpt lat="47.2544" lon="6.02301">
        <ele>299.7</ele>
        <time>2021-08-18T15:37:15Z</time>
      </trkpt>
      <trkpt lat="47.25456" lon="6.02266">
        <ele>300.8</ele>
        <time>2021-08-18T15:37:17Z</time>
      </trkpt>
      <trkpt lat="47.25473" lon="6.02234">
        <ele>302.7</ele>
        <time>2021-08-18T15:37:19Z</time>
      </trkpt>
      <trkpt lat="47.2549" lon="6.02213">
        <ele>304.7</ele>
        <time>2021-08-18T15:37:21Z</time>
      </trkpt>
      <trkpt lat="47.25511" lon="6.02177">
        <ele>307.5</ele>
        <time>2021-08-18T15:37:23Z</time>
      </trkpt>
      <trkpt lat="47.2552" lon="6.02161">
        <ele>308.7</ele>
        <time>2021-08-18T15:37:24Z</time>
      </trkpt>
      <trkpt lat="47.25528" lon="6.02144">
        <ele>309.5</ele>
        <time>2021-08-18T15:37:25Z</time>
      </trkpt>
      <trkpt lat="47.26341" lon="6.0071">
        <ele>301.9</ele>
        <time>2021-08-18T15:38:15Z</time>
      </trkpt>
      <trkpt lat="47.26453" lon="6.00608">
        <ele>307.5</ele>
        <time>2021-08-18T15:38:20Z</time>
      </trkpt>
      <trkpt lat="47.26479" lon="6.00595">
        <ele>308.3</ele>
        <time>2021-08-18T15:38:21Z</time>
      </trkpt>
      <trkpt lat="47.26505" lon="6.00576">
        <ele>309.6</ele>
        <time>2021-08-18T15:38:22Z</time>
      </trkpt>
      <trkpt lat="47.26527" lon="6.00557">
        <ele>311</ele>
        <time>2021-08-18T15:38:23Z</time>
      </trkpt>
      <trkpt lat="47.26551" lon="6.00538">
        <ele>312.1</ele>
        <time>2021-08-18T15:38:24Z</time>
      </trkpt>
      <trkpt lat="47.26575" lon="6.00523">
        <ele>312.6</ele>
        <time>2021-08-18T15:38:25Z</time>
      </trkpt>
      <trkpt lat="47.26598" lon="6.00504">
        <ele>313.5</ele>
        <time>2021-08-18T15:38:26Z</time>
      </trkpt>
      <trkpt lat="47.26622" lon="6.00489">
        <ele>315.1</ele>
        <time>2021-08-18T15:38:27Z</time>
      </trkpt>
      <trkpt lat="47.26645" lon="6.0047">
        <ele>316.6</ele>
        <time>2021-08-18T15:38:28Z</time>
      </trkpt>
      <trkpt lat="47.26666" lon="6.00451">
        <ele>317.2</ele>
        <time>2021-08-18T15:38:29Z</time>
      </trkpt>
      <trkpt lat="47.26687" lon="6.00434">
        <ele>317.5</ele>
        <time>2021-08-18T15:38:30Z</time>
      </trkpt>
      <trkpt lat="47.26709" lon="6.00414">
        <ele>317.9</ele>
        <time>2021-08-18T15:38:31Z</time>
      </trkpt>
      <trkpt lat="47.2673" lon="6.00397">
        <ele>318.8</ele>
        <time>2021-08-18T15:38:32Z</time>
      </trkpt>
      <trkpt lat="47.26751" lon="6.00379">
        <ele>318.1</ele>
        <time>2021-08-18T15:38:33Z</time>
      </trkpt>
      <trkpt lat="47.26773" lon="6.00359">
        <ele>318.4</ele>
        <time>2021-08-18T15:38:34Z</time>
      </trkpt>
      <trkpt lat="47.26794" lon="6.00342">
        <ele>318.2</ele>
        <time>2021-08-18T15:38:35Z</time>
      </trkpt>
      <trkpt lat="47.26815" lon="6.00322">
        <ele>318.5</ele>
        <time>2021-08-18T15:38:36Z</time>
      </trkpt>
      <trkpt lat="47.26835" lon="6.00304">
        <ele>318.7</ele>
        <time>2021-08-18T15:38:37Z</time>
      </trkpt>
      <trkpt lat="47.26856" lon="6.00286">
        <ele>319.3</ele>
        <time>2021-08-18T15:38:38Z</time>
      </trkpt>
      <trkpt lat="47.26876" lon="6.0027">
        <ele>319.4</ele>
        <time>2021-08-18T15:38:39Z</time>
      </trkpt>
      <trkpt lat="47.26897" lon="6.00254">
        <ele>319.1</ele>
        <time>2021-08-18T15:38:40Z</time>
      </trkpt>
      <trkpt lat="47.2692" lon="6.00235">
        <ele>319.5</ele>
        <time>2021-08-18T15:38:41Z</time>
      </trkpt>
      <trkpt lat="47.26941" lon="6.00219">
        <ele>321.2</ele>
        <time>2021-08-18T15:38:42Z</time>
      </trkpt>
      <trkpt lat="47.26962" lon="6.002">
        <ele>322.5</ele>
        <time>2021-08-18T15:38:43Z</time>
      </trkpt>
      <trkpt lat="47.26982" lon="6.00184">
        <ele>323</ele>
        <time>2021-08-18T15:38:44Z</time>
      </trkpt>
      <trkpt lat="47.27001" lon="6.00169">
        <ele>323</ele>
        <time>2021-08-18T15:38:45Z</time>
      </trkpt>
      <trkpt lat="47.2702" lon="6.00152">
        <ele>323.8</ele>
        <time>2021-08-18T15:38:46Z</time>
      </trkpt>
      <trkpt lat="47.27039" lon="6.00137">
        <ele>324.3</ele>
        <time>2021-08-18T15:38:47Z</time>
      </trkpt>
      <trkpt lat="47.27057" lon="6.00122">
        <ele>324.5</ele>
        <time>2021-08-18T15:38:48Z</time>
      </trkpt>
      <trkpt lat="47.27074" lon="6.00109">
        <ele>324.5</ele>
        <time>2021-08-18T15:38:49Z</time>
      </trkpt>
      <trkpt lat="47.27091" lon="6.00095">
        <ele>324.1</ele>
        <time>2021-08-18T15:38:50Z</time>
      </trkpt>
      <trkpt lat="47.2711" lon="6.00079">
        <ele>323.3</ele>
        <time>2021-08-18T15:38:51Z</time>
      </trkpt>
      <trkpt lat="47.27126" lon="6.00064">
        <ele>322.6</ele>
        <time>2021-08-18T15:38:52Z</time>
      </trkpt>
      <trkpt lat="47.27145" lon="6.00048">
        <ele>321.8</ele>
        <time>2021-08-18T15:38:53Z</time>
      </trkpt>
      <trkpt lat="47.27161" lon="6.00034">
        <ele>321</ele>
        <time>2021-08-18T15:38:54Z</time>
      </trkpt>
      <trkpt lat="47.27177" lon="6.00018">
        <ele>320.8</ele>
        <time>2021-08-18T15:38:55Z</time>
      </trkpt>
      <trkpt lat="47.27199" lon="6.00003">
        <ele>321.2</ele>
        <time>2021-08-18T15:38:56Z</time>
      </trkpt>
      <trkpt lat="47.27216" lon="5.99985">
        <ele>321.8</ele>
        <time>2021-08-18T15:38:57Z</time>
      </trkpt>
      <trkpt lat="47.27226" lon="5.99969">
        <ele>321.9</ele>
        <time>2021-08-18T15:38:58Z</time>
      </trkpt>
      <trkpt lat="47.27242" lon="5.99953">
        <ele>321.9</ele>
        <time>2021-08-18T15:38:59Z</time>
      </trkpt>
      <trkpt lat="47.27258" lon="5.99932">
        <ele>321.4</ele>
        <time>2021-08-18T15:39:00Z</time>
      </trkpt>
      <trkpt lat="47.27269" lon="5.99921">
        <ele>321.2</ele>
        <time>2021-08-18T15:39:01Z</time>
      </trkpt>
      <trkpt lat="47.27276" lon="5.99911">
        <ele>320.9</ele>
        <time>2021-08-18T15:39:02Z</time>
      </trkpt>
      <trkpt lat="47.27282" lon="5.99895">
        <ele>320.5</ele>
        <time>2021-08-18T15:39:03Z</time>
      </trkpt>
      <trkpt lat="47.27289" lon="5.99877">
        <ele>319.9</ele>
        <time>2021-08-18T15:39:04Z</time>
      </trkpt>
      <trkpt lat="47.273" lon="5.99859">
        <ele>318.9</ele>
        <time>2021-08-18T15:39:05Z</time>
      </trkpt>
      <trkpt lat="47.27313" lon="5.99843">
        <ele>317.7</ele>
        <time>2021-08-18T15:39:06Z</time>
      </trkpt>
      <trkpt lat="47.27323" lon="5.99824">
        <ele>316.7</ele>
        <time>2021-08-18T15:39:07Z</time>
      </trkpt>
      <trkpt lat="47.27333" lon="5.99807">
        <ele>316.3</ele>
        <time>2021-08-18T15:39:08Z</time>
      </trkpt>
      <trkpt lat="47.27342" lon="5.99792">
        <ele>316.4</ele>
        <time>2021-08-18T15:39:09Z</time>
      </trkpt>
      <trkpt lat="47.27352" lon="5.99776">
        <ele>316.5</ele>
        <time>2021-08-18T15:39:10Z</time>
      </trkpt>
      <trkpt lat="47.27362" lon="5.99761">
        <ele>316.5</ele>
        <time>2021-08-18T15:39:11Z</time>
      </trkpt>
      <trkpt lat="47.27371" lon="5.99746">
        <ele>316.8</ele>
        <time>2021-08-18T15:39:12Z</time>
      </trkpt>
      <trkpt lat="47.27382" lon="5.99729">
        <ele>317.5</ele>
        <time>2021-08-18T15:39:13Z</time>
      </trkpt>
      <trkpt lat="47.2739" lon="5.99714">
        <ele>318.2</ele>
        <time>2021-08-18T15:39:14Z</time>
      </trkpt>
      <trkpt lat="47.27399" lon="5.99699">
        <ele>318.8</ele>
        <time>2021-08-18T15:39:15Z</time>
      </trkpt>
      <trkpt lat="47.27408" lon="5.99683">
        <ele>319.4</ele>
        <time>2021-08-18T15:39:16Z</time>
      </trkpt>
      <trkpt lat="47.27417" lon="5.99667">
        <ele>320</ele>
        <time>2021-08-18T15:39:17Z</time>
      </trkpt>
      <trkpt lat="47.27424" lon="5.99649">
        <ele>320.2</ele>
        <time>2021-08-18T15:39:18Z</time>
      </trkpt>
      <trkpt lat="47.27433" lon="5.99634">
        <ele>320.4</ele>
        <time>2021-08-18T15:39:19Z</time>
      </trkpt>
      <trkpt lat="47.27442" lon="5.99601">
        <ele>320.6</ele>
        <time>2021-08-18T15:39:21Z</time>
      </trkpt>
      <trkpt lat="47.27456" lon="5.99566">
        <ele>320.6</ele>
        <time>2021-08-18T15:39:23Z</time>
      </trkpt>
      <trkpt lat="47.27483" lon="5.99428">
        <ele>315.8</ele>
        <time>2021-08-18T15:39:35Z</time>
      </trkpt>
      <trkpt lat="47.27475" lon="5.99421">
        <ele>314.8</ele>
        <time>2021-08-18T15:39:40Z</time>
      </trkpt>
      <trkpt lat="47.27479" lon="5.99434">
        <ele>316</ele>
        <time>2021-08-18T15:39:48Z</time>
      </trkpt>
      <trkpt lat="47.27479" lon="5.99434">
        <ele>316</ele>
        <time>2021-08-18T15:40:05Z</time>
      </trkpt>
      <trkpt lat="47.27479" lon="5.99433">
        <ele>315.9</ele>
        <time>2021-08-18T15:40:35Z</time>
      </trkpt>
      <trkpt lat="47.27479" lon="5.99434">
        <ele>316</ele>
        <time>2021-08-18T15:41:05Z</time>
      </trkpt>
      <trkpt lat="47.27483" lon="5.99413">
        <ele>314.9</ele>
        <time>2021-08-18T15:41:09Z</time>
      </trkpt>
      <trkpt lat="47.27485" lon="5.99387">
        <ele>314.3</ele>
        <time>2021-08-18T15:41:11Z</time>
      </trkpt>
      <trkpt lat="47.27501" lon="5.99346">
        <ele>314.4</ele>
        <time>2021-08-18T15:41:13Z</time>
      </trkpt>
      <trkpt lat="47.27512" lon="5.9932">
        <ele>315.1</ele>
        <time>2021-08-18T15:41:15Z</time>
      </trkpt>
      <trkpt lat="47.27514" lon="5.99299">
        <ele>315.7</ele>
        <time>2021-08-18T15:41:16Z</time>
      </trkpt>
      <trkpt lat="47.27517" lon="5.99278">
        <ele>316.5</ele>
        <time>2021-08-18T15:41:17Z</time>
      </trkpt>
      <trkpt lat="47.27517" lon="5.99257">
        <ele>317</ele>
        <time>2021-08-18T15:41:18Z</time>
      </trkpt>
      <trkpt lat="47.27521" lon="5.99234">
        <ele>317.5</ele>
        <time>2021-08-18T15:41:19Z</time>
      </trkpt>
      <trkpt lat="47.27524" lon="5.99214">
        <ele>317.7</ele>
        <time>2021-08-18T15:41:20Z</time>
      </trkpt>
      <trkpt lat="47.27528" lon="5.99192">
        <ele>318</ele>
        <time>2021-08-18T15:41:21Z</time>
      </trkpt>
      <trkpt lat="47.27531" lon="5.99168">
        <ele>318.2</ele>
        <time>2021-08-18T15:41:22Z</time>
      </trkpt>
      <trkpt lat="47.27531" lon="5.99143">
        <ele>317.6</ele>
        <time>2021-08-18T15:41:23Z</time>
      </trkpt>
      <trkpt lat="47.27533" lon="5.99118">
        <ele>317.1</ele>
        <time>2021-08-18T15:41:24Z</time>
      </trkpt>
      <trkpt lat="47.27537" lon="5.99089">
        <ele>316.7</ele>
        <time>2021-08-18T15:41:25Z</time>
      </trkpt>
      <trkpt lat="47.2754" lon="5.99062">
        <ele>317.1</ele>
        <time>2021-08-18T15:41:26Z</time>
      </trkpt>
      <trkpt lat="47.27542" lon="5.99034">
        <ele>317.6</ele>
        <time>2021-08-18T15:41:27Z</time>
      </trkpt>
      <trkpt lat="47.27545" lon="5.99011">
        <ele>318</ele>
        <time>2021-08-18T15:41:28Z</time>
      </trkpt>
      <trkpt lat="47.27546" lon="5.98981">
        <ele>318.5</ele>
        <time>2021-08-18T15:41:29Z</time>
      </trkpt>
      <trkpt lat="47.27548" lon="5.98954">
        <ele>319.1</ele>
        <time>2021-08-18T15:41:30Z</time>
      </trkpt>
      <trkpt lat="47.27549" lon="5.98923">
        <ele>319.7</ele>
        <time>2021-08-18T15:41:31Z</time>
      </trkpt>
      <trkpt lat="47.27552" lon="5.98892">
        <ele>320</ele>
        <time>2021-08-18T15:41:32Z</time>
      </trkpt>
      <trkpt lat="47.27553" lon="5.98863">
        <ele>320.2</ele>
        <time>2021-08-18T15:41:33Z</time>
      </trkpt>
      <trkpt lat="47.2755" lon="5.98832">
        <ele>320.6</ele>
        <time>2021-08-18T15:41:34Z</time>
      </trkpt>
      <trkpt lat="47.27546" lon="5.98801">
        <ele>320.4</ele>
        <time>2021-08-18T15:41:35Z</time>
      </trkpt>
      <trkpt lat="47.27543" lon="5.9877">
        <ele>320.2</ele>
        <time>2021-08-18T15:41:36Z</time>
      </trkpt>
      <trkpt lat="47.27544" lon="5.98738">
        <ele>319.7</ele>
        <time>2021-08-18T15:41:37Z</time>
      </trkpt>
      <trkpt lat="47.27542" lon="5.98701">
        <ele>319.4</ele>
        <time>2021-08-18T15:41:38Z</time>
      </trkpt>
      <trkpt lat="47.27536" lon="5.98668">
        <ele>319.4</ele>
        <time>2021-08-18T15:41:39Z</time>
      </trkpt>
      <trkpt lat="47.27528" lon="5.98633">
        <ele>319.9</ele>
        <time>2021-08-18T15:41:40Z</time>
      </trkpt>
      <trkpt lat="47.27523" lon="5.98597">
        <ele>320</ele>
        <time>2021-08-18T15:41:41Z</time>
      </trkpt>
      <trkpt lat="47.27519" lon="5.98558">
        <ele>319.2</ele>
        <time>2021-08-18T15:41:42Z</time>
      </trkpt>
      <trkpt lat="47.27515" lon="5.98524">
        <ele>318.1</ele>
        <time>2021-08-18T15:41:43Z</time>
      </trkpt>
      <trkpt lat="47.27514" lon="5.98484">
        <ele>316.8</ele>
        <time>2021-08-18T15:41:44Z</time>
      </trkpt>
      <trkpt lat="47.27508" lon="5.98447">
        <ele>315.9</ele>
        <time>2021-08-18T15:41:45Z</time>
      </trkpt>
      <trkpt lat="47.27503" lon="5.98411">
        <ele>315.2</ele>
        <time>2021-08-18T15:41:46Z</time>
      </trkpt>
      <trkpt lat="47.275" lon="5.98373">
        <ele>315.5</ele>
        <time>2021-08-18T15:41:47Z</time>
      </trkpt>
      <trkpt lat="47.27496" lon="5.98337">
        <ele>316</ele>
        <time>2021-08-18T15:41:48Z</time>
      </trkpt>
      <trkpt lat="47.27494" lon="5.98299">
        <ele>316.9</ele>
        <time>2021-08-18T15:41:49Z</time>
      </trkpt>
      <trkpt lat="47.27483" lon="5.98226">
        <ele>318.8</ele>
        <time>2021-08-18T15:41:51Z</time>
      </trkpt>
      <trkpt lat="47.27492" lon="5.98151">
        <ele>319.9</ele>
        <time>2021-08-18T15:41:53Z</time>
      </trkpt>
      <trkpt lat="47.27506" lon="5.98072">
        <ele>321.5</ele>
        <time>2021-08-18T15:41:55Z</time>
      </trkpt>
      <trkpt lat="47.27523" lon="5.97993">
        <ele>320.4</ele>
        <time>2021-08-18T15:41:57Z</time>
      </trkpt>
      <trkpt lat="47.27536" lon="5.97921">
        <ele>322.2</ele>
        <time>2021-08-18T15:41:59Z</time>
      </trkpt>
      <trkpt lat="47.27752" lon="5.97423">
        <ele>288.8</ele>
        <time>2021-08-18T15:42:13Z</time>
      </trkpt>
      <trkpt lat="47.27831" lon="5.97256">
        <ele>285.1</ele>
        <time>2021-08-18T15:42:18Z</time>
      </trkpt>
      <trkpt lat="47.27856" lon="5.97186">
        <ele>284.1</ele>
        <time>2021-08-18T15:42:20Z</time>
      </trkpt>
      <trkpt lat="47.27878" lon="5.97123">
        <ele>282.9</ele>
        <time>2021-08-18T15:42:22Z</time>
      </trkpt>
      <trkpt lat="47.27896" lon="5.97053">
        <ele>285</ele>
        <time>2021-08-18T15:42:24Z</time>
      </trkpt>
      <trkpt lat="47.27921" lon="5.96983">
        <ele>291.4</ele>
        <time>2021-08-18T15:42:26Z</time>
      </trkpt>
      <trkpt lat="47.27949" lon="5.96915">
        <ele>293.6</ele>
        <time>2021-08-18T15:42:28Z</time>
      </trkpt>
      <trkpt lat="47.2798" lon="5.9685">
        <ele>289.7</ele>
        <time>2021-08-18T15:42:30Z</time>
      </trkpt>
      <trkpt lat="47.28014" lon="5.96785">
        <ele>284.5</ele>
        <time>2021-08-18T15:42:32Z</time>
      </trkpt>
      <trkpt lat="47.28049" lon="5.96732">
        <ele>281.1</ele>
        <time>2021-08-18T15:42:34Z</time>
      </trkpt>
      <trkpt lat="47.28091" lon="5.96688">
        <ele>276</ele>
        <time>2021-08-18T15:42:36Z</time>
      </trkpt>
      <trkpt lat="47.28132" lon="5.96637">
        <ele>274.2</ele>
        <time>2021-08-18T15:42:38Z</time>
      </trkpt>
      <trkpt lat="47.28185" lon="5.96592">
        <ele>275</ele>
        <time>2021-08-18T15:42:40Z</time>
      </trkpt>
      <trkpt lat="47.28225" lon="5.96554">
        <ele>276.7</ele>
        <time>2021-08-18T15:42:42Z</time>
      </trkpt>
      <trkpt lat="47.28271" lon="5.96514">
        <ele>277.7</ele>
        <time>2021-08-18T15:42:44Z</time>
      </trkpt>
      <trkpt lat="47.28319" lon="5.96475">
        <ele>278.3</ele>
        <time>2021-08-18T15:42:46Z</time>
      </trkpt>
      <trkpt lat="47.28365" lon="5.96435">
        <ele>279.5</ele>
        <time>2021-08-18T15:42:48Z</time>
      </trkpt>
      <trkpt lat="47.28415" lon="5.96403">
        <ele>281.4</ele>
        <time>2021-08-18T15:42:50Z</time>
      </trkpt>
      <trkpt lat="47.28465" lon="5.96378">
        <ele>281.5</ele>
        <time>2021-08-18T15:42:52Z</time>
      </trkpt>
      <trkpt lat="47.28518" lon="5.96361">
        <ele>281.5</ele>
        <time>2021-08-18T15:42:54Z</time>
      </trkpt>
      <trkpt lat="47.2857" lon="5.9636">
        <ele>281.9</ele>
        <time>2021-08-18T15:42:56Z</time>
      </trkpt>
      <trkpt lat="47.28623" lon="5.96363">
        <ele>282.1</ele>
        <time>2021-08-18T15:42:58Z</time>
      </trkpt>
      <trkpt lat="47.28674" lon="5.96374">
        <ele>282.2</ele>
        <time>2021-08-18T15:43:00Z</time>
      </trkpt>
      <trkpt lat="47.28722" lon="5.96391">
        <ele>281.5</ele>
        <time>2021-08-18T15:43:02Z</time>
      </trkpt>
      <trkpt lat="47.28767" lon="5.96415">
        <ele>281.1</ele>
        <time>2021-08-18T15:43:04Z</time>
      </trkpt>
      <trkpt lat="47.28814" lon="5.96447">
        <ele>280.5</ele>
        <time>2021-08-18T15:43:06Z</time>
      </trkpt>
      <trkpt lat="47.28853" lon="5.96488">
        <ele>280.8</ele>
        <time>2021-08-18T15:43:08Z</time>
      </trkpt>
      <trkpt lat="47.28892" lon="5.96538">
        <ele>279.1</ele>
        <time>2021-08-18T15:43:10Z</time>
      </trkpt>
      <trkpt lat="47.28933" lon="5.96583">
        <ele>277</ele>
        <time>2021-08-18T15:43:12Z</time>
      </trkpt>
      <trkpt lat="47.28972" lon="5.96628">
        <ele>278.8</ele>
        <time>2021-08-18T15:43:14Z</time>
      </trkpt>
      <trkpt lat="47.29013" lon="5.96675">
        <ele>280.3</ele>
        <time>2021-08-18T15:43:16Z</time>
      </trkpt>
      <trkpt lat="47.29054" lon="5.96721">
        <ele>281.3</ele>
        <time>2021-08-18T15:43:18Z</time>
      </trkpt>
      <trkpt lat="47.29094" lon="5.96768">
        <ele>280.8</ele>
        <time>2021-08-18T15:43:20Z</time>
      </trkpt>
      <trkpt lat="47.29136" lon="5.96818">
        <ele>278</ele>
        <time>2021-08-18T15:43:22Z</time>
      </trkpt>
      <trkpt lat="47.29182" lon="5.96869">
        <ele>276</ele>
        <time>2021-08-18T15:43:24Z</time>
      </trkpt>
      <trkpt lat="47.29227" lon="5.96916">
        <ele>274.9</ele>
        <time>2021-08-18T15:43:26Z</time>
      </trkpt>
      <trkpt lat="47.29273" lon="5.96951">
        <ele>275.4</ele>
        <time>2021-08-18T15:43:28Z</time>
      </trkpt>
      <trkpt lat="47.29312" lon="5.96982">
        <ele>275.6</ele>
        <time>2021-08-18T15:43:30Z</time>
      </trkpt>
      <trkpt lat="47.29364" lon="5.97023">
        <ele>276.1</ele>
        <time>2021-08-18T15:43:32Z</time>
      </trkpt>
      <trkpt lat="47.29411" lon="5.97055">
        <ele>276.6</ele>
        <time>2021-08-18T15:43:34Z</time>
      </trkpt>
      <trkpt lat="47.29457" lon="5.97087">
        <ele>275.3</ele>
        <time>2021-08-18T15:43:36Z</time>
      </trkpt>
      <trkpt lat="47.29498" lon="5.97123">
        <ele>276.9</ele>
        <time>2021-08-18T15:43:38Z</time>
      </trkpt>
      <trkpt lat="47.29544" lon="5.97159">
        <ele>273.9</ele>
        <time>2021-08-18T15:43:40Z</time>
      </trkpt>
      <trkpt lat="47.29586" lon="5.97206">
        <ele>276.3</ele>
        <time>2021-08-18T15:43:42Z</time>
      </trkpt>
      <trkpt lat="47.29626" lon="5.97249">
        <ele>274</ele>
        <time>2021-08-18T15:43:44Z</time>
      </trkpt>
      <trkpt lat="47.29672" lon="5.97301">
        <ele>275.5</ele>
        <time>2021-08-18T15:43:46Z</time>
      </trkpt>
      <trkpt lat="47.2971" lon="5.97352">
        <ele>277.2</ele>
        <time>2021-08-18T15:43:48Z</time>
      </trkpt>
      <trkpt lat="47.29752" lon="5.97401">
        <ele>278.7</ele>
        <time>2021-08-18T15:43:50Z</time>
      </trkpt>
      <trkpt lat="47.2979" lon="5.97442">
        <ele>278.4</ele>
        <time>2021-08-18T15:43:52Z</time>
      </trkpt>
      <trkpt lat="47.29828" lon="5.975">
        <ele>281</ele>
        <time>2021-08-18T15:43:54Z</time>
      </trkpt>
      <trkpt lat="47.29872" lon="5.97541">
        <ele>279.9</ele>
        <time>2021-08-18T15:43:56Z</time>
      </trkpt>
      <trkpt lat="47.2991" lon="5.97587">
        <ele>279.4</ele>
        <time>2021-08-18T15:43:58Z</time>
      </trkpt>
      <trkpt lat="47.29948" lon="5.97633">
        <ele>280.3</ele>
        <time>2021-08-18T15:44:00Z</time>
      </trkpt>
      <trkpt lat="47.29987" lon="5.97679">
        <ele>280</ele>
        <time>2021-08-18T15:44:02Z</time>
      </trkpt>
      <trkpt lat="47.30027" lon="5.97723">
        <ele>276.4</ele>
        <time>2021-08-18T15:44:04Z</time>
      </trkpt>
      <trkpt lat="47.30066" lon="5.97774">
        <ele>272.3</ele>
        <time>2021-08-18T15:44:06Z</time>
      </trkpt>
      <trkpt lat="47.30103" lon="5.9782">
        <ele>270.3</ele>
        <time>2021-08-18T15:44:08Z</time>
      </trkpt>
      <trkpt lat="47.30142" lon="5.97861">
        <ele>270.1</ele>
        <time>2021-08-18T15:44:10Z</time>
      </trkpt>
      <trkpt lat="47.30183" lon="5.97902">
        <ele>271.6</ele>
        <time>2021-08-18T15:44:12Z</time>
      </trkpt>
      <trkpt lat="47.30227" lon="5.97935">
        <ele>271.6</ele>
        <time>2021-08-18T15:44:14Z</time>
      </trkpt>
      <trkpt lat="47.30271" lon="5.97975">
        <ele>273.5</ele>
        <time>2021-08-18T15:44:16Z</time>
      </trkpt>
      <trkpt lat="47.30312" lon="5.98012">
        <ele>276.4</ele>
        <time>2021-08-18T15:44:18Z</time>
      </trkpt>
      <trkpt lat="47.30355" lon="5.98047">
        <ele>278.4</ele>
        <time>2021-08-18T15:44:20Z</time>
      </trkpt>
      <trkpt lat="47.30401" lon="5.98077">
        <ele>279.3</ele>
        <time>2021-08-18T15:44:22Z</time>
      </trkpt>
      <trkpt lat="47.30444" lon="5.98109">
        <ele>276.4</ele>
        <time>2021-08-18T15:44:24Z</time>
      </trkpt>
      <trkpt lat="47.30486" lon="5.98137">
        <ele>272.1</ele>
        <time>2021-08-18T15:44:26Z</time>
      </trkpt>
      <trkpt lat="47.30535" lon="5.98169">
        <ele>267.9</ele>
        <time>2021-08-18T15:44:28Z</time>
      </trkpt>
      <trkpt lat="47.30578" lon="5.9819">
        <ele>263.6</ele>
        <time>2021-08-18T15:44:30Z</time>
      </trkpt>
      <trkpt lat="47.30625" lon="5.98206">
        <ele>259.5</ele>
        <time>2021-08-18T15:44:32Z</time>
      </trkpt>
      <trkpt lat="47.30674" lon="5.98216">
        <ele>255.1</ele>
        <time>2021-08-18T15:44:34Z</time>
      </trkpt>
      <trkpt lat="47.30723" lon="5.98223">
        <ele>254.1</ele>
        <time>2021-08-18T15:44:36Z</time>
      </trkpt>
      <trkpt lat="47.30769" lon="5.9822">
        <ele>253.4</ele>
        <time>2021-08-18T15:44:38Z</time>
      </trkpt>
      <trkpt lat="47.30813" lon="5.98213">
        <ele>252.8</ele>
        <time>2021-08-18T15:44:40Z</time>
      </trkpt>
      <trkpt lat="47.30856" lon="5.98201">
        <ele>251.6</ele>
        <time>2021-08-18T15:44:42Z</time>
      </trkpt>
      <trkpt lat="47.30898" lon="5.98188">
        <ele>249.8</ele>
        <time>2021-08-18T15:44:44Z</time>
      </trkpt>
      <trkpt lat="47.30943" lon="5.98166">
        <ele>249.3</ele>
        <time>2021-08-18T15:44:46Z</time>
      </trkpt>
      <trkpt lat="47.30982" lon="5.9814">
        <ele>250.3</ele>
        <time>2021-08-18T15:44:48Z</time>
      </trkpt>
      <trkpt lat="47.31022" lon="5.98108">
        <ele>251.3</ele>
        <time>2021-08-18T15:44:50Z</time>
      </trkpt>
      <trkpt lat="47.3106" lon="5.98076">
        <ele>252.3</ele>
        <time>2021-08-18T15:44:52Z</time>
      </trkpt>
      <trkpt lat="47.31096" lon="5.9804">
        <ele>253.8</ele>
        <time>2021-08-18T15:44:54Z</time>
      </trkpt>
      <trkpt lat="47.3113" lon="5.98">
        <ele>254.9</ele>
        <time>2021-08-18T15:44:56Z</time>
      </trkpt>
      <trkpt lat="47.31163" lon="5.97957">
        <ele>254.6</ele>
        <time>2021-08-18T15:44:58Z</time>
      </trkpt>
      <trkpt lat="47.31193" lon="5.9791">
        <ele>248.7</ele>
        <time>2021-08-18T15:45:00Z</time>
      </trkpt>
      <trkpt lat="47.31221" lon="5.97863">
        <ele>240.2</ele>
        <time>2021-08-18T15:45:02Z</time>
      </trkpt>
      <trkpt lat="47.31244" lon="5.97813">
        <ele>235.4</ele>
        <time>2021-08-18T15:45:04Z</time>
      </trkpt>
      <trkpt lat="47.31261" lon="5.97756">
        <ele>233.7</ele>
        <time>2021-08-18T15:45:06Z</time>
      </trkpt>
      <trkpt lat="47.3128" lon="5.97703">
        <ele>231.4</ele>
        <time>2021-08-18T15:45:08Z</time>
      </trkpt>
      <trkpt lat="47.31295" lon="5.97646">
        <ele>230.5</ele>
        <time>2021-08-18T15:45:10Z</time>
      </trkpt>
      <trkpt lat="47.31309" lon="5.9759">
        <ele>232.2</ele>
        <time>2021-08-18T15:45:12Z</time>
      </trkpt>
      <trkpt lat="47.31317" lon="5.97535">
        <ele>235.7</ele>
        <time>2021-08-18T15:45:14Z</time>
      </trkpt>
      <trkpt lat="47.31323" lon="5.97476">
        <ele>239.5</ele>
        <time>2021-08-18T15:45:16Z</time>
      </trkpt>
      <trkpt lat="47.31325" lon="5.97424">
        <ele>242.1</ele>
        <time>2021-08-18T15:45:18Z</time>
      </trkpt>
      <trkpt lat="47.31324" lon="5.97371">
        <ele>242.3</ele>
        <time>2021-08-18T15:45:20Z</time>
      </trkpt>
      <trkpt lat="47.31324" lon="5.97315">
        <ele>242.1</ele>
        <time>2021-08-18T15:45:22Z</time>
      </trkpt>
      <trkpt lat="47.31321" lon="5.97263">
        <ele>241.4</ele>
        <time>2021-08-18T15:45:24Z</time>
      </trkpt>
      <trkpt lat="47.31316" lon="5.97216">
        <ele>241</ele>
        <time>2021-08-18T15:45:26Z</time>
      </trkpt>
      <trkpt lat="47.3131" lon="5.97171">
        <ele>240.9</ele>
        <time>2021-08-18T15:45:28Z</time>
      </trkpt>
      <trkpt lat="47.31303" lon="5.97122">
        <ele>239.9</ele>
        <time>2021-08-18T15:45:30Z</time>
      </trkpt>
      <trkpt lat="47.31293" lon="5.9708">
        <ele>239</ele>
        <time>2021-08-18T15:45:32Z</time>
      </trkpt>
      <trkpt lat="47.31282" lon="5.97037">
        <ele>238.7</ele>
        <time>2021-08-18T15:45:34Z</time>
      </trkpt>
      <trkpt lat="47.31271" lon="5.96997">
        <ele>238.7</ele>
        <time>2021-08-18T15:45:36Z</time>
      </trkpt>
      <trkpt lat="47.3126" lon="5.96957">
        <ele>238.7</ele>
        <time>2021-08-18T15:45:38Z</time>
      </trkpt>
      <trkpt lat="47.31248" lon="5.96916">
        <ele>239.1</ele>
        <time>2021-08-18T15:45:40Z</time>
      </trkpt>
      <trkpt lat="47.31237" lon="5.96876">
        <ele>239.2</ele>
        <time>2021-08-18T15:45:42Z</time>
      </trkpt>
      <trkpt lat="47.31227" lon="5.96837">
        <ele>239</ele>
        <time>2021-08-18T15:45:44Z</time>
      </trkpt>
      <trkpt lat="47.31213" lon="5.96796">
        <ele>237.9</ele>
        <time>2021-08-18T15:45:46Z</time>
      </trkpt>
      <trkpt lat="47.31203" lon="5.96756">
        <ele>236.7</ele>
        <time>2021-08-18T15:45:48Z</time>
      </trkpt>
      <trkpt lat="47.31189" lon="5.96711">
        <ele>236.5</ele>
        <time>2021-08-18T15:45:50Z</time>
      </trkpt>
      <trkpt lat="47.31176" lon="5.96671">
        <ele>236.2</ele>
        <time>2021-08-18T15:45:52Z</time>
      </trkpt>
      <trkpt lat="47.31161" lon="5.96631">
        <ele>234.1</ele>
        <time>2021-08-18T15:45:54Z</time>
      </trkpt>
      <trkpt lat="47.31147" lon="5.96589">
        <ele>231.8</ele>
        <time>2021-08-18T15:45:56Z</time>
      </trkpt>
      <trkpt lat="47.31132" lon="5.96551">
        <ele>231.7</ele>
        <time>2021-08-18T15:45:58Z</time>
      </trkpt>
      <trkpt lat="47.31121" lon="5.96519">
        <ele>232.2</ele>
        <time>2021-08-18T15:46:00Z</time>
      </trkpt>
      <trkpt lat="47.31106" lon="5.96473">
        <ele>233.4</ele>
        <time>2021-08-18T15:46:02Z</time>
      </trkpt>
      <trkpt lat="47.31093" lon="5.96432">
        <ele>234.5</ele>
        <time>2021-08-18T15:46:04Z</time>
      </trkpt>
      <trkpt lat="47.31079" lon="5.96393">
        <ele>235.4</ele>
        <time>2021-08-18T15:46:06Z</time>
      </trkpt>
      <trkpt lat="47.31064" lon="5.96352">
        <ele>236.2</ele>
        <time>2021-08-18T15:46:08Z</time>
      </trkpt>
      <trkpt lat="47.31051" lon="5.96312">
        <ele>236.4</ele>
        <time>2021-08-18T15:46:10Z</time>
      </trkpt>
      <trkpt lat="47.31039" lon="5.96271">
        <ele>235.9</ele>
        <time>2021-08-18T15:46:12Z</time>
      </trkpt>
      <trkpt lat="47.31028" lon="5.96234">
        <ele>235.3</ele>
        <time>2021-08-18T15:46:14Z</time>
      </trkpt>
      <trkpt lat="47.3102" lon="5.96203">
        <ele>234.8</ele>
        <time>2021-08-18T15:46:16Z</time>
      </trkpt>
      <trkpt lat="47.31012" lon="5.96167">
        <ele>234</ele>
        <time>2021-08-18T15:46:18Z</time>
      </trkpt>
      <trkpt lat="47.31002" lon="5.96136">
        <ele>234.7</ele>
        <time>2021-08-18T15:46:20Z</time>
      </trkpt>
      <trkpt lat="47.30986" lon="5.96094">
        <ele>235.8</ele>
        <time>2021-08-18T15:46:22Z</time>
      </trkpt>
      <trkpt lat="47.30978" lon="5.96064">
        <ele>236.3</ele>
        <time>2021-08-18T15:46:24Z</time>
      </trkpt>
      <trkpt lat="47.30973" lon="5.96037">
        <ele>236.7</ele>
        <time>2021-08-18T15:46:26Z</time>
      </trkpt>
      <trkpt lat="47.30966" lon="5.9601">
        <ele>237.2</ele>
        <time>2021-08-18T15:46:28Z</time>
      </trkpt>
      <trkpt lat="47.30961" lon="5.95993">
        <ele>237.5</ele>
        <time>2021-08-18T15:46:30Z</time>
      </trkpt>
      <trkpt lat="47.30954" lon="5.95968">
        <ele>237.6</ele>
        <time>2021-08-18T15:46:32Z</time>
      </trkpt>
      <trkpt lat="47.30947" lon="5.95944">
        <ele>237.8</ele>
        <time>2021-08-18T15:46:34Z</time>
      </trkpt>
      <trkpt lat="47.3094" lon="5.9592">
        <ele>238.1</ele>
        <time>2021-08-18T15:46:36Z</time>
      </trkpt>
      <trkpt lat="47.30932" lon="5.95898">
        <ele>238.9</ele>
        <time>2021-08-18T15:46:38Z</time>
      </trkpt>
      <trkpt lat="47.30927" lon="5.95878">
        <ele>239.6</ele>
        <time>2021-08-18T15:46:40Z</time>
      </trkpt>
      <trkpt lat="47.30922" lon="5.95856">
        <ele>240.3</ele>
        <time>2021-08-18T15:46:42Z</time>
      </trkpt>
      <trkpt lat="47.30915" lon="5.95833">
        <ele>241</ele>
        <time>2021-08-18T15:46:44Z</time>
      </trkpt>
      <trkpt lat="47.30907" lon="5.95814">
        <ele>240.9</ele>
        <time>2021-08-18T15:46:46Z</time>
      </trkpt>
      <trkpt lat="47.30898" lon="5.95796">
        <ele>241</ele>
        <time>2021-08-18T15:46:48Z</time>
      </trkpt>
      <trkpt lat="47.30893" lon="5.95777">
        <ele>241.1</ele>
        <time>2021-08-18T15:46:50Z</time>
      </trkpt>
      <trkpt lat="47.30888" lon="5.95758">
        <ele>241.3</ele>
        <time>2021-08-18T15:46:52Z</time>
      </trkpt>
      <trkpt lat="47.3088" lon="5.95738">
        <ele>241.7</ele>
        <time>2021-08-18T15:46:54Z</time>
      </trkpt>
      <trkpt lat="47.30874" lon="5.95717">
        <ele>241.8</ele>
        <time>2021-08-18T15:46:57Z</time>
      </trkpt>
      <trkpt lat="47.30867" lon="5.95691">
        <ele>242</ele>
        <time>2021-08-18T15:47:00Z</time>
      </trkpt>
      <trkpt lat="47.30863" lon="5.95669">
        <ele>242</ele>
        <time>2021-08-18T15:47:04Z</time>
      </trkpt>
      <trkpt lat="47.30857" lon="5.9565">
        <ele>242</ele>
        <time>2021-08-18T15:47:07Z</time>
      </trkpt>
      <trkpt lat="47.30851" lon="5.95632">
        <ele>242</ele>
        <time>2021-08-18T15:47:10Z</time>
      </trkpt>
      <trkpt lat="47.30847" lon="5.95615">
        <ele>242</ele>
        <time>2021-08-18T15:47:15Z</time>
      </trkpt>
      <trkpt lat="47.30842" lon="5.95594">
        <ele>241.9</ele>
        <time>2021-08-18T15:47:19Z</time>
      </trkpt>
      <trkpt lat="47.30839" lon="5.95577">
        <ele>241.7</ele>
        <time>2021-08-18T15:47:24Z</time>
      </trkpt>
      <trkpt lat="47.30838" lon="5.9556">
        <ele>241.3</ele>
        <time>2021-08-18T15:47:30Z</time>
      </trkpt>
      <trkpt lat="47.30832" lon="5.95546">
        <ele>241.2</ele>
        <time>2021-08-18T15:47:35Z</time>
      </trkpt>
      <trkpt lat="47.30825" lon="5.95534">
        <ele>241.4</ele>
        <time>2021-08-18T15:47:46Z</time>
      </trkpt>
      <trkpt lat="47.30825" lon="5.95519">
        <ele>241</ele>
        <time>2021-08-18T15:47:56Z</time>
      </trkpt>
      <trkpt lat="47.30824" lon="5.95503">
        <ele>240.6</ele>
        <time>2021-08-18T15:48:02Z</time>
      </trkpt>
      <trkpt lat="47.30823" lon="5.95487">
        <ele>240.4</ele>
        <time>2021-08-18T15:48:09Z</time>
      </trkpt>
      <trkpt lat="47.30821" lon="5.95474">
        <ele>240.3</ele>
        <time>2021-08-18T15:48:16Z</time>
      </trkpt>
      <trkpt lat="47.30812" lon="5.95463">
        <ele>240.6</ele>
        <time>2021-08-18T15:48:23Z</time>
      </trkpt>
      <trkpt lat="47.30803" lon="5.95454">
        <ele>240.9</ele>
        <time>2021-08-18T15:48:32Z</time>
      </trkpt>
      <trkpt lat="47.30795" lon="5.95446">
        <ele>241.1</ele>
        <time>2021-08-18T15:48:40Z</time>
      </trkpt>
      <trkpt lat="47.3079" lon="5.95434">
        <ele>241</ele>
        <time>2021-08-18T15:48:49Z</time>
      </trkpt>
      <trkpt lat="47.30785" lon="5.95422">
        <ele>240.9</ele>
        <time>2021-08-18T15:48:56Z</time>
      </trkpt>
      <trkpt lat="47.3078" lon="5.95408">
        <ele>241.2</ele>
        <time>2021-08-18T15:49:03Z</time>
      </trkpt>
      <trkpt lat="47.30774" lon="5.95394">
        <ele>241.8</ele>
        <time>2021-08-18T15:49:12Z</time>
      </trkpt>
      <trkpt lat="47.30768" lon="5.9538">
        <ele>242.3</ele>
        <time>2021-08-18T15:49:21Z</time>
      </trkpt>
      <trkpt lat="47.30761" lon="5.9537">
        <ele>242.8</ele>
        <time>2021-08-18T15:49:29Z</time>
      </trkpt>
      <trkpt lat="47.3075" lon="5.95364">
        <ele>243.3</ele>
        <time>2021-08-18T15:49:36Z</time>
      </trkpt>
      <trkpt lat="47.30744" lon="5.95368">
        <ele>243.3</ele>
        <time>2021-08-18T15:49:45Z</time>
      </trkpt>
      <trkpt lat="47.30745" lon="5.95381">
        <ele>242.9</ele>
        <time>2021-08-18T15:49:51Z</time>
      </trkpt>
      <trkpt lat="47.30748" lon="5.95395">
        <ele>242.6</ele>
        <time>2021-08-18T15:49:58Z</time>
      </trkpt>
      <trkpt lat="47.3075" lon="5.95409">
        <ele>242.2</ele>
        <time>2021-08-18T15:50:04Z</time>
      </trkpt>
      <trkpt lat="47.30753" lon="5.95423">
        <ele>242.1</ele>
        <time>2021-08-18T15:50:10Z</time>
      </trkpt>
      <trkpt lat="47.30756" lon="5.95436">
        <ele>242.4</ele>
        <time>2021-08-18T15:50:16Z</time>
      </trkpt>
      <trkpt lat="47.30761" lon="5.95447">
        <ele>242.6</ele>
        <time>2021-08-18T15:50:22Z</time>
      </trkpt>
      <trkpt lat="47.30765" lon="5.95461">
        <ele>242.9</ele>
        <time>2021-08-18T15:50:29Z</time>
      </trkpt>
      <trkpt lat="47.30768" lon="5.95474">
        <ele>243.1</ele>
        <time>2021-08-18T15:50:35Z</time>
      </trkpt>
      <trkpt lat="47.30769" lon="5.95489">
        <ele>243.5</ele>
        <time>2021-08-18T15:50:42Z</time>
      </trkpt>
      <trkpt lat="47.30769" lon="5.95503">
        <ele>244</ele>
        <time>2021-08-18T15:50:48Z</time>
      </trkpt>
      <trkpt lat="47.30771" lon="5.95518">
        <ele>244.3</ele>
        <time>2021-08-18T15:50:55Z</time>
      </trkpt>
      <trkpt lat="47.30771" lon="5.95534">
        <ele>244.9</ele>
        <time>2021-08-18T15:51:03Z</time>
      </trkpt>
      <trkpt lat="47.30773" lon="5.95548">
        <ele>245.2</ele>
        <time>2021-08-18T15:51:09Z</time>
      </trkpt>
      <trkpt lat="47.30778" lon="5.95561">
        <ele>245.3</ele>
        <time>2021-08-18T15:51:15Z</time>
      </trkpt>
      <trkpt lat="47.30783" lon="5.95573">
        <ele>245.3</ele>
        <time>2021-08-18T15:51:21Z</time>
      </trkpt>
      <trkpt lat="47.30788" lon="5.95589">
        <ele>245.3</ele>
        <time>2021-08-18T15:51:29Z</time>
      </trkpt>
      <trkpt lat="47.3079" lon="5.95602">
        <ele>245.1</ele>
        <time>2021-08-18T15:51:35Z</time>
      </trkpt>
      <trkpt lat="47.30791" lon="5.95616">
        <ele>245</ele>
        <time>2021-08-18T15:51:41Z</time>
      </trkpt>
      <trkpt lat="47.3079" lon="5.95629">
        <ele>245.1</ele>
        <time>2021-08-18T15:51:47Z</time>
      </trkpt>
      <trkpt lat="47.3079" lon="5.95643">
        <ele>245.1</ele>
        <time>2021-08-18T15:51:54Z</time>
      </trkpt>
      <trkpt lat="47.30793" lon="5.95658">
        <ele>244.9</ele>
        <time>2021-08-18T15:52:02Z</time>
      </trkpt>
      <trkpt lat="47.30794" lon="5.95674">
        <ele>244.8</ele>
        <time>2021-08-18T15:52:08Z</time>
      </trkpt>
      <trkpt lat="47.30796" lon="5.95688">
        <ele>244.6</ele>
        <time>2021-08-18T15:52:14Z</time>
      </trkpt>
      <trkpt lat="47.30799" lon="5.95703">
        <ele>244.4</ele>
        <time>2021-08-18T15:52:22Z</time>
      </trkpt>
      <trkpt lat="47.30804" lon="5.95716">
        <ele>244.2</ele>
        <time>2021-08-18T15:52:42Z</time>
      </trkpt>
      <trkpt lat="47.30809" lon="5.95727">
        <ele>244</ele>
        <time>2021-08-18T15:52:46Z</time>
      </trkpt>
      <trkpt lat="47.30815" lon="5.9574">
        <ele>244</ele>
        <time>2021-08-18T15:52:50Z</time>
      </trkpt>
      <trkpt lat="47.30821" lon="5.95753">
        <ele>243.9</ele>
        <time>2021-08-18T15:52:54Z</time>
      </trkpt>
      <trkpt lat="47.30827" lon="5.95767">
        <ele>243.4</ele>
        <time>2021-08-18T15:52:58Z</time>
      </trkpt>
      <trkpt lat="47.30833" lon="5.95782">
        <ele>242.9</ele>
        <time>2021-08-18T15:53:04Z</time>
      </trkpt>
      <trkpt lat="47.30837" lon="5.95796">
        <ele>242.3</ele>
        <time>2021-08-18T15:53:10Z</time>
      </trkpt>
      <trkpt lat="47.3084" lon="5.9581">
        <ele>241.8</ele>
        <time>2021-08-18T15:53:16Z</time>
      </trkpt>
      <trkpt lat="47.30845" lon="5.95824">
        <ele>241.3</ele>
        <time>2021-08-18T15:53:23Z</time>
      </trkpt>
      <trkpt lat="47.30851" lon="5.95838">
        <ele>240.9</ele>
        <time>2021-08-18T15:53:31Z</time>
      </trkpt>
      <trkpt lat="47.30855" lon="5.95853">
        <ele>240.5</ele>
        <time>2021-08-18T15:53:39Z</time>
      </trkpt>
      <trkpt lat="47.30859" lon="5.95867">
        <ele>240.2</ele>
        <time>2021-08-18T15:53:46Z</time>
      </trkpt>
      <trkpt lat="47.30863" lon="5.95882">
        <ele>239.8</ele>
        <time>2021-08-18T15:53:53Z</time>
      </trkpt>
      <trkpt lat="47.30866" lon="5.95894">
        <ele>239.5</ele>
        <time>2021-08-18T15:53:59Z</time>
      </trkpt>
      <trkpt lat="47.3087" lon="5.95907">
        <ele>239.2</ele>
        <time>2021-08-18T15:54:05Z</time>
      </trkpt>
      <trkpt lat="47.30875" lon="5.95918">
        <ele>239</ele>
        <time>2021-08-18T15:54:11Z</time>
      </trkpt>
      <trkpt lat="47.3088" lon="5.9593">
        <ele>238.8</ele>
        <time>2021-08-18T15:54:17Z</time>
      </trkpt>
      <trkpt lat="47.30883" lon="5.95942">
        <ele>238.7</ele>
        <time>2021-08-18T15:54:23Z</time>
      </trkpt>
      <trkpt lat="47.30888" lon="5.95954">
        <ele>238.6</ele>
        <time>2021-08-18T15:54:29Z</time>
      </trkpt>
      <trkpt lat="47.30891" lon="5.95968">
        <ele>238.4</ele>
        <time>2021-08-18T15:54:36Z</time>
      </trkpt>
      <trkpt lat="47.30896" lon="5.95983">
        <ele>238.2</ele>
        <time>2021-08-18T15:54:44Z</time>
      </trkpt>
      <trkpt lat="47.30902" lon="5.95998">
        <ele>238</ele>
        <time>2021-08-18T15:54:52Z</time>
      </trkpt>
      <trkpt lat="47.30905" lon="5.96013">
        <ele>237.8</ele>
        <time>2021-08-18T15:54:59Z</time>
      </trkpt>
      <trkpt lat="47.30909" lon="5.96027">
        <ele>237.5</ele>
        <time>2021-08-18T15:55:07Z</time>
      </trkpt>
      <trkpt lat="47.30914" lon="5.96043">
        <ele>237</ele>
        <time>2021-08-18T15:55:14Z</time>
      </trkpt>
      <trkpt lat="47.30919" lon="5.96057">
        <ele>236.6</ele>
        <time>2021-08-18T15:55:20Z</time>
      </trkpt>
      <trkpt lat="47.30923" lon="5.9607">
        <ele>236.3</ele>
        <time>2021-08-18T15:55:26Z</time>
      </trkpt>
      <trkpt lat="47.30928" lon="5.96084">
        <ele>236</ele>
        <time>2021-08-18T15:55:32Z</time>
      </trkpt>
      <trkpt lat="47.30932" lon="5.96098">
        <ele>235.9</ele>
        <time>2021-08-18T15:55:38Z</time>
      </trkpt>
      <trkpt lat="47.30935" lon="5.96112">
        <ele>235.8</ele>
        <time>2021-08-18T15:55:45Z</time>
      </trkpt>
      <trkpt lat="47.3094" lon="5.96126">
        <ele>235.7</ele>
        <time>2021-08-18T15:55:52Z</time>
      </trkpt>
      <trkpt lat="47.30944" lon="5.96142">
        <ele>235.5</ele>
        <time>2021-08-18T15:56:00Z</time>
      </trkpt>
      <trkpt lat="47.30949" lon="5.96156">
        <ele>235.3</ele>
        <time>2021-08-18T15:56:07Z</time>
      </trkpt>
      <trkpt lat="47.30953" lon="5.96169">
        <ele>235.2</ele>
        <time>2021-08-18T15:56:13Z</time>
      </trkpt>
      <trkpt lat="47.30957" lon="5.96182">
        <ele>235.3</ele>
        <time>2021-08-18T15:56:19Z</time>
      </trkpt>
      <trkpt lat="47.30961" lon="5.96194">
        <ele>235.4</ele>
        <time>2021-08-18T15:56:25Z</time>
      </trkpt>
      <trkpt lat="47.30965" lon="5.96209">
        <ele>235.6</ele>
        <time>2021-08-18T15:56:33Z</time>
      </trkpt>
      <trkpt lat="47.3097" lon="5.96224">
        <ele>235.8</ele>
        <time>2021-08-18T15:56:41Z</time>
      </trkpt>
      <trkpt lat="47.30974" lon="5.96239">
        <ele>236.1</ele>
        <time>2021-08-18T15:56:48Z</time>
      </trkpt>
      <trkpt lat="47.30978" lon="5.96254">
        <ele>236.3</ele>
        <time>2021-08-18T15:56:56Z</time>
      </trkpt>
      <trkpt lat="47.30982" lon="5.96266">
        <ele>236.6</ele>
        <time>2021-08-18T15:57:02Z</time>
      </trkpt>
      <trkpt lat="47.30986" lon="5.96278">
        <ele>236.8</ele>
        <time>2021-08-18T15:57:08Z</time>
      </trkpt>
      <trkpt lat="47.3099" lon="5.96293">
        <ele>237.1</ele>
        <time>2021-08-18T15:57:16Z</time>
      </trkpt>
      <trkpt lat="47.30993" lon="5.96307">
        <ele>237.4</ele>
        <time>2021-08-18T15:57:23Z</time>
      </trkpt>
      <trkpt lat="47.30996" lon="5.9632">
        <ele>237.7</ele>
        <time>2021-08-18T15:57:29Z</time>
      </trkpt>
      <trkpt lat="47.31" lon="5.96336">
        <ele>237.9</ele>
        <time>2021-08-18T15:57:37Z</time>
      </trkpt>
      <trkpt lat="47.31002" lon="5.9635">
        <ele>237.6</ele>
        <time>2021-08-18T15:57:43Z</time>
      </trkpt>
      <trkpt lat="47.31003" lon="5.96365">
        <ele>237.2</ele>
        <time>2021-08-18T15:57:50Z</time>
      </trkpt>
      <trkpt lat="47.31004" lon="5.96381">
        <ele>236.8</ele>
        <time>2021-08-18T15:57:58Z</time>
      </trkpt>
      <trkpt lat="47.31004" lon="5.96398">
        <ele>236.4</ele>
        <time>2021-08-18T15:58:06Z</time>
      </trkpt>
      <trkpt lat="47.31004" lon="5.96413">
        <ele>236</ele>
        <time>2021-08-18T15:58:14Z</time>
      </trkpt>
      <trkpt lat="47.3101" lon="5.96425">
        <ele>235.8</ele>
        <time>2021-08-18T15:58:21Z</time>
      </trkpt>
      <trkpt lat="47.31014" lon="5.96438">
        <ele>235.5</ele>
        <time>2021-08-18T15:58:27Z</time>
      </trkpt>
      <trkpt lat="47.31017" lon="5.96452">
        <ele>235.3</ele>
        <time>2021-08-18T15:58:35Z</time>
      </trkpt>
      <trkpt lat="47.3102" lon="5.96467">
        <ele>235</ele>
        <time>2021-08-18T15:58:43Z</time>
      </trkpt>
      <trkpt lat="47.31022" lon="5.96481">
        <ele>234.8</ele>
        <time>2021-08-18T15:58:49Z</time>
      </trkpt>
      <trkpt lat="47.31025" lon="5.96496">
        <ele>234.5</ele>
        <time>2021-08-18T15:58:55Z</time>
      </trkpt>
      <trkpt lat="47.31031" lon="5.96511">
        <ele>234</ele>
        <time>2021-08-18T15:59:01Z</time>
      </trkpt>
      <trkpt lat="47.31038" lon="5.96523">
        <ele>233.6</ele>
        <time>2021-08-18T15:59:08Z</time>
      </trkpt>
      <trkpt lat="47.31043" lon="5.96536">
        <ele>233.1</ele>
        <time>2021-08-18T15:59:15Z</time>
      </trkpt>
      <trkpt lat="47.31046" lon="5.96551">
        <ele>232.6</ele>
        <time>2021-08-18T15:59:22Z</time>
      </trkpt>
      <trkpt lat="47.3105" lon="5.96566">
        <ele>232.1</ele>
        <time>2021-08-18T15:59:30Z</time>
      </trkpt>
      <trkpt lat="47.31057" lon="5.96575">
        <ele>231.5</ele>
        <time>2021-08-18T15:59:39Z</time>
      </trkpt>
      <trkpt lat="47.31066" lon="5.96583">
        <ele>230.8</ele>
        <time>2021-08-18T15:59:48Z</time>
      </trkpt>
      <trkpt lat="47.31073" lon="5.96595">
        <ele>230.8</ele>
        <time>2021-08-18T15:59:57Z</time>
      </trkpt>
      <trkpt lat="47.31076" lon="5.96608">
        <ele>231.1</ele>
        <time>2021-08-18T16:00:03Z</time>
      </trkpt>
      <trkpt lat="47.31075" lon="5.96623">
        <ele>231.5</ele>
        <time>2021-08-18T16:00:09Z</time>
      </trkpt>
      <trkpt lat="47.31069" lon="5.96635">
        <ele>231.9</ele>
        <time>2021-08-18T16:00:16Z</time>
      </trkpt>
      <trkpt lat="47.3107" lon="5.96652">
        <ele>232.3</ele>
        <time>2021-08-18T16:00:24Z</time>
      </trkpt>
      <trkpt lat="47.31072" lon="5.96666">
        <ele>232.7</ele>
        <time>2021-08-18T16:00:30Z</time>
      </trkpt>
      <trkpt lat="47.31075" lon="5.96679">
        <ele>233.7</ele>
        <time>2021-08-18T16:00:36Z</time>
      </trkpt>
      <trkpt lat="47.31078" lon="5.96693">
        <ele>234.7</ele>
        <time>2021-08-18T16:00:43Z</time>
      </trkpt>
      <trkpt lat="47.31083" lon="5.96708">
        <ele>236</ele>
        <time>2021-08-18T16:00:51Z</time>
      </trkpt>
      <trkpt lat="47.31086" lon="5.96724">
        <ele>237.1</ele>
        <time>2021-08-18T16:01:00Z</time>
      </trkpt>
      <trkpt lat="47.31088" lon="5.96738">
        <ele>238.1</ele>
        <time>2021-08-18T16:01:08Z</time>
      </trkpt>
      <trkpt lat="47.31089" lon="5.96752">
        <ele>238.9</ele>
        <time>2021-08-18T16:01:16Z</time>
      </trkpt>
      <trkpt lat="47.3109" lon="5.96767">
        <ele>239.4</ele>
        <time>2021-08-18T16:01:24Z</time>
      </trkpt>
      <trkpt lat="47.31092" lon="5.96781">
        <ele>239.9</ele>
        <time>2021-08-18T16:01:33Z</time>
      </trkpt>
      <trkpt lat="47.31091" lon="5.96795">
        <ele>240.4</ele>
        <time>2021-08-18T16:01:40Z</time>
      </trkpt>
      <trkpt lat="47.31092" lon="5.96809">
        <ele>240.8</ele>
        <time>2021-08-18T16:01:48Z</time>
      </trkpt>
      <trkpt lat="47.31092" lon="5.96824">
        <ele>241.4</ele>
        <time>2021-08-18T16:01:54Z</time>
      </trkpt>
      <trkpt lat="47.31093" lon="5.9684">
        <ele>241.8</ele>
        <time>2021-08-18T16:02:01Z</time>
      </trkpt>
      <trkpt lat="47.31093" lon="5.96855">
        <ele>242</ele>
        <time>2021-08-18T16:02:10Z</time>
      </trkpt>
      <trkpt lat="47.31092" lon="5.96868">
        <ele>242.2</ele>
        <time>2021-08-18T16:02:18Z</time>
      </trkpt>
      <trkpt lat="47.31092" lon="5.96882">
        <ele>242.4</ele>
        <time>2021-08-18T16:02:26Z</time>
      </trkpt>
      <trkpt lat="47.31095" lon="5.96898">
        <ele>242.6</ele>
        <time>2021-08-18T16:02:32Z</time>
      </trkpt>
      <trkpt lat="47.31096" lon="5.96913">
        <ele>242.8</ele>
        <time>2021-08-18T16:02:38Z</time>
      </trkpt>
      <trkpt lat="47.31097" lon="5.96928">
        <ele>242.8</ele>
        <time>2021-08-18T16:02:44Z</time>
      </trkpt>
      <trkpt lat="47.31097" lon="5.96942">
        <ele>242.7</ele>
        <time>2021-08-18T16:02:50Z</time>
      </trkpt>
      <trkpt lat="47.31095" lon="5.96956">
        <ele>242.6</ele>
        <time>2021-08-18T16:02:57Z</time>
      </trkpt>
      <trkpt lat="47.31094" lon="5.96969">
        <ele>242.5</ele>
        <time>2021-08-18T16:03:04Z</time>
      </trkpt>
      <trkpt lat="47.31092" lon="5.96984">
        <ele>242.3</ele>
        <time>2021-08-18T16:03:11Z</time>
      </trkpt>
      <trkpt lat="47.31092" lon="5.97002">
        <ele>242</ele>
        <time>2021-08-18T16:03:17Z</time>
      </trkpt>
      <trkpt lat="47.31091" lon="5.97016">
        <ele>240.7</ele>
        <time>2021-08-18T16:03:23Z</time>
      </trkpt>
      <trkpt lat="47.31091" lon="5.9703">
        <ele>239.3</ele>
        <time>2021-08-18T16:03:30Z</time>
      </trkpt>
      <trkpt lat="47.31088" lon="5.97047">
        <ele>237.6</ele>
        <time>2021-08-18T16:03:37Z</time>
      </trkpt>
      <trkpt lat="47.31084" lon="5.97061">
        <ele>236.2</ele>
        <time>2021-08-18T16:03:43Z</time>
      </trkpt>
      <trkpt lat="47.3108" lon="5.97075">
        <ele>234.8</ele>
        <time>2021-08-18T16:03:49Z</time>
      </trkpt>
      <trkpt lat="47.31078" lon="5.97089">
        <ele>233.8</ele>
        <time>2021-08-18T16:03:55Z</time>
      </trkpt>
      <trkpt lat="47.31073" lon="5.97102">
        <ele>233.3</ele>
        <time>2021-08-18T16:04:01Z</time>
      </trkpt>
      <trkpt lat="47.31069" lon="5.97115">
        <ele>232.8</ele>
        <time>2021-08-18T16:04:07Z</time>
      </trkpt>
      <trkpt lat="47.31065" lon="5.97128">
        <ele>232.4</ele>
        <time>2021-08-18T16:04:13Z</time>
      </trkpt>
      <trkpt lat="47.3106" lon="5.9714">
        <ele>232.1</ele>
        <time>2021-08-18T16:04:19Z</time>
      </trkpt>
      <trkpt lat="47.31056" lon="5.97154">
        <ele>231.8</ele>
        <time>2021-08-18T16:04:26Z</time>
      </trkpt>
      <trkpt lat="47.31049" lon="5.97167">
        <ele>231.7</ele>
        <time>2021-08-18T16:04:34Z</time>
      </trkpt>
      <trkpt lat="47.31042" lon="5.97179">
        <ele>232.1</ele>
        <time>2021-08-18T16:04:42Z</time>
      </trkpt>
      <trkpt lat="47.31036" lon="5.97192">
        <ele>232.6</ele>
        <time>2021-08-18T16:04:50Z</time>
      </trkpt>
      <trkpt lat="47.31028" lon="5.97204">
        <ele>233.1</ele>
        <time>2021-08-18T16:04:58Z</time>
      </trkpt>
      <trkpt lat="47.3102" lon="5.97212">
        <ele>233.6</ele>
        <time>2021-08-18T16:05:06Z</time>
      </trkpt>
      <trkpt lat="47.31011" lon="5.97223">
        <ele>234.1</ele>
        <time>2021-08-18T16:05:14Z</time>
      </trkpt>
      <trkpt lat="47.31005" lon="5.97235">
        <ele>234.6</ele>
        <time>2021-08-18T16:05:22Z</time>
      </trkpt>
      <trkpt lat="47.30999" lon="5.97248">
        <ele>235</ele>
        <time>2021-08-18T16:05:29Z</time>
      </trkpt>
      <trkpt lat="47.30993" lon="5.97263">
        <ele>236.1</ele>
        <time>2021-08-18T16:05:37Z</time>
      </trkpt>
      <trkpt lat="47.30988" lon="5.97274">
        <ele>236.9</ele>
        <time>2021-08-18T16:05:43Z</time>
      </trkpt>
      <trkpt lat="47.30983" lon="5.97287">
        <ele>237.7</ele>
        <time>2021-08-18T16:05:50Z</time>
      </trkpt>
      <trkpt lat="47.30975" lon="5.973">
        <ele>238.5</ele>
        <time>2021-08-18T16:05:58Z</time>
      </trkpt>
      <trkpt lat="47.30971" lon="5.97314">
        <ele>239.2</ele>
        <time>2021-08-18T16:06:05Z</time>
      </trkpt>
      <trkpt lat="47.30965" lon="5.97328">
        <ele>239.9</ele>
        <time>2021-08-18T16:06:13Z</time>
      </trkpt>
      <trkpt lat="47.30959" lon="5.97341">
        <ele>240.4</ele>
        <time>2021-08-18T16:06:21Z</time>
      </trkpt>
      <trkpt lat="47.30952" lon="5.97355">
        <ele>241</ele>
        <time>2021-08-18T16:06:29Z</time>
      </trkpt>
      <trkpt lat="47.30944" lon="5.97367">
        <ele>241.5</ele>
        <time>2021-08-18T16:06:37Z</time>
      </trkpt>
      <trkpt lat="47.30938" lon="5.9738">
        <ele>242.3</ele>
        <time>2021-08-18T16:06:45Z</time>
      </trkpt>
      <trkpt lat="47.30931" lon="5.97392">
        <ele>243.1</ele>
        <time>2021-08-18T16:06:53Z</time>
      </trkpt>
      <trkpt lat="47.30925" lon="5.97406">
        <ele>244.1</ele>
        <time>2021-08-18T16:07:01Z</time>
      </trkpt>
      <trkpt lat="47.30919" lon="5.9742">
        <ele>245.1</ele>
        <time>2021-08-18T16:07:09Z</time>
      </trkpt>
      <trkpt lat="47.30911" lon="5.97431">
        <ele>245.5</ele>
        <time>2021-08-18T16:07:17Z</time>
      </trkpt>
      <trkpt lat="47.30904" lon="5.97441">
        <ele>245.9</ele>
        <time>2021-08-18T16:07:23Z</time>
      </trkpt>
      <trkpt lat="47.30896" lon="5.97451">
        <ele>246.3</ele>
        <time>2021-08-18T16:07:31Z</time>
      </trkpt>
      <trkpt lat="47.30889" lon="5.97462">
        <ele>246.9</ele>
        <time>2021-08-18T16:07:39Z</time>
      </trkpt>
      <trkpt lat="47.30886" lon="5.97476">
        <ele>247.8</ele>
        <time>2021-08-18T16:07:48Z</time>
      </trkpt>
      <trkpt lat="47.30895" lon="5.97479">
        <ele>248</ele>
        <time>2021-08-18T16:08:01Z</time>
      </trkpt>
      <trkpt lat="47.30906" lon="5.97473">
        <ele>247.7</ele>
        <time>2021-08-18T16:08:09Z</time>
      </trkpt>
      <trkpt lat="47.30916" lon="5.97467">
        <ele>247.4</ele>
        <time>2021-08-18T16:08:17Z</time>
      </trkpt>
      <trkpt lat="47.30927" lon="5.97462">
        <ele>246.8</ele>
        <time>2021-08-18T16:08:25Z</time>
      </trkpt>
      <trkpt lat="47.30936" lon="5.97458">
        <ele>246.3</ele>
        <time>2021-08-18T16:08:31Z</time>
      </trkpt>
      <trkpt lat="47.30947" lon="5.97458">
        <ele>245.9</ele>
        <time>2021-08-18T16:08:38Z</time>
      </trkpt>
      <trkpt lat="47.30958" lon="5.97455">
        <ele>245.4</ele>
        <time>2021-08-18T16:08:46Z</time>
      </trkpt>
      <trkpt lat="47.30969" lon="5.97451">
        <ele>244.9</ele>
        <time>2021-08-18T16:08:54Z</time>
      </trkpt>
      <trkpt lat="47.3098" lon="5.9745">
        <ele>244.5</ele>
        <time>2021-08-18T16:09:02Z</time>
      </trkpt>
      <trkpt lat="47.30986" lon="5.97451">
        <ele>244.3</ele>
        <time>2021-08-18T16:09:06Z</time>
      </trkpt>
      <trkpt lat="47.30991" lon="5.9745">
        <ele>244.1</ele>
        <time>2021-08-18T16:09:10Z</time>
      </trkpt>
      <trkpt lat="47.30996" lon="5.97449">
        <ele>243.9</ele>
        <time>2021-08-18T16:09:14Z</time>
      </trkpt>
      <trkpt lat="47.31002" lon="5.97448">
        <ele>243.6</ele>
        <time>2021-08-18T16:09:18Z</time>
      </trkpt>
      <trkpt lat="47.31007" lon="5.97448">
        <ele>243.2</ele>
        <time>2021-08-18T16:09:22Z</time>
      </trkpt>
      <trkpt lat="47.31013" lon="5.97448">
        <ele>242.7</ele>
        <time>2021-08-18T16:09:26Z</time>
      </trkpt>
      <trkpt lat="47.31019" lon="5.9745">
        <ele>242.3</ele>
        <time>2021-08-18T16:09:30Z</time>
      </trkpt>
      <trkpt lat="47.31023" lon="5.97451">
        <ele>242</ele>
        <time>2021-08-18T16:09:33Z</time>
      </trkpt>
      <trkpt lat="47.31028" lon="5.97452">
        <ele>241.6</ele>
        <time>2021-08-18T16:09:36Z</time>
      </trkpt>
      <trkpt lat="47.31033" lon="5.97454">
        <ele>241.3</ele>
        <time>2021-08-18T16:09:39Z</time>
      </trkpt>
      <trkpt lat="47.31039" lon="5.97454">
        <ele>240.8</ele>
        <time>2021-08-18T16:09:43Z</time>
      </trkpt>
      <trkpt lat="47.31044" lon="5.97455">
        <ele>240.5</ele>
        <time>2021-08-18T16:09:47Z</time>
      </trkpt>
      <trkpt lat="47.31051" lon="5.97455">
        <ele>239.9</ele>
        <time>2021-08-18T16:09:51Z</time>
      </trkpt>
      <trkpt lat="47.31056" lon="5.97456">
        <ele>239.6</ele>
        <time>2021-08-18T16:09:55Z</time>
      </trkpt>
      <trkpt lat="47.31062" lon="5.97457">
        <ele>239.1</ele>
        <time>2021-08-18T16:09:59Z</time>
      </trkpt>
      <trkpt lat="47.31067" lon="5.97459">
        <ele>238.8</ele>
        <time>2021-08-18T16:10:03Z</time>
      </trkpt>
      <trkpt lat="47.31073" lon="5.97462">
        <ele>238.4</ele>
        <time>2021-08-18T16:10:07Z</time>
      </trkpt>
      <trkpt lat="47.31078" lon="5.97464">
        <ele>238.1</ele>
        <time>2021-08-18T16:10:11Z</time>
      </trkpt>
      <trkpt lat="47.31084" lon="5.97466">
        <ele>237.8</ele>
        <time>2021-08-18T16:10:15Z</time>
      </trkpt>
      <trkpt lat="47.3109" lon="5.97468">
        <ele>237.6</ele>
        <time>2021-08-18T16:10:19Z</time>
      </trkpt>
      <trkpt lat="47.31094" lon="5.97469">
        <ele>237.5</ele>
        <time>2021-08-18T16:10:22Z</time>
      </trkpt>
      <trkpt lat="47.31099" lon="5.9747">
        <ele>237.3</ele>
        <time>2021-08-18T16:10:25Z</time>
      </trkpt>
      <trkpt lat="47.31104" lon="5.97472">
        <ele>237.2</ele>
        <time>2021-08-18T16:10:28Z</time>
      </trkpt>
      <trkpt lat="47.31108" lon="5.97473">
        <ele>237</ele>
        <time>2021-08-18T16:10:31Z</time>
      </trkpt>
      <trkpt lat="47.31113" lon="5.97475">
        <ele>236.9</ele>
        <time>2021-08-18T16:10:34Z</time>
      </trkpt>
      <trkpt lat="47.31117" lon="5.97477">
        <ele>236.8</ele>
        <time>2021-08-18T16:10:37Z</time>
      </trkpt>
      <trkpt lat="47.31121" lon="5.97479">
        <ele>236.7</ele>
        <time>2021-08-18T16:10:40Z</time>
      </trkpt>
      <trkpt lat="47.31126" lon="5.97482">
        <ele>236.5</ele>
        <time>2021-08-18T16:10:43Z</time>
      </trkpt>
      <trkpt lat="47.3113" lon="5.97485">
        <ele>236.4</ele>
        <time>2021-08-18T16:10:46Z</time>
      </trkpt>
      <trkpt lat="47.31134" lon="5.97487">
        <ele>236.3</ele>
        <time>2021-08-18T16:10:49Z</time>
      </trkpt>
      <trkpt lat="47.31138" lon="5.9749">
        <ele>236.2</ele>
        <time>2021-08-18T16:10:52Z</time>
      </trkpt>
      <trkpt lat="47.31144" lon="5.97493">
        <ele>236</ele>
        <time>2021-08-18T16:10:56Z</time>
      </trkpt>
      <trkpt lat="47.31149" lon="5.97497">
        <ele>235.8</ele>
        <time>2021-08-18T16:11:00Z</time>
      </trkpt>
      <trkpt lat="47.31154" lon="5.97499">
        <ele>235.6</ele>
        <time>2021-08-18T16:11:03Z</time>
      </trkpt>
      <trkpt lat="47.31158" lon="5.97502">
        <ele>235.4</ele>
        <time>2021-08-18T16:11:06Z</time>
      </trkpt>
      <trkpt lat="47.31162" lon="5.97505">
        <ele>235.2</ele>
        <time>2021-08-18T16:11:09Z</time>
      </trkpt>
      <trkpt lat="47.31166" lon="5.97508">
        <ele>235</ele>
        <time>2021-08-18T16:11:12Z</time>
      </trkpt>
      <trkpt lat="47.31171" lon="5.97511">
        <ele>234.9</ele>
        <time>2021-08-18T16:11:15Z</time>
      </trkpt>
      <trkpt lat="47.31175" lon="5.97513">
        <ele>234.9</ele>
        <time>2021-08-18T16:11:18Z</time>
      </trkpt>
      <trkpt lat="47.31179" lon="5.97516">
        <ele>234.8</ele>
        <time>2021-08-18T16:11:21Z</time>
      </trkpt>
      <trkpt lat="47.31184" lon="5.97518">
        <ele>234.7</ele>
        <time>2021-08-18T16:11:24Z</time>
      </trkpt>
      <trkpt lat="47.31189" lon="5.97521">
        <ele>234.5</ele>
        <time>2021-08-18T16:11:28Z</time>
      </trkpt>
      <trkpt lat="47.31194" lon="5.97524">
        <ele>234.4</ele>
        <time>2021-08-18T16:11:32Z</time>
      </trkpt>
      <trkpt lat="47.31199" lon="5.97527">
        <ele>234.2</ele>
        <time>2021-08-18T16:11:35Z</time>
      </trkpt>
      <trkpt lat="47.31203" lon="5.9753">
        <ele>234.1</ele>
        <time>2021-08-18T16:11:38Z</time>
      </trkpt>
      <trkpt lat="47.31207" lon="5.97533">
        <ele>233.9</ele>
        <time>2021-08-18T16:11:41Z</time>
      </trkpt>
      <trkpt lat="47.31211" lon="5.97536">
        <ele>233.8</ele>
        <time>2021-08-18T16:11:44Z</time>
      </trkpt>
      <trkpt lat="47.31215" lon="5.9754">
        <ele>233.6</ele>
        <time>2021-08-18T16:11:47Z</time>
      </trkpt>
      <trkpt lat="47.31219" lon="5.97543">
        <ele>233.4</ele>
        <time>2021-08-18T16:11:50Z</time>
      </trkpt>
      <trkpt lat="47.31223" lon="5.97546">
        <ele>233.2</ele>
        <time>2021-08-18T16:11:53Z</time>
      </trkpt>
      <trkpt lat="47.31227" lon="5.97548">
        <ele>233</ele>
        <time>2021-08-18T16:11:56Z</time>
      </trkpt>
      <trkpt lat="47.31231" lon="5.9755">
        <ele>232.8</ele>
        <time>2021-08-18T16:11:59Z</time>
      </trkpt>
      <trkpt lat="47.31236" lon="5.97552">
        <ele>232.6</ele>
        <time>2021-08-18T16:12:02Z</time>
      </trkpt>
      <trkpt lat="47.3124" lon="5.97554">
        <ele>232.4</ele>
        <time>2021-08-18T16:12:05Z</time>
      </trkpt>
      <trkpt lat="47.31245" lon="5.97557">
        <ele>232.1</ele>
        <time>2021-08-18T16:12:09Z</time>
      </trkpt>
      <trkpt lat="47.31251" lon="5.97561">
        <ele>231.8</ele>
        <time>2021-08-18T16:12:13Z</time>
      </trkpt>
      <trkpt lat="47.31255" lon="5.97564">
        <ele>231.9</ele>
        <time>2021-08-18T16:12:16Z</time>
      </trkpt>
      <trkpt lat="47.31259" lon="5.97566">
        <ele>231.9</ele>
        <time>2021-08-18T16:12:19Z</time>
      </trkpt>
      <trkpt lat="47.31265" lon="5.9757">
        <ele>231.9</ele>
        <time>2021-08-18T16:12:23Z</time>
      </trkpt>
      <trkpt lat="47.3127" lon="5.97572">
        <ele>232</ele>
        <time>2021-08-18T16:12:27Z</time>
      </trkpt>
      <trkpt lat="47.31276" lon="5.97574">
        <ele>232.1</ele>
        <time>2021-08-18T16:12:31Z</time>
      </trkpt>
      <trkpt lat="47.31282" lon="5.97576">
        <ele>232.1</ele>
        <time>2021-08-18T16:12:35Z</time>
      </trkpt>
      <trkpt lat="47.31287" lon="5.97579">
        <ele>232.1</ele>
        <time>2021-08-18T16:12:39Z</time>
      </trkpt>
      <trkpt lat="47.31292" lon="5.97582">
        <ele>232.1</ele>
        <time>2021-08-18T16:12:43Z</time>
      </trkpt>
      <trkpt lat="47.31297" lon="5.97586">
        <ele>232.1</ele>
        <time>2021-08-18T16:12:47Z</time>
      </trkpt>
      <trkpt lat="47.31302" lon="5.9759">
        <ele>232</ele>
        <time>2021-08-18T16:12:51Z</time>
      </trkpt>
      <trkpt lat="47.31307" lon="5.97594">
        <ele>232</ele>
        <time>2021-08-18T16:12:55Z</time>
      </trkpt>
      <trkpt lat="47.31313" lon="5.97594">
        <ele>232.1</ele>
        <time>2021-08-18T16:12:59Z</time>
      </trkpt>
      <trkpt lat="47.31318" lon="5.97594">
        <ele>232.2</ele>
        <time>2021-08-18T16:13:03Z</time>
      </trkpt>
      <trkpt lat="47.31323" lon="5.97596">
        <ele>232.2</ele>
        <time>2021-08-18T16:13:07Z</time>
      </trkpt>
      <trkpt lat="47.31328" lon="5.97599">
        <ele>232.2</ele>
        <time>2021-08-18T16:13:11Z</time>
      </trkpt>
      <trkpt lat="47.31334" lon="5.97602">
        <ele>232.1</ele>
        <time>2021-08-18T16:13:15Z</time>
      </trkpt>
      <trkpt lat="47.31339" lon="5.97605">
        <ele>232.2</ele>
        <time>2021-08-18T16:13:19Z</time>
      </trkpt>
      <trkpt lat="47.31344" lon="5.97607">
        <ele>232.4</ele>
        <time>2021-08-18T16:13:22Z</time>
      </trkpt>
      <trkpt lat="47.31348" lon="5.97609">
        <ele>232.4</ele>
        <time>2021-08-18T16:13:25Z</time>
      </trkpt>
      <trkpt lat="47.31353" lon="5.9761">
        <ele>232.6</ele>
        <time>2021-08-18T16:13:28Z</time>
      </trkpt>
      <trkpt lat="47.31358" lon="5.97613">
        <ele>232.6</ele>
        <time>2021-08-18T16:13:31Z</time>
      </trkpt>
      <trkpt lat="47.31362" lon="5.97616">
        <ele>232.6</ele>
        <time>2021-08-18T16:13:34Z</time>
      </trkpt>
      <trkpt lat="47.31367" lon="5.97619">
        <ele>232.5</ele>
        <time>2021-08-18T16:13:38Z</time>
      </trkpt>
      <trkpt lat="47.31373" lon="5.97622">
        <ele>232.5</ele>
        <time>2021-08-18T16:13:42Z</time>
      </trkpt>
      <trkpt lat="47.31378" lon="5.97625">
        <ele>232.3</ele>
        <time>2021-08-18T16:13:46Z</time>
      </trkpt>
      <trkpt lat="47.31384" lon="5.97627">
        <ele>232.3</ele>
        <time>2021-08-18T16:13:50Z</time>
      </trkpt>
      <trkpt lat="47.31388" lon="5.97629">
        <ele>232.2</ele>
        <time>2021-08-18T16:13:53Z</time>
      </trkpt>
      <trkpt lat="47.31392" lon="5.97632">
        <ele>232</ele>
        <time>2021-08-18T16:13:56Z</time>
      </trkpt>
      <trkpt lat="47.31398" lon="5.97635">
        <ele>231.8</ele>
        <time>2021-08-18T16:14:00Z</time>
      </trkpt>
      <trkpt lat="47.31403" lon="5.97637">
        <ele>231.7</ele>
        <time>2021-08-18T16:14:04Z</time>
      </trkpt>
      <trkpt lat="47.31408" lon="5.97639">
        <ele>231.5</ele>
        <time>2021-08-18T16:14:08Z</time>
      </trkpt>
      <trkpt lat="47.31413" lon="5.97641">
        <ele>231.3</ele>
        <time>2021-08-18T16:14:12Z</time>
      </trkpt>
      <trkpt lat="47.31419" lon="5.97644">
        <ele>231.1</ele>
        <time>2021-08-18T16:14:16Z</time>
      </trkpt>
      <trkpt lat="47.31424" lon="5.97646">
        <ele>231.1</ele>
        <time>2021-08-18T16:14:20Z</time>
      </trkpt>
      <trkpt lat="47.31429" lon="5.97647">
        <ele>231.3</ele>
        <time>2021-08-18T16:14:24Z</time>
      </trkpt>
      <trkpt lat="47.31435" lon="5.97649">
        <ele>231.4</ele>
        <time>2021-08-18T16:14:28Z</time>
      </trkpt>
      <trkpt lat="47.3144" lon="5.9765">
        <ele>231.6</ele>
        <time>2021-08-18T16:14:32Z</time>
      </trkpt>
      <trkpt lat="47.31446" lon="5.97651">
        <ele>231.8</ele>
        <time>2021-08-18T16:14:36Z</time>
      </trkpt>
      <trkpt lat="47.31451" lon="5.97653">
        <ele>231.9</ele>
        <time>2021-08-18T16:14:40Z</time>
      </trkpt>
      <trkpt lat="47.31456" lon="5.97655">
        <ele>232</ele>
        <time>2021-08-18T16:14:44Z</time>
      </trkpt>
      <trkpt lat="47.31461" lon="5.97655">
        <ele>232.4</ele>
        <time>2021-08-18T16:14:47Z</time>
      </trkpt>
      <trkpt lat="47.31465" lon="5.97656">
        <ele>232.5</ele>
        <time>2021-08-18T16:14:50Z</time>
      </trkpt>
      <trkpt lat="47.3147" lon="5.97654">
        <ele>233</ele>
        <time>2021-08-18T16:14:53Z</time>
      </trkpt>
      <trkpt lat="47.31474" lon="5.97653">
        <ele>233.4</ele>
        <time>2021-08-18T16:14:56Z</time>
      </trkpt>
      <trkpt lat="47.3148" lon="5.97652">
        <ele>233.8</ele>
        <time>2021-08-18T16:15:00Z</time>
      </trkpt>
      <trkpt lat="47.31485" lon="5.97652">
        <ele>234.1</ele>
        <time>2021-08-18T16:15:03Z</time>
      </trkpt>
      <trkpt lat="47.3149" lon="5.97651">
        <ele>234.5</ele>
        <time>2021-08-18T16:15:06Z</time>
      </trkpt>
      <trkpt lat="47.31495" lon="5.9765">
        <ele>234.9</ele>
        <time>2021-08-18T16:15:09Z</time>
      </trkpt>
      <trkpt lat="47.315" lon="5.97649">
        <ele>235.3</ele>
        <time>2021-08-18T16:15:12Z</time>
      </trkpt>
      <trkpt lat="47.31505" lon="5.97647">
        <ele>235.2</ele>
        <time>2021-08-18T16:15:16Z</time>
      </trkpt>
      <trkpt lat="47.3151" lon="5.97646">
        <ele>235.1</ele>
        <time>2021-08-18T16:15:19Z</time>
      </trkpt>
      <trkpt lat="47.31514" lon="5.97646">
        <ele>235</ele>
        <time>2021-08-18T16:15:22Z</time>
      </trkpt>
      <trkpt lat="47.3152" lon="5.97645">
        <ele>234.8</ele>
        <time>2021-08-18T16:15:26Z</time>
      </trkpt>
      <trkpt lat="47.31525" lon="5.97645">
        <ele>234.6</ele>
        <time>2021-08-18T16:15:30Z</time>
      </trkpt>
      <trkpt lat="47.31531" lon="5.97646">
        <ele>234.4</ele>
        <time>2021-08-18T16:15:34Z</time>
      </trkpt>
      <trkpt lat="47.31536" lon="5.97646">
        <ele>234.2</ele>
        <time>2021-08-18T16:15:38Z</time>
      </trkpt>
      <trkpt lat="47.31542" lon="5.97645">
        <ele>234</ele>
        <time>2021-08-18T16:15:42Z</time>
      </trkpt>
      <trkpt lat="47.31546" lon="5.97644">
        <ele>233.9</ele>
        <time>2021-08-18T16:15:45Z</time>
      </trkpt>
      <trkpt lat="47.31551" lon="5.97642">
        <ele>233.8</ele>
        <time>2021-08-18T16:15:48Z</time>
      </trkpt>
      <trkpt lat="47.31556" lon="5.97641">
        <ele>233.7</ele>
        <time>2021-08-18T16:15:51Z</time>
      </trkpt>
      <trkpt lat="47.31561" lon="5.97639">
        <ele>233.6</ele>
        <time>2021-08-18T16:15:54Z</time>
      </trkpt>
      <trkpt lat="47.31565" lon="5.97637">
        <ele>233.5</ele>
        <time>2021-08-18T16:15:57Z</time>
      </trkpt>
      <trkpt lat="47.3157" lon="5.97635">
        <ele>233.3</ele>
        <time>2021-08-18T16:16:00Z</time>
      </trkpt>
      <trkpt lat="47.31574" lon="5.97633">
        <ele>233.2</ele>
        <time>2021-08-18T16:16:03Z</time>
      </trkpt>
      <trkpt lat="47.3158" lon="5.97633">
        <ele>233</ele>
        <time>2021-08-18T16:16:07Z</time>
      </trkpt>
      <trkpt lat="47.31586" lon="5.97631">
        <ele>232.7</ele>
        <time>2021-08-18T16:16:11Z</time>
      </trkpt>
      <trkpt lat="47.3159" lon="5.97629">
        <ele>232.5</ele>
        <time>2021-08-18T16:16:14Z</time>
      </trkpt>
      <trkpt lat="47.31595" lon="5.97628">
        <ele>232.1</ele>
        <time>2021-08-18T16:16:17Z</time>
      </trkpt>
      <trkpt lat="47.31599" lon="5.97626">
        <ele>231.9</ele>
        <time>2021-08-18T16:16:20Z</time>
      </trkpt>
      <trkpt lat="47.31605" lon="5.97625">
        <ele>231.6</ele>
        <time>2021-08-18T16:16:24Z</time>
      </trkpt>
      <trkpt lat="47.31611" lon="5.97624">
        <ele>231.2</ele>
        <time>2021-08-18T16:16:28Z</time>
      </trkpt>
      <trkpt lat="47.31615" lon="5.97623">
        <ele>231</ele>
        <time>2021-08-18T16:16:31Z</time>
      </trkpt>
      <trkpt lat="47.3162" lon="5.97622">
        <ele>230.7</ele>
        <time>2021-08-18T16:16:34Z</time>
      </trkpt>
      <trkpt lat="47.31625" lon="5.97621">
        <ele>230.4</ele>
        <time>2021-08-18T16:16:37Z</time>
      </trkpt>
      <trkpt lat="47.31629" lon="5.97621">
        <ele>230.2</ele>
        <time>2021-08-18T16:16:40Z</time>
      </trkpt>
      <trkpt lat="47.31634" lon="5.9762">
        <ele>229.9</ele>
        <time>2021-08-18T16:16:43Z</time>
      </trkpt>
      <trkpt lat="47.3164" lon="5.97618">
        <ele>229.6</ele>
        <time>2021-08-18T16:16:47Z</time>
      </trkpt>
      <trkpt lat="47.31645" lon="5.97617">
        <ele>229.3</ele>
        <time>2021-08-18T16:16:51Z</time>
      </trkpt>
      <trkpt lat="47.31651" lon="5.97616">
        <ele>229</ele>
        <time>2021-08-18T16:16:55Z</time>
      </trkpt>
      <trkpt lat="47.31657" lon="5.97614">
        <ele>228.8</ele>
        <time>2021-08-18T16:16:59Z</time>
      </trkpt>
      <trkpt lat="47.31662" lon="5.97613">
        <ele>228.5</ele>
        <time>2021-08-18T16:17:03Z</time>
      </trkpt>
      <trkpt lat="47.31669" lon="5.97612">
        <ele>228.2</ele>
        <time>2021-08-18T16:17:07Z</time>
      </trkpt>
      <trkpt lat="47.31674" lon="5.97613">
        <ele>227.9</ele>
        <time>2021-08-18T16:17:11Z</time>
      </trkpt>
      <trkpt lat="47.31679" lon="5.97617">
        <ele>227.4</ele>
        <time>2021-08-18T16:17:15Z</time>
      </trkpt>
      <trkpt lat="47.31683" lon="5.97618">
        <ele>227.2</ele>
        <time>2021-08-18T16:17:18Z</time>
      </trkpt>
      <trkpt lat="47.31689" lon="5.97619">
        <ele>226.9</ele>
        <time>2021-08-18T16:17:22Z</time>
      </trkpt>
      <trkpt lat="47.31694" lon="5.97617">
        <ele>226.7</ele>
        <time>2021-08-18T16:17:26Z</time>
      </trkpt>
      <trkpt lat="47.31699" lon="5.97615">
        <ele>226.6</ele>
        <time>2021-08-18T16:17:30Z</time>
      </trkpt>
      <trkpt lat="47.31705" lon="5.97613">
        <ele>226.4</ele>
        <time>2021-08-18T16:17:34Z</time>
      </trkpt>
      <trkpt lat="47.31709" lon="5.97611">
        <ele>226.3</ele>
        <time>2021-08-18T16:17:37Z</time>
      </trkpt>
      <trkpt lat="47.31714" lon="5.97609">
        <ele>226.1</ele>
        <time>2021-08-18T16:17:40Z</time>
      </trkpt>
      <trkpt lat="47.31718" lon="5.97608">
        <ele>226</ele>
        <time>2021-08-18T16:17:43Z</time>
      </trkpt>
      <trkpt lat="47.31723" lon="5.97607">
        <ele>225.8</ele>
        <time>2021-08-18T16:17:46Z</time>
      </trkpt>
      <trkpt lat="47.31728" lon="5.97605">
        <ele>225.6</ele>
        <time>2021-08-18T16:17:49Z</time>
      </trkpt>
      <trkpt lat="47.31733" lon="5.97603">
        <ele>225.4</ele>
        <time>2021-08-18T16:17:52Z</time>
      </trkpt>
      <trkpt lat="47.31738" lon="5.97602">
        <ele>225.2</ele>
        <time>2021-08-18T16:17:55Z</time>
      </trkpt>
      <trkpt lat="47.31743" lon="5.976">
        <ele>225</ele>
        <time>2021-08-18T16:17:58Z</time>
      </trkpt>
      <trkpt lat="47.31747" lon="5.97598">
        <ele>224.8</ele>
        <time>2021-08-18T16:18:01Z</time>
      </trkpt>
      <trkpt lat="47.31752" lon="5.97595">
        <ele>224.7</ele>
        <time>2021-08-18T16:18:04Z</time>
      </trkpt>
      <trkpt lat="47.31756" lon="5.97592">
        <ele>224.8</ele>
        <time>2021-08-18T16:18:07Z</time>
      </trkpt>
      <trkpt lat="47.31761" lon="5.97591">
        <ele>224.8</ele>
        <time>2021-08-18T16:18:11Z</time>
      </trkpt>
      <trkpt lat="47.31765" lon="5.97598">
        <ele>224.7</ele>
        <time>2021-08-18T16:18:16Z</time>
      </trkpt>
      <trkpt lat="47.31769" lon="5.97604">
        <ele>224.6</ele>
        <time>2021-08-18T16:18:20Z</time>
      </trkpt>
      <trkpt lat="47.31773" lon="5.9761">
        <ele>224.4</ele>
        <time>2021-08-18T16:18:24Z</time>
      </trkpt>
      <trkpt lat="47.31776" lon="5.97615">
        <ele>224.4</ele>
        <time>2021-08-18T16:18:28Z</time>
      </trkpt>
      <trkpt lat="47.3178" lon="5.97621">
        <ele>224.3</ele>
        <time>2021-08-18T16:18:32Z</time>
      </trkpt>
      <trkpt lat="47.3178" lon="5.9763">
        <ele>224.1</ele>
        <time>2021-08-18T16:18:36Z</time>
      </trkpt>
      <trkpt lat="47.31781" lon="5.97636">
        <ele>224</ele>
        <time>2021-08-18T16:18:39Z</time>
      </trkpt>
      <trkpt lat="47.31781" lon="5.97645">
        <ele>223.8</ele>
        <time>2021-08-18T16:18:43Z</time>
      </trkpt>
      <trkpt lat="47.31784" lon="5.97652">
        <ele>223.7</ele>
        <time>2021-08-18T16:18:47Z</time>
      </trkpt>
      <trkpt lat="47.31783" lon="5.9766">
        <ele>223.5</ele>
        <time>2021-08-18T16:18:51Z</time>
      </trkpt>
      <trkpt lat="47.31782" lon="5.97669">
        <ele>223.4</ele>
        <time>2021-08-18T16:18:55Z</time>
      </trkpt>
      <trkpt lat="47.31781" lon="5.97677">
        <ele>223.3</ele>
        <time>2021-08-18T16:18:59Z</time>
      </trkpt>
      <trkpt lat="47.3178" lon="5.97686">
        <ele>223.2</ele>
        <time>2021-08-18T16:19:03Z</time>
      </trkpt>
      <trkpt lat="47.31778" lon="5.97693">
        <ele>223.1</ele>
        <time>2021-08-18T16:19:07Z</time>
      </trkpt>
      <trkpt lat="47.31776" lon="5.977">
        <ele>223.1</ele>
        <time>2021-08-18T16:19:11Z</time>
      </trkpt>
      <trkpt lat="47.31774" lon="5.97708">
        <ele>223.1</ele>
        <time>2021-08-18T16:19:15Z</time>
      </trkpt>
      <trkpt lat="47.31774" lon="5.97716">
        <ele>223</ele>
        <time>2021-08-18T16:19:19Z</time>
      </trkpt>
      <trkpt lat="47.31773" lon="5.97723">
        <ele>223</ele>
        <time>2021-08-18T16:19:22Z</time>
      </trkpt>
      <trkpt lat="47.31772" lon="5.9773">
        <ele>223</ele>
        <time>2021-08-18T16:19:25Z</time>
      </trkpt>
      <trkpt lat="47.31771" lon="5.97737">
        <ele>223</ele>
        <time>2021-08-18T16:19:28Z</time>
      </trkpt>
      <trkpt lat="47.31769" lon="5.97745">
        <ele>223.1</ele>
        <time>2021-08-18T16:19:32Z</time>
      </trkpt>
      <trkpt lat="47.31767" lon="5.97753">
        <ele>223.1</ele>
        <time>2021-08-18T16:19:37Z</time>
      </trkpt>
      <trkpt lat="47.31766" lon="5.9776">
        <ele>222.9</ele>
        <time>2021-08-18T16:19:41Z</time>
      </trkpt>
      <trkpt lat="47.31765" lon="5.97769">
        <ele>222.6</ele>
        <time>2021-08-18T16:19:45Z</time>
      </trkpt>
      <trkpt lat="47.31764" lon="5.97775">
        <ele>222.5</ele>
        <time>2021-08-18T16:19:48Z</time>
      </trkpt>
      <trkpt lat="47.31764" lon="5.97784">
        <ele>222.2</ele>
        <time>2021-08-18T16:19:52Z</time>
      </trkpt>
      <trkpt lat="47.31763" lon="5.97791">
        <ele>222</ele>
        <time>2021-08-18T16:19:55Z</time>
      </trkpt>
      <trkpt lat="47.31761" lon="5.97799">
        <ele>221.8</ele>
        <time>2021-08-18T16:19:59Z</time>
      </trkpt>
      <trkpt lat="47.3176" lon="5.97806">
        <ele>221.6</ele>
        <time>2021-08-18T16:20:02Z</time>
      </trkpt>
      <trkpt lat="47.31759" lon="5.97812">
        <ele>221.4</ele>
        <time>2021-08-18T16:20:06Z</time>
      </trkpt>
      <trkpt lat="47.31757" lon="5.9782">
        <ele>221.2</ele>
        <time>2021-08-18T16:20:10Z</time>
      </trkpt>
      <trkpt lat="47.31754" lon="5.97828">
        <ele>221</ele>
        <time>2021-08-18T16:20:14Z</time>
      </trkpt>
      <trkpt lat="47.31752" lon="5.97835">
        <ele>220.9</ele>
        <time>2021-08-18T16:20:18Z</time>
      </trkpt>
      <trkpt lat="47.31751" lon="5.97843">
        <ele>221</ele>
        <time>2021-08-18T16:20:22Z</time>
      </trkpt>
      <trkpt lat="47.31751" lon="5.97851">
        <ele>221</ele>
        <time>2021-08-18T16:20:26Z</time>
      </trkpt>
      <trkpt lat="47.31751" lon="5.97858">
        <ele>221</ele>
        <time>2021-08-18T16:20:29Z</time>
      </trkpt>
      <trkpt lat="47.31751" lon="5.97866">
        <ele>221</ele>
        <time>2021-08-18T16:20:33Z</time>
      </trkpt>
      <trkpt lat="47.31751" lon="5.97875">
        <ele>221</ele>
        <time>2021-08-18T16:20:37Z</time>
      </trkpt>
      <trkpt lat="47.3175" lon="5.97883">
        <ele>221</ele>
        <time>2021-08-18T16:20:41Z</time>
      </trkpt>
      <trkpt lat="47.3175" lon="5.97891">
        <ele>221</ele>
        <time>2021-08-18T16:20:45Z</time>
      </trkpt>
      <trkpt lat="47.31751" lon="5.97899">
        <ele>221</ele>
        <time>2021-08-18T16:20:49Z</time>
      </trkpt>
      <trkpt lat="47.31753" lon="5.97906">
        <ele>220.9</ele>
        <time>2021-08-18T16:20:52Z</time>
      </trkpt>
      <trkpt lat="47.31755" lon="5.97913">
        <ele>220.8</ele>
        <time>2021-08-18T16:20:55Z</time>
      </trkpt>
      <trkpt lat="47.31758" lon="5.97918">
        <ele>220.6</ele>
        <time>2021-08-18T16:20:58Z</time>
      </trkpt>
      <trkpt lat="47.3176" lon="5.97926">
        <ele>220.3</ele>
        <time>2021-08-18T16:21:02Z</time>
      </trkpt>
      <trkpt lat="47.31763" lon="5.97934">
        <ele>220</ele>
        <time>2021-08-18T16:21:06Z</time>
      </trkpt>
      <trkpt lat="47.31765" lon="5.97941">
        <ele>219.8</ele>
        <time>2021-08-18T16:21:10Z</time>
      </trkpt>
      <trkpt lat="47.31767" lon="5.97949">
        <ele>219.6</ele>
        <time>2021-08-18T16:21:14Z</time>
      </trkpt>
      <trkpt lat="47.3177" lon="5.97957">
        <ele>219.3</ele>
        <time>2021-08-18T16:21:18Z</time>
      </trkpt>
      <trkpt lat="47.31771" lon="5.97963">
        <ele>219.2</ele>
        <time>2021-08-18T16:21:21Z</time>
      </trkpt>
      <trkpt lat="47.31773" lon="5.9797">
        <ele>219</ele>
        <time>2021-08-18T16:21:24Z</time>
      </trkpt>
      <trkpt lat="47.31775" lon="5.97978">
        <ele>218.8</ele>
        <time>2021-08-18T16:21:28Z</time>
      </trkpt>
      <trkpt lat="47.31776" lon="5.97986">
        <ele>218.6</ele>
        <time>2021-08-18T16:21:32Z</time>
      </trkpt>
      <trkpt lat="47.31778" lon="5.97992">
        <ele>218.5</ele>
        <time>2021-08-18T16:21:35Z</time>
      </trkpt>
      <trkpt lat="47.3178" lon="5.98">
        <ele>218.3</ele>
        <time>2021-08-18T16:21:39Z</time>
      </trkpt>
      <trkpt lat="47.3178" lon="5.98008">
        <ele>218.3</ele>
        <time>2021-08-18T16:21:43Z</time>
      </trkpt>
      <trkpt lat="47.31781" lon="5.98017">
        <ele>218.2</ele>
        <time>2021-08-18T16:21:47Z</time>
      </trkpt>
      <trkpt lat="47.31782" lon="5.98023">
        <ele>218.2</ele>
        <time>2021-08-18T16:21:50Z</time>
      </trkpt>
      <trkpt lat="47.31782" lon="5.98031">
        <ele>218.2</ele>
        <time>2021-08-18T16:21:54Z</time>
      </trkpt>
      <trkpt lat="47.31782" lon="5.98039">
        <ele>218.2</ele>
        <time>2021-08-18T16:21:58Z</time>
      </trkpt>
      <trkpt lat="47.31782" lon="5.98048">
        <ele>218.2</ele>
        <time>2021-08-18T16:22:02Z</time>
      </trkpt>
      <trkpt lat="47.31781" lon="5.98054">
        <ele>218.2</ele>
        <time>2021-08-18T16:22:05Z</time>
      </trkpt>
      <trkpt lat="47.31779" lon="5.98061">
        <ele>218.1</ele>
        <time>2021-08-18T16:22:08Z</time>
      </trkpt>
      <trkpt lat="47.31778" lon="5.98068">
        <ele>218.1</ele>
        <time>2021-08-18T16:22:11Z</time>
      </trkpt>
      <trkpt lat="47.31776" lon="5.98074">
        <ele>218</ele>
        <time>2021-08-18T16:22:14Z</time>
      </trkpt>
      <trkpt lat="47.31775" lon="5.98081">
        <ele>217.9</ele>
        <time>2021-08-18T16:22:17Z</time>
      </trkpt>
      <trkpt lat="47.31774" lon="5.98088">
        <ele>218</ele>
        <time>2021-08-18T16:22:20Z</time>
      </trkpt>
      <trkpt lat="47.31772" lon="5.98095">
        <ele>218.1</ele>
        <time>2021-08-18T16:22:24Z</time>
      </trkpt>
      <trkpt lat="47.31768" lon="5.98103">
        <ele>218.1</ele>
        <time>2021-08-18T16:22:28Z</time>
      </trkpt>
      <trkpt lat="47.31766" lon="5.98108">
        <ele>218.2</ele>
        <time>2021-08-18T16:22:31Z</time>
      </trkpt>
      <trkpt lat="47.31765" lon="5.98115">
        <ele>218.3</ele>
        <time>2021-08-18T16:22:34Z</time>
      </trkpt>
      <trkpt lat="47.31763" lon="5.98123">
        <ele>218.4</ele>
        <time>2021-08-18T16:22:38Z</time>
      </trkpt>
      <trkpt lat="47.31762" lon="5.9813">
        <ele>218.6</ele>
        <time>2021-08-18T16:22:41Z</time>
      </trkpt>
      <trkpt lat="47.31761" lon="5.98136">
        <ele>218.7</ele>
        <time>2021-08-18T16:22:44Z</time>
      </trkpt>
      <trkpt lat="47.3176" lon="5.98144">
        <ele>218.8</ele>
        <time>2021-08-18T16:22:48Z</time>
      </trkpt>
      <trkpt lat="47.3176" lon="5.98152">
        <ele>219</ele>
        <time>2021-08-18T16:22:52Z</time>
      </trkpt>
      <trkpt lat="47.31758" lon="5.9816">
        <ele>219.1</ele>
        <time>2021-08-18T16:22:56Z</time>
      </trkpt>
      <trkpt lat="47.31754" lon="5.98166">
        <ele>219.1</ele>
        <time>2021-08-18T16:22:59Z</time>
      </trkpt>
      <trkpt lat="47.31749" lon="5.98171">
        <ele>219.1</ele>
        <time>2021-08-18T16:23:02Z</time>
      </trkpt>
      <trkpt lat="47.31748" lon="5.98178">
        <ele>219.2</ele>
        <time>2021-08-18T16:23:05Z</time>
      </trkpt>
      <trkpt lat="47.31747" lon="5.98185">
        <ele>219.4</ele>
        <time>2021-08-18T16:23:08Z</time>
      </trkpt>
      <trkpt lat="47.31747" lon="5.98193">
        <ele>219.6</ele>
        <time>2021-08-18T16:23:12Z</time>
      </trkpt>
      <trkpt lat="47.31745" lon="5.98199">
        <ele>219.7</ele>
        <time>2021-08-18T16:23:15Z</time>
      </trkpt>
      <trkpt lat="47.31744" lon="5.98207">
        <ele>219.9</ele>
        <time>2021-08-18T16:23:19Z</time>
      </trkpt>
      <trkpt lat="47.31744" lon="5.98215">
        <ele>220</ele>
        <time>2021-08-18T16:23:23Z</time>
      </trkpt>
      <trkpt lat="47.31744" lon="5.98223">
        <ele>220.2</ele>
        <time>2021-08-18T16:23:27Z</time>
      </trkpt>
      <trkpt lat="47.31743" lon="5.98231">
        <ele>220.4</ele>
        <time>2021-08-18T16:23:31Z</time>
      </trkpt>
      <trkpt lat="47.31741" lon="5.98238">
        <ele>220.5</ele>
        <time>2021-08-18T16:23:35Z</time>
      </trkpt>
      <trkpt lat="47.31739" lon="5.98246">
        <ele>220.6</ele>
        <time>2021-08-18T16:23:39Z</time>
      </trkpt>
      <trkpt lat="47.31739" lon="5.98253">
        <ele>220.8</ele>
        <time>2021-08-18T16:23:42Z</time>
      </trkpt>
      <trkpt lat="47.31739" lon="5.98261">
        <ele>221</ele>
        <time>2021-08-18T16:23:46Z</time>
      </trkpt>
      <trkpt lat="47.31741" lon="5.98268">
        <ele>221.2</ele>
        <time>2021-08-18T16:23:49Z</time>
      </trkpt>
      <trkpt lat="47.31742" lon="5.98276">
        <ele>221.5</ele>
        <time>2021-08-18T16:23:53Z</time>
      </trkpt>
      <trkpt lat="47.31744" lon="5.98284">
        <ele>221.7</ele>
        <time>2021-08-18T16:23:57Z</time>
      </trkpt>
      <trkpt lat="47.31745" lon="5.98292">
        <ele>221.9</ele>
        <time>2021-08-18T16:24:01Z</time>
      </trkpt>
      <trkpt lat="47.31747" lon="5.983">
        <ele>222.1</ele>
        <time>2021-08-18T16:24:05Z</time>
      </trkpt>
      <trkpt lat="47.31749" lon="5.98308">
        <ele>222.4</ele>
        <time>2021-08-18T16:24:09Z</time>
      </trkpt>
      <trkpt lat="47.31751" lon="5.98315">
        <ele>222.6</ele>
        <time>2021-08-18T16:24:13Z</time>
      </trkpt>
      <trkpt lat="47.31754" lon="5.98322">
        <ele>222.9</ele>
        <time>2021-08-18T16:24:17Z</time>
      </trkpt>
      <trkpt lat="47.31757" lon="5.9833">
        <ele>223.2</ele>
        <time>2021-08-18T16:24:21Z</time>
      </trkpt>
      <trkpt lat="47.3176" lon="5.98337">
        <ele>223.4</ele>
        <time>2021-08-18T16:24:25Z</time>
      </trkpt>
      <trkpt lat="47.31763" lon="5.98344">
        <ele>223.6</ele>
        <time>2021-08-18T16:24:29Z</time>
      </trkpt>
      <trkpt lat="47.31765" lon="5.98351">
        <ele>223.7</ele>
        <time>2021-08-18T16:24:33Z</time>
      </trkpt>
      <trkpt lat="47.31768" lon="5.98358">
        <ele>223.8</ele>
        <time>2021-08-18T16:24:37Z</time>
      </trkpt>
      <trkpt lat="47.3177" lon="5.98366">
        <ele>223.9</ele>
        <time>2021-08-18T16:24:41Z</time>
      </trkpt>
      <trkpt lat="47.31773" lon="5.98374">
        <ele>224</ele>
        <time>2021-08-18T16:24:45Z</time>
      </trkpt>
      <trkpt lat="47.31776" lon="5.98381">
        <ele>224.2</ele>
        <time>2021-08-18T16:24:49Z</time>
      </trkpt>
      <trkpt lat="47.31779" lon="5.98388">
        <ele>224.2</ele>
        <time>2021-08-18T16:24:53Z</time>
      </trkpt>
      <trkpt lat="47.3178" lon="5.98395">
        <ele>224.3</ele>
        <time>2021-08-18T16:24:56Z</time>
      </trkpt>
      <trkpt lat="47.31783" lon="5.98402">
        <ele>224.4</ele>
        <time>2021-08-18T16:25:00Z</time>
      </trkpt>
      <trkpt lat="47.31785" lon="5.9841">
        <ele>224.4</ele>
        <time>2021-08-18T16:25:04Z</time>
      </trkpt>
      <trkpt lat="47.31788" lon="5.98418">
        <ele>224.5</ele>
        <time>2021-08-18T16:25:08Z</time>
      </trkpt>
      <trkpt lat="47.3179" lon="5.98425">
        <ele>224.8</ele>
        <time>2021-08-18T16:25:12Z</time>
      </trkpt>
      <trkpt lat="47.31793" lon="5.98433">
        <ele>225.2</ele>
        <time>2021-08-18T16:25:16Z</time>
      </trkpt>
      <trkpt lat="47.31795" lon="5.98439">
        <ele>225.5</ele>
        <time>2021-08-18T16:25:19Z</time>
      </trkpt>
      <trkpt lat="47.31798" lon="5.98447">
        <ele>225.8</ele>
        <time>2021-08-18T16:25:23Z</time>
      </trkpt>
      <trkpt lat="47.31799" lon="5.98455">
        <ele>226.2</ele>
        <time>2021-08-18T16:25:27Z</time>
      </trkpt>
      <trkpt lat="47.31804" lon="5.9847">
        <ele>226.8</ele>
        <time>2021-08-18T16:25:35Z</time>
      </trkpt>
      <trkpt lat="47.31811" lon="5.98483">
        <ele>227.3</ele>
        <time>2021-08-18T16:25:43Z</time>
      </trkpt>
      <trkpt lat="47.31818" lon="5.98497">
        <ele>227.9</ele>
        <time>2021-08-18T16:25:51Z</time>
      </trkpt>
      <trkpt lat="47.31825" lon="5.9851">
        <ele>227.8</ele>
        <time>2021-08-18T16:25:59Z</time>
      </trkpt>
      <trkpt lat="47.31831" lon="5.9852">
        <ele>227.5</ele>
        <time>2021-08-18T16:26:05Z</time>
      </trkpt>
      <trkpt lat="47.31839" lon="5.98532">
        <ele>227.6</ele>
        <time>2021-08-18T16:26:13Z</time>
      </trkpt>
      <trkpt lat="47.31847" lon="5.98545">
        <ele>227.8</ele>
        <time>2021-08-18T16:26:21Z</time>
      </trkpt>
      <trkpt lat="47.31854" lon="5.98557">
        <ele>227.9</ele>
        <time>2021-08-18T16:26:29Z</time>
      </trkpt>
      <trkpt lat="47.31862" lon="5.98569">
        <ele>227.9</ele>
        <time>2021-08-18T16:26:37Z</time>
      </trkpt>
      <trkpt lat="47.31871" lon="5.9858">
        <ele>227.9</ele>
        <time>2021-08-18T16:26:45Z</time>
      </trkpt>
      <trkpt lat="47.31878" lon="5.98592">
        <ele>227.9</ele>
        <time>2021-08-18T16:26:53Z</time>
      </trkpt>
      <trkpt lat="47.31886" lon="5.98605">
        <ele>228</ele>
        <time>2021-08-18T16:27:01Z</time>
      </trkpt>
      <trkpt lat="47.31893" lon="5.98618">
        <ele>228</ele>
        <time>2021-08-18T16:27:09Z</time>
      </trkpt>
      <trkpt lat="47.31899" lon="5.98631">
        <ele>228</ele>
        <time>2021-08-18T16:27:16Z</time>
      </trkpt>
      <trkpt lat="47.31905" lon="5.98645">
        <ele>228</ele>
        <time>2021-08-18T16:27:24Z</time>
      </trkpt>
      <trkpt lat="47.31909" lon="5.98661">
        <ele>227.8</ele>
        <time>2021-08-18T16:27:32Z</time>
      </trkpt>
      <trkpt lat="47.31913" lon="5.98672">
        <ele>227.8</ele>
        <time>2021-08-18T16:27:38Z</time>
      </trkpt>
      <trkpt lat="47.3192" lon="5.98686">
        <ele>228.2</ele>
        <time>2021-08-18T16:27:46Z</time>
      </trkpt>
      <trkpt lat="47.31924" lon="5.987">
        <ele>228.4</ele>
        <time>2021-08-18T16:27:53Z</time>
      </trkpt>
      <trkpt lat="47.3193" lon="5.98714">
        <ele>228.8</ele>
        <time>2021-08-18T16:28:01Z</time>
      </trkpt>
      <trkpt lat="47.31935" lon="5.98727">
        <ele>229.1</ele>
        <time>2021-08-18T16:28:09Z</time>
      </trkpt>
      <trkpt lat="47.31941" lon="5.9874">
        <ele>229.5</ele>
        <time>2021-08-18T16:28:17Z</time>
      </trkpt>
      <trkpt lat="47.31945" lon="5.98755">
        <ele>229.8</ele>
        <time>2021-08-18T16:28:25Z</time>
      </trkpt>
      <trkpt lat="47.31952" lon="5.98768">
        <ele>230.4</ele>
        <time>2021-08-18T16:28:33Z</time>
      </trkpt>
      <trkpt lat="47.31958" lon="5.98781">
        <ele>230.9</ele>
        <time>2021-08-18T16:28:40Z</time>
      </trkpt>
      <trkpt lat="47.31961" lon="5.98793">
        <ele>231.1</ele>
        <time>2021-08-18T16:28:46Z</time>
      </trkpt>
      <trkpt lat="47.31967" lon="5.98808">
        <ele>231.6</ele>
        <time>2021-08-18T16:28:54Z</time>
      </trkpt>
      <trkpt lat="47.31972" lon="5.98821">
        <ele>231.9</ele>
        <time>2021-08-18T16:29:01Z</time>
      </trkpt>
      <trkpt lat="47.31977" lon="5.98835">
        <ele>232.2</ele>
        <time>2021-08-18T16:29:09Z</time>
      </trkpt>
      <trkpt lat="47.31984" lon="5.98849">
        <ele>232.3</ele>
        <time>2021-08-18T16:29:17Z</time>
      </trkpt>
      <trkpt lat="47.31988" lon="5.98863">
        <ele>232.3</ele>
        <time>2021-08-18T16:29:25Z</time>
      </trkpt>
      <trkpt lat="47.31994" lon="5.98875">
        <ele>232.4</ele>
        <time>2021-08-18T16:29:32Z</time>
      </trkpt>
      <trkpt lat="47.31998" lon="5.98889">
        <ele>232.3</ele>
        <time>2021-08-18T16:29:39Z</time>
      </trkpt>
      <trkpt lat="47.32005" lon="5.98903">
        <ele>232.4</ele>
        <time>2021-08-18T16:29:47Z</time>
      </trkpt>
      <trkpt lat="47.3201" lon="5.98917">
        <ele>232.5</ele>
        <time>2021-08-18T16:29:55Z</time>
      </trkpt>
      <trkpt lat="47.32016" lon="5.98931">
        <ele>232.9</ele>
        <time>2021-08-18T16:30:03Z</time>
      </trkpt>
      <trkpt lat="47.32022" lon="5.98945">
        <ele>233.3</ele>
        <time>2021-08-18T16:30:11Z</time>
      </trkpt>
      <trkpt lat="47.32027" lon="5.9896">
        <ele>233.6</ele>
        <time>2021-08-18T16:30:19Z</time>
      </trkpt>
      <trkpt lat="47.32033" lon="5.98974">
        <ele>234</ele>
        <time>2021-08-18T16:30:27Z</time>
      </trkpt>
      <trkpt lat="47.32038" lon="5.98988">
        <ele>234.3</ele>
        <time>2021-08-18T16:30:35Z</time>
      </trkpt>
      <trkpt lat="47.32044" lon="5.99001">
        <ele>234.6</ele>
        <time>2021-08-18T16:30:43Z</time>
      </trkpt>
      <trkpt lat="47.32047" lon="5.99014">
        <ele>234.6</ele>
        <time>2021-08-18T16:30:49Z</time>
      </trkpt>
      <trkpt lat="47.32054" lon="5.99025">
        <ele>234.8</ele>
        <time>2021-08-18T16:30:56Z</time>
      </trkpt>
      <trkpt lat="47.32058" lon="5.99041">
        <ele>234.7</ele>
        <time>2021-08-18T16:31:04Z</time>
      </trkpt>
      <trkpt lat="47.32064" lon="5.99056">
        <ele>234.6</ele>
        <time>2021-08-18T16:31:12Z</time>
      </trkpt>
      <trkpt lat="47.32069" lon="5.99069">
        <ele>234.4</ele>
        <time>2021-08-18T16:31:20Z</time>
      </trkpt>
      <trkpt lat="47.32074" lon="5.99084">
        <ele>234.1</ele>
        <time>2021-08-18T16:31:27Z</time>
      </trkpt>
      <trkpt lat="47.32078" lon="5.99096">
        <ele>233.5</ele>
        <time>2021-08-18T16:31:33Z</time>
      </trkpt>
      <trkpt lat="47.32084" lon="5.99109">
        <ele>232.8</ele>
        <time>2021-08-18T16:31:40Z</time>
      </trkpt>
      <trkpt lat="47.32089" lon="5.9912">
        <ele>232.3</ele>
        <time>2021-08-18T16:31:46Z</time>
      </trkpt>
      <trkpt lat="47.32093" lon="5.99132">
        <ele>231.7</ele>
        <time>2021-08-18T16:31:52Z</time>
      </trkpt>
      <trkpt lat="47.32094" lon="5.99146">
        <ele>231</ele>
        <time>2021-08-18T16:31:58Z</time>
      </trkpt>
      <trkpt lat="47.32099" lon="5.9916">
        <ele>230.3</ele>
        <time>2021-08-18T16:32:05Z</time>
      </trkpt>
      <trkpt lat="47.32107" lon="5.99172">
        <ele>229.8</ele>
        <time>2021-08-18T16:32:13Z</time>
      </trkpt>
      <trkpt lat="47.32113" lon="5.99186">
        <ele>229.4</ele>
        <time>2021-08-18T16:32:21Z</time>
      </trkpt>
      <trkpt lat="47.32118" lon="5.992">
        <ele>228.9</ele>
        <time>2021-08-18T16:32:29Z</time>
      </trkpt>
      <trkpt lat="47.32123" lon="5.99213">
        <ele>228.4</ele>
        <time>2021-08-18T16:32:37Z</time>
      </trkpt>
      <trkpt lat="47.3213" lon="5.99225">
        <ele>227.8</ele>
        <time>2021-08-18T16:32:45Z</time>
      </trkpt>
      <trkpt lat="47.32135" lon="5.99237">
        <ele>227.3</ele>
        <time>2021-08-18T16:32:51Z</time>
      </trkpt>
      <trkpt lat="47.3214" lon="5.99251">
        <ele>226.6</ele>
        <time>2021-08-18T16:32:59Z</time>
      </trkpt>
      <trkpt lat="47.32145" lon="5.99264">
        <ele>226.4</ele>
        <time>2021-08-18T16:33:06Z</time>
      </trkpt>
      <trkpt lat="47.32151" lon="5.99278">
        <ele>226.1</ele>
        <time>2021-08-18T16:33:14Z</time>
      </trkpt>
      <trkpt lat="47.32155" lon="5.99293">
        <ele>225.8</ele>
        <time>2021-08-18T16:33:22Z</time>
      </trkpt>
      <trkpt lat="47.32162" lon="5.99308">
        <ele>225.5</ele>
        <time>2021-08-18T16:33:30Z</time>
      </trkpt>
      <trkpt lat="47.32169" lon="5.99322">
        <ele>225.1</ele>
        <time>2021-08-18T16:33:38Z</time>
      </trkpt>
      <trkpt lat="47.32173" lon="5.99334">
        <ele>225</ele>
        <time>2021-08-18T16:33:44Z</time>
      </trkpt>
      <trkpt lat="47.32177" lon="5.99347">
        <ele>225.3</ele>
        <time>2021-08-18T16:33:50Z</time>
      </trkpt>
      <trkpt lat="47.32184" lon="5.99361">
        <ele>225.7</ele>
        <time>2021-08-18T16:33:58Z</time>
      </trkpt>
      <trkpt lat="47.32189" lon="5.99376">
        <ele>226</ele>
        <time>2021-08-18T16:34:06Z</time>
      </trkpt>
      <trkpt lat="47.32194" lon="5.99391">
        <ele>226.4</ele>
        <time>2021-08-18T16:34:14Z</time>
      </trkpt>
      <trkpt lat="47.32201" lon="5.99405">
        <ele>226.7</ele>
        <time>2021-08-18T16:34:22Z</time>
      </trkpt>
      <trkpt lat="47.32206" lon="5.99419">
        <ele>227.1</ele>
        <time>2021-08-18T16:34:30Z</time>
      </trkpt>
      <trkpt lat="47.32212" lon="5.99432">
        <ele>227.5</ele>
        <time>2021-08-18T16:34:37Z</time>
      </trkpt>
      <trkpt lat="47.32217" lon="5.99447">
        <ele>227.9</ele>
        <time>2021-08-18T16:34:45Z</time>
      </trkpt>
      <trkpt lat="47.32222" lon="5.99461">
        <ele>228.2</ele>
        <time>2021-08-18T16:34:52Z</time>
      </trkpt>
      <trkpt lat="47.32228" lon="5.99475">
        <ele>228.6</ele>
        <time>2021-08-18T16:34:58Z</time>
      </trkpt>
      <trkpt lat="47.32233" lon="5.99488">
        <ele>228.9</ele>
        <time>2021-08-18T16:35:05Z</time>
      </trkpt>
      <trkpt lat="47.32236" lon="5.99502">
        <ele>229.1</ele>
        <time>2021-08-18T16:35:12Z</time>
      </trkpt>
      <trkpt lat="47.32242" lon="5.99515">
        <ele>228.9</ele>
        <time>2021-08-18T16:35:20Z</time>
      </trkpt>
      <trkpt lat="47.32245" lon="5.99522">
        <ele>228.8</ele>
        <time>2021-08-18T16:35:24Z</time>
      </trkpt>
      <trkpt lat="47.32248" lon="5.99528">
        <ele>228.7</ele>
        <time>2021-08-18T16:35:28Z</time>
      </trkpt>
      <trkpt lat="47.3225" lon="5.99535">
        <ele>228.6</ele>
        <time>2021-08-18T16:35:32Z</time>
      </trkpt>
      <trkpt lat="47.32254" lon="5.99542">
        <ele>228.7</ele>
        <time>2021-08-18T16:35:36Z</time>
      </trkpt>
      <trkpt lat="47.32256" lon="5.99549">
        <ele>228.7</ele>
        <time>2021-08-18T16:35:40Z</time>
      </trkpt>
      <trkpt lat="47.32257" lon="5.99555">
        <ele>228.7</ele>
        <time>2021-08-18T16:35:44Z</time>
      </trkpt>
      <trkpt lat="47.32259" lon="5.99562">
        <ele>228.7</ele>
        <time>2021-08-18T16:35:49Z</time>
      </trkpt>
      <trkpt lat="47.32263" lon="5.99561">
        <ele>229</ele>
        <time>2021-08-18T16:35:56Z</time>
      </trkpt>
      <trkpt lat="47.3226" lon="5.99566">
        <ele>228.8</ele>
        <time>2021-08-18T16:36:01Z</time>
      </trkpt>
      <trkpt lat="47.32257" lon="5.99572">
        <ele>228.5</ele>
        <time>2021-08-18T16:36:03Z</time>
      </trkpt>
      <trkpt lat="47.32257" lon="5.99582">
        <ele>228.4</ele>
        <time>2021-08-18T16:36:05Z</time>
      </trkpt>
      <trkpt lat="47.3226" lon="5.99588">
        <ele>228.5</ele>
        <time>2021-08-18T16:36:07Z</time>
      </trkpt>
      <trkpt lat="47.32264" lon="5.99593">
        <ele>228.7</ele>
        <time>2021-08-18T16:36:10Z</time>
      </trkpt>
      <trkpt lat="47.3227" lon="5.996">
        <ele>228.9</ele>
        <time>2021-08-18T16:36:12Z</time>
      </trkpt>
      <trkpt lat="47.32273" lon="5.99603">
        <ele>229</ele>
        <time>2021-08-18T16:36:14Z</time>
      </trkpt>
      <trkpt lat="47.32277" lon="5.99608">
        <ele>229.1</ele>
        <time>2021-08-18T16:36:16Z</time>
      </trkpt>
      <trkpt lat="47.32281" lon="5.99615">
        <ele>229.2</ele>
        <time>2021-08-18T16:36:19Z</time>
      </trkpt>
      <trkpt lat="47.32285" lon="5.99623">
        <ele>229.2</ele>
        <time>2021-08-18T16:36:22Z</time>
      </trkpt>
      <trkpt lat="47.32287" lon="5.9963">
        <ele>229.2</ele>
        <time>2021-08-18T16:36:25Z</time>
      </trkpt>
      <trkpt lat="47.3229" lon="5.99637">
        <ele>229.1</ele>
        <time>2021-08-18T16:36:28Z</time>
      </trkpt>
      <trkpt lat="47.32291" lon="5.99643">
        <ele>229</ele>
        <time>2021-08-18T16:36:31Z</time>
      </trkpt>
      <trkpt lat="47.32294" lon="5.9965">
        <ele>229</ele>
        <time>2021-08-18T16:36:34Z</time>
      </trkpt>
      <trkpt lat="47.32296" lon="5.99656">
        <ele>228.9</ele>
        <time>2021-08-18T16:36:37Z</time>
      </trkpt>
      <trkpt lat="47.32299" lon="5.99663">
        <ele>228.9</ele>
        <time>2021-08-18T16:36:41Z</time>
      </trkpt>
      <trkpt lat="47.32303" lon="5.99671">
        <ele>228.9</ele>
        <time>2021-08-18T16:36:45Z</time>
      </trkpt>
      <trkpt lat="47.32304" lon="5.99677">
        <ele>228.9</ele>
        <time>2021-08-18T16:36:48Z</time>
      </trkpt>
      <trkpt lat="47.32306" lon="5.99684">
        <ele>228.9</ele>
        <time>2021-08-18T16:36:52Z</time>
      </trkpt>
      <trkpt lat="47.32307" lon="5.99692">
        <ele>229</ele>
        <time>2021-08-18T16:36:56Z</time>
      </trkpt>
      <trkpt lat="47.3231" lon="5.99698">
        <ele>229.1</ele>
        <time>2021-08-18T16:37:00Z</time>
      </trkpt>
      <trkpt lat="47.32312" lon="5.99706">
        <ele>229.1</ele>
        <time>2021-08-18T16:37:04Z</time>
      </trkpt>
      <trkpt lat="47.32314" lon="5.99713">
        <ele>229.2</ele>
        <time>2021-08-18T16:37:08Z</time>
      </trkpt>
      <trkpt lat="47.32317" lon="5.99721">
        <ele>229.3</ele>
        <time>2021-08-18T16:37:12Z</time>
      </trkpt>
      <trkpt lat="47.3232" lon="5.99727">
        <ele>229.4</ele>
        <time>2021-08-18T16:37:16Z</time>
      </trkpt>
      <trkpt lat="47.32322" lon="5.99732">
        <ele>229.5</ele>
        <time>2021-08-18T16:37:19Z</time>
      </trkpt>
      <trkpt lat="47.32325" lon="5.9974">
        <ele>229.6</ele>
        <time>2021-08-18T16:37:23Z</time>
      </trkpt>
      <trkpt lat="47.32328" lon="5.99747">
        <ele>229.7</ele>
        <time>2021-08-18T16:37:27Z</time>
      </trkpt>
      <trkpt lat="47.3233" lon="5.99753">
        <ele>229.9</ele>
        <time>2021-08-18T16:37:31Z</time>
      </trkpt>
      <trkpt lat="47.32333" lon="5.99761">
        <ele>230.1</ele>
        <time>2021-08-18T16:37:35Z</time>
      </trkpt>
      <trkpt lat="47.32336" lon="5.99766">
        <ele>230.6</ele>
        <time>2021-08-18T16:37:38Z</time>
      </trkpt>
      <trkpt lat="47.32339" lon="5.99771">
        <ele>231.2</ele>
        <time>2021-08-18T16:37:41Z</time>
      </trkpt>
      <trkpt lat="47.32341" lon="5.99777">
        <ele>231.6</ele>
        <time>2021-08-18T16:37:44Z</time>
      </trkpt>
      <trkpt lat="47.32344" lon="5.99783">
        <ele>232.1</ele>
        <time>2021-08-18T16:37:47Z</time>
      </trkpt>
      <trkpt lat="47.32346" lon="5.9979">
        <ele>232.5</ele>
        <time>2021-08-18T16:37:51Z</time>
      </trkpt>
      <trkpt lat="47.32349" lon="5.99797">
        <ele>233.1</ele>
        <time>2021-08-18T16:37:55Z</time>
      </trkpt>
      <trkpt lat="47.32351" lon="5.99804">
        <ele>233.5</ele>
        <time>2021-08-18T16:37:59Z</time>
      </trkpt>
      <trkpt lat="47.32353" lon="5.99811">
        <ele>233.9</ele>
        <time>2021-08-18T16:38:03Z</time>
      </trkpt>
      <trkpt lat="47.32356" lon="5.99817">
        <ele>234.4</ele>
        <time>2021-08-18T16:38:07Z</time>
      </trkpt>
      <trkpt lat="47.32359" lon="5.99823">
        <ele>234.9</ele>
        <time>2021-08-18T16:38:11Z</time>
      </trkpt>
      <trkpt lat="47.32362" lon="5.99829">
        <ele>235.4</ele>
        <time>2021-08-18T16:38:15Z</time>
      </trkpt>
      <trkpt lat="47.32365" lon="5.99836">
        <ele>235.9</ele>
        <time>2021-08-18T16:38:20Z</time>
      </trkpt>
      <trkpt lat="47.32369" lon="5.99842">
        <ele>236.5</ele>
        <time>2021-08-18T16:38:24Z</time>
      </trkpt>
      <trkpt lat="47.32372" lon="5.99849">
        <ele>237</ele>
        <time>2021-08-18T16:38:28Z</time>
      </trkpt>
      <trkpt lat="47.32374" lon="5.99857">
        <ele>237.2</ele>
        <time>2021-08-18T16:38:32Z</time>
      </trkpt>
      <trkpt lat="47.32377" lon="5.99863">
        <ele>237.6</ele>
        <time>2021-08-18T16:38:36Z</time>
      </trkpt>
      <trkpt lat="47.3238" lon="5.9987">
        <ele>237.9</ele>
        <time>2021-08-18T16:38:40Z</time>
      </trkpt>
      <trkpt lat="47.32384" lon="5.99877">
        <ele>238.4</ele>
        <time>2021-08-18T16:38:44Z</time>
      </trkpt>
      <trkpt lat="47.32386" lon="5.99884">
        <ele>238.5</ele>
        <time>2021-08-18T16:38:47Z</time>
      </trkpt>
      <trkpt lat="47.32388" lon="5.99891">
        <ele>238.6</ele>
        <time>2021-08-18T16:38:50Z</time>
      </trkpt>
      <trkpt lat="47.3239" lon="5.99897">
        <ele>238.8</ele>
        <time>2021-08-18T16:38:53Z</time>
      </trkpt>
      <trkpt lat="47.32393" lon="5.99904">
        <ele>239</ele>
        <time>2021-08-18T16:38:57Z</time>
      </trkpt>
      <trkpt lat="47.32396" lon="5.9991">
        <ele>239.2</ele>
        <time>2021-08-18T16:39:01Z</time>
      </trkpt>
      <trkpt lat="47.32399" lon="5.99917">
        <ele>239.3</ele>
        <time>2021-08-18T16:39:05Z</time>
      </trkpt>
      <trkpt lat="47.32401" lon="5.99923">
        <ele>239.2</ele>
        <time>2021-08-18T16:39:09Z</time>
      </trkpt>
      <trkpt lat="47.32404" lon="5.9993">
        <ele>239.1</ele>
        <time>2021-08-18T16:39:13Z</time>
      </trkpt>
      <trkpt lat="47.32407" lon="5.99936">
        <ele>239.1</ele>
        <time>2021-08-18T16:39:17Z</time>
      </trkpt>
      <trkpt lat="47.3241" lon="5.99943">
        <ele>238.9</ele>
        <time>2021-08-18T16:39:21Z</time>
      </trkpt>
      <trkpt lat="47.32411" lon="5.99949">
        <ele>238.7</ele>
        <time>2021-08-18T16:39:24Z</time>
      </trkpt>
      <trkpt lat="47.32415" lon="5.99956">
        <ele>238.5</ele>
        <time>2021-08-18T16:39:28Z</time>
      </trkpt>
      <trkpt lat="47.32416" lon="5.99962">
        <ele>238.2</ele>
        <time>2021-08-18T16:39:31Z</time>
      </trkpt>
      <trkpt lat="47.32418" lon="5.9997">
        <ele>237.9</ele>
        <time>2021-08-18T16:39:35Z</time>
      </trkpt>
      <trkpt lat="47.32422" lon="5.99975">
        <ele>238.1</ele>
        <time>2021-08-18T16:39:39Z</time>
      </trkpt>
      <trkpt lat="47.32425" lon="5.99982">
        <ele>238</ele>
        <time>2021-08-18T16:39:43Z</time>
      </trkpt>
      <trkpt lat="47.32427" lon="5.99989">
        <ele>237.8</ele>
        <time>2021-08-18T16:39:47Z</time>
      </trkpt>
      <trkpt lat="47.32429" lon="5.99995">
        <ele>237.6</ele>
        <time>2021-08-18T16:39:50Z</time>
      </trkpt>
      <trkpt lat="47.32432" lon="6.00002">
        <ele>237.6</ele>
        <time>2021-08-18T16:39:54Z</time>
      </trkpt>
      <trkpt lat="47.32435" lon="6.00009">
        <ele>237.6</ele>
        <time>2021-08-18T16:39:58Z</time>
      </trkpt>
      <trkpt lat="47.32438" lon="6.00017">
        <ele>237.6</ele>
        <time>2021-08-18T16:40:02Z</time>
      </trkpt>
      <trkpt lat="47.3244" lon="6.00023">
        <ele>237.6</ele>
        <time>2021-08-18T16:40:05Z</time>
      </trkpt>
      <trkpt lat="47.32443" lon="6.00029">
        <ele>237.7</ele>
        <time>2021-08-18T16:40:08Z</time>
      </trkpt>
      <trkpt lat="47.32445" lon="6.00034">
        <ele>237.7</ele>
        <time>2021-08-18T16:40:11Z</time>
      </trkpt>
      <trkpt lat="47.32448" lon="6.00041">
        <ele>237.7</ele>
        <time>2021-08-18T16:40:15Z</time>
      </trkpt>
      <trkpt lat="47.32449" lon="6.00047">
        <ele>237.6</ele>
        <time>2021-08-18T16:40:19Z</time>
      </trkpt>
      <trkpt lat="47.32453" lon="6.00053">
        <ele>237.7</ele>
        <time>2021-08-18T16:40:23Z</time>
      </trkpt>
      <trkpt lat="47.32456" lon="6.0006">
        <ele>237.7</ele>
        <time>2021-08-18T16:40:27Z</time>
      </trkpt>
      <trkpt lat="47.32458" lon="6.00066">
        <ele>237.7</ele>
        <time>2021-08-18T16:40:30Z</time>
      </trkpt>
      <trkpt lat="47.32461" lon="6.00073">
        <ele>237.7</ele>
        <time>2021-08-18T16:40:35Z</time>
      </trkpt>
      <trkpt lat="47.32463" lon="6.00079">
        <ele>237.6</ele>
        <time>2021-08-18T16:40:38Z</time>
      </trkpt>
      <trkpt lat="47.32464" lon="6.00086">
        <ele>237.6</ele>
        <time>2021-08-18T16:40:41Z</time>
      </trkpt>
      <trkpt lat="47.32466" lon="6.00093">
        <ele>238</ele>
        <time>2021-08-18T16:40:44Z</time>
      </trkpt>
      <trkpt lat="47.32468" lon="6.001">
        <ele>238.4</ele>
        <time>2021-08-18T16:40:48Z</time>
      </trkpt>
      <trkpt lat="47.32472" lon="6.00106">
        <ele>238.9</ele>
        <time>2021-08-18T16:40:51Z</time>
      </trkpt>
      <trkpt lat="47.32475" lon="6.00111">
        <ele>239.4</ele>
        <time>2021-08-18T16:40:54Z</time>
      </trkpt>
      <trkpt lat="47.32478" lon="6.00116">
        <ele>239.9</ele>
        <time>2021-08-18T16:40:57Z</time>
      </trkpt>
      <trkpt lat="47.3248" lon="6.00122">
        <ele>240.2</ele>
        <time>2021-08-18T16:41:00Z</time>
      </trkpt>
      <trkpt lat="47.32483" lon="6.00128">
        <ele>240.8</ele>
        <time>2021-08-18T16:41:03Z</time>
      </trkpt>
      <trkpt lat="47.32485" lon="6.00135">
        <ele>241.2</ele>
        <time>2021-08-18T16:41:07Z</time>
      </trkpt>
      <trkpt lat="47.32488" lon="6.00142">
        <ele>241.8</ele>
        <time>2021-08-18T16:41:11Z</time>
      </trkpt>
      <trkpt lat="47.32491" lon="6.00149">
        <ele>242.3</ele>
        <time>2021-08-18T16:41:15Z</time>
      </trkpt>
      <trkpt lat="47.32491" lon="6.00156">
        <ele>242.6</ele>
        <time>2021-08-18T16:41:20Z</time>
      </trkpt>
      <trkpt lat="47.32493" lon="6.00164">
        <ele>243.1</ele>
        <time>2021-08-18T16:41:25Z</time>
      </trkpt>
      <trkpt lat="47.32496" lon="6.00171">
        <ele>243.4</ele>
        <time>2021-08-18T16:41:29Z</time>
      </trkpt>
      <trkpt lat="47.32499" lon="6.00176">
        <ele>243.5</ele>
        <time>2021-08-18T16:41:32Z</time>
      </trkpt>
      <trkpt lat="47.32501" lon="6.00182">
        <ele>243.5</ele>
        <time>2021-08-18T16:41:35Z</time>
      </trkpt>
      <trkpt lat="47.32504" lon="6.00188">
        <ele>243.4</ele>
        <time>2021-08-18T16:41:38Z</time>
      </trkpt>
      <trkpt lat="47.32507" lon="6.00194">
        <ele>243.3</ele>
        <time>2021-08-18T16:41:41Z</time>
      </trkpt>
      <trkpt lat="47.3251" lon="6.00201">
        <ele>243.3</ele>
        <time>2021-08-18T16:41:44Z</time>
      </trkpt>
      <trkpt lat="47.32513" lon="6.00208">
        <ele>243.3</ele>
        <time>2021-08-18T16:41:48Z</time>
      </trkpt>
      <trkpt lat="47.32516" lon="6.00213">
        <ele>243.4</ele>
        <time>2021-08-18T16:41:51Z</time>
      </trkpt>
      <trkpt lat="47.3252" lon="6.00217">
        <ele>243.5</ele>
        <time>2021-08-18T16:41:55Z</time>
      </trkpt>
      <trkpt lat="47.32522" lon="6.00225">
        <ele>243.5</ele>
        <time>2021-08-18T16:41:59Z</time>
      </trkpt>
      <trkpt lat="47.32524" lon="6.00232">
        <ele>243.6</ele>
        <time>2021-08-18T16:42:02Z</time>
      </trkpt>
      <trkpt lat="47.32526" lon="6.00238">
        <ele>243.7</ele>
        <time>2021-08-18T16:42:05Z</time>
      </trkpt>
      <trkpt lat="47.32528" lon="6.00244">
        <ele>243.8</ele>
        <time>2021-08-18T16:42:08Z</time>
      </trkpt>
      <trkpt lat="47.32531" lon="6.00252">
        <ele>243.8</ele>
        <time>2021-08-18T16:42:12Z</time>
      </trkpt>
      <trkpt lat="47.32533" lon="6.0026">
        <ele>243.5</ele>
        <time>2021-08-18T16:42:16Z</time>
      </trkpt>
      <trkpt lat="47.32534" lon="6.00267">
        <ele>243.2</ele>
        <time>2021-08-18T16:42:19Z</time>
      </trkpt>
      <trkpt lat="47.32535" lon="6.00275">
        <ele>242.8</ele>
        <time>2021-08-18T16:42:23Z</time>
      </trkpt>
      <trkpt lat="47.32539" lon="6.00282">
        <ele>242.8</ele>
        <time>2021-08-18T16:42:27Z</time>
      </trkpt>
      <trkpt lat="47.32541" lon="6.00289">
        <ele>242.6</ele>
        <time>2021-08-18T16:42:31Z</time>
      </trkpt>
      <trkpt lat="47.32545" lon="6.00296">
        <ele>242.6</ele>
        <time>2021-08-18T16:42:35Z</time>
      </trkpt>
      <trkpt lat="47.32547" lon="6.00302">
        <ele>242.5</ele>
        <time>2021-08-18T16:42:39Z</time>
      </trkpt>
      <trkpt lat="47.32551" lon="6.0031">
        <ele>242.5</ele>
        <time>2021-08-18T16:42:43Z</time>
      </trkpt>
      <trkpt lat="47.32554" lon="6.00317">
        <ele>242.4</ele>
        <time>2021-08-18T16:42:47Z</time>
      </trkpt>
      <trkpt lat="47.32557" lon="6.00322">
        <ele>242.5</ele>
        <time>2021-08-18T16:42:51Z</time>
      </trkpt>
      <trkpt lat="47.32558" lon="6.00329">
        <ele>242.2</ele>
        <time>2021-08-18T16:42:55Z</time>
      </trkpt>
      <trkpt lat="47.32562" lon="6.00336">
        <ele>242.4</ele>
        <time>2021-08-18T16:42:59Z</time>
      </trkpt>
      <trkpt lat="47.32565" lon="6.00342">
        <ele>242.8</ele>
        <time>2021-08-18T16:43:03Z</time>
      </trkpt>
      <trkpt lat="47.32568" lon="6.00349">
        <ele>243.1</ele>
        <time>2021-08-18T16:43:07Z</time>
      </trkpt>
      <trkpt lat="47.32571" lon="6.00355">
        <ele>243.4</ele>
        <time>2021-08-18T16:43:11Z</time>
      </trkpt>
      <trkpt lat="47.32574" lon="6.00363">
        <ele>243.6</ele>
        <time>2021-08-18T16:43:15Z</time>
      </trkpt>
      <trkpt lat="47.32576" lon="6.00369">
        <ele>243.8</ele>
        <time>2021-08-18T16:43:18Z</time>
      </trkpt>
      <trkpt lat="47.32579" lon="6.00376">
        <ele>244</ele>
        <time>2021-08-18T16:43:22Z</time>
      </trkpt>
      <trkpt lat="47.32581" lon="6.00384">
        <ele>244.2</ele>
        <time>2021-08-18T16:43:26Z</time>
      </trkpt>
      <trkpt lat="47.32585" lon="6.00391">
        <ele>244.4</ele>
        <time>2021-08-18T16:43:30Z</time>
      </trkpt>
      <trkpt lat="47.32589" lon="6.00397">
        <ele>244.7</ele>
        <time>2021-08-18T16:43:34Z</time>
      </trkpt>
      <trkpt lat="47.32592" lon="6.00404">
        <ele>244.8</ele>
        <time>2021-08-18T16:43:38Z</time>
      </trkpt>
      <trkpt lat="47.32593" lon="6.00411">
        <ele>244.8</ele>
        <time>2021-08-18T16:43:41Z</time>
      </trkpt>
      <trkpt lat="47.32595" lon="6.00417">
        <ele>244.8</ele>
        <time>2021-08-18T16:43:44Z</time>
      </trkpt>
      <trkpt lat="47.32598" lon="6.00423">
        <ele>244.5</ele>
        <time>2021-08-18T16:43:47Z</time>
      </trkpt>
      <trkpt lat="47.32601" lon="6.00428">
        <ele>244.2</ele>
        <time>2021-08-18T16:43:50Z</time>
      </trkpt>
      <trkpt lat="47.32603" lon="6.00436">
        <ele>243.7</ele>
        <time>2021-08-18T16:43:54Z</time>
      </trkpt>
      <trkpt lat="47.32606" lon="6.00443">
        <ele>243.3</ele>
        <time>2021-08-18T16:43:58Z</time>
      </trkpt>
      <trkpt lat="47.32608" lon="6.0045">
        <ele>242.8</ele>
        <time>2021-08-18T16:44:02Z</time>
      </trkpt>
      <trkpt lat="47.32611" lon="6.00457">
        <ele>242.4</ele>
        <time>2021-08-18T16:44:06Z</time>
      </trkpt>
      <trkpt lat="47.32613" lon="6.00464">
        <ele>242</ele>
        <time>2021-08-18T16:44:10Z</time>
      </trkpt>
      <trkpt lat="47.32615" lon="6.00471">
        <ele>241.6</ele>
        <time>2021-08-18T16:44:13Z</time>
      </trkpt>
      <trkpt lat="47.32616" lon="6.00478">
        <ele>241</ele>
        <time>2021-08-18T16:44:16Z</time>
      </trkpt>
      <trkpt lat="47.32619" lon="6.00483">
        <ele>240.9</ele>
        <time>2021-08-18T16:44:19Z</time>
      </trkpt>
      <trkpt lat="47.32621" lon="6.00489">
        <ele>240.6</ele>
        <time>2021-08-18T16:44:23Z</time>
      </trkpt>
      <trkpt lat="47.32625" lon="6.00496">
        <ele>240.3</ele>
        <time>2021-08-18T16:44:27Z</time>
      </trkpt>
      <trkpt lat="47.32628" lon="6.005">
        <ele>240.3</ele>
        <time>2021-08-18T16:44:30Z</time>
      </trkpt>
      <trkpt lat="47.32632" lon="6.00506">
        <ele>240.3</ele>
        <time>2021-08-18T16:44:34Z</time>
      </trkpt>
      <trkpt lat="47.32635" lon="6.00512">
        <ele>240.2</ele>
        <time>2021-08-18T16:44:38Z</time>
      </trkpt>
      <trkpt lat="47.32639" lon="6.00524">
        <ele>239.7</ele>
        <time>2021-08-18T16:44:44Z</time>
      </trkpt>
      <trkpt lat="47.32641" lon="6.00531">
        <ele>239.4</ele>
        <time>2021-08-18T16:44:47Z</time>
      </trkpt>
      <trkpt lat="47.32644" lon="6.00539">
        <ele>239</ele>
        <time>2021-08-18T16:44:51Z</time>
      </trkpt>
      <trkpt lat="47.32645" lon="6.00547">
        <ele>238.4</ele>
        <time>2021-08-18T16:44:54Z</time>
      </trkpt>
      <trkpt lat="47.32648" lon="6.00554">
        <ele>238</ele>
        <time>2021-08-18T16:44:57Z</time>
      </trkpt>
      <trkpt lat="47.32651" lon="6.0056">
        <ele>237.7</ele>
        <time>2021-08-18T16:45:00Z</time>
      </trkpt>
      <trkpt lat="47.32653" lon="6.00566">
        <ele>237.3</ele>
        <time>2021-08-18T16:45:03Z</time>
      </trkpt>
      <trkpt lat="47.32657" lon="6.00573">
        <ele>236.8</ele>
        <time>2021-08-18T16:45:07Z</time>
      </trkpt>
      <trkpt lat="47.3266" lon="6.00578">
        <ele>236.4</ele>
        <time>2021-08-18T16:45:11Z</time>
      </trkpt>
      <trkpt lat="47.32664" lon="6.00582">
        <ele>236.1</ele>
        <time>2021-08-18T16:45:15Z</time>
      </trkpt>
      <trkpt lat="47.32668" lon="6.00585">
        <ele>236</ele>
        <time>2021-08-18T16:45:18Z</time>
      </trkpt>
      <trkpt lat="47.32673" lon="6.00589">
        <ele>236.1</ele>
        <time>2021-08-18T16:45:22Z</time>
      </trkpt>
      <trkpt lat="47.32677" lon="6.00593">
        <ele>236.2</ele>
        <time>2021-08-18T16:45:26Z</time>
      </trkpt>
      <trkpt lat="47.32681" lon="6.00599">
        <ele>236.2</ele>
        <time>2021-08-18T16:45:30Z</time>
      </trkpt>
      <trkpt lat="47.32685" lon="6.00603">
        <ele>236.2</ele>
        <time>2021-08-18T16:45:34Z</time>
      </trkpt>
      <trkpt lat="47.32689" lon="6.00605">
        <ele>236.4</ele>
        <time>2021-08-18T16:45:38Z</time>
      </trkpt>
      <trkpt lat="47.32693" lon="6.0061">
        <ele>236.4</ele>
        <time>2021-08-18T16:45:42Z</time>
      </trkpt>
      <trkpt lat="47.32697" lon="6.00615">
        <ele>236.5</ele>
        <time>2021-08-18T16:45:46Z</time>
      </trkpt>
      <trkpt lat="47.32702" lon="6.0062">
        <ele>236.6</ele>
        <time>2021-08-18T16:45:50Z</time>
      </trkpt>
      <trkpt lat="47.32705" lon="6.00626">
        <ele>236.6</ele>
        <time>2021-08-18T16:45:54Z</time>
      </trkpt>
      <trkpt lat="47.32707" lon="6.00632">
        <ele>236.6</ele>
        <time>2021-08-18T16:45:57Z</time>
      </trkpt>
      <trkpt lat="47.32711" lon="6.00638">
        <ele>236.6</ele>
        <time>2021-08-18T16:46:01Z</time>
      </trkpt>
      <trkpt lat="47.32716" lon="6.00644">
        <ele>236.8</ele>
        <time>2021-08-18T16:46:05Z</time>
      </trkpt>
      <trkpt lat="47.3272" lon="6.0065">
        <ele>236.8</ele>
        <time>2021-08-18T16:46:09Z</time>
      </trkpt>
      <trkpt lat="47.32724" lon="6.00656">
        <ele>236.9</ele>
        <time>2021-08-18T16:46:13Z</time>
      </trkpt>
      <trkpt lat="47.32728" lon="6.00661">
        <ele>237</ele>
        <time>2021-08-18T16:46:17Z</time>
      </trkpt>
      <trkpt lat="47.32732" lon="6.00666">
        <ele>237.1</ele>
        <time>2021-08-18T16:46:20Z</time>
      </trkpt>
      <trkpt lat="47.32735" lon="6.00671">
        <ele>237.2</ele>
        <time>2021-08-18T16:46:24Z</time>
      </trkpt>
      <trkpt lat="47.32739" lon="6.00677">
        <ele>237.2</ele>
        <time>2021-08-18T16:46:28Z</time>
      </trkpt>
      <trkpt lat="47.32742" lon="6.00683">
        <ele>237.1</ele>
        <time>2021-08-18T16:46:31Z</time>
      </trkpt>
      <trkpt lat="47.32745" lon="6.0069">
        <ele>237</ele>
        <time>2021-08-18T16:46:34Z</time>
      </trkpt>
      <trkpt lat="47.32748" lon="6.00696">
        <ele>236.9</ele>
        <time>2021-08-18T16:46:37Z</time>
      </trkpt>
      <trkpt lat="47.3275" lon="6.00704">
        <ele>236.7</ele>
        <time>2021-08-18T16:46:41Z</time>
      </trkpt>
      <trkpt lat="47.32753" lon="6.00709">
        <ele>236.7</ele>
        <time>2021-08-18T16:46:45Z</time>
      </trkpt>
      <trkpt lat="47.32756" lon="6.00715">
        <ele>236.7</ele>
        <time>2021-08-18T16:46:49Z</time>
      </trkpt>
      <trkpt lat="47.32761" lon="6.0072">
        <ele>236.8</ele>
        <time>2021-08-18T16:46:53Z</time>
      </trkpt>
      <trkpt lat="47.32764" lon="6.00726">
        <ele>236.8</ele>
        <time>2021-08-18T16:46:57Z</time>
      </trkpt>
      <trkpt lat="47.32766" lon="6.00733">
        <ele>236.6</ele>
        <time>2021-08-18T16:47:01Z</time>
      </trkpt>
      <trkpt lat="47.3277" lon="6.00738">
        <ele>236.7</ele>
        <time>2021-08-18T16:47:04Z</time>
      </trkpt>
      <trkpt lat="47.32773" lon="6.00743">
        <ele>236.7</ele>
        <time>2021-08-18T16:47:09Z</time>
      </trkpt>
      <trkpt lat="47.32778" lon="6.00746">
        <ele>236.8</ele>
        <time>2021-08-18T16:47:14Z</time>
      </trkpt>
      <trkpt lat="47.32782" lon="6.00751">
        <ele>236.9</ele>
        <time>2021-08-18T16:47:18Z</time>
      </trkpt>
      <trkpt lat="47.32785" lon="6.00759">
        <ele>236.8</ele>
        <time>2021-08-18T16:47:22Z</time>
      </trkpt>
      <trkpt lat="47.32785" lon="6.00766">
        <ele>236.5</ele>
        <time>2021-08-18T16:47:25Z</time>
      </trkpt>
      <trkpt lat="47.32785" lon="6.00774">
        <ele>236.2</ele>
        <time>2021-08-18T16:47:29Z</time>
      </trkpt>
      <trkpt lat="47.32789" lon="6.0078">
        <ele>236.1</ele>
        <time>2021-08-18T16:47:33Z</time>
      </trkpt>
      <trkpt lat="47.32792" lon="6.00787">
        <ele>236</ele>
        <time>2021-08-18T16:47:37Z</time>
      </trkpt>
      <trkpt lat="47.32793" lon="6.00794">
        <ele>235.7</ele>
        <time>2021-08-18T16:47:41Z</time>
      </trkpt>
      <trkpt lat="47.32793" lon="6.00802">
        <ele>235.3</ele>
        <time>2021-08-18T16:47:45Z</time>
      </trkpt>
      <trkpt lat="47.32793" lon="6.00809">
        <ele>235</ele>
        <time>2021-08-18T16:47:49Z</time>
      </trkpt>
      <trkpt lat="47.32792" lon="6.00815">
        <ele>234.8</ele>
        <time>2021-08-18T16:47:53Z</time>
      </trkpt>
      <trkpt lat="47.32787" lon="6.00821">
        <ele>234.5</ele>
        <time>2021-08-18T16:47:57Z</time>
      </trkpt>
      <trkpt lat="47.32784" lon="6.00825">
        <ele>234.3</ele>
        <time>2021-08-18T16:48:00Z</time>
      </trkpt>
      <trkpt lat="47.32781" lon="6.00832">
        <ele>234</ele>
        <time>2021-08-18T16:48:03Z</time>
      </trkpt>
      <trkpt lat="47.32779" lon="6.00839">
        <ele>233.9</ele>
        <time>2021-08-18T16:48:06Z</time>
      </trkpt>
      <trkpt lat="47.32776" lon="6.00844">
        <ele>233.9</ele>
        <time>2021-08-18T16:48:09Z</time>
      </trkpt>
      <trkpt lat="47.3277" lon="6.00847">
        <ele>233.9</ele>
        <time>2021-08-18T16:48:13Z</time>
      </trkpt>
      <trkpt lat="47.32765" lon="6.00848">
        <ele>233.9</ele>
        <time>2021-08-18T16:48:17Z</time>
      </trkpt>
      <trkpt lat="47.32761" lon="6.00852">
        <ele>233.9</ele>
        <time>2021-08-18T16:48:21Z</time>
      </trkpt>
      <trkpt lat="47.32757" lon="6.00857">
        <ele>233.9</ele>
        <time>2021-08-18T16:48:25Z</time>
      </trkpt>
      <trkpt lat="47.32753" lon="6.00862">
        <ele>234</ele>
        <time>2021-08-18T16:48:29Z</time>
      </trkpt>
      <trkpt lat="47.32748" lon="6.00865">
        <ele>234</ele>
        <time>2021-08-18T16:48:33Z</time>
      </trkpt>
      <trkpt lat="47.32745" lon="6.00872">
        <ele>233.9</ele>
        <time>2021-08-18T16:48:37Z</time>
      </trkpt>
      <trkpt lat="47.32743" lon="6.00878">
        <ele>233.8</ele>
        <time>2021-08-18T16:48:41Z</time>
      </trkpt>
      <trkpt lat="47.32739" lon="6.00883">
        <ele>233.7</ele>
        <time>2021-08-18T16:48:45Z</time>
      </trkpt>
      <trkpt lat="47.32735" lon="6.00889">
        <ele>233.6</ele>
        <time>2021-08-18T16:48:49Z</time>
      </trkpt>
      <trkpt lat="47.32735" lon="6.00898">
        <ele>233.5</ele>
        <time>2021-08-18T16:48:53Z</time>
      </trkpt>
      <trkpt lat="47.32735" lon="6.00905">
        <ele>233.5</ele>
        <time>2021-08-18T16:48:56Z</time>
      </trkpt>
      <trkpt lat="47.32734" lon="6.00912">
        <ele>233.4</ele>
        <time>2021-08-18T16:49:00Z</time>
      </trkpt>
      <trkpt lat="47.32734" lon="6.0092">
        <ele>233.3</ele>
        <time>2021-08-18T16:49:04Z</time>
      </trkpt>
      <trkpt lat="47.32734" lon="6.00927">
        <ele>233</ele>
        <time>2021-08-18T16:49:08Z</time>
      </trkpt>
      <trkpt lat="47.32734" lon="6.00936">
        <ele>232.6</ele>
        <time>2021-08-18T16:49:12Z</time>
      </trkpt>
      <trkpt lat="47.32732" lon="6.00944">
        <ele>232.2</ele>
        <time>2021-08-18T16:49:16Z</time>
      </trkpt>
      <trkpt lat="47.32731" lon="6.0095">
        <ele>231.9</ele>
        <time>2021-08-18T16:49:19Z</time>
      </trkpt>
      <trkpt lat="47.32731" lon="6.00957">
        <ele>231.6</ele>
        <time>2021-08-18T16:49:22Z</time>
      </trkpt>
      <trkpt lat="47.32731" lon="6.00965">
        <ele>231.3</ele>
        <time>2021-08-18T16:49:26Z</time>
      </trkpt>
      <trkpt lat="47.32732" lon="6.00973">
        <ele>230.9</ele>
        <time>2021-08-18T16:49:30Z</time>
      </trkpt>
      <trkpt lat="47.32732" lon="6.0098">
        <ele>230.6</ele>
        <time>2021-08-18T16:49:34Z</time>
      </trkpt>
      <trkpt lat="47.32731" lon="6.00988">
        <ele>230.3</ele>
        <time>2021-08-18T16:49:38Z</time>
      </trkpt>
      <trkpt lat="47.32731" lon="6.00996">
        <ele>229.9</ele>
        <time>2021-08-18T16:49:42Z</time>
      </trkpt>
      <trkpt lat="47.3273" lon="6.01003">
        <ele>229.7</ele>
        <time>2021-08-18T16:49:45Z</time>
      </trkpt>
      <trkpt lat="47.32729" lon="6.0101">
        <ele>229.5</ele>
        <time>2021-08-18T16:49:49Z</time>
      </trkpt>
      <trkpt lat="47.32733" lon="6.01016">
        <ele>229.5</ele>
        <time>2021-08-18T16:49:53Z</time>
      </trkpt>
      <trkpt lat="47.32737" lon="6.01021">
        <ele>229.4</ele>
        <time>2021-08-18T16:49:57Z</time>
      </trkpt>
      <trkpt lat="47.3274" lon="6.01027">
        <ele>229.3</ele>
        <time>2021-08-18T16:50:01Z</time>
      </trkpt>
      <trkpt lat="47.32742" lon="6.01034">
        <ele>229.1</ele>
        <time>2021-08-18T16:50:05Z</time>
      </trkpt>
      <trkpt lat="47.32745" lon="6.01041">
        <ele>229</ele>
        <time>2021-08-18T16:50:09Z</time>
      </trkpt>
      <trkpt lat="47.3275" lon="6.01046">
        <ele>228.9</ele>
        <time>2021-08-18T16:50:13Z</time>
      </trkpt>
      <trkpt lat="47.32754" lon="6.01049">
        <ele>228.8</ele>
        <time>2021-08-18T16:50:17Z</time>
      </trkpt>
      <trkpt lat="47.32758" lon="6.01054">
        <ele>228.7</ele>
        <time>2021-08-18T16:50:21Z</time>
      </trkpt>
      <trkpt lat="47.32763" lon="6.01058">
        <ele>228.6</ele>
        <time>2021-08-18T16:50:25Z</time>
      </trkpt>
      <trkpt lat="47.32766" lon="6.01065">
        <ele>228.4</ele>
        <time>2021-08-18T16:50:29Z</time>
      </trkpt>
      <trkpt lat="47.32766" lon="6.01072">
        <ele>228.2</ele>
        <time>2021-08-18T16:50:33Z</time>
      </trkpt>
      <trkpt lat="47.32766" lon="6.01079">
        <ele>228.1</ele>
        <time>2021-08-18T16:50:37Z</time>
      </trkpt>
      <trkpt lat="47.32768" lon="6.01086">
        <ele>227.9</ele>
        <time>2021-08-18T16:50:41Z</time>
      </trkpt>
      <trkpt lat="47.32769" lon="6.01093">
        <ele>227.8</ele>
        <time>2021-08-18T16:50:45Z</time>
      </trkpt>
      <trkpt lat="47.32769" lon="6.01101">
        <ele>227.6</ele>
        <time>2021-08-18T16:50:49Z</time>
      </trkpt>
      <trkpt lat="47.32771" lon="6.01107">
        <ele>227.5</ele>
        <time>2021-08-18T16:50:53Z</time>
      </trkpt>
      <trkpt lat="47.32772" lon="6.01114">
        <ele>227.4</ele>
        <time>2021-08-18T16:51:31Z</time>
      </trkpt>
      <trkpt lat="47.32776" lon="6.01119">
        <ele>227.3</ele>
        <time>2021-08-18T16:51:47Z</time>
      </trkpt>
      <trkpt lat="47.3278" lon="6.01122">
        <ele>227.2</ele>
        <time>2021-08-18T16:51:53Z</time>
      </trkpt>
      <trkpt lat="47.32784" lon="6.01125">
        <ele>227.2</ele>
        <time>2021-08-18T16:51:58Z</time>
      </trkpt>
      <trkpt lat="47.32789" lon="6.01122">
        <ele>227.3</ele>
        <time>2021-08-18T16:52:11Z</time>
      </trkpt>
      <trkpt lat="47.32791" lon="6.0113">
        <ele>227.2</ele>
        <time>2021-08-18T16:52:17Z</time>
      </trkpt>
      <trkpt lat="47.32794" lon="6.01136">
        <ele>227.1</ele>
        <time>2021-08-18T16:52:19Z</time>
      </trkpt>
      <trkpt lat="47.32793" lon="6.01133">
        <ele>227.1</ele>
        <time>2021-08-18T16:52:36Z</time>
      </trkpt>
    </trkseg>
  </trk>
</gpx>